Wetterdaten: Sonntag, 20.05.2018
Datum Zeit Temp. A. Pool Temp. Feuchte A. Luftdruck Regen Wind Richtung Richtung Sonnenschein ET UV Solar Taupunkt Windchill Windben Empfang
20.05.2018 00:00 14,1 C 18,3 C 82 % 1018,0 hPa 0,0 l/m 10,4 km/h (2 Bft) O 80 0 min 0,000 mm 0,0 UV-I 0 W/m 11,1 C 11,9 C 12,9 km/h (3 Bft) 100,00 %
20.05.2018 00:02 14,2 C 18,3 C 82 % 1018,0 hPa 0,0 l/m 7,6 km/h (2 Bft) O 90 0 min 0,000 mm 0,0 UV-I 0 W/m 11,2 C 13,5 C 12,9 km/h (3 Bft) 90,91 %
20.05.2018 00:03 14,2 C 18,3 C 81 % 1018,0 hPa 0,0 l/m 9,1 km/h (2 Bft) O-NO 61 0 min 0,000 mm 0,0 UV-I 0 W/m 11,0 C 12,7 C 14,5 km/h (3 Bft) 88,24 %
20.05.2018 00:04 14,2 C 18,3 C 81 % 1018,0 hPa 0,0 l/m 9,4 km/h (2 Bft) O-NO 76 0 min 0,000 mm 0,0 UV-I 0 W/m 11,0 C 12,5 C 12,9 km/h (3 Bft) 100,00 %
20.05.2018 00:05 14,2 C 18,3 C 82 % 1018,0 hPa 0,0 l/m 10,7 km/h (2 Bft) O 79 0 min 0,000 mm 0,0 UV-I 0 W/m 11,2 C 11,9 C 16,1 km/h (3 Bft) 92,31 %
20.05.2018 00:06 14,1 C 18,3 C 82 % 1018,0 hPa 0,0 l/m 8,1 km/h (2 Bft) O 88 0 min 0,000 mm 0,0 UV-I 0 W/m 11,1 C 13,1 C 14,5 km/h (3 Bft) 100,00 %
20.05.2018 00:07 14,1 C 18,3 C 82 % 1018,0 hPa 0,0 l/m 8,4 km/h (2 Bft) O-NO 65 0 min 0,000 mm 0,0 UV-I 0 W/m 11,1 C 12,9 C 12,9 km/h (3 Bft) 93,10 %
20.05.2018 00:08 14,1 C 18,3 C 82 % 1018,0 hPa 0,0 l/m 9,0 km/h (2 Bft) O-NO 65 0 min 0,000 mm 0,0 UV-I 0 W/m 11,1 C 12,6 C 14,5 km/h (3 Bft) 92,59 %
20.05.2018 00:09 14,1 C 18,3 C 82 % 1018,0 hPa 0,0 l/m 9,2 km/h (2 Bft) O 82 0 min 0,000 mm 0,0 UV-I 0 W/m 11,1 C 12,5 C 12,9 km/h (3 Bft) 100,00 %
20.05.2018 00:10 14,1 C 18,3 C 82 % 1018,0 hPa 0,0 l/m 7,5 km/h (2 Bft) O 88 0 min 0,000 mm 0,0 UV-I 0 W/m 11,1 C 13,4 C 12,9 km/h (3 Bft) 92,59 %
20.05.2018 00:11 14,1 C 18,3 C 82 % 1018,0 hPa 0,0 l/m 8,5 km/h (2 Bft) O-NO 74 0 min 0,000 mm 0,0 UV-I 0 W/m 11,1 C 12,9 C 11,3 km/h (2 Bft) 100,00 %
20.05.2018 00:12 14,1 C 18,3 C 82 % 1018,1 hPa 0,0 l/m 8,0 km/h (2 Bft) NO 48 0 min 0,000 mm 0,0 UV-I 0 W/m 11,1 C 13,2 C 12,9 km/h (3 Bft) 91,67 %
20.05.2018 00:13 14,1 C 18,3 C 82 % 1018,0 hPa 0,0 l/m 6,1 km/h (2 Bft) O 81 0 min 0,000 mm 0,0 UV-I 0 W/m 11,1 C 14,1 C 8,0 km/h (2 Bft) 100,00 %
20.05.2018 00:14 14,1 C 18,3 C 82 % 1018,1 hPa 0,0 l/m 6,3 km/h (2 Bft) O-NO 75 0 min 0,000 mm 0,0 UV-I 0 W/m 11,1 C 14,1 C 8,0 km/h (2 Bft) 96,15 %
20.05.2018 00:15 14,1 C 18,3 C 82 % 1018,2 hPa 0,0 l/m 4,7 km/h (1 Bft) O-NO 63 0 min 0,000 mm 0,0 UV-I 0 W/m 11,1 C 14,1 C 8,0 km/h (2 Bft) 100,00 %
20.05.2018 00:16 14,1 C 18,3 C 82 % 1018,2 hPa 0,0 l/m 5,4 km/h (1 Bft) O-NO 74 0 min 0,000 mm 0,0 UV-I 0 W/m 11,1 C 14,1 C 11,3 km/h (2 Bft) 91,30 %
20.05.2018 00:17 14,1 C 18,3 C 82 % 1018,2 hPa 0,0 l/m 6,4 km/h (2 Bft) O-NO 74 0 min 0,000 mm 0,0 UV-I 0 W/m 11,1 C 14,1 C 9,7 km/h (2 Bft) 92,59 %
20.05.2018 00:18 14,1 C 18,3 C 82 % 1018,2 hPa 0,0 l/m 7,5 km/h (2 Bft) O-NO 59 0 min 0,000 mm 0,0 UV-I 0 W/m 11,1 C 13,4 C 12,9 km/h (3 Bft) 100,00 %
20.05.2018 00:19 14,0 C 18,3 C 83 % 1018,1 hPa 0,0 l/m 5,2 km/h (1 Bft) O-NO 71 0 min 0,000 mm 0,0 UV-I 0 W/m 11,2 C 14,0 C 8,0 km/h (2 Bft) 96,30 %
20.05.2018 00:20 14,0 C 18,3 C 83 % 1018,1 hPa 0,0 l/m 4,9 km/h (1 Bft) NO 51 0 min 0,000 mm 0,0 UV-I 0 W/m 11,2 C 14,0 C 6,4 km/h (2 Bft) 96,15 %
20.05.2018 00:21 13,9 C 18,3 C 83 % 1018,1 hPa 0,0 l/m 6,4 km/h (2 Bft) O-NO 61 0 min 0,000 mm 0,0 UV-I 0 W/m 11,1 C 13,9 C 8,0 km/h (2 Bft) 92,59 %
20.05.2018 00:22 13,9 C 18,3 C 83 % 1018,1 hPa 0,0 l/m 9,3 km/h (2 Bft) O-NO 66 0 min 0,000 mm 0,0 UV-I 0 W/m 11,1 C 12,2 C 14,5 km/h (3 Bft) 100,00 %
20.05.2018 00:23 13,9 C 18,3 C 83 % 1018,1 hPa 0,0 l/m 6,0 km/h (2 Bft) NO 49 0 min 0,000 mm 0,0 UV-I 0 W/m 11,1 C 13,9 C 8,0 km/h (2 Bft) 86,67 %
20.05.2018 00:24 13,9 C 18,3 C 83 % 1018,1 hPa 0,0 l/m 7,0 km/h (2 Bft) O-NO 63 0 min 0,000 mm 0,0 UV-I 0 W/m 11,1 C 13,5 C 9,7 km/h (2 Bft) 95,65 %
20.05.2018 00:25 13,9 C 18,3 C 83 % 1018,1 hPa 0,0 l/m 7,5 km/h (2 Bft) NO 46 0 min 0,000 mm 0,0 UV-I 0 W/m 11,1 C 13,2 C 14,5 km/h (3 Bft) 93,33 %
20.05.2018 00:26 13,9 C 18,3 C 83 % 1018,1 hPa 0,0 l/m 9,5 km/h (2 Bft) NO 37 0 min 0,000 mm 0,0 UV-I 0 W/m 11,1 C 12,1 C 12,9 km/h (3 Bft) 95,65 %
20.05.2018 00:27 13,8 C 18,3 C 83 % 1018,1 hPa 0,0 l/m 7,3 km/h (2 Bft) O-NO 61 0 min 0,000 mm 0,0 UV-I 0 W/m 11,0 C 13,3 C 9,7 km/h (2 Bft) 96,30 %
20.05.2018 00:28 13,8 C 18,3 C 83 % 1018,1 hPa 0,0 l/m 10,7 km/h (2 Bft) NO 34 0 min 0,000 mm 0,0 UV-I 0 W/m 11,0 C 11,5 C 14,5 km/h (3 Bft) 94,94 %
20.05.2018 00:29 13,8 C 18,3 C 83 % 1018,1 hPa 0,0 l/m 9,0 km/h (2 Bft) NO 34 0 min 0,000 mm 0,0 UV-I 0 W/m 11,0 C 12,3 C 14,5 km/h (3 Bft) 95,12 %
20.05.2018 00:30 13,8 C 18,3 C 83 % 1018,2 hPa 0,0 l/m 7,4 km/h (2 Bft) NO 35 0 min 0,000 mm 0,0 UV-I 0 W/m 11,0 C 13,2 C 11,3 km/h (2 Bft) 92,31 %
20.05.2018 00:31 13,8 C 18,3 C 83 % 1018,2 hPa 0,0 l/m 7,7 km/h (2 Bft) NO 45 0 min 0,000 mm 0,0 UV-I 0 W/m 11,0 C 13,0 C 9,7 km/h (2 Bft) 94,85 %
20.05.2018 00:32 13,8 C 18,3 C 83 % 1018,1 hPa 0,0 l/m 7,0 km/h (2 Bft) NO 37 0 min 0,000 mm 0,0 UV-I 0 W/m 11,0 C 13,4 C 8,0 km/h (2 Bft) 97,62 %
20.05.2018 00:33 13,8 C 18,3 C 83 % 1018,2 hPa 0,0 l/m 6,2 km/h (2 Bft) NO 51 0 min 0,000 mm 0,0 UV-I 0 W/m 11,0 C 13,8 C 8,0 km/h (2 Bft) 96,15 %
20.05.2018 00:34 13,8 C 18,3 C 83 % 1018,2 hPa 0,0 l/m 7,4 km/h (2 Bft) NO 40 0 min 0,000 mm 0,0 UV-I 0 W/m 11,0 C 13,2 C 11,3 km/h (2 Bft) 100,00 %
20.05.2018 00:35 13,8 C 18,3 C 84 % 1018,2 hPa 0,0 l/m 6,4 km/h (2 Bft) O-NO 69 0 min 0,000 mm 0,0 UV-I 0 W/m 11,1 C 13,8 C 11,3 km/h (2 Bft) 100,00 %
20.05.2018 00:36 13,8 C 18,3 C 84 % 1018,2 hPa 0,0 l/m 8,2 km/h (2 Bft) O 82 0 min 0,000 mm 0,0 UV-I 0 W/m 11,1 C 12,7 C 12,9 km/h (3 Bft) 100,00 %
20.05.2018 00:37 13,8 C 18,3 C 84 % 1018,2 hPa 0,0 l/m 6,6 km/h (2 Bft) NO 53 0 min 0,000 mm 0,0 UV-I 0 W/m 11,1 C 13,7 C 9,7 km/h (2 Bft) 91,30 %
20.05.2018 00:38 13,8 C 17,8 C 84 % 1018,2 hPa 0,0 l/m 4,6 km/h (1 Bft) NO 49 0 min 0,000 mm 0,0 UV-I 0 W/m 11,1 C 13,8 C 8,0 km/h (2 Bft) 95,83 %
20.05.2018 00:39 13,8 C 17,8 C 84 % 1018,2 hPa 0,0 l/m 6,9 km/h (2 Bft) NO 42 0 min 0,000 mm 0,0 UV-I 0 W/m 11,1 C 13,5 C 8,0 km/h (2 Bft) 100,00 %
20.05.2018 00:40 13,8 C 17,8 C 84 % 1018,2 hPa 0,0 l/m 7,3 km/h (2 Bft) O 79 0 min 0,000 mm 0,0 UV-I 0 W/m 11,1 C 13,3 C 9,7 km/h (2 Bft) 100,00 %
20.05.2018 00:41 13,8 C 17,8 C 84 % 1018,2 hPa 0,0 l/m 6,2 km/h (2 Bft) NO 50 0 min 0,000 mm 0,0 UV-I 0 W/m 11,1 C 13,8 C 9,7 km/h (2 Bft) 100,00 %
20.05.2018 00:42 13,8 C 17,8 C 84 % 1018,2 hPa 0,0 l/m 7,4 km/h (2 Bft) NO 49 0 min 0,000 mm 0,0 UV-I 0 W/m 11,1 C 13,2 C 9,7 km/h (2 Bft) 100,00 %
20.05.2018 00:43 13,8 C 17,8 C 84 % 1018,2 hPa 0,0 l/m 6,5 km/h (2 Bft) O-NO 63 0 min 0,000 mm 0,0 UV-I 0 W/m 11,1 C 13,8 C 8,0 km/h (2 Bft) 100,00 %
20.05.2018 00:44 13,8 C 17,8 C 84 % 1018,2 hPa 0,0 l/m 7,4 km/h (2 Bft) NO 50 0 min 0,000 mm 0,0 UV-I 0 W/m 11,1 C 13,2 C 11,3 km/h (2 Bft) 100,00 %
20.05.2018 00:45 13,8 C 17,8 C 84 % 1018,2 hPa 0,0 l/m 5,8 km/h (2 Bft) O-NO 64 0 min 0,000 mm 0,0 UV-I 0 W/m 11,1 C 13,8 C 6,4 km/h (2 Bft) 96,15 %
20.05.2018 00:46 13,8 C 17,8 C 84 % 1018,2 hPa 0,0 l/m 5,7 km/h (1 Bft) NO 44 0 min 0,000 mm 0,0 UV-I 0 W/m 11,1 C 13,8 C 6,4 km/h (2 Bft) 96,30 %
20.05.2018 00:47 13,8 C 17,8 C 84 % 1018,2 hPa 0,0 l/m 6,2 km/h (2 Bft) O-NO 61 0 min 0,000 mm 0,0 UV-I 0 W/m 11,1 C 13,8 C 9,7 km/h (2 Bft) 100,00 %
20.05.2018 00:48 13,7 C 17,8 C 84 % 1018,2 hPa 0,0 l/m 5,4 km/h (1 Bft) NO 44 0 min 0,000 mm 0,0 UV-I 0 W/m 11,0 C 13,7 C 6,4 km/h (2 Bft) 96,15 %
20.05.2018 00:49 13,7 C 17,8 C 84 % 1018,2 hPa 0,0 l/m 8,0 km/h (2 Bft) O-NO 65 0 min 0,000 mm 0,0 UV-I 0 W/m 11,0 C 12,7 C 11,3 km/h (2 Bft) 100,00 %
20.05.2018 00:50 13,7 C 17,8 C 84 % 1018,2 hPa 0,0 l/m 5,4 km/h (1 Bft) O-NO 63 0 min 0,000 mm 0,0 UV-I 0 W/m 11,0 C 13,7 C 8,0 km/h (2 Bft) 100,00 %
20.05.2018 00:51 13,6 C 17,8 C 84 % 1018,2 hPa 0,0 l/m 4,9 km/h (1 Bft) NO 42 0 min 0,000 mm 0,0 UV-I 0 W/m 10,9 C 13,6 C 6,4 km/h (2 Bft) 95,83 %
20.05.2018 00:52 13,6 C 17,8 C 84 % 1018,2 hPa 0,0 l/m 7,6 km/h (2 Bft) NO 34 0 min 0,000 mm 0,0 UV-I 0 W/m 10,9 C 12,9 C 9,7 km/h (2 Bft) 96,55 %
20.05.2018 00:53 13,6 C 17,8 C 84 % 1018,2 hPa 0,0 l/m 6,0 km/h (2 Bft) NO 55 0 min 0,000 mm 0,0 UV-I 0 W/m 10,9 C 13,6 C 6,4 km/h (2 Bft) 100,00 %
20.05.2018 00:54 13,6 C 17,8 C 84 % 1018,2 hPa 0,0 l/m 5,4 km/h (1 Bft) NO 53 0 min 0,000 mm 0,0 UV-I 0 W/m 10,9 C 13,6 C 6,4 km/h (2 Bft) 100,00 %
20.05.2018 00:55 13,5 C 17,8 C 85 % 1018,2 hPa 0,0 l/m 5,9 km/h (2 Bft) NO 44 0 min 0,000 mm 0,0 UV-I 0 W/m 11,0 C 13,5 C 8,0 km/h (2 Bft) 91,67 %
20.05.2018 00:56 13,4 C 17,8 C 85 % 1018,2 hPa 0,0 l/m 6,2 km/h (2 Bft) NO 42 0 min 0,000 mm 0,0 UV-I 0 W/m 10,9 C 13,4 C 9,7 km/h (2 Bft) 100,00 %
20.05.2018 00:57 13,4 C 17,8 C 85 % 1018,3 hPa 0,0 l/m 6,6 km/h (2 Bft) O-NO 67 0 min 0,000 mm 0,0 UV-I 0 W/m 10,9 C 13,3 C 8,0 km/h (2 Bft) 100,00 %
20.05.2018 00:58 13,4 C 17,8 C 85 % 1018,2 hPa 0,0 l/m 5,6 km/h (1 Bft) NO 55 0 min 0,000 mm 0,0 UV-I 0 W/m 10,9 C 13,4 C 8,0 km/h (2 Bft) 95,65 %
20.05.2018 00:59 13,3 C 17,8 C 85 % 1018,2 hPa 0,0 l/m 6,0 km/h (2 Bft) NO 55 0 min 0,000 mm 0,0 UV-I 0 W/m 10,8 C 13,3 C 9,7 km/h (2 Bft) 100,00 %
20.05.2018 01:00 13,3 C 18,3 C 85 % 1018,2 hPa 0,0 l/m 7,6 km/h (2 Bft) NO 54 0 min 0,025 mm 0,0 UV-I 0 W/m 10,8 C 12,6 C 12,9 km/h (3 Bft) 100,00 %
20.05.2018 01:02 13,3 C 17,8 C 86 % 1018,2 hPa 0,0 l/m 6,5 km/h (2 Bft) N-NO 28 0 min 0,000 mm 0,0 UV-I 0 W/m 11,0 C 13,3 C 8,0 km/h (2 Bft) 100,00 %
20.05.2018 01:03 13,3 C 17,8 C 86 % 1018,2 hPa 0,0 l/m 6,4 km/h (2 Bft) NO 51 0 min 0,000 mm 0,0 UV-I 0 W/m 11,0 C 13,3 C 8,0 km/h (2 Bft) 100,00 %
20.05.2018 01:04 13,2 C 17,8 C 86 % 1018,2 hPa 0,0 l/m 5,4 km/h (1 Bft) O-NO 64 0 min 0,000 mm 0,0 UV-I 0 W/m 10,9 C 13,2 C 6,4 km/h (2 Bft) 100,00 %
20.05.2018 01:05 13,2 C 17,8 C 86 % 1018,2 hPa 0,0 l/m 6,8 km/h (2 Bft) O-NO 68 0 min 0,000 mm 0,0 UV-I 0 W/m 10,9 C 13,0 C 9,7 km/h (2 Bft) 95,83 %
20.05.2018 01:06 13,2 C 17,8 C 86 % 1018,2 hPa 0,0 l/m 5,7 km/h (1 Bft) NO 39 0 min 0,000 mm 0,0 UV-I 0 W/m 10,9 C 13,2 C 8,0 km/h (2 Bft) 96,15 %
20.05.2018 01:07 13,2 C 17,8 C 86 % 1018,2 hPa 0,0 l/m 6,0 km/h (2 Bft) O-NO 61 0 min 0,000 mm 0,0 UV-I 0 W/m 10,9 C 13,2 C 6,4 km/h (2 Bft) 100,00 %
20.05.2018 01:08 13,2 C 17,8 C 86 % 1018,2 hPa 0,0 l/m 6,0 km/h (2 Bft) NO 52 0 min 0,000 mm 0,0 UV-I 0 W/m 10,9 C 13,2 C 8,0 km/h (2 Bft) 100,00 %
20.05.2018 01:09 13,2 C 17,8 C 86 % 1018,2 hPa 0,0 l/m 6,7 km/h (2 Bft) N-NO 33 0 min 0,000 mm 0,0 UV-I 0 W/m 10,9 C 13,0 C 8,0 km/h (2 Bft) 100,00 %
20.05.2018 01:10 13,2 C 17,8 C 86 % 1018,2 hPa 0,0 l/m 7,2 km/h (2 Bft) NO 50 0 min 0,000 mm 0,0 UV-I 0 W/m 10,9 C 12,7 C 9,7 km/h (2 Bft) 100,00 %
20.05.2018 01:11 13,2 C 17,8 C 86 % 1018,2 hPa 0,0 l/m 7,0 km/h (2 Bft) NO 55 0 min 0,000 mm 0,0 UV-I 0 W/m 10,9 C 12,8 C 9,7 km/h (2 Bft) 100,00 %
20.05.2018 01:12 13,2 C 17,8 C 86 % 1018,2 hPa 0,0 l/m 7,6 km/h (2 Bft) NO 53 0 min 0,000 mm 0,0 UV-I 0 W/m 10,9 C 12,5 C 9,7 km/h (2 Bft) 100,00 %
20.05.2018 01:13 13,2 C 17,8 C 86 % 1018,2 hPa 0,0 l/m 6,5 km/h (2 Bft) NO 54 0 min 0,000 mm 0,0 UV-I 0 W/m 10,9 C 13,2 C 8,0 km/h (2 Bft) 95,65 %
20.05.2018 01:14 13,2 C 17,8 C 86 % 1018,2 hPa 0,0 l/m 7,8 km/h (2 Bft) NO 43 0 min 0,000 mm 0,0 UV-I 0 W/m 10,9 C 12,3 C 9,7 km/h (2 Bft) 100,00 %
20.05.2018 01:15 13,2 C 17,8 C 87 % 1018,2 hPa 0,0 l/m 7,5 km/h (2 Bft) O 84 0 min 0,000 mm 0,0 UV-I 0 W/m 11,1 C 12,5 C 9,7 km/h (2 Bft) 100,00 %
20.05.2018 01:16 13,2 C 17,8 C 87 % 1018,2 hPa 0,0 l/m 6,0 km/h (2 Bft) O-NO 58 0 min 0,000 mm 0,0 UV-I 0 W/m 11,1 C 13,2 C 8,0 km/h (2 Bft) 100,00 %
20.05.2018 01:17 13,2 C 17,8 C 87 % 1018,2 hPa 0,0 l/m 5,2 km/h (1 Bft) O-NO 63 0 min 0,000 mm 0,0 UV-I 0 W/m 11,1 C 13,2 C 8,0 km/h (2 Bft) 100,00 %
20.05.2018 01:18 13,2 C 17,8 C 87 % 1018,2 hPa 0,0 l/m 7,3 km/h (2 Bft) NO 47 0 min 0,000 mm 0,0 UV-I 0 W/m 11,1 C 12,6 C 9,7 km/h (2 Bft) 100,00 %
20.05.2018 01:19 13,2 C 17,8 C 87 % 1018,2 hPa 0,0 l/m 7,8 km/h (2 Bft) NO 44 0 min 0,000 mm 0,0 UV-I 0 W/m 11,1 C 12,3 C 11,3 km/h (2 Bft) 100,00 %
20.05.2018 01:20 13,2 C 17,8 C 87 % 1018,2 hPa 0,0 l/m 5,8 km/h (2 Bft) NO 51 0 min 0,000 mm 0,0 UV-I 0 W/m 11,1 C 13,2 C 8,0 km/h (2 Bft) 100,00 %
20.05.2018 01:21 13,2 C 17,8 C 87 % 1018,3 hPa 0,0 l/m 6,4 km/h (2 Bft) O-NO 57 0 min 0,000 mm 0,0 UV-I 0 W/m 11,1 C 13,2 C 8,0 km/h (2 Bft) 100,00 %
20.05.2018 01:22 13,2 C 17,8 C 87 % 1018,3 hPa 0,0 l/m 6,8 km/h (2 Bft) NO 55 0 min 0,000 mm 0,0 UV-I 0 W/m 11,1 C 13,0 C 9,7 km/h (2 Bft) 95,83 %
20.05.2018 01:23 13,2 C 17,8 C 87 % 1018,3 hPa 0,0 l/m 7,3 km/h (2 Bft) O-NO 61 0 min 0,000 mm 0,0 UV-I 0 W/m 11,1 C 12,6 C 11,3 km/h (2 Bft) 100,00 %
20.05.2018 01:24 13,2 C 17,8 C 87 % 1018,3 hPa 0,0 l/m 8,6 km/h (2 Bft) O-NO 73 0 min 0,000 mm 0,0 UV-I 0 W/m 11,1 C 11,9 C 11,3 km/h (2 Bft) 100,00 %
20.05.2018 01:25 13,1 C 17,8 C 87 % 1018,2 hPa 0,0 l/m 7,4 km/h (2 Bft) NO 55 0 min 0,000 mm 0,0 UV-I 0 W/m 11,0 C 12,5 C 11,3 km/h (2 Bft) 100,00 %
20.05.2018 01:26 13,1 C 17,8 C 87 % 1018,3 hPa 0,0 l/m 6,9 km/h (2 Bft) O-NO 68 0 min 0,000 mm 0,0 UV-I 0 W/m 11,0 C 12,8 C 11,3 km/h (2 Bft) 100,00 %
20.05.2018 01:27 13,1 C 17,8 C 87 % 1018,3 hPa 0,0 l/m 6,1 km/h (2 Bft) O-NO 64 0 min 0,000 mm 0,0 UV-I 0 W/m 11,0 C 13,1 C 8,0 km/h (2 Bft) 100,00 %
20.05.2018 01:28 13,1 C 17,8 C 87 % 1018,3 hPa 0,0 l/m 6,0 km/h (2 Bft) NO 48 0 min 0,000 mm 0,0 UV-I 0 W/m 11,0 C 13,1 C 8,0 km/h (2 Bft) 100,00 %
20.05.2018 01:29 13,1 C 17,8 C 88 % 1018,2 hPa 0,0 l/m 6,0 km/h (2 Bft) O-NO 72 0 min 0,000 mm 0,0 UV-I 0 W/m 11,2 C 13,1 C 9,7 km/h (2 Bft) 100,00 %
20.05.2018 01:30 13,1 C 17,8 C 88 % 1018,3 hPa 0,0 l/m 6,3 km/h (2 Bft) O-NO 59 0 min 0,000 mm 0,0 UV-I 0 W/m 11,2 C 13,1 C 8,0 km/h (2 Bft) 100,00 %
20.05.2018 01:31 13,1 C 17,8 C 88 % 1018,3 hPa 0,0 l/m 6,7 km/h (2 Bft) O-NO 65 0 min 0,000 mm 0,0 UV-I 0 W/m 11,2 C 12,9 C 9,7 km/h (2 Bft) 100,00 %
20.05.2018 01:32 13,1 C 17,8 C 88 % 1018,3 hPa 0,0 l/m 5,1 km/h (1 Bft) NO 34 0 min 0,000 mm 0,0 UV-I 0 W/m 11,2 C 13,1 C 12,9 km/h (3 Bft) 100,00 %
20.05.2018 01:33 13,0 C 17,8 C 88 % 1018,3 hPa 0,0 l/m 5,4 km/h (1 Bft) O-NO 65 0 min 0,000 mm 0,0 UV-I 0 W/m 11,1 C 13,0 C 8,0 km/h (2 Bft) 100,00 %
20.05.2018 01:34 13,0 C 17,8 C 88 % 1018,3 hPa 0,0 l/m 7,5 km/h (2 Bft) N-NO 31 0 min 0,000 mm 0,0 UV-I 0 W/m 11,1 C 12,3 C 11,3 km/h (2 Bft) 100,00 %
20.05.2018 01:35 13,0 C 17,8 C 88 % 1018,3 hPa 0,0 l/m 9,3 km/h (2 Bft) O-NO 59 0 min 0,000 mm 0,0 UV-I 0 W/m 11,1 C 11,3 C 14,5 km/h (3 Bft) 100,00 %
20.05.2018 01:36 13,0 C 17,8 C 88 % 1018,3 hPa 0,0 l/m 9,4 km/h (2 Bft) O-NO 63 0 min 0,000 mm 0,0 UV-I 0 W/m 11,1 C 11,2 C 14,5 km/h (3 Bft) 100,00 %
20.05.2018 01:37 13,0 C 17,8 C 88 % 1018,3 hPa 0,0 l/m 10,3 km/h (2 Bft) NO 47 0 min 0,000 mm 0,0 UV-I 0 W/m 11,1 C 10,8 C 14,5 km/h (3 Bft) 100,00 %
20.05.2018 01:38 13,0 C 17,8 C 89 % 1018,3 hPa 0,0 l/m 9,2 km/h (2 Bft) NO 44 0 min 0,000 mm 0,0 UV-I 0 W/m 11,2 C 11,3 C 14,5 km/h (3 Bft) 100,00 %
20.05.2018 01:39 13,0 C 17,8 C 89 % 1018,3 hPa 0,0 l/m 8,7 km/h (2 Bft) O-NO 62 0 min 0,000 mm 0,0 UV-I 0 W/m 11,2 C 11,6 C 12,9 km/h (3 Bft) 100,00 %
20.05.2018 01:40 13,0 C 17,8 C 89 % 1018,3 hPa 0,0 l/m 10,7 km/h (2 Bft) NO 53 0 min 0,000 mm 0,0 UV-I 0 W/m 11,2 C 10,6 C 16,1 km/h (3 Bft) 100,00 %
20.05.2018 01:41 12,9 C 17,8 C 89 % 1018,3 hPa 0,0 l/m 12,0 km/h (2 Bft) NO 34 0 min 0,000 mm 0,0 UV-I 0 W/m 11,1 C 9,9 C 14,5 km/h (3 Bft) 100,00 %
20.05.2018 01:42 12,9 C 17,8 C 89 % 1018,3 hPa 0,0 l/m 8,1 km/h (2 Bft) O-NO 58 0 min 0,000 mm 0,0 UV-I 0 W/m 11,1 C 11,8 C 11,3 km/h (2 Bft) 100,00 %
20.05.2018 01:43 13,0 C 17,8 C 89 % 1018,3 hPa 0,0 l/m 9,5 km/h (2 Bft) NO 36 0 min 0,000 mm 0,0 UV-I 0 W/m 11,2 C 11,2 C 14,5 km/h (3 Bft) 100,00 %
20.05.2018 01:44 12,9 C 17,8 C 89 % 1018,3 hPa 0,0 l/m 8,3 km/h (2 Bft) NO 53 0 min 0,000 mm 0,0 UV-I 0 W/m 11,1 C 11,7 C 9,7 km/h (2 Bft) 100,00 %
20.05.2018 01:45 12,9 C 17,8 C 89 % 1018,2 hPa 0,0 l/m 8,4 km/h (2 Bft) NO 44 0 min 0,000 mm 0,0 UV-I 0 W/m 11,1 C 11,7 C 11,3 km/h (2 Bft) 100,00 %
20.05.2018 01:46 12,9 C 17,8 C 89 % 1018,2 hPa 0,0 l/m 8,9 km/h (2 Bft) NO 42 0 min 0,000 mm 0,0 UV-I 0 W/m 11,1 C 11,4 C 9,7 km/h (2 Bft) 100,00 %
20.05.2018 01:47 12,9 C 17,8 C 89 % 1018,2 hPa 0,0 l/m 9,3 km/h (2 Bft) O-NO 57 0 min 0,000 mm 0,0 UV-I 0 W/m 11,1 C 11,2 C 14,5 km/h (3 Bft) 100,00 %
20.05.2018 01:48 12,9 C 17,8 C 89 % 1018,2 hPa 0,0 l/m 9,2 km/h (2 Bft) O-NO 57 0 min 0,000 mm 0,0 UV-I 0 W/m 11,1 C 11,2 C 14,5 km/h (3 Bft) 95,83 %
20.05.2018 01:49 12,9 C 17,8 C 89 % 1018,2 hPa 0,0 l/m 5,4 km/h (1 Bft) O 86 0 min 0,000 mm 0,0 UV-I 0 W/m 11,1 C 12,9 C 8,0 km/h (2 Bft) 96,15 %
20.05.2018 01:50 12,9 C 17,8 C 89 % 1018,2 hPa 0,0 l/m 8,3 km/h (2 Bft) NO 54 0 min 0,000 mm 0,0 UV-I 0 W/m 11,1 C 11,7 C 12,9 km/h (3 Bft) 100,00 %
20.05.2018 01:51 12,9 C 17,8 C 89 % 1018,2 hPa 0,0 l/m 8,8 km/h (2 Bft) O-NO 61 0 min 0,000 mm 0,0 UV-I 0 W/m 11,1 C 11,4 C 11,3 km/h (2 Bft) 100,00 %
20.05.2018 01:52 12,9 C 17,8 C 89 % 1018,2 hPa 0,0 l/m 8,3 km/h (2 Bft) O-NO 71 0 min 0,000 mm 0,0 UV-I 0 W/m 11,1 C 11,7 C 11,3 km/h (2 Bft) 100,00 %
20.05.2018 01:53 12,9 C 17,8 C 89 % 1018,2 hPa 0,0 l/m 8,0 km/h (2 Bft) O-NO 63 0 min 0,000 mm 0,0 UV-I 0 W/m 11,1 C 11,9 C 9,7 km/h (2 Bft) 100,00 %
20.05.2018 01:54 12,9 C 17,8 C 89 % 1018,2 hPa 0,0 l/m 6,9 km/h (2 Bft) NO 53 0 min 0,000 mm 0,0 UV-I 0 W/m 11,1 C 12,6 C 11,3 km/h (2 Bft) 100,00 %
20.05.2018 01:55 12,9 C 17,8 C 89 % 1018,2 hPa 0,0 l/m 11,0 km/h (2 Bft) O-NO 62 0 min 0,000 mm 0,0 UV-I 0 W/m 11,1 C 10,3 C 14,5 km/h (3 Bft) 100,00 %
20.05.2018 01:56 12,9 C 17,8 C 89 % 1018,1 hPa 0,0 l/m 10,6 km/h (2 Bft) NO 42 0 min 0,000 mm 0,0 UV-I 0 W/m 11,1 C 10,5 C 14,5 km/h (3 Bft) 100,00 %
20.05.2018 01:57 12,9 C 17,8 C 89 % 1018,2 hPa 0,0 l/m 8,6 km/h (2 Bft) NO 42 0 min 0,000 mm 0,0 UV-I 0 W/m 11,1 C 11,5 C 14,5 km/h (3 Bft) 100,00 %
20.05.2018 01:58 12,9 C 17,8 C 89 % 1018,2 hPa 0,0 l/m 8,0 km/h (2 Bft) NO 42 0 min 0,000 mm 0,0 UV-I 0 W/m 11,1 C 11,9 C 11,3 km/h (2 Bft) 100,00 %
20.05.2018 01:59 12,9 C 17,8 C 89 % 1018,1 hPa 0,0 l/m 9,8 km/h (2 Bft) O-NO 61 0 min 0,000 mm 0,0 UV-I 0 W/m 11,1 C 10,9 C 14,5 km/h (3 Bft) 96,15 %
20.05.2018 02:00 12,8 C 17,8 C 89 % 1018,2 hPa 0,0 l/m 8,4 km/h (2 Bft) NO 41 0 min 0,026 mm 0,0 UV-I 0 W/m 11,0 C 11,6 C 11,3 km/h (2 Bft) 100,00 %
20.05.2018 02:01 12,8 C 17,8 C 89 % 1018,2 hPa 0,0 l/m 8,6 km/h (2 Bft) NO 51 0 min 0,000 mm 0,0 UV-I 0 W/m 11,0 C 11,4 C 12,9 km/h (3 Bft) 92,31 %
20.05.2018 02:02 12,8 C 17,8 C 90 % 1018,2 hPa 0,0 l/m 8,2 km/h (2 Bft) O-NO 57 0 min 0,000 mm 0,0 UV-I 0 W/m 11,2 C 11,7 C 12,9 km/h (3 Bft) 100,00 %
20.05.2018 02:03 12,8 C 17,8 C 90 % 1018,1 hPa 0,0 l/m 11,1 km/h (2 Bft) O-NO 62 0 min 0,000 mm 0,0 UV-I 0 W/m 11,2 C 10,1 C 14,5 km/h (3 Bft) 95,65 %
20.05.2018 02:04 12,8 C 17,8 C 90 % 1018,2 hPa 0,0 l/m 9,7 km/h (2 Bft) NO 39 0 min 0,000 mm 0,0 UV-I 0 W/m 11,2 C 10,8 C 12,9 km/h (3 Bft) 100,00 %
20.05.2018 02:05 12,8 C 17,8 C 90 % 1018,2 hPa 0,0 l/m 7,7 km/h (2 Bft) O-NO 57 0 min 0,000 mm 0,0 UV-I 0 W/m 11,2 C 12,0 C 11,3 km/h (2 Bft) 91,67 %
20.05.2018 02:06 12,7 C 17,8 C 90 % 1018,1 hPa 0,0 l/m 9,4 km/h (2 Bft) O-NO 57 0 min 0,000 mm 0,0 UV-I 0 W/m 11,1 C 10,9 C 14,5 km/h (3 Bft) 96,88 %
20.05.2018 02:07 12,8 C 17,8 C 90 % 1018,1 hPa 0,0 l/m 9,6 km/h (2 Bft) O-NO 75 0 min 0,000 mm 0,0 UV-I 0 W/m 11,2 C 10,9 C 14,5 km/h (3 Bft) 96,55 %
20.05.2018 02:08 12,8 C 17,8 C 90 % 1018,1 hPa 0,0 l/m 9,7 km/h (2 Bft) O-NO 57 0 min 0,000 mm 0,0 UV-I 0 W/m 11,2 C 10,8 C 14,5 km/h (3 Bft) 100,00 %
20.05.2018 02:09 12,8 C 17,8 C 90 % 1018,2 hPa 0,0 l/m 10,4 km/h (2 Bft) NO 40 0 min 0,000 mm 0,0 UV-I 0 W/m 11,2 C 10,5 C 14,5 km/h (3 Bft) 96,30 %
20.05.2018 02:10 12,8 C 17,8 C 90 % 1018,2 hPa 0,0 l/m 6,4 km/h (2 Bft) NO 49 0 min 0,000 mm 0,0 UV-I 0 W/m 11,2 C 12,8 C 9,7 km/h (2 Bft) 96,15 %
20.05.2018 02:11 12,8 C 17,8 C 90 % 1018,1 hPa 0,0 l/m 9,6 km/h (2 Bft) NO 55 0 min 0,000 mm 0,0 UV-I 0 W/m 11,2 C 10,9 C 16,1 km/h (3 Bft) 100,00 %
20.05.2018 02:12 12,8 C 17,8 C 90 % 1018,1 hPa 0,0 l/m 13,1 km/h (3 Bft) NO 48 0 min 0,000 mm 0,0 UV-I 0 W/m 11,2 C 9,3 C 16,1 km/h (3 Bft) 92,86 %
20.05.2018 02:13 12,8 C 17,8 C 90 % 1018,1 hPa 0,0 l/m 7,8 km/h (2 Bft) NO 55 0 min 0,000 mm 0,0 UV-I 0 W/m 11,2 C 11,9 C 9,7 km/h (2 Bft) 100,00 %
20.05.2018 02:14 12,8 C 17,8 C 90 % 1018,1 hPa 0,0 l/m 7,2 km/h (2 Bft) O-NO 62 0 min 0,000 mm 0,0 UV-I 0 W/m 11,2 C 12,3 C 9,7 km/h (2 Bft) 95,65 %
20.05.2018 02:15 12,8 C 17,8 C 90 % 1018,1 hPa 0,0 l/m 7,6 km/h (2 Bft) O-NO 59 0 min 0,000 mm 0,0 UV-I 0 W/m 11,2 C 12,0 C 12,9 km/h (3 Bft) 100,00 %
20.05.2018 02:16 12,8 C 17,8 C 90 % 1018,1 hPa 0,0 l/m 5,6 km/h (1 Bft) O-NO 59 0 min 0,000 mm 0,0 UV-I 0 W/m 11,2 C 12,8 C 8,0 km/h (2 Bft) 95,65 %
20.05.2018 02:17 12,8 C 17,8 C 90 % 1018,1 hPa 0,0 l/m 6,0 km/h (2 Bft) O-NO 73 0 min 0,000 mm 0,0 UV-I 0 W/m 11,2 C 12,8 C 8,0 km/h (2 Bft) 95,83 %
20.05.2018 02:18 12,8 C 17,8 C 90 % 1018,1 hPa 0,0 l/m 6,8 km/h (2 Bft) O-SO 104 0 min 0,000 mm 0,0 UV-I 0 W/m 11,2 C 12,6 C 9,7 km/h (2 Bft) 95,65 %
20.05.2018 02:19 12,8 C 17,8 C 90 % 1018,1 hPa 0,0 l/m 6,8 km/h (2 Bft) O-NO 64 0 min 0,000 mm 0,0 UV-I 0 W/m 11,2 C 12,6 C 9,7 km/h (2 Bft) 95,83 %
20.05.2018 02:20 12,8 C 17,8 C 90 % 1018,1 hPa 0,0 l/m 7,3 km/h (2 Bft) NO 51 0 min 0,000 mm 0,0 UV-I 0 W/m 11,2 C 12,2 C 14,5 km/h (3 Bft) 100,00 %
20.05.2018 02:21 12,8 C 17,8 C 90 % 1018,1 hPa 0,0 l/m 6,0 km/h (2 Bft) O-NO 78 0 min 0,000 mm 0,0 UV-I 0 W/m 11,2 C 12,8 C 9,7 km/h (2 Bft) 91,67 %
20.05.2018 02:22 12,9 C 17,8 C 89 % 1018,1 hPa 0,0 l/m 9,4 km/h (2 Bft) NO 36 0 min 0,000 mm 0,0 UV-I 0 W/m 11,1 C 11,1 C 14,5 km/h (3 Bft) 100,00 %
20.05.2018 02:23 12,8 C 17,8 C 90 % 1018,0 hPa 0,0 l/m 8,3 km/h (2 Bft) O-NO 69 0 min 0,000 mm 0,0 UV-I 0 W/m 11,2 C 11,6 C 11,3 km/h (2 Bft) 96,55 %
20.05.2018 02:24 12,8 C 17,8 C 90 % 1018,0 hPa 0,0 l/m 7,9 km/h (2 Bft) O-NO 61 0 min 0,000 mm 0,0 UV-I 0 W/m 11,2 C 11,9 C 9,7 km/h (2 Bft) 100,00 %
20.05.2018 02:25 12,8 C 17,8 C 90 % 1018,0 hPa 0,0 l/m 9,4 km/h (2 Bft) NO 50 0 min 0,000 mm 0,0 UV-I 0 W/m 11,2 C 11,0 C 14,5 km/h (3 Bft) 95,65 %
20.05.2018 02:26 12,8 C 17,8 C 90 % 1018,1 hPa 0,0 l/m 8,5 km/h (2 Bft) O-NO 60 0 min 0,000 mm 0,0 UV-I 0 W/m 11,2 C 11,5 C 11,3 km/h (2 Bft) 95,83 %
20.05.2018 02:27 12,8 C 17,8 C 90 % 1018,1 hPa 0,0 l/m 10,0 km/h (2 Bft) O-NO 71 0 min 0,000 mm 0,0 UV-I 0 W/m 11,2 C 10,7 C 14,5 km/h (3 Bft) 96,15 %
20.05.2018 02:28 12,8 C 17,8 C 90 % 1018,1 hPa 0,0 l/m 10,0 km/h (2 Bft) NO 53 0 min 0,000 mm 0,0 UV-I 0 W/m 11,2 C 10,7 C 14,5 km/h (3 Bft) 96,67 %
20.05.2018 02:29 12,9 C 17,8 C 90 % 1018,1 hPa 0,0 l/m 10,7 km/h (2 Bft) O-NO 63 0 min 0,000 mm 0,0 UV-I 0 W/m 11,3 C 10,5 C 14,5 km/h (3 Bft) 100,00 %
20.05.2018 02:30 12,9 C 17,8 C 89 % 1018,1 hPa 0,0 l/m 9,6 km/h (2 Bft) NO 49 0 min 0,000 mm 0,0 UV-I 0 W/m 11,1 C 11,0 C 14,5 km/h (3 Bft) 95,83 %
20.05.2018 02:31 12,9 C 17,8 C 89 % 1018,0 hPa 0,0 l/m 8,3 km/h (2 Bft) O-NO 65 0 min 0,000 mm 0,0 UV-I 0 W/m 11,1 C 11,7 C 12,9 km/h (3 Bft) 100,00 %
20.05.2018 02:32 12,9 C 17,8 C 89 % 1018,1 hPa 0,0 l/m 10,1 km/h (2 Bft) NO 55 0 min 0,000 mm 0,0 UV-I 0 W/m 11,1 C 10,7 C 12,9 km/h (3 Bft) 96,30 %
20.05.2018 02:33 12,9 C 17,8 C 89 % 1018,1 hPa 0,0 l/m 8,4 km/h (2 Bft) NO 34 0 min 0,000 mm 0,0 UV-I 0 W/m 11,1 C 11,7 C 9,7 km/h (2 Bft) 100,00 %
20.05.2018 02:34 12,9 C 17,8 C 89 % 1018,1 hPa 0,0 l/m 10,3 km/h (2 Bft) O-NO 74 0 min 0,000 mm 0,0 UV-I 0 W/m 11,1 C 10,6 C 16,1 km/h (3 Bft) 97,14 %
20.05.2018 02:35 12,9 C 17,8 C 89 % 1018,1 hPa 0,0 l/m 7,3 km/h (2 Bft) O-NO 71 0 min 0,000 mm 0,0 UV-I 0 W/m 11,1 C 12,3 C 12,9 km/h (3 Bft) 96,15 %
20.05.2018 02:36 12,9 C 17,8 C 89 % 1018,1 hPa 0,0 l/m 8,0 km/h (2 Bft) NO 42 0 min 0,000 mm 0,0 UV-I 0 W/m 11,1 C 11,9 C 11,3 km/h (2 Bft) 96,30 %
20.05.2018 02:37 12,9 C 17,8 C 89 % 1018,1 hPa 0,0 l/m 9,0 km/h (2 Bft) O-NO 65 0 min 0,000 mm 0,0 UV-I 0 W/m 11,1 C 11,3 C 12,9 km/h (3 Bft) 100,00 %
20.05.2018 02:38 12,9 C 17,8 C 89 % 1018,1 hPa 0,0 l/m 9,2 km/h (2 Bft) NO 43 0 min 0,000 mm 0,0 UV-I 0 W/m 11,1 C 11,2 C 14,5 km/h (3 Bft) 100,00 %
20.05.2018 02:39 12,9 C 17,8 C 89 % 1018,0 hPa 0,0 l/m 8,6 km/h (2 Bft) NO 44 0 min 0,000 mm 0,0 UV-I 0 W/m 11,1 C 11,5 C 14,5 km/h (3 Bft) 100,00 %
20.05.2018 02:40 12,9 C 17,8 C 89 % 1018,1 hPa 0,0 l/m 11,0 km/h (2 Bft) O-NO 62 0 min 0,000 mm 0,0 UV-I 0 W/m 11,1 C 10,3 C 14,5 km/h (3 Bft) 100,00 %
20.05.2018 02:41 12,9 C 17,8 C 89 % 1018,0 hPa 0,0 l/m 6,7 km/h (2 Bft) O-NO 65 0 min 0,000 mm 0,0 UV-I 0 W/m 11,1 C 12,7 C 11,3 km/h (2 Bft) 100,00 %
20.05.2018 02:42 12,9 C 17,8 C 89 % 1018,1 hPa 0,0 l/m 9,3 km/h (2 Bft) O-NO 66 0 min 0,000 mm 0,0 UV-I 0 W/m 11,1 C 11,2 C 16,1 km/h (3 Bft) 100,00 %
20.05.2018 02:43 12,9 C 17,8 C 89 % 1018,0 hPa 0,0 l/m 7,6 km/h (2 Bft) O-NO 59 0 min 0,000 mm 0,0 UV-I 0 W/m 11,1 C 12,1 C 14,5 km/h (3 Bft) 92,31 %
20.05.2018 02:44 12,9 C 17,8 C 89 % 1018,0 hPa 0,0 l/m 6,6 km/h (2 Bft) O-NO 70 0 min 0,000 mm 0,0 UV-I 0 W/m 11,1 C 12,8 C 9,7 km/h (2 Bft) 100,00 %
20.05.2018 02:45 12,9 C 17,8 C 89 % 1018,1 hPa 0,0 l/m 9,0 km/h (2 Bft) O-NO 78 0 min 0,000 mm 0,0 UV-I 0 W/m 11,1 C 11,3 C 12,9 km/h (3 Bft) 94,44 %
20.05.2018 02:46 12,9 C 17,8 C 89 % 1018,0 hPa 0,0 l/m 8,4 km/h (2 Bft) O-NO 74 0 min 0,000 mm 0,0 UV-I 0 W/m 11,1 C 11,7 C 12,9 km/h (3 Bft) 100,00 %
20.05.2018 02:47 12,9 C 17,8 C 89 % 1018,0 hPa 0,0 l/m 10,6 km/h (2 Bft) O-NO 67 0 min 0,000 mm 0,0 UV-I 0 W/m 11,1 C 10,5 C 12,9 km/h (3 Bft) 100,00 %
20.05.2018 02:48 12,9 C 17,8 C 89 % 1018,0 hPa 0,0 l/m 9,5 km/h (2 Bft) O 95 0 min 0,000 mm 0,0 UV-I 0 W/m 11,1 C 11,1 C 12,9 km/h (3 Bft) 95,65 %
20.05.2018 02:49 13,0 C 17,8 C 89 % 1018,0 hPa 0,0 l/m 9,3 km/h (2 Bft) O-NO 60 0 min 0,000 mm 0,0 UV-I 0 W/m 11,2 C 11,3 C 12,9 km/h (3 Bft) 100,00 %
20.05.2018 02:50 13,0 C 17,8 C 89 % 1018,0 hPa 0,0 l/m 9,2 km/h (2 Bft) O-NO 66 0 min 0,000 mm 0,0 UV-I 0 W/m 11,2 C 11,3 C 14,5 km/h (3 Bft) 92,31 %
20.05.2018 02:51 12,9 C 17,8 C 89 % 1017,9 hPa 0,0 l/m 7,6 km/h (2 Bft) O-NO 69 0 min 0,000 mm 0,0 UV-I 0 W/m 11,1 C 12,1 C 16,1 km/h (3 Bft) 100,00 %
20.05.2018 02:52 13,0 C 17,8 C 89 % 1017,9 hPa 0,0 l/m 9,8 km/h (2 Bft) O-NO 75 0 min 0,000 mm 0,0 UV-I 0 W/m 11,2 C 11,0 C 14,5 km/h (3 Bft) 100,00 %
20.05.2018 02:53 12,9 C 17,8 C 89 % 1017,9 hPa 0,0 l/m 6,7 km/h (2 Bft) O-NO 67 0 min 0,000 mm 0,0 UV-I 0 W/m 11,1 C 12,7 C 11,3 km/h (2 Bft) 100,00 %
20.05.2018 02:54 12,9 C 17,8 C 89 % 1017,9 hPa 0,0 l/m 11,0 km/h (2 Bft) O 81 0 min 0,000 mm 0,0 UV-I 0 W/m 11,1 C 10,3 C 16,1 km/h (3 Bft) 100,00 %
20.05.2018 02:55 12,9 C 17,8 C 89 % 1017,9 hPa 0,0 l/m 12,1 km/h (2 Bft) O-NO 59 0 min 0,000 mm 0,0 UV-I 0 W/m 11,1 C 9,8 C 16,1 km/h (3 Bft) 100,00 %
20.05.2018 02:56 12,9 C 17,8 C 89 % 1017,9 hPa 0,0 l/m 10,7 km/h (2 Bft) O 81 0 min 0,000 mm 0,0 UV-I 0 W/m 11,1 C 10,5 C 17,7 km/h (3 Bft) 100,00 %
20.05.2018 02:57 12,9 C 17,8 C 89 % 1017,9 hPa 0,0 l/m 7,2 km/h (2 Bft) O-NO 70 0 min 0,000 mm 0,0 UV-I 0 W/m 11,1 C 12,4 C 12,9 km/h (3 Bft) 96,15 %
20.05.2018 02:58 12,9 C 17,8 C 89 % 1017,9 hPa 0,0 l/m 6,9 km/h (2 Bft) O-NO 74 0 min 0,000 mm 0,0 UV-I 0 W/m 11,1 C 12,6 C 8,0 km/h (2 Bft) 100,00 %
20.05.2018 02:59 12,9 C 17,8 C 88 % 1017,9 hPa 0,0 l/m 8,9 km/h (2 Bft) O-NO 67 0 min 0,000 mm 0,0 UV-I 0 W/m 11,0 C 11,4 C 11,3 km/h (2 Bft) 100,00 %
20.05.2018 03:00 12,9 C 17,8 C 88 % 1017,9 hPa 0,0 l/m 6,0 km/h (2 Bft) O-NO 57 0 min 0,025 mm 0,0 UV-I 0 W/m 11,0 C 12,9 C 11,3 km/h (2 Bft) 100,00 %
20.05.2018 03:01 12,9 C 17,8 C 88 % 1017,9 hPa 0,0 l/m 9,7 km/h (2 Bft) O-NO 71 0 min 0,000 mm 0,0 UV-I 0 W/m 11,0 C 11,0 C 12,9 km/h (3 Bft) 100,00 %
20.05.2018 03:02 12,9 C 17,8 C 88 % 1017,9 hPa 0,0 l/m 8,2 km/h (2 Bft) O 82 0 min 0,000 mm 0,0 UV-I 0 W/m 11,0 C 11,8 C 12,9 km/h (3 Bft) 100,00 %
20.05.2018 03:03 12,9 C 17,8 C 88 % 1018,0 hPa 0,0 l/m 7,8 km/h (2 Bft) O 81 0 min 0,000 mm 0,0 UV-I 0 W/m 11,0 C 12,0 C 14,5 km/h (3 Bft) 100,00 %
20.05.2018 03:04 12,9 C 17,8 C 88 % 1017,9 hPa 0,0 l/m 9,0 km/h (2 Bft) O 90 0 min 0,000 mm 0,0 UV-I 0 W/m 11,0 C 11,3 C 12,9 km/h (3 Bft) 91,67 %
20.05.2018 03:05 12,9 C 17,8 C 88 % 1017,9 hPa 0,0 l/m 8,0 km/h (2 Bft) O-SO 103 0 min 0,000 mm 0,0 UV-I 0 W/m 11,0 C 11,9 C 12,9 km/h (3 Bft) 100,00 %
20.05.2018 03:06 12,9 C 17,8 C 88 % 1018,0 hPa 0,0 l/m 7,6 km/h (2 Bft) O 84 0 min 0,000 mm 0,0 UV-I 0 W/m 11,0 C 12,1 C 12,9 km/h (3 Bft) 100,00 %
20.05.2018 03:07 12,9 C 17,8 C 88 % 1017,9 hPa 0,0 l/m 8,5 km/h (2 Bft) O-NO 60 0 min 0,000 mm 0,0 UV-I 0 W/m 11,0 C 11,6 C 12,9 km/h (3 Bft) 100,00 %
20.05.2018 03:08 12,9 C 17,8 C 88 % 1017,9 hPa 0,0 l/m 7,2 km/h (2 Bft) O 89 0 min 0,000 mm 0,0 UV-I 0 W/m 11,0 C 12,4 C 14,5 km/h (3 Bft) 100,00 %
20.05.2018 03:09 12,9 C 17,8 C 88 % 1018,0 hPa 0,0 l/m 9,5 km/h (2 Bft) O-NO 62 0 min 0,000 mm 0,0 UV-I 0 W/m 11,0 C 11,1 C 12,9 km/h (3 Bft) 100,00 %
20.05.2018 03:10 13,0 C 17,8 C 88 % 1017,9 hPa 0,0 l/m 4,9 km/h (1 Bft) O-NO 61 0 min 0,000 mm 0,0 UV-I 0 W/m 11,1 C 13,0 C 8,0 km/h (2 Bft) 100,00 %
20.05.2018 03:11 13,0 C 17,8 C 88 % 1017,9 hPa 0,0 l/m 9,6 km/h (2 Bft) O 82 0 min 0,000 mm 0,0 UV-I 0 W/m 11,1 C 11,1 C 14,5 km/h (3 Bft) 100,00 %
20.05.2018 03:12 13,0 C 17,8 C 88 % 1017,9 hPa 0,0 l/m 12,6 km/h (3 Bft) NO 55 0 min 0,000 mm 0,0 UV-I 0 W/m 11,1 C 9,7 C 16,1 km/h (3 Bft) 100,00 %
20.05.2018 03:13 13,0 C 17,8 C 88 % 1017,9 hPa 0,0 l/m 10,9 km/h (2 Bft) O 84 0 min 0,000 mm 0,0 UV-I 0 W/m 11,1 C 10,5 C 14,5 km/h (3 Bft) 95,65 %
20.05.2018 03:14 13,0 C 17,8 C 88 % 1017,9 hPa 0,0 l/m 8,7 km/h (2 Bft) O-NO 57 0 min 0,000 mm 0,0 UV-I 0 W/m 11,1 C 11,6 C 14,5 km/h (3 Bft) 95,83 %
20.05.2018 03:15 13,0 C 17,8 C 88 % 1018,0 hPa 0,0 l/m 12,2 km/h (2 Bft) O-NO 72 0 min 0,000 mm 0,0 UV-I 0 W/m 11,1 C 9,9 C 17,7 km/h (3 Bft) 96,15 %
20.05.2018 03:16 13,0 C 17,8 C 88 % 1017,9 hPa 0,0 l/m 9,1 km/h (2 Bft) O 80 0 min 0,000 mm 0,0 UV-I 0 W/m 11,1 C 11,4 C 14,5 km/h (3 Bft) 95,83 %
20.05.2018 03:17 13,0 C 17,8 C 88 % 1017,9 hPa 0,0 l/m 9,5 km/h (2 Bft) O-NO 57 0 min 0,000 mm 0,0 UV-I 0 W/m 11,1 C 11,2 C 16,1 km/h (3 Bft) 100,00 %
20.05.2018 03:18 13,0 C 17,8 C 88 % 1017,9 hPa 0,0 l/m 9,8 km/h (2 Bft) O-NO 76 0 min 0,000 mm 0,0 UV-I 0 W/m 11,1 C 11,0 C 16,1 km/h (3 Bft) 93,33 %
20.05.2018 03:19 13,0 C 17,8 C 88 % 1018,0 hPa 0,2 l/m 10,2 km/h (2 Bft) O 90 0 min 0,000 mm 0,0 UV-I 0 W/m 11,1 C 10,8 C 14,5 km/h (3 Bft) 96,15 %
20.05.2018 03:20 13,0 C 17,8 C 88 % 1018,0 hPa 0,0 l/m 6,4 km/h (2 Bft) O 88 0 min 0,000 mm 0,0 UV-I 0 W/m 11,1 C 13,0 C 12,9 km/h (3 Bft) 96,30 %
20.05.2018 03:21 13,0 C 17,8 C 88 % 1018,0 hPa 0,0 l/m 8,7 km/h (2 Bft) O-NO 71 0 min 0,000 mm 0,0 UV-I 0 W/m 11,1 C 11,6 C 16,1 km/h (3 Bft) 95,65 %
20.05.2018 03:22 13,0 C 17,8 C 88 % 1018,0 hPa 0,0 l/m 7,6 km/h (2 Bft) O-NO 59 0 min 0,000 mm 0,0 UV-I 0 W/m 11,1 C 12,2 C 14,5 km/h (3 Bft) 93,33 %
20.05.2018 03:24 13,0 C 17,8 C 88 % 1017,9 hPa 0,0 l/m 13,0 km/h (3 Bft) O-NO 76 0 min 0,000 mm 0,0 UV-I 0 W/m 11,1 C 9,5 C 17,7 km/h (3 Bft) 98,11 %
20.05.2018 03:25 13,0 C 17,8 C 88 % 1018,0 hPa 0,0 l/m 7,4 km/h (2 Bft) O-NO 62 0 min 0,000 mm 0,0 UV-I 0 W/m 11,1 C 12,4 C 11,3 km/h (2 Bft) 100,00 %
20.05.2018 03:26 13,0 C 17,8 C 88 % 1017,9 hPa 0,0 l/m 6,5 km/h (2 Bft) O-NO 65 0 min 0,000 mm 0,0 UV-I 0 W/m 11,1 C 13,0 C 8,0 km/h (2 Bft) 95,65 %
20.05.2018 03:27 13,0 C 17,8 C 88 % 1017,9 hPa 0,0 l/m 9,1 km/h (2 Bft) O-NO 58 0 min 0,000 mm 0,0 UV-I 0 W/m 11,1 C 11,4 C 12,9 km/h (3 Bft) 100,00 %
20.05.2018 03:29 12,9 C 17,8 C 88 % 1018,0 hPa 0,0 l/m 10,2 km/h (2 Bft) O-NO 57 0 min 0,000 mm 0,0 UV-I 0 W/m 11,0 C 10,7 C 16,1 km/h (3 Bft) 96,77 %
20.05.2018 03:30 12,9 C 17,8 C 88 % 1018,0 hPa 0,0 l/m 8,3 km/h (2 Bft) NO 55 0 min 0,000 mm 0,0 UV-I 0 W/m 11,0 C 11,7 C 9,7 km/h (2 Bft) 100,00 %
20.05.2018 03:31 12,9 C 17,8 C 88 % 1017,9 hPa 0,0 l/m 13,7 km/h (3 Bft) N-NO 24 0 min 0,000 mm 0,0 UV-I 0 W/m 11,0 C 9,1 C 19,3 km/h (3 Bft) 96,30 %
20.05.2018 03:32 12,9 C 17,8 C 88 % 1017,9 hPa 0,0 l/m 7,8 km/h (2 Bft) NO 55 0 min 0,000 mm 0,0 UV-I 0 W/m 11,0 C 12,0 C 14,5 km/h (3 Bft) 100,00 %
20.05.2018 03:33 12,9 C 17,8 C 88 % 1017,9 hPa 0,0 l/m 9,9 km/h (2 Bft) O-NO 61 0 min 0,000 mm 0,0 UV-I 0 W/m 11,0 C 10,8 C 16,1 km/h (3 Bft) 96,15 %
20.05.2018 03:34 12,9 C 17,8 C 88 % 1018,0 hPa 0,0 l/m 9,3 km/h (2 Bft) O-NO 68 0 min 0,000 mm 0,0 UV-I 0 W/m 11,0 C 11,2 C 14,5 km/h (3 Bft) 100,00 %
20.05.2018 03:35 12,9 C 17,8 C 88 % 1017,9 hPa 0,0 l/m 8,6 km/h (2 Bft) NO 46 0 min 0,000 mm 0,0 UV-I 0 W/m 11,0 C 11,5 C 12,9 km/h (3 Bft) 95,65 %
20.05.2018 03:36 12,9 C 17,8 C 88 % 1018,0 hPa 0,0 l/m 11,9 km/h (2 Bft) NO 34 0 min 0,000 mm 0,0 UV-I 0 W/m 11,0 C 9,9 C 16,1 km/h (3 Bft) 100,00 %
20.05.2018 03:37 12,9 C 17,8 C 88 % 1017,9 hPa 0,0 l/m 13,1 km/h (3 Bft) NO 46 0 min 0,000 mm 0,0 UV-I 0 W/m 11,0 C 9,4 C 16,1 km/h (3 Bft) 96,15 %
20.05.2018 03:38 12,9 C 17,8 C 88 % 1017,9 hPa 0,0 l/m 10,7 km/h (2 Bft) NO 36 0 min 0,000 mm 0,0 UV-I 0 W/m 11,0 C 10,5 C 16,1 km/h (3 Bft) 92,31 %
20.05.2018 03:39 12,9 C 17,8 C 88 % 1017,9 hPa 0,0 l/m 11,8 km/h (2 Bft) O-NO 57 0 min 0,000 mm 0,0 UV-I 0 W/m 11,0 C 9,9 C 19,3 km/h (3 Bft) 100,00 %
20.05.2018 03:40 12,9 C 17,8 C 88 % 1017,9 hPa 0,0 l/m 15,3 km/h (3 Bft) O-NO 58 0 min 0,000 mm 0,0 UV-I 0 W/m 11,0 C 8,5 C 17,7 km/h (3 Bft) 100,00 %
20.05.2018 03:41 12,8 C 17,8 C 88 % 1017,9 hPa 0,0 l/m 15,0 km/h (3 Bft) NO 43 0 min 0,000 mm 0,0 UV-I 0 W/m 10,9 C 8,5 C 20,9 km/h (4 Bft) 95,65 %
20.05.2018 03:42 12,8 C 17,8 C 88 % 1017,9 hPa 0,0 l/m 12,8 km/h (3 Bft) NO 44 0 min 0,000 mm 0,0 UV-I 0 W/m 10,9 C 9,4 C 19,3 km/h (3 Bft) 91,67 %
20.05.2018 03:43 12,9 C 17,8 C 88 % 1018,0 hPa 0,0 l/m 11,0 km/h (2 Bft) NO 41 0 min 0,000 mm 0,0 UV-I 0 W/m 11,0 C 10,3 C 14,5 km/h (3 Bft) 96,55 %
20.05.2018 03:44 12,9 C 17,8 C 88 % 1017,9 hPa 0,0 l/m 15,7 km/h (3 Bft) NO 53 0 min 0,000 mm 0,0 UV-I 0 W/m 11,0 C 8,4 C 19,3 km/h (3 Bft) 96,30 %
20.05.2018 03:45 12,9 C 17,8 C 88 % 1017,9 hPa 0,0 l/m 16,2 km/h (3 Bft) O-NO 58 0 min 0,000 mm 0,0 UV-I 0 W/m 11,0 C 8,2 C 19,3 km/h (3 Bft) 100,00 %
20.05.2018 03:46 12,9 C 17,8 C 88 % 1017,9 hPa 0,0 l/m 14,5 km/h (3 Bft) O-NO 61 0 min 0,000 mm 0,0 UV-I 0 W/m 11,0 C 8,8 C 19,3 km/h (3 Bft) 93,33 %
20.05.2018 03:47 12,8 C 17,8 C 88 % 1017,9 hPa 0,0 l/m 14,3 km/h (3 Bft) O-NO 62 0 min 0,000 mm 0,0 UV-I 0 W/m 10,9 C 8,8 C 20,9 km/h (4 Bft) 100,00 %
20.05.2018 03:48 12,8 C 17,8 C 88 % 1017,9 hPa 0,0 l/m 12,3 km/h (3 Bft) NO 49 0 min 0,000 mm 0,0 UV-I 0 W/m 10,9 C 9,6 C 16,1 km/h (3 Bft) 96,30 %
20.05.2018 03:49 12,8 C 17,8 C 87 % 1017,9 hPa 0,0 l/m 9,5 km/h (2 Bft) NO 41 0 min 0,000 mm 0,0 UV-I 0 W/m 10,7 C 10,9 C 17,7 km/h (3 Bft) 100,00 %
20.05.2018 03:50 12,8 C 17,8 C 87 % 1017,9 hPa 0,0 l/m 13,8 km/h (3 Bft) O-NO 65 0 min 0,000 mm 0,0 UV-I 0 W/m 10,7 C 9,0 C 20,9 km/h (4 Bft) 96,30 %
20.05.2018 03:51 12,8 C 17,8 C 87 % 1017,9 hPa 0,0 l/m 14,7 km/h (3 Bft) O-NO 63 0 min 0,000 mm 0,0 UV-I 0 W/m 10,7 C 8,6 C 19,3 km/h (3 Bft) 96,15 %
20.05.2018 03:52 12,8 C 17,8 C 87 % 1017,9 hPa 0,0 l/m 11,6 km/h (2 Bft) NO 53 0 min 0,000 mm 0,0 UV-I 0 W/m 10,7 C 9,9 C 14,5 km/h (3 Bft) 100,00 %
20.05.2018 03:53 12,8 C 17,8 C 87 % 1017,9 hPa 0,0 l/m 15,2 km/h (3 Bft) NO 51 0 min 0,000 mm 0,0 UV-I 0 W/m 10,7 C 8,5 C 24,1 km/h (4 Bft) 96,15 %
20.05.2018 03:54 12,8 C 17,8 C 87 % 1017,9 hPa 0,0 l/m 14,3 km/h (3 Bft) NO 46 0 min 0,000 mm 0,0 UV-I 0 W/m 10,7 C 8,8 C 20,9 km/h (4 Bft) 100,00 %
20.05.2018 03:55 12,8 C 17,8 C 87 % 1017,8 hPa 0,0 l/m 10,6 km/h (2 Bft) NO 48 0 min 0,000 mm 0,0 UV-I 0 W/m 10,7 C 10,4 C 14,5 km/h (3 Bft) 96,15 %
20.05.2018 03:56 12,8 C 17,8 C 87 % 1017,9 hPa 0,0 l/m 15,0 km/h (3 Bft) NO 44 0 min 0,000 mm 0,0 UV-I 0 W/m 10,7 C 8,5 C 27,4 km/h (4 Bft) 100,00 %
20.05.2018 03:57 12,8 C 17,8 C 87 % 1017,8 hPa 0,0 l/m 11,2 km/h (2 Bft) NO 42 0 min 0,000 mm 0,0 UV-I 0 W/m 10,7 C 10,1 C 17,7 km/h (3 Bft) 96,67 %
20.05.2018 03:58 12,8 C 17,8 C 87 % 1017,8 hPa 0,0 l/m 11,3 km/h (2 Bft) O-NO 60 0 min 0,000 mm 0,0 UV-I 0 W/m 10,7 C 10,1 C 16,1 km/h (3 Bft) 100,00 %
20.05.2018 03:59 12,8 C 17,8 C 87 % 1017,8 hPa 0,0 l/m 15,6 km/h (3 Bft) O-NO 57 0 min 0,000 mm 0,0 UV-I 0 W/m 10,7 C 8,3 C 24,1 km/h (4 Bft) 94,44 %
20.05.2018 04:00 12,8 C 17,8 C 87 % 1017,8 hPa 0,0 l/m 11,0 km/h (2 Bft) O 90 0 min 0,000 mm 0,0 UV-I 0 W/m 10,7 C 10,2 C 17,7 km/h (3 Bft) 95,65 %
20.05.2018 04:02 12,8 C 17,8 C 87 % 1017,8 hPa 0,0 l/m 14,2 km/h (3 Bft) NO 35 0 min 0,026 mm 0,0 UV-I 0 W/m 10,7 C 8,8 C 20,9 km/h (4 Bft) 100,00 %
20.05.2018 04:03 12,8 C 17,8 C 87 % 1017,8 hPa 0,0 l/m 14,5 km/h (3 Bft) O 83 0 min 0,000 mm 0,0 UV-I 0 W/m 10,7 C 8,7 C 24,1 km/h (4 Bft) 100,00 %
20.05.2018 04:04 12,8 C 17,8 C 87 % 1017,8 hPa 0,0 l/m 16,1 km/h (3 Bft) O-NO 60 0 min 0,000 mm 0,0 UV-I 0 W/m 10,7 C 8,1 C 24,1 km/h (4 Bft) 93,62 %
20.05.2018 04:05 12,7 C 17,8 C 87 % 1017,8 hPa 0,0 l/m 12,1 km/h (2 Bft) O-NO 77 0 min 0,000 mm 0,0 UV-I 0 W/m 10,6 C 9,6 C 17,7 km/h (3 Bft) 96,67 %
20.05.2018 04:06 12,7 C 17,8 C 87 % 1017,8 hPa 0,0 l/m 14,8 km/h (3 Bft) O-NO 64 0 min 0,000 mm 0,0 UV-I 0 W/m 10,6 C 8,5 C 19,3 km/h (3 Bft) 90,91 %
20.05.2018 04:07 12,7 C 17,8 C 87 % 1017,8 hPa 0,0 l/m 11,3 km/h (2 Bft) O-NO 65 0 min 0,000 mm 0,0 UV-I 0 W/m 10,6 C 9,9 C 16,1 km/h (3 Bft) 96,30 %
20.05.2018 04:08 12,7 C 17,8 C 87 % 1017,8 hPa 0,0 l/m 14,3 km/h (3 Bft) O-NO 59 0 min 0,000 mm 0,0 UV-I 0 W/m 10,6 C 8,7 C 19,3 km/h (3 Bft) 93,10 %
20.05.2018 04:09 12,8 C 17,8 C 87 % 1017,8 hPa 0,0 l/m 15,6 km/h (3 Bft) O-NO 71 0 min 0,000 mm 0,0 UV-I 0 W/m 10,7 C 8,3 C 20,9 km/h (4 Bft) 96,30 %
20.05.2018 04:10 12,8 C 17,8 C 87 % 1017,8 hPa 0,0 l/m 16,3 km/h (3 Bft) O-NO 68 0 min 0,000 mm 0,0 UV-I 0 W/m 10,7 C 8,1 C 22,5 km/h (4 Bft) 92,86 %
20.05.2018 04:11 12,8 C 17,8 C 87 % 1017,8 hPa 0,0 l/m 14,1 km/h (3 Bft) NO 39 0 min 0,000 mm 0,0 UV-I 0 W/m 10,7 C 8,9 C 17,7 km/h (3 Bft) 95,83 %
20.05.2018 04:12 12,8 C 17,8 C 87 % 1017,8 hPa 0,0 l/m 10,4 km/h (2 Bft) O-NO 74 0 min 0,000 mm 0,0 UV-I 0 W/m 10,7 C 10,5 C 16,1 km/h (3 Bft) 91,30 %
20.05.2018 04:13 12,8 C 17,8 C 87 % 1017,8 hPa 0,0 l/m 12,6 km/h (3 Bft) NO 49 0 min 0,000 mm 0,0 UV-I 0 W/m 10,7 C 9,5 C 17,7 km/h (3 Bft) 100,00 %
20.05.2018 04:14 12,8 C 17,8 C 87 % 1017,8 hPa 0,0 l/m 9,1 km/h (2 Bft) O-NO 75 0 min 0,000 mm 0,0 UV-I 0 W/m 10,7 C 11,2 C 16,1 km/h (3 Bft) 93,10 %
20.05.2018 04:15 12,8 C 17,8 C 87 % 1017,8 hPa 0,0 l/m 8,8 km/h (2 Bft) NO 48 0 min 0,000 mm 0,0 UV-I 0 W/m 10,7 C 11,3 C 14,5 km/h (3 Bft) 95,83 %
20.05.2018 04:16 12,7 C 17,8 C 87 % 1017,8 hPa 0,0 l/m 9,4 km/h (2 Bft) NO 38 0 min 0,000 mm 0,0 UV-I 0 W/m 10,6 C 10,9 C 11,3 km/h (2 Bft) 91,67 %
20.05.2018 04:17 12,7 C 17,8 C 87 % 1017,8 hPa 0,0 l/m 8,8 km/h (2 Bft) O-NO 66 0 min 0,000 mm 0,0 UV-I 0 W/m 10,6 C 11,2 C 12,9 km/h (3 Bft) 96,88 %
20.05.2018 04:18 12,7 C 17,8 C 87 % 1017,8 hPa 0,0 l/m 10,1 km/h (2 Bft) O-SO 109 0 min 0,000 mm 0,0 UV-I 0 W/m 10,6 C 10,5 C 19,3 km/h (3 Bft) 96,30 %
20.05.2018 04:19 12,7 C 17,8 C 87 % 1017,8 hPa 0,0 l/m 9,8 km/h (2 Bft) O-NO 62 0 min 0,000 mm 0,0 UV-I 0 W/m 10,6 C 10,7 C 12,9 km/h (3 Bft) 100,00 %
20.05.2018 04:20 12,7 C 17,8 C 87 % 1017,8 hPa 0,0 l/m 12,8 km/h (3 Bft) NO 50 0 min 0,000 mm 0,0 UV-I 0 W/m 10,6 C 9,3 C 17,7 km/h (3 Bft) 96,30 %
20.05.2018 04:21 12,7 C 17,8 C 87 % 1017,8 hPa 0,0 l/m 6,5 km/h (2 Bft) O-NO 74 0 min 0,000 mm 0,0 UV-I 0 W/m 10,6 C 12,7 C 12,9 km/h (3 Bft) 96,15 %
20.05.2018 04:22 12,7 C 17,8 C 87 % 1017,8 hPa 0,0 l/m 12,6 km/h (3 Bft) O-NO 74 0 min 0,000 mm 0,0 UV-I 0 W/m 10,6 C 9,4 C 19,3 km/h (3 Bft) 96,30 %
20.05.2018 04:23 12,7 C 17,8 C 87 % 1017,8 hPa 0,0 l/m 5,6 km/h (1 Bft) O-SO 103 0 min 0,000 mm 0,0 UV-I 0 W/m 10,6 C 12,7 C 9,7 km/h (2 Bft) 95,65 %
20.05.2018 04:24 12,7 C 17,8 C 87 % 1017,8 hPa 0,0 l/m 11,2 km/h (2 Bft) O-NO 68 0 min 0,000 mm 0,0 UV-I 0 W/m 10,6 C 10,0 C 14,5 km/h (3 Bft) 100,00 %
20.05.2018 04:25 12,7 C 17,8 C 87 % 1017,8 hPa 0,0 l/m 13,6 km/h (3 Bft) O-NO 63 0 min 0,000 mm 0,0 UV-I 0 W/m 10,6 C 8,9 C 17,7 km/h (3 Bft) 95,65 %
20.05.2018 04:26 12,7 C 17,8 C 87 % 1017,8 hPa 0,0 l/m 11,0 km/h (2 Bft) O 96 0 min 0,000 mm 0,0 UV-I 0 W/m 10,6 C 10,1 C 14,5 km/h (3 Bft) 100,00 %
20.05.2018 04:27 12,7 C 17,8 C 87 % 1017,8 hPa 0,0 l/m 15,4 km/h (3 Bft) O 82 0 min 0,000 mm 0,0 UV-I 0 W/m 10,6 C 8,3 C 19,3 km/h (3 Bft) 96,15 %
20.05.2018 04:28 12,7 C 17,8 C 87 % 1017,7 hPa 0,0 l/m 14,9 km/h (3 Bft) O 83 0 min 0,000 mm 0,0 UV-I 0 W/m 10,6 C 8,4 C 19,3 km/h (3 Bft) 100,00 %
20.05.2018 04:29 12,7 C 17,8 C 87 % 1017,7 hPa 0,0 l/m 11,0 km/h (2 Bft) N-NO 28 0 min 0,000 mm 0,0 UV-I 0 W/m 10,6 C 10,1 C 14,5 km/h (3 Bft) 95,65 %
20.05.2018 04:30 12,6 C 17,8 C 87 % 1017,8 hPa 0,0 l/m 9,5 km/h (2 Bft) O 79 0 min 0,000 mm 0,0 UV-I 0 W/m 10,5 C 10,7 C 14,5 km/h (3 Bft) 95,83 %
20.05.2018 04:31 12,6 C 17,8 C 87 % 1017,8 hPa 0,0 l/m 12,2 km/h (2 Bft) O-NO 57 0 min 0,000 mm 0,0 UV-I 0 W/m 10,5 C 9,4 C 16,1 km/h (3 Bft) 100,00 %
20.05.2018 04:32 12,7 C 17,8 C 87 % 1017,8 hPa 0,0 l/m 15,7 km/h (3 Bft) O-NO 73 0 min 0,000 mm 0,0 UV-I 0 W/m 10,6 C 8,2 C 22,5 km/h (4 Bft) 93,33 %
20.05.2018 04:33 12,6 C 17,8 C 87 % 1017,7 hPa 0,0 l/m 11,3 km/h (2 Bft) O 81 0 min 0,000 mm 0,0 UV-I 0 W/m 10,5 C 9,8 C 16,1 km/h (3 Bft) 100,00 %
20.05.2018 04:34 12,6 C 17,8 C 87 % 1017,7 hPa 0,0 l/m 9,0 km/h (2 Bft) O-NO 74 0 min 0,000 mm 0,0 UV-I 0 W/m 10,5 C 11,0 C 14,5 km/h (3 Bft) 95,65 %
20.05.2018 04:35 12,6 C 17,8 C 87 % 1017,7 hPa 0,0 l/m 8,5 km/h (2 Bft) O-NO 66 0 min 0,000 mm 0,0 UV-I 0 W/m 10,5 C 11,3 C 12,9 km/h (3 Bft) 100,00 %
20.05.2018 04:36 12,6 C 17,8 C 87 % 1017,7 hPa 0,0 l/m 9,7 km/h (2 Bft) O 79 0 min 0,000 mm 0,0 UV-I 0 W/m 10,5 C 10,6 C 17,7 km/h (3 Bft) 100,00 %
20.05.2018 04:37 12,6 C 17,8 C 87 % 1017,7 hPa 0,0 l/m 8,6 km/h (2 Bft) NO 53 0 min 0,000 mm 0,0 UV-I 0 W/m 10,5 C 11,2 C 16,1 km/h (3 Bft) 100,00 %
20.05.2018 04:38 12,6 C 17,8 C 87 % 1017,7 hPa 0,0 l/m 8,0 km/h (2 Bft) O-NO 59 0 min 0,000 mm 0,0 UV-I 0 W/m 10,5 C 11,6 C 14,5 km/h (3 Bft) 100,00 %
20.05.2018 04:39 12,6 C 17,8 C 87 % 1017,7 hPa 0,0 l/m 12,3 km/h (3 Bft) O-NO 61 0 min 0,000 mm 0,0 UV-I 0 W/m 10,5 C 9,4 C 22,5 km/h (4 Bft) 95,65 %
20.05.2018 04:40 12,6 C 17,8 C 87 % 1017,7 hPa 0,0 l/m 11,7 km/h (2 Bft) O 87 0 min 0,000 mm 0,0 UV-I 0 W/m 10,5 C 9,6 C 20,9 km/h (4 Bft) 100,00 %
20.05.2018 04:41 12,6 C 17,8 C 87 % 1017,7 hPa 0,0 l/m 11,3 km/h (2 Bft) O-NO 62 0 min 0,000 mm 0,0 UV-I 0 W/m 10,5 C 9,8 C 16,1 km/h (3 Bft) 100,00 %
20.05.2018 04:42 12,6 C 17,8 C 87 % 1017,7 hPa 0,0 l/m 12,0 km/h (2 Bft) O-NO 70 0 min 0,000 mm 0,0 UV-I 0 W/m 10,5 C 9,5 C 16,1 km/h (3 Bft) 96,15 %
20.05.2018 04:43 12,6 C 17,8 C 87 % 1017,7 hPa 0,0 l/m 13,6 km/h (3 Bft) O-NO 74 0 min 0,000 mm 0,0 UV-I 0 W/m 10,5 C 8,8 C 19,3 km/h (3 Bft) 96,30 %
20.05.2018 04:44 12,6 C 17,8 C 87 % 1017,7 hPa 0,0 l/m 7,3 km/h (2 Bft) N-NO 24 0 min 0,000 mm 0,0 UV-I 0 W/m 10,5 C 12,0 C 8,0 km/h (2 Bft) 100,00 %
20.05.2018 04:45 12,6 C 17,8 C 87 % 1017,7 hPa 0,0 l/m 10,3 km/h (2 Bft) O-NO 78 0 min 0,000 mm 0,0 UV-I 0 W/m 10,5 C 10,3 C 17,7 km/h (3 Bft) 100,00 %
20.05.2018 04:46 12,6 C 17,8 C 87 % 1017,8 hPa 0,0 l/m 7,8 km/h (2 Bft) O 87 0 min 0,000 mm 0,0 UV-I 0 W/m 10,5 C 11,7 C 12,9 km/h (3 Bft) 100,00 %
20.05.2018 04:47 12,6 C 17,8 C 87 % 1017,7 hPa 0,0 l/m 10,9 km/h (2 Bft) O-NO 74 0 min 0,000 mm 0,0 UV-I 0 W/m 10,5 C 10,0 C 19,3 km/h (3 Bft) 100,00 %
20.05.2018 04:48 12,5 C 17,8 C 87 % 1017,7 hPa 0,0 l/m 8,4 km/h (2 Bft) O-NO 57 0 min 0,000 mm 0,0 UV-I 0 W/m 10,4 C 11,2 C 17,7 km/h (3 Bft) 95,65 %
20.05.2018 04:49 12,5 C 17,8 C 87 % 1017,7 hPa 0,0 l/m 10,9 km/h (2 Bft) O-NO 61 0 min 0,000 mm 0,0 UV-I 0 W/m 10,4 C 9,9 C 14,5 km/h (3 Bft) 100,00 %
20.05.2018 04:50 12,5 C 17,8 C 87 % 1017,7 hPa 0,0 l/m 11,1 km/h (2 Bft) O-NO 74 0 min 0,000 mm 0,0 UV-I 0 W/m 10,4 C 9,8 C 14,5 km/h (3 Bft) 96,15 %
20.05.2018 04:51 12,5 C 17,8 C 87 % 1017,8 hPa 0,0 l/m 13,5 km/h (3 Bft) NO 40 0 min 0,000 mm 0,0 UV-I 0 W/m 10,4 C 8,8 C 17,7 km/h (3 Bft) 94,44 %
20.05.2018 04:52 12,5 C 17,8 C 87 % 1017,7 hPa 0,0 l/m 7,4 km/h (2 Bft) O-NO 62 0 min 0,000 mm 0,0 UV-I 0 W/m 10,4 C 11,9 C 12,9 km/h (3 Bft) 92,59 %
20.05.2018 04:53 12,5 C 17,8 C 87 % 1017,7 hPa 0,0 l/m 13,4 km/h (3 Bft) O-NO 65 0 min 0,000 mm 0,0 UV-I 0 W/m 10,4 C 8,8 C 19,3 km/h (3 Bft) 96,15 %
20.05.2018 04:54 12,5 C 17,8 C 88 % 1017,8 hPa 0,0 l/m 12,2 km/h (2 Bft) NO 40 0 min 0,000 mm 0,0 UV-I 0 W/m 10,6 C 9,3 C 19,3 km/h (3 Bft) 100,00 %
20.05.2018 04:55 12,4 C 17,8 C 88 % 1017,8 hPa 0,0 l/m 14,7 km/h (3 Bft) O-NO 57 0 min 0,000 mm 0,0 UV-I 0 W/m 10,5 C 8,2 C 19,3 km/h (3 Bft) 100,00 %
20.05.2018 04:56 12,4 C 17,8 C 88 % 1017,7 hPa 0,0 l/m 10,1 km/h (2 Bft) NO 46 0 min 0,000 mm 0,0 UV-I 0 W/m 10,5 C 10,2 C 17,7 km/h (3 Bft) 96,30 %
20.05.2018 04:57 12,4 C 17,8 C 88 % 1017,7 hPa 0,0 l/m 11,9 km/h (2 Bft) O-NO 64 0 min 0,000 mm 0,0 UV-I 0 W/m 10,5 C 9,3 C 17,7 km/h (3 Bft) 100,00 %
20.05.2018 04:58 12,4 C 17,8 C 88 % 1017,7 hPa 0,0 l/m 15,5 km/h (3 Bft) O-NO 74 0 min 0,000 mm 0,0 UV-I 0 W/m 10,5 C 7,9 C 20,9 km/h (4 Bft) 100,00 %
20.05.2018 04:59 12,4 C 17,8 C 88 % 1017,7 hPa 0,0 l/m 12,9 km/h (3 Bft) NO 51 0 min 0,000 mm 0,0 UV-I 0 W/m 10,5 C 8,9 C 17,7 km/h (3 Bft) 96,15 %
20.05.2018 05:00 12,4 C 17,8 C 88 % 1017,7 hPa 0,0 l/m 10,0 km/h (2 Bft) NO 44 0 min 0,000 mm 0,0 UV-I 0 W/m 10,5 C 10,2 C 16,1 km/h (3 Bft) 100,00 %
20.05.2018 05:01 12,5 C 17,8 C 88 % 1017,7 hPa 0,0 l/m 11,0 km/h (2 Bft) O-NO 74 0 min 0,025 mm 0,0 UV-I 0 W/m 10,6 C 9,9 C 16,1 km/h (3 Bft) 96,15 %
20.05.2018 05:02 12,5 C 17,8 C 87 % 1017,7 hPa 0,0 l/m 10,7 km/h (2 Bft) O 84 0 min 0,000 mm 0,0 UV-I 0 W/m 10,4 C 10,0 C 19,3 km/h (3 Bft) 100,00 %
20.05.2018 05:03 12,5 C 17,8 C 87 % 1017,8 hPa 0,0 l/m 12,5 km/h (3 Bft) NO 44 0 min 0,000 mm 0,0 UV-I 0 W/m 10,4 C 9,2 C 17,7 km/h (3 Bft) 96,00 %
20.05.2018 05:04 12,4 C 17,8 C 87 % 1017,7 hPa 0,0 l/m 13,0 km/h (3 Bft) O-NO 63 0 min 0,000 mm 0,0 UV-I 0 W/m 10,3 C 8,8 C 16,1 km/h (3 Bft) 100,00 %
20.05.2018 05:05 12,4 C 17,8 C 88 % 1017,7 hPa 0,0 l/m 12,6 km/h (3 Bft) N-NO 23 0 min 0,000 mm 0,0 UV-I 0 W/m 10,5 C 9,0 C 17,7 km/h (3 Bft) 100,00 %
20.05.2018 05:06 12,4 C 17,8 C 88 % 1017,8 hPa 0,0 l/m 8,9 km/h (2 Bft) NO 34 0 min 0,000 mm 0,0 UV-I 0 W/m 10,5 C 10,8 C 14,5 km/h (3 Bft) 100,00 %
20.05.2018 05:07 12,4 C 17,8 C 88 % 1017,8 hPa 0,0 l/m 12,9 km/h (3 Bft) O-NO 63 0 min 0,000 mm 0,0 UV-I 0 W/m 10,5 C 8,9 C 17,7 km/h (3 Bft) 100,00 %
20.05.2018 05:08 12,4 C 17,8 C 88 % 1017,8 hPa 0,0 l/m 12,1 km/h (2 Bft) O-NO 67 0 min 0,000 mm 0,0 UV-I 0 W/m 10,5 C 9,2 C 17,7 km/h (3 Bft) 96,30 %
20.05.2018 05:09 12,4 C 17,8 C 88 % 1017,7 hPa 0,0 l/m 16,8 km/h (3 Bft) O-NO 70 0 min 0,000 mm 0,0 UV-I 0 W/m 10,5 C 7,4 C 20,9 km/h (4 Bft) 95,65 %
20.05.2018 05:10 12,5 C 17,8 C 87 % 1017,7 hPa 0,0 l/m 14,3 km/h (3 Bft) O 80 0 min 0,000 mm 0,0 UV-I 0 W/m 10,4 C 8,4 C 17,7 km/h (3 Bft) 100,00 %
20.05.2018 05:11 12,5 C 17,8 C 87 % 1017,8 hPa 0,0 l/m 13,1 km/h (3 Bft) NO 45 0 min 0,000 mm 0,0 UV-I 5 W/m 10,4 C 8,9 C 20,9 km/h (4 Bft) 100,00 %
20.05.2018 05:12 12,5 C 17,8 C 87 % 1017,8 hPa 0,0 l/m 13,2 km/h (3 Bft) O-NO 76 0 min 0,000 mm 0,0 UV-I 5 W/m 10,4 C 8,9 C 19,3 km/h (3 Bft) 100,00 %
20.05.2018 05:13 12,5 C 17,8 C 87 % 1017,8 hPa 0,0 l/m 11,7 km/h (2 Bft) O-NO 75 0 min 0,000 mm 0,0 UV-I 5 W/m 10,4 C 9,5 C 17,7 km/h (3 Bft) 100,00 %
20.05.2018 05:14 12,5 C 17,8 C 87 % 1017,8 hPa 0,0 l/m 10,3 km/h (2 Bft) NO 54 0 min 0,000 mm 0,0 UV-I 5 W/m 10,4 C 10,2 C 17,7 km/h (3 Bft) 95,65 %
20.05.2018 05:15 12,5 C 17,8 C 87 % 1017,8 hPa 0,0 l/m 10,9 km/h (2 Bft) O-NO 65 0 min 0,000 mm 0,0 UV-I 5 W/m 10,4 C 9,9 C 17,7 km/h (3 Bft) 100,00 %
20.05.2018 05:16 12,5 C 17,8 C 87 % 1017,8 hPa 0,0 l/m 8,8 km/h (2 Bft) O-NO 62 0 min 0,000 mm 0,0 UV-I 5 W/m 10,4 C 11,0 C 12,9 km/h (3 Bft) 91,67 %
20.05.2018 05:17 12,5 C 17,8 C 87 % 1017,8 hPa 0,0 l/m 8,0 km/h (2 Bft) O-NO 67 0 min 0,000 mm 0,0 UV-I 5 W/m 10,4 C 11,5 C 12,9 km/h (3 Bft) 100,00 %
20.05.2018 05:18 12,5 C 17,8 C 87 % 1017,8 hPa 0,0 l/m 12,2 km/h (2 Bft) O-NO 74 0 min 0,000 mm 0,0 UV-I 6 W/m 10,4 C 9,3 C 17,7 km/h (3 Bft) 96,55 %
20.05.2018 05:19 12,5 C 17,8 C 87 % 1017,8 hPa 0,0 l/m 15,9 km/h (3 Bft) O 101 0 min 0,000 mm 0,0 UV-I 7 W/m 10,4 C 7,8 C 22,5 km/h (4 Bft) 97,39 %
20.05.2018 05:20 12,5 C 17,8 C 87 % 1017,8 hPa 0,0 l/m 14,3 km/h (3 Bft) O-NO 61 0 min 0,000 mm 0,0 UV-I 7 W/m 10,4 C 8,4 C 17,7 km/h (3 Bft) 97,56 %
20.05.2018 05:21 12,5 C 17,8 C 87 % 1017,9 hPa 0,0 l/m 10,9 km/h (2 Bft) O-NO 65 0 min 0,000 mm 0,0 UV-I 7 W/m 10,4 C 9,9 C 14,5 km/h (3 Bft) 96,30 %
20.05.2018 05:22 12,5 C 17,8 C 87 % 1017,9 hPa 0,0 l/m 13,9 km/h (3 Bft) NO 52 0 min 0,000 mm 0,0 UV-I 7 W/m 10,4 C 8,6 C 17,7 km/h (3 Bft) 100,00 %
20.05.2018 05:23 12,5 C 17,8 C 87 % 1017,8 hPa 0,0 l/m 13,8 km/h (3 Bft) NO 55 0 min 0,000 mm 0,0 UV-I 8 W/m 10,4 C 8,6 C 19,3 km/h (3 Bft) 100,00 %
20.05.2018 05:24 12,5 C 17,8 C 87 % 1017,9 hPa 0,0 l/m 16,5 km/h (3 Bft) O 86 0 min 0,000 mm 0,0 UV-I 9 W/m 10,4 C 7,6 C 19,3 km/h (3 Bft) 100,00 %
20.05.2018 05:25 12,5 C 17,8 C 87 % 1017,9 hPa 0,0 l/m 16,5 km/h (3 Bft) O-NO 74 0 min 0,000 mm 0,0 UV-I 9 W/m 10,4 C 7,6 C 22,5 km/h (4 Bft) 100,00 %
20.05.2018 05:26 12,5 C 17,8 C 87 % 1017,9 hPa 0,0 l/m 15,3 km/h (3 Bft) O-NO 71 0 min 0,000 mm 0,0 UV-I 9 W/m 10,4 C 8,1 C 19,3 km/h (3 Bft) 96,15 %
20.05.2018 05:27 12,5 C 17,8 C 87 % 1017,9 hPa 0,0 l/m 14,7 km/h (3 Bft) O-NO 71 0 min 0,000 mm 0,0 UV-I 9 W/m 10,4 C 8,3 C 17,7 km/h (3 Bft) 100,00 %
20.05.2018 05:28 12,5 C 17,8 C 87 % 1017,9 hPa 0,0 l/m 16,2 km/h (3 Bft) O-NO 69 0 min 0,000 mm 0,0 UV-I 11 W/m 10,4 C 7,7 C 22,5 km/h (4 Bft) 100,00 %
20.05.2018 05:29 12,5 C 17,8 C 87 % 1017,9 hPa 0,0 l/m 11,9 km/h (2 Bft) O-NO 70 0 min 0,000 mm 0,0 UV-I 11 W/m 10,4 C 9,4 C 16,1 km/h (3 Bft) 100,00 %
20.05.2018 05:30 12,5 C 17,8 C 87 % 1017,9 hPa 0,0 l/m 14,1 km/h (3 Bft) O-NO 76 0 min 0,000 mm 0,0 UV-I 11 W/m 10,4 C 8,5 C 20,9 km/h (4 Bft) 100,00 %
20.05.2018 05:31 12,5 C 17,2 C 87 % 1017,9 hPa 0,0 l/m 12,2 km/h (2 Bft) O-NO 62 1 min 0,000 mm 0,0 UV-I 11 W/m 10,4 C 9,3 C 16,1 km/h (3 Bft) 100,00 %
20.05.2018 05:32 12,5 C 17,8 C 87 % 1017,8 hPa 0,0 l/m 14,6 km/h (3 Bft) O-NO 59 1 min 0,000 mm 0,0 UV-I 11 W/m 10,4 C 8,3 C 17,7 km/h (3 Bft) 100,00 %
20.05.2018 05:33 12,5 C 17,2 C 87 % 1017,9 hPa 0,0 l/m 12,9 km/h (3 Bft) O-NO 74 1 min 0,000 mm 0,0 UV-I 12 W/m 10,4 C 9,0 C 17,7 km/h (3 Bft) 100,00 %
20.05.2018 05:34 12,5 C 17,2 C 87 % 1017,9 hPa 0,0 l/m 17,2 km/h (3 Bft) O-NO 71 0 min 0,000 mm 0,0 UV-I 12 W/m 10,4 C 7,4 C 22,5 km/h (4 Bft) 100,00 %
20.05.2018 05:35 12,5 C 17,2 C 87 % 1017,9 hPa 0,0 l/m 13,1 km/h (3 Bft) O-SO 104 0 min 0,000 mm 0,0 UV-I 12 W/m 10,4 C 8,9 C 16,1 km/h (3 Bft) 100,00 %
20.05.2018 05:36 12,5 C 17,2 C 87 % 1017,9 hPa 0,0 l/m 14,8 km/h (3 Bft) O-NO 68 0 min 0,000 mm 0,0 UV-I 14 W/m 10,4 C 8,2 C 20,9 km/h (4 Bft) 100,00 %
20.05.2018 05:37 12,5 C 17,2 C 87 % 1017,9 hPa 0,0 l/m 13,4 km/h (3 Bft) O-NO 65 0 min 0,000 mm 0,0 UV-I 14 W/m 10,4 C 8,8 C 16,1 km/h (3 Bft) 96,15 %
20.05.2018 05:38 12,5 C 17,2 C 87 % 1017,9 hPa 0,0 l/m 17,4 km/h (3 Bft) O-NO 65 0 min 0,000 mm 0,0 UV-I 15 W/m 10,4 C 7,3 C 22,5 km/h (4 Bft) 100,00 %
20.05.2018 05:39 12,5 C 17,2 C 87 % 1017,9 hPa 0,0 l/m 14,5 km/h (3 Bft) NO 49 0 min 0,000 mm 0,0 UV-I 18 W/m 10,4 C 8,4 C 22,5 km/h (4 Bft) 96,15 %
20.05.2018 05:40 12,6 C 17,2 C 86 % 1017,9 hPa 0,0 l/m 16,7 km/h (3 Bft) O-NO 66 0 min 0,000 mm 0,0 UV-I 18 W/m 10,3 C 7,7 C 20,9 km/h (4 Bft) 100,00 %
20.05.2018 05:41 12,5 C 17,2 C 86 % 1017,9 hPa 0,0 l/m 15,8 km/h (3 Bft) O-NO 77 0 min 0,000 mm 0,0 UV-I 16 W/m 10,2 C 7,9 C 22,5 km/h (4 Bft) 100,00 %
20.05.2018 05:42 12,6 C 17,2 C 86 % 1017,9 hPa 0,0 l/m 13,2 km/h (3 Bft) O 87 0 min 0,000 mm 0,0 UV-I 15 W/m 10,3 C 9,0 C 17,7 km/h (3 Bft) 100,00 %
20.05.2018 05:43 12,5 C 17,2 C 86 % 1017,9 hPa 0,0 l/m 12,2 km/h (2 Bft) O-NO 66 0 min 0,000 mm 0,0 UV-I 14 W/m 10,2 C 9,3 C 19,3 km/h (3 Bft) 100,00 %
20.05.2018 05:44 12,6 C 17,2 C 86 % 1017,9 hPa 0,0 l/m 13,8 km/h (3 Bft) O-NO 67 0 min 0,000 mm 0,0 UV-I 14 W/m 10,3 C 8,7 C 19,3 km/h (3 Bft) 96,30 %
20.05.2018 05:45 12,5 C 17,2 C 86 % 1017,9 hPa 0,0 l/m 13,7 km/h (3 Bft) O-NO 72 0 min 0,000 mm 0,0 UV-I 14 W/m 10,2 C 8,7 C 20,9 km/h (4 Bft) 100,00 %
20.05.2018 05:46 12,5 C 17,2 C 86 % 1017,9 hPa 0,0 l/m 13,9 km/h (3 Bft) O 94 0 min 0,000 mm 0,0 UV-I 16 W/m 10,2 C 8,6 C 19,3 km/h (3 Bft) 100,00 %
20.05.2018 05:47 12,5 C 17,2 C 86 % 1018,0 hPa 0,0 l/m 13,2 km/h (3 Bft) O-NO 70 0 min 0,000 mm 0,0 UV-I 16 W/m 10,2 C 8,9 C 22,5 km/h (4 Bft) 100,00 %
20.05.2018 05:48 12,5 C 17,2 C 86 % 1018,0 hPa 0,0 l/m 19,6 km/h (3 Bft) O-NO 61 0 min 0,000 mm 0,0 UV-I 17 W/m 10,2 C 6,6 C 25,7 km/h (4 Bft) 100,00 %
20.05.2018 05:49 12,5 C 17,2 C 86 % 1018,0 hPa 0,0 l/m 13,3 km/h (3 Bft) O-NO 70 0 min 0,000 mm 0,0 UV-I 18 W/m 10,2 C 8,8 C 22,5 km/h (4 Bft) 100,00 %
20.05.2018 05:50 12,5 C 17,2 C 86 % 1018,0 hPa 0,0 l/m 10,6 km/h (2 Bft) NO 42 0 min 0,000 mm 0,0 UV-I 19 W/m 10,2 C 10,1 C 17,7 km/h (3 Bft) 97,90 %
20.05.2018 05:51 12,4 C 17,2 C 86 % 1018,0 hPa 0,0 l/m 13,7 km/h (3 Bft) O-NO 70 0 min 0,000 mm 0,0 UV-I 19 W/m 10,1 C 8,6 C 16,1 km/h (3 Bft) 100,00 %
20.05.2018 05:52 12,4 C 17,2 C 86 % 1018,0 hPa 0,0 l/m 15,9 km/h (3 Bft) O-NO 65 0 min 0,000 mm 0,0 UV-I 19 W/m 10,1 C 7,7 C 20,9 km/h (4 Bft) 100,00 %
20.05.2018 05:53 12,4 C 17,2 C 86 % 1018,0 hPa 0,0 l/m 14,0 km/h (3 Bft) O-NO 78 0 min 0,000 mm 0,0 UV-I 21 W/m 10,1 C 8,4 C 17,7 km/h (3 Bft) 100,00 %
20.05.2018 05:54 12,4 C 17,2 C 86 % 1018,0 hPa 0,0 l/m 14,3 km/h (3 Bft) O-SO 113 0 min 0,000 mm 0,0 UV-I 21 W/m 10,1 C 8,3 C 16,1 km/h (3 Bft) 100,00 %
20.05.2018 05:55 12,4 C 17,2 C 86 % 1018,0 hPa 0,0 l/m 15,9 km/h (3 Bft) O-NO 74 0 min 0,000 mm 0,0 UV-I 22 W/m 10,1 C 7,7 C 19,3 km/h (3 Bft) 100,00 %
20.05.2018 05:56 12,4 C 17,2 C 86 % 1018,0 hPa 0,0 l/m 16,4 km/h (3 Bft) O-NO 63 0 min 0,000 mm 0,0 UV-I 23 W/m 10,1 C 7,5 C 24,1 km/h (4 Bft) 100,00 %
20.05.2018 05:57 12,4 C 17,2 C 86 % 1018,0 hPa 0,0 l/m 10,9 km/h (2 Bft) O-NO 66 0 min 0,000 mm 0,0 UV-I 23 W/m 10,1 C 9,8 C 16,1 km/h (3 Bft) 100,00 %
20.05.2018 05:58 12,4 C 17,2 C 86 % 1018,1 hPa 0,0 l/m 11,3 km/h (2 Bft) O-NO 72 0 min 0,000 mm 0,0 UV-I 25 W/m 10,1 C 9,6 C 20,9 km/h (4 Bft) 92,86 %
20.05.2018 05:59 12,4 C 17,2 C 86 % 1018,1 hPa 0,0 l/m 12,0 km/h (2 Bft) O-NO 69 0 min 0,000 mm 0,0 UV-I 25 W/m 10,1 C 9,3 C 17,7 km/h (3 Bft) 96,30 %
20.05.2018 06:00 12,4 C 17,2 C 86 % 1018,1 hPa 0,0 l/m 15,3 km/h (3 Bft) O 92 0 min 0,025 mm 0,0 UV-I 25 W/m 10,1 C 7,9 C 20,9 km/h (4 Bft) 100,00 %
20.05.2018 06:01 12,4 C 17,2 C 86 % 1018,1 hPa 0,0 l/m 14,1 km/h (3 Bft) O-NO 67 0 min 0,000 mm 0,0 UV-I 26 W/m 10,1 C 8,4 C 17,7 km/h (3 Bft) 100,00 %
20.05.2018 06:02 12,4 C 17,2 C 86 % 1018,1 hPa 0,0 l/m 14,8 km/h (3 Bft) O-NO 65 0 min 0,000 mm 0,0 UV-I 26 W/m 10,1 C 8,1 C 19,3 km/h (3 Bft) 96,15 %
20.05.2018 06:03 12,3 C 17,2 C 86 % 1018,1 hPa 0,0 l/m 11,7 km/h (2 Bft) O-NO 64 0 min 0,000 mm 0,0 UV-I 26 W/m 10,0 C 9,3 C 16,1 km/h (3 Bft) 96,30 %
20.05.2018 06:04 12,3 C 17,2 C 86 % 1018,1 hPa 0,0 l/m 10,5 km/h (2 Bft) O-NO 66 0 min 0,000 mm 0,0 UV-I 28 W/m 10,0 C 9,9 C 16,1 km/h (3 Bft) 100,00 %
20.05.2018 06:05 12,3 C 17,2 C 86 % 1018,2 hPa 0,0 l/m 15,0 km/h (3 Bft) O 84 0 min 0,000 mm 0,0 UV-I 28 W/m 10,0 C 7,9 C 17,7 km/h (3 Bft) 98,02 %
20.05.2018 06:06 12,3 C 17,2 C 86 % 1018,2 hPa 0,0 l/m 12,4 km/h (3 Bft) NO 40 0 min 0,000 mm 0,0 UV-I 29 W/m 10,0 C 9,0 C 16,1 km/h (3 Bft) 97,73 %
20.05.2018 06:07 12,3 C 17,2 C 86 % 1018,2 hPa 0,0 l/m 14,0 km/h (3 Bft) O-NO 71 0 min 0,000 mm 0,0 UV-I 30 W/m 10,0 C 8,3 C 17,7 km/h (3 Bft) 96,30 %
20.05.2018 06:08 12,3 C 17,2 C 85 % 1018,2 hPa 0,0 l/m 12,0 km/h (2 Bft) O-NO 63 0 min 0,000 mm 0,0 UV-I 30 W/m 9,9 C 9,2 C 14,5 km/h (3 Bft) 100,00 %
20.05.2018 06:09 12,3 C 17,2 C 86 % 1018,2 hPa 0,0 l/m 10,6 km/h (2 Bft) O 99 0 min 0,000 mm 0,0 UV-I 30 W/m 10,0 C 9,8 C 16,1 km/h (3 Bft) 96,30 %
20.05.2018 06:10 12,3 C 17,2 C 86 % 1018,2 hPa 0,0 l/m 12,1 km/h (2 Bft) O-NO 62 0 min 0,000 mm 0,0 UV-I 32 W/m 10,0 C 9,1 C 22,5 km/h (4 Bft) 100,00 %
20.05.2018 06:11 12,3 C 17,2 C 86 % 1018,2 hPa 0,0 l/m 15,0 km/h (3 Bft) O-NO 77 0 min 0,000 mm 0,0 UV-I 32 W/m 10,0 C 7,9 C 20,9 km/h (4 Bft) 95,83 %
20.05.2018 06:12 12,2 C 17,2 C 86 % 1018,2 hPa 0,0 l/m 13,5 km/h (3 Bft) O-NO 77 0 min 0,000 mm 0,0 UV-I 32 W/m 9,9 C 8,4 C 17,7 km/h (3 Bft) 100,00 %
20.05.2018 06:13 12,2 C 17,2 C 85 % 1018,2 hPa 0,0 l/m 15,2 km/h (3 Bft) O-NO 75 0 min 0,000 mm 0,0 UV-I 33 W/m 9,8 C 7,7 C 20,9 km/h (4 Bft) 94,74 %
20.05.2018 06:14 12,2 C 17,2 C 85 % 1018,2 hPa 0,0 l/m 16,9 km/h (3 Bft) O 84 0 min 0,000 mm 0,0 UV-I 33 W/m 9,8 C 7,1 C 22,5 km/h (4 Bft) 83,33 %
20.05.2018 06:15 12,2 C 17,2 C 85 % 1018,2 hPa 0,0 l/m 12,7 km/h (3 Bft) O 89 0 min 0,000 mm 0,0 UV-I 33 W/m 9,8 C 8,7 C 19,3 km/h (3 Bft) 96,15 %
20.05.2018 06:16 12,2 C 17,2 C 85 % 1018,2 hPa 0,0 l/m 16,9 km/h (3 Bft) O-NO 65 0 min 0,000 mm 0,0 UV-I 35 W/m 9,8 C 7,1 C 19,3 km/h (3 Bft) 96,67 %
20.05.2018 06:17 12,2 C 17,2 C 85 % 1018,2 hPa 0,0 l/m 18,6 km/h (3 Bft) O-NO 74 0 min 0,000 mm 0,0 UV-I 35 W/m 9,8 C 6,6 C 24,1 km/h (4 Bft) 100,00 %
20.05.2018 06:18 12,2 C 17,2 C 85 % 1018,2 hPa 0,0 l/m 17,0 km/h (3 Bft) O-NO 66 0 min 0,000 mm 0,0 UV-I 36 W/m 9,8 C 7,1 C 20,9 km/h (4 Bft) 95,83 %
20.05.2018 06:19 12,2 C 17,2 C 85 % 1018,2 hPa 0,0 l/m 16,5 km/h (3 Bft) O-NO 78 0 min 0,000 mm 0,0 UV-I 37 W/m 9,8 C 7,3 C 20,9 km/h (4 Bft) 100,00 %
20.05.2018 06:20 12,2 C 17,2 C 85 % 1018,2 hPa 0,0 l/m 13,1 km/h (3 Bft) O-NO 71 0 min 0,000 mm 0,0 UV-I 37 W/m 9,8 C 8,6 C 16,1 km/h (3 Bft) 96,67 %
20.05.2018 06:21 12,2 C 17,2 C 85 % 1018,2 hPa 0,0 l/m 17,9 km/h (3 Bft) O 82 0 min 0,000 mm 0,0 UV-I 39 W/m 9,8 C 6,8 C 24,1 km/h (4 Bft) 96,15 %
20.05.2018 06:22 12,2 C 17,2 C 85 % 1018,3 hPa 0,0 l/m 16,8 km/h (3 Bft) O-NO 64 0 min 0,000 mm 0,0 UV-I 39 W/m 9,8 C 7,1 C 19,3 km/h (3 Bft) 100,00 %
20.05.2018 06:23 12,2 C 17,2 C 85 % 1018,3 hPa 0,0 l/m 13,9 km/h (3 Bft) O-NO 73 0 min 0,000 mm 0,0 UV-I 40 W/m 9,8 C 8,2 C 20,9 km/h (4 Bft) 86,96 %
20.05.2018 06:24 12,2 C 17,2 C 85 % 1018,3 hPa 0,0 l/m 15,2 km/h (3 Bft) O-NO 66 0 min 0,000 mm 0,0 UV-I 41 W/m 9,8 C 7,7 C 27,4 km/h (4 Bft) 96,30 %
20.05.2018 06:25 12,2 C 17,2 C 85 % 1018,3 hPa 0,0 l/m 19,3 km/h (3 Bft) O-NO 63 0 min 0,000 mm 0,0 UV-I 42 W/m 9,8 C 6,3 C 24,1 km/h (4 Bft) 91,67 %
20.05.2018 06:26 12,2 C 17,2 C 85 % 1018,4 hPa 0,0 l/m 17,0 km/h (3 Bft) O-NO 77 0 min 0,000 mm 0,0 UV-I 44 W/m 9,8 C 7,1 C 22,5 km/h (4 Bft) 100,00 %
20.05.2018 06:27 12,2 C 17,2 C 84 % 1018,3 hPa 0,0 l/m 14,6 km/h (3 Bft) O 84 0 min 0,000 mm 0,0 UV-I 44 W/m 9,6 C 8,0 C 19,3 km/h (3 Bft) 92,31 %
20.05.2018 06:28 12,2 C 17,2 C 85 % 1018,3 hPa 0,0 l/m 19,6 km/h (3 Bft) O-NO 64 0 min 0,000 mm 0,0 UV-I 46 W/m 9,8 C 6,2 C 25,7 km/h (4 Bft) 100,00 %
20.05.2018 06:29 12,2 C 17,2 C 84 % 1018,3 hPa 0,0 l/m 15,0 km/h (3 Bft) O 80 0 min 0,000 mm 0,0 UV-I 47 W/m 9,6 C 7,8 C 19,3 km/h (3 Bft) 96,30 %
20.05.2018 06:30 12,2 C 17,2 C 84 % 1018,3 hPa 0,0 l/m 16,8 km/h (3 Bft) O-NO 71 0 min 0,000 mm 0,0 UV-I 48 W/m 9,6 C 7,1 C 22,5 km/h (4 Bft) 92,31 %
20.05.2018 06:31 12,2 C 17,2 C 84 % 1018,3 hPa 0,0 l/m 16,4 km/h (3 Bft) O 80 0 min 0,000 mm 0,0 UV-I 51 W/m 9,6 C 7,3 C 19,3 km/h (3 Bft) 100,00 %
20.05.2018 06:32 12,2 C 17,2 C 84 % 1018,4 hPa 0,0 l/m 13,5 km/h (3 Bft) O-NO 67 0 min 0,000 mm 0,0 UV-I 51 W/m 9,6 C 8,4 C 17,7 km/h (3 Bft) 96,15 %
20.05.2018 06:33 12,2 C 17,2 C 84 % 1018,4 hPa 0,0 l/m 16,2 km/h (3 Bft) O 82 0 min 0,000 mm 0,0 UV-I 53 W/m 9,6 C 7,4 C 19,3 km/h (3 Bft) 100,00 %
20.05.2018 06:34 12,2 C 17,2 C 84 % 1018,4 hPa 0,0 l/m 14,1 km/h (3 Bft) NO 51 0 min 0,000 mm 0,0 UV-I 55 W/m 9,6 C 8,2 C 19,3 km/h (3 Bft) 96,15 %
20.05.2018 06:35 12,2 C 17,2 C 84 % 1018,4 hPa 0,0 l/m 17,9 km/h (3 Bft) O-NO 68 0 min 0,000 mm 0,0 UV-I 57 W/m 9,6 C 6,8 C 25,7 km/h (4 Bft) 100,00 %
20.05.2018 06:36 12,2 C 17,2 C 83 % 1018,4 hPa 0,0 l/m 17,4 km/h (3 Bft) O 98 0 min 0,000 mm 0,0 UV-I 58 W/m 9,4 C 6,9 C 24,1 km/h (4 Bft) 96,15 %
20.05.2018 06:37 12,2 C 17,2 C 83 % 1018,4 hPa 0,0 l/m 19,5 km/h (3 Bft) O 94 0 min 0,000 mm 0,0 UV-I 59 W/m 9,4 C 6,3 C 25,7 km/h (4 Bft) 100,00 %
20.05.2018 06:38 12,2 C 17,2 C 82 % 1018,4 hPa 0,0 l/m 22,6 km/h (4 Bft) O-NO 71 0 min 0,000 mm 0,0 UV-I 62 W/m 9,2 C 5,4 C 27,4 km/h (4 Bft) 96,55 %
20.05.2018 06:39 12,3 C 17,2 C 82 % 1018,4 hPa 0,0 l/m 13,3 km/h (3 Bft) O-NO 68 0 min 0,000 mm 0,0 UV-I 63 W/m 9,3 C 8,6 C 17,7 km/h (3 Bft) 100,00 %
20.05.2018 06:40 12,3 C 17,2 C 82 % 1018,4 hPa 0,0 l/m 14,4 km/h (3 Bft) O 88 0 min 0,000 mm 0,0 UV-I 63 W/m 9,3 C 8,2 C 20,9 km/h (4 Bft) 100,00 %
20.05.2018 06:41 12,3 C 17,2 C 82 % 1018,4 hPa 0,0 l/m 19,8 km/h (3 Bft) O-NO 68 0 min 0,000 mm 0,0 UV-I 66 W/m 9,3 C 6,3 C 29,0 km/h (5 Bft) 96,30 %
20.05.2018 06:42 12,3 C 17,2 C 82 % 1018,4 hPa 0,0 l/m 19,8 km/h (3 Bft) O 86 0 min 0,000 mm 0,0 UV-I 68 W/m 9,3 C 6,3 C 30,6 km/h (5 Bft) 97,73 %
20.05.2018 06:43 12,3 C 17,2 C 81 % 1018,4 hPa 0,0 l/m 19,4 km/h (3 Bft) O-NO 59 0 min 0,000 mm 0,0 UV-I 70 W/m 9,1 C 6,4 C 25,7 km/h (4 Bft) 100,00 %
20.05.2018 06:44 12,3 C 17,2 C 82 % 1018,5 hPa 0,0 l/m 17,4 km/h (3 Bft) NO 46 0 min 0,000 mm 0,0 UV-I 72 W/m 9,3 C 7,1 C 24,1 km/h (4 Bft) 100,00 %
20.05.2018 06:45 12,3 C 17,2 C 82 % 1018,5 hPa 0,0 l/m 15,2 km/h (3 Bft) O 99 0 min 0,000 mm 0,0 UV-I 72 W/m 9,3 C 7,8 C 20,9 km/h (4 Bft) 96,55 %
20.05.2018 06:46 12,3 C 17,2 C 82 % 1018,6 hPa 0,0 l/m 17,2 km/h (3 Bft) O-NO 78 0 min 0,000 mm 0,0 UV-I 75 W/m 9,3 C 7,1 C 20,9 km/h (4 Bft) 100,00 %
20.05.2018 06:47 12,3 C 17,2 C 82 % 1018,6 hPa 0,0 l/m 14,4 km/h (3 Bft) O-NO 62 0 min 0,000 mm 0,0 UV-I 76 W/m 9,3 C 8,2 C 17,7 km/h (3 Bft) 95,65 %
20.05.2018 06:48 12,2 C 17,2 C 82 % 1018,6 hPa 0,0 l/m 16,1 km/h (3 Bft) O-NO 67 0 min 0,000 mm 0,0 UV-I 78 W/m 9,2 C 7,4 C 22,5 km/h (4 Bft) 100,00 %
20.05.2018 06:49 12,3 C 17,2 C 81 % 1018,6 hPa 0,0 l/m 19,8 km/h (3 Bft) O-NO 60 0 min 0,000 mm 0,0 UV-I 80 W/m 9,1 C 6,3 C 25,7 km/h (4 Bft) 100,00 %
20.05.2018 06:50 12,3 C 17,2 C 81 % 1018,6 hPa 0,0 l/m 14,5 km/h (3 Bft) O 81 0 min 0,000 mm 0,0 UV-I 81 W/m 9,1 C 8,1 C 16,1 km/h (3 Bft) 100,00 %
20.05.2018 06:51 12,3 C 17,2 C 81 % 1018,6 hPa 0,0 l/m 18,0 km/h (3 Bft) O-NO 67 0 min 0,000 mm 0,0 UV-I 83 W/m 9,1 C 6,9 C 22,5 km/h (4 Bft) 100,00 %
20.05.2018 06:52 12,3 C 17,2 C 81 % 1018,6 hPa 0,0 l/m 18,8 km/h (3 Bft) O 82 0 min 0,000 mm 0,0 UV-I 85 W/m 9,1 C 6,6 C 25,7 km/h (4 Bft) 95,83 %
20.05.2018 06:53 12,3 C 17,2 C 80 % 1018,6 hPa 0,0 l/m 16,2 km/h (3 Bft) O-NO 67 0 min 0,000 mm 0,0 UV-I 87 W/m 8,9 C 7,5 C 20,9 km/h (4 Bft) 96,15 %
20.05.2018 06:54 12,3 C 17,2 C 80 % 1018,6 hPa 0,0 l/m 17,1 km/h (3 Bft) O-NO 70 0 min 0,000 mm 0,0 UV-I 89 W/m 8,9 C 7,2 C 20,9 km/h (4 Bft) 100,00 %
20.05.2018 06:55 12,3 C 17,2 C 80 % 1018,6 hPa 0,0 l/m 15,8 km/h (3 Bft) O 96 0 min 0,000 mm 0,0 UV-I 91 W/m 8,9 C 7,6 C 20,9 km/h (4 Bft) 100,00 %
20.05.2018 06:56 12,4 C 17,2 C 80 % 1018,6 hPa 0,0 l/m 19,3 km/h (3 Bft) O 91 0 min 0,000 mm 0,0 UV-I 93 W/m 9,0 C 6,6 C 27,4 km/h (4 Bft) 100,00 %
20.05.2018 06:57 12,4 C 17,2 C 80 % 1018,6 hPa 0,0 l/m 18,8 km/h (3 Bft) O-NO 75 0 min 0,000 mm 0,0 UV-I 94 W/m 9,0 C 6,7 C 22,5 km/h (4 Bft) 100,00 %
20.05.2018 06:58 12,4 C 17,2 C 80 % 1018,6 hPa 0,0 l/m 18,1 km/h (3 Bft) O 98 0 min 0,000 mm 0,0 UV-I 96 W/m 9,0 C 7,0 C 24,1 km/h (4 Bft) 97,84 %
20.05.2018 06:59 12,4 C 17,2 C 80 % 1018,7 hPa 0,0 l/m 20,9 km/h (4 Bft) O 87 0 min 0,000 mm 0,0 UV-I 97 W/m 9,0 C 6,1 C 30,6 km/h (5 Bft) 100,00 %
20.05.2018 07:00 12,4 C 17,2 C 80 % 1018,6 hPa 0,0 l/m 19,8 km/h (3 Bft) O 82 0 min 0,051 mm 0,0 UV-I 98 W/m 9,0 C 6,4 C 24,1 km/h (4 Bft) 96,30 %
20.05.2018 07:02 12,4 C 17,2 C 80 % 1018,6 hPa 0,0 l/m 18,2 km/h (3 Bft) O 86 0 min 0,000 mm 0,0 UV-I 102 W/m 9,0 C 6,9 C 22,5 km/h (4 Bft) 98,11 %
20.05.2018 07:03 12,3 C 17,2 C 80 % 1018,6 hPa 0,0 l/m 18,9 km/h (3 Bft) O-NO 78 0 min 0,000 mm 0,0 UV-I 106 W/m 8,9 C 6,6 C 22,5 km/h (4 Bft) 100,00 %
20.05.2018 07:04 12,4 C 17,2 C 80 % 1018,6 hPa 0,0 l/m 13,4 km/h (3 Bft) O 83 0 min 0,000 mm 0,0 UV-I 109 W/m 9,0 C 8,7 C 19,3 km/h (3 Bft) 100,00 %
20.05.2018 07:05 12,4 C 17,2 C 80 % 1018,7 hPa 0,0 l/m 14,8 km/h (3 Bft) O 92 0 min 0,000 mm 0,0 UV-I 113 W/m 9,0 C 8,1 C 19,3 km/h (3 Bft) 97,88 %
20.05.2018 07:06 12,4 C 17,2 C 80 % 1018,7 hPa 0,0 l/m 16,4 km/h (3 Bft) O 88 0 min 0,000 mm 0,0 UV-I 118 W/m 9,0 C 7,5 C 20,9 km/h (4 Bft) 100,00 %
20.05.2018 07:07 12,4 C 17,2 C 80 % 1018,7 hPa 0,0 l/m 18,9 km/h (3 Bft) O-NO 78 0 min 0,000 mm 0,0 UV-I 126 W/m 9,0 C 6,7 C 22,5 km/h (4 Bft) 100,00 %
20.05.2018 07:08 12,4 C 17,2 C 80 % 1018,7 hPa 0,0 l/m 19,4 km/h (3 Bft) O-NO 74 0 min 0,000 mm 0,0 UV-I 132 W/m 9,0 C 6,6 C 24,1 km/h (4 Bft) 100,00 %
20.05.2018 07:09 12,4 C 17,2 C 80 % 1018,7 hPa 0,0 l/m 18,0 km/h (3 Bft) O-NO 78 0 min 0,000 mm 0,0 UV-I 130 W/m 9,0 C 7,0 C 22,5 km/h (4 Bft) 91,67 %
20.05.2018 07:10 12,4 C 17,2 C 80 % 1018,7 hPa 0,0 l/m 16,6 km/h (3 Bft) O-NO 73 0 min 0,000 mm 0,0 UV-I 128 W/m 9,0 C 7,5 C 20,9 km/h (4 Bft) 100,00 %
20.05.2018 07:11 12,4 C 17,2 C 80 % 1018,7 hPa 0,0 l/m 16,5 km/h (3 Bft) O-NO 66 0 min 0,000 mm 0,0 UV-I 130 W/m 9,0 C 7,5 C 22,5 km/h (4 Bft) 96,30 %
20.05.2018 07:12 12,4 C 17,2 C 80 % 1018,8 hPa 0,0 l/m 16,9 km/h (3 Bft) O 95 0 min 0,000 mm 0,0 UV-I 134 W/m 9,0 C 7,4 C 20,9 km/h (4 Bft) 100,00 %
20.05.2018 07:13 12,4 C 17,2 C 80 % 1018,7 hPa 0,0 l/m 16,4 km/h (3 Bft) O-NO 63 0 min 0,000 mm 0,0 UV-I 140 W/m 9,0 C 7,5 C 20,9 km/h (4 Bft) 93,33 %
20.05.2018 07:14 12,4 C 17,2 C 79 % 1018,8 hPa 0,0 l/m 16,5 km/h (3 Bft) O 79 0 min 0,000 mm 0,0 UV-I 142 W/m 8,9 C 7,5 C 22,5 km/h (4 Bft) 96,88 %
20.05.2018 07:15 12,4 C 17,2 C 79 % 1018,8 hPa 0,0 l/m 11,7 km/h (2 Bft) O-NO 64 0 min 0,000 mm 0,0 UV-I 143 W/m 8,9 C 9,4 C 16,1 km/h (3 Bft) 100,00 %
20.05.2018 07:16 12,4 C 17,2 C 80 % 1018,8 hPa 0,0 l/m 14,2 km/h (3 Bft) O-NO 65 0 min 0,000 mm 0,0 UV-I 147 W/m 9,0 C 8,4 C 20,9 km/h (4 Bft) 95,65 %
20.05.2018 07:17 12,5 C 17,2 C 80 % 1018,8 hPa 0,0 l/m 14,7 km/h (3 Bft) O 86 0 min 0,000 mm 0,0 UV-I 155 W/m 9,1 C 8,3 C 22,5 km/h (4 Bft) 100,00 %
20.05.2018 07:18 12,5 C 17,2 C 80 % 1018,8 hPa 0,0 l/m 16,2 km/h (3 Bft) O 91 1 min 0,000 mm 0,0 UV-I 168 W/m 9,1 C 7,7 C 19,3 km/h (3 Bft) 92,86 %
20.05.2018 07:19 12,5 C 17,2 C 80 % 1018,8 hPa 0,0 l/m 15,5 km/h (3 Bft) NO 45 1 min 0,000 mm 0,0 UV-I 176 W/m 9,1 C 8,0 C 20,9 km/h (4 Bft) 100,00 %
20.05.2018 07:20 12,5 C 17,2 C 80 % 1018,8 hPa 0,0 l/m 17,8 km/h (3 Bft) O 83 1 min 0,000 mm 0,0 UV-I 183 W/m 9,1 C 7,2 C 22,5 km/h (4 Bft) 86,96 %
20.05.2018 07:21 12,6 C 17,2 C 79 % 1018,8 hPa 0,0 l/m 15,4 km/h (3 Bft) O 86 1 min 0,000 mm 0,0 UV-I 195 W/m 9,1 C 8,1 C 20,9 km/h (4 Bft) 100,00 %
20.05.2018 07:22 12,6 C 17,2 C 80 % 1018,9 hPa 0,0 l/m 13,3 km/h (3 Bft) O-SO 105 1 min 0,000 mm 0,0 UV-I 201 W/m 9,2 C 9,0 C 16,1 km/h (3 Bft) 92,31 %
20.05.2018 07:23 12,6 C 17,2 C 80 % 1018,9 hPa 0,0 l/m 13,4 km/h (3 Bft) O 97 1 min 0,000 mm 0,0 UV-I 197 W/m 9,2 C 8,9 C 16,1 km/h (3 Bft) 100,00 %
20.05.2018 07:24 12,6 C 17,2 C 80 % 1018,8 hPa 0,0 l/m 12,0 km/h (2 Bft) O 81 1 min 0,000 mm 0,0 UV-I 198 W/m 9,2 C 9,5 C 16,1 km/h (3 Bft) 92,59 %
20.05.2018 07:25 12,7 C 17,2 C 80 % 1018,8 hPa 0,0 l/m 15,8 km/h (3 Bft) O 101 1 min 0,000 mm 0,0 UV-I 214 W/m 9,3 C 8,1 C 24,1 km/h (4 Bft) 96,55 %
20.05.2018 07:26 12,7 C 17,2 C 79 % 1018,9 hPa 0,0 l/m 19,7 km/h (3 Bft) O-NO 61 1 min 0,000 mm 0,0 UV-I 214 W/m 9,2 C 6,9 C 27,4 km/h (4 Bft) 100,00 %
20.05.2018 07:27 12,7 C 17,2 C 79 % 1018,9 hPa 0,0 l/m 18,3 km/h (3 Bft) O-NO 74 1 min 0,000 mm 0,0 UV-I 238 W/m 9,2 C 7,3 C 22,5 km/h (4 Bft) 94,12 %
20.05.2018 07:28 12,7 C 17,2 C 79 % 1018,9 hPa 0,0 l/m 18,7 km/h (3 Bft) O 90 1 min 0,000 mm 0,0 UV-I 263 W/m 9,2 C 7,2 C 24,1 km/h (4 Bft) 100,00 %
20.05.2018 07:29 12,8 C 17,2 C 78 % 1018,9 hPa 0,0 l/m 21,9 km/h (4 Bft) O 96 1 min 0,000 mm 0,2 UV-I 284 W/m 9,1 C 6,4 C 29,0 km/h (5 Bft) 95,65 %
20.05.2018 07:30 12,8 C 17,2 C 78 % 1018,9 hPa 0,0 l/m 18,3 km/h (3 Bft) O-NO 69 1 min 0,000 mm 0,5 UV-I 287 W/m 9,1 C 7,4 C 24,1 km/h (4 Bft) 100,00 %
20.05.2018 07:31 12,8 C 17,2 C 78 % 1018,9 hPa 0,0 l/m 19,6 km/h (3 Bft) O 101 1 min 0,000 mm 0,5 UV-I 295 W/m 9,1 C 7,0 C 24,1 km/h (4 Bft) 94,12 %
20.05.2018 07:32 12,8 C 17,2 C 78 % 1018,9 hPa 0,0 l/m 16,5 km/h (3 Bft) O-NO 70 1 min 0,000 mm 0,5 UV-I 304 W/m 9,1 C 8,0 C 20,9 km/h (4 Bft) 100,00 %
20.05.2018 07:33 12,9 C 17,2 C 78 % 1018,9 hPa 0,0 l/m 12,9 km/h (3 Bft) O-NO 57 1 min 0,000 mm 0,5 UV-I 319 W/m 9,2 C 9,5 C 19,3 km/h (3 Bft) 95,65 %
20.05.2018 07:34 12,9 C 17,2 C 79 % 1018,9 hPa 0,0 l/m 18,7 km/h (3 Bft) O-NO 78 1 min 0,000 mm 0,5 UV-I 331 W/m 9,3 C 7,4 C 29,0 km/h (5 Bft) 100,00 %
20.05.2018 07:35 13,0 C 17,2 C 78 % 1018,9 hPa 0,0 l/m 21,2 km/h (4 Bft) O-NO 67 1 min 0,000 mm 0,5 UV-I 325 W/m 9,3 C 6,8 C 27,4 km/h (4 Bft) 96,15 %
20.05.2018 07:36 13,1 C 17,2 C 78 % 1018,9 hPa 0,0 l/m 16,9 km/h (3 Bft) O 80 1 min 0,000 mm 0,5 UV-I 313 W/m 9,4 C 8,2 C 22,5 km/h (4 Bft) 100,00 %
20.05.2018 07:37 13,1 C 17,2 C 78 % 1018,8 hPa 0,0 l/m 20,8 km/h (4 Bft) O-NO 66 1 min 0,000 mm 0,5 UV-I 311 W/m 9,4 C 7,1 C 27,4 km/h (4 Bft) 96,55 %
20.05.2018 07:38 13,1 C 17,2 C 77 % 1018,9 hPa 0,0 l/m 19,9 km/h (4 Bft) O 93 1 min 0,000 mm 0,5 UV-I 310 W/m 9,2 C 7,3 C 29,0 km/h (5 Bft) 92,59 %
20.05.2018 07:39 13,1 C 17,2 C 77 % 1018,9 hPa 0,0 l/m 19,3 km/h (3 Bft) O-NO 70 1 min 0,000 mm 0,5 UV-I 315 W/m 9,2 C 7,5 C 24,1 km/h (4 Bft) 100,00 %
20.05.2018 07:40 13,2 C 17,2 C 77 % 1018,9 hPa 0,0 l/m 18,5 km/h (3 Bft) O 86 1 min 0,000 mm 0,5 UV-I 321 W/m 9,3 C 7,9 C 24,1 km/h (4 Bft) 96,30 %
20.05.2018 07:41 13,2 C 17,2 C 77 % 1018,9 hPa 0,0 l/m 19,2 km/h (3 Bft) O-NO 63 1 min 0,000 mm 0,6 UV-I 319 W/m 9,3 C 7,6 C 25,7 km/h (4 Bft) 100,00 %
20.05.2018 07:43 13,2 C 17,2 C 76 % 1018,9 hPa 0,0 l/m 21,6 km/h (4 Bft) O-NO 65 2 min 0,000 mm 0,6 UV-I 330 W/m 9,1 C 7,0 C 30,6 km/h (5 Bft) 97,62 %
20.05.2018 07:44 13,2 C 17,2 C 76 % 1018,9 hPa 0,0 l/m 19,6 km/h (3 Bft) O-NO 58 1 min 0,000 mm 0,6 UV-I 361 W/m 9,1 C 7,5 C 27,4 km/h (4 Bft) 96,15 %
20.05.2018 07:45 13,3 C 17,2 C 76 % 1019,0 hPa 0,0 l/m 17,4 km/h (3 Bft) NO 47 1 min 0,000 mm 0,6 UV-I 376 W/m 9,2 C 8,3 C 27,4 km/h (4 Bft) 100,00 %
20.05.2018 07:46 13,3 C 17,2 C 76 % 1018,9 hPa 0,0 l/m 19,8 km/h (3 Bft) O 96 1 min 0,000 mm 0,6 UV-I 395 W/m 9,2 C 7,6 C 25,7 km/h (4 Bft) 95,65 %
20.05.2018 07:47 13,3 C 17,2 C 76 % 1018,9 hPa 0,0 l/m 20,7 km/h (4 Bft) O-NO 66 1 min 0,000 mm 0,6 UV-I 419 W/m 9,2 C 7,4 C 29,0 km/h (5 Bft) 100,00 %
20.05.2018 07:48 13,4 C 17,2 C 76 % 1018,9 hPa 0,0 l/m 26,7 km/h (4 Bft) O 97 1 min 0,000 mm 0,7 UV-I 435 W/m 9,3 C 6,1 C 33,8 km/h (5 Bft) 100,00 %
20.05.2018 07:49 13,4 C 17,2 C 75 % 1019,0 hPa 0,0 l/m 22,0 km/h (4 Bft) O 90 1 min 0,000 mm 0,7 UV-I 438 W/m 9,1 C 7,2 C 27,4 km/h (4 Bft) 100,00 %
20.05.2018 07:50 13,4 C 17,2 C 76 % 1019,0 hPa 0,0 l/m 24,1 km/h (4 Bft) O 86 1 min 0,000 mm 0,7 UV-I 435 W/m 9,3 C 6,6 C 32,2 km/h (5 Bft) 96,88 %
20.05.2018 07:51 13,5 C 17,2 C 76 % 1019,0 hPa 0,0 l/m 23,4 km/h (4 Bft) O 84 1 min 0,000 mm 0,7 UV-I 421 W/m 9,4 C 6,9 C 27,4 km/h (4 Bft) 91,67 %
20.05.2018 07:52 13,6 C 17,2 C 74 % 1019,0 hPa 0,0 l/m 24,9 km/h (4 Bft) O 80 1 min 0,000 mm 0,7 UV-I 425 W/m 9,1 C 6,7 C 30,6 km/h (5 Bft) 100,00 %
20.05.2018 07:53 13,6 C 17,2 C 74 % 1019,0 hPa 0,0 l/m 24,9 km/h (4 Bft) O-NO 69 1 min 0,000 mm 0,7 UV-I 441 W/m 9,1 C 6,7 C 37,0 km/h (5 Bft) 96,67 %
20.05.2018 07:54 13,6 C 17,2 C 74 % 1019,0 hPa 0,0 l/m 26,2 km/h (4 Bft) O 82 1 min 0,000 mm 0,7 UV-I 448 W/m 9,1 C 6,5 C 33,8 km/h (5 Bft) 96,15 %
20.05.2018 07:55 13,6 C 17,2 C 75 % 1019,0 hPa 0,0 l/m 22,4 km/h (4 Bft) O 92 1 min 0,000 mm 0,7 UV-I 438 W/m 9,3 C 7,3 C 37,0 km/h (5 Bft) 91,67 %
20.05.2018 07:56 13,6 C 17,2 C 75 % 1019,0 hPa 0,0 l/m 25,2 km/h (4 Bft) O 89 1 min 0,000 mm 0,7 UV-I 430 W/m 9,3 C 6,7 C 32,2 km/h (5 Bft) 100,00 %
20.05.2018 07:57 13,6 C 17,2 C 74 % 1019,0 hPa 0,0 l/m 23,0 km/h (4 Bft) O-NO 71 1 min 0,000 mm 0,7 UV-I 419 W/m 9,1 C 7,2 C 33,8 km/h (5 Bft) 96,67 %
20.05.2018 07:58 13,7 C 17,2 C 75 % 1019,0 hPa 0,0 l/m 21,2 km/h (4 Bft) O-NO 67 1 min 0,000 mm 0,7 UV-I 396 W/m 9,3 C 7,7 C 29,0 km/h (5 Bft) 97,77 %
20.05.2018 07:59 13,7 C 17,2 C 75 % 1019,0 hPa 0,0 l/m 23,9 km/h (4 Bft) O-SO 119 1 min 0,000 mm 0,7 UV-I 358 W/m 9,3 C 7,1 C 27,4 km/h (4 Bft) 95,45 %
20.05.2018 08:00 13,7 C 17,2 C 74 % 1019,0 hPa 0,0 l/m 22,6 km/h (4 Bft) O 80 1 min 0,000 mm 0,7 UV-I 382 W/m 9,2 C 7,4 C 30,6 km/h (5 Bft) 97,75 %
20.05.2018 08:02 13,7 C 17,2 C 74 % 1019,0 hPa 0,0 l/m 23,6 km/h (4 Bft) O 87 2 min 0,178 mm 0,7 UV-I 309 W/m 9,2 C 7,2 C 33,8 km/h (5 Bft) 93,15 %
20.05.2018 08:03 13,7 C 17,2 C 74 % 1019,0 hPa 0,0 l/m 22,7 km/h (4 Bft) O-SO 107 1 min 0,000 mm 0,7 UV-I 309 W/m 9,2 C 7,4 C 30,6 km/h (5 Bft) 100,00 %
20.05.2018 08:04 13,7 C 17,2 C 74 % 1019,0 hPa 0,0 l/m 21,0 km/h (4 Bft) O 86 1 min 0,000 mm 0,7 UV-I 343 W/m 9,2 C 7,8 C 25,7 km/h (4 Bft) 93,33 %
20.05.2018 08:05 13,7 C 17,2 C 73 % 1019,0 hPa 0,0 l/m 20,9 km/h (4 Bft) O 86 1 min 0,000 mm 0,7 UV-I 371 W/m 8,9 C 7,8 C 29,0 km/h (5 Bft) 96,15 %
20.05.2018 08:06 13,8 C 17,2 C 74 % 1019,0 hPa 0,0 l/m 18,5 km/h (3 Bft) O 88 1 min 0,000 mm 0,8 UV-I 378 W/m 9,2 C 8,6 C 22,5 km/h (4 Bft) 86,67 %
20.05.2018 08:07 13,8 C 17,2 C 73 % 1019,0 hPa 0,0 l/m 26,3 km/h (4 Bft) O-NO 71 1 min 0,000 mm 0,8 UV-I 364 W/m 9,0 C 6,7 C 32,2 km/h (5 Bft) 96,55 %
20.05.2018 08:08 13,8 C 17,2 C 73 % 1019,0 hPa 0,0 l/m 24,8 km/h (4 Bft) NO 45 1 min 0,000 mm 0,8 UV-I 355 W/m 9,0 C 7,0 C 35,4 km/h (5 Bft) 88,89 %
20.05.2018 08:09 13,7 C 17,2 C 73 % 1019,0 hPa 0,0 l/m 20,0 km/h (4 Bft) O 86 1 min 0,000 mm 0,8 UV-I 352 W/m 8,9 C 8,1 C 27,4 km/h (4 Bft) 95,65 %
20.05.2018 08:10 13,8 C 17,2 C 74 % 1019,0 hPa 0,0 l/m 18,1 km/h (3 Bft) O-NO 77 1 min 0,000 mm 0,8 UV-I 340 W/m 9,2 C 8,7 C 22,5 km/h (4 Bft) 96,30 %
20.05.2018 08:11 13,8 C 17,2 C 74 % 1019,0 hPa 0,0 l/m 16,1 km/h (3 Bft) O 82 1 min 0,000 mm 0,8 UV-I 336 W/m 9,2 C 9,4 C 20,9 km/h (4 Bft) 93,10 %
20.05.2018 08:12 13,9 C 17,2 C 74 % 1019,0 hPa 0,0 l/m 19,6 km/h (3 Bft) O 86 1 min 0,000 mm 0,8 UV-I 328 W/m 9,3 C 8,4 C 24,1 km/h (4 Bft) 100,00 %
20.05.2018 08:13 13,9 C 17,2 C 74 % 1019,0 hPa 0,0 l/m 17,2 km/h (3 Bft) O-NO 63 1 min 0,000 mm 0,8 UV-I 322 W/m 9,3 C 9,1 C 20,9 km/h (4 Bft) 96,15 %
20.05.2018 08:14 13,9 C 17,2 C 74 % 1019,1 hPa 0,0 l/m 20,2 km/h (4 Bft) O-NO 58 1 min 0,000 mm 0,8 UV-I 317 W/m 9,3 C 8,3 C 35,4 km/h (5 Bft) 95,83 %
20.05.2018 08:15 13,9 C 17,2 C 73 % 1019,0 hPa 0,0 l/m 25,7 km/h (4 Bft) O 100 1 min 0,000 mm 0,8 UV-I 316 W/m 9,1 C 7,0 C 33,8 km/h (5 Bft) 95,65 %
20.05.2018 08:16 13,9 C 17,2 C 71 % 1019,0 hPa 0,0 l/m 24,5 km/h (4 Bft) O-NO 67 1 min 0,000 mm 0,8 UV-I 311 W/m 8,7 C 7,2 C 30,6 km/h (5 Bft) 95,83 %
20.05.2018 08:18 13,9 C 17,2 C 73 % 1019,0 hPa 0,0 l/m 20,1 km/h (4 Bft) O-SO 123 2 min 0,000 mm 0,8 UV-I 323 W/m 9,1 C 8,3 C 30,6 km/h (5 Bft) 97,73 %
20.05.2018 08:19 13,9 C 17,2 C 72 % 1019,0 hPa 0,0 l/m 18,8 km/h (3 Bft) O-NO 67 1 min 0,000 mm 0,8 UV-I 346 W/m 8,9 C 8,7 C 25,7 km/h (4 Bft) 100,00 %
20.05.2018 08:20 13,9 C 17,2 C 73 % 1019,0 hPa 0,0 l/m 16,3 km/h (3 Bft) O 97 1 min 0,000 mm 0,8 UV-I 349 W/m 9,1 C 9,4 C 20,9 km/h (4 Bft) 95,83 %
20.05.2018 08:21 14,0 C 17,2 C 73 % 1019,0 hPa 0,0 l/m 23,3 km/h (4 Bft) O 90 1 min 0,000 mm 0,8 UV-I 349 W/m 9,2 C 7,6 C 35,4 km/h (5 Bft) 96,55 %
20.05.2018 08:22 14,0 C 17,2 C 71 % 1019,1 hPa 0,0 l/m 27,4 km/h (4 Bft) O-NO 76 1 min 0,000 mm 0,9 UV-I 345 W/m 8,8 C 6,8 C 35,4 km/h (5 Bft) 100,00 %
20.05.2018 08:23 14,0 C 17,2 C 72 % 1019,0 hPa 0,0 l/m 19,8 km/h (3 Bft) O 86 1 min 0,000 mm 0,9 UV-I 337 W/m 9,0 C 8,5 C 33,8 km/h (5 Bft) 100,00 %
20.05.2018 08:24 14,0 C 17,2 C 72 % 1019,0 hPa 0,0 l/m 20,5 km/h (4 Bft) O 85 1 min 0,000 mm 0,9 UV-I 326 W/m 9,0 C 8,3 C 25,7 km/h (4 Bft) 94,12 %
20.05.2018 08:25 14,0 C 17,2 C 71 % 1019,0 hPa 0,0 l/m 23,1 km/h (4 Bft) O-NO 67 1 min 0,000 mm 0,9 UV-I 318 W/m 8,8 C 7,7 C 30,6 km/h (5 Bft) 96,67 %
20.05.2018 08:26 14,0 C 17,2 C 72 % 1019,0 hPa 0,0 l/m 18,7 km/h (3 Bft) O 88 1 min 0,000 mm 0,9 UV-I 312 W/m 9,0 C 8,8 C 25,7 km/h (4 Bft) 100,00 %
20.05.2018 08:27 14,0 C 17,2 C 72 % 1019,1 hPa 0,0 l/m 16,7 km/h (3 Bft) O-NO 76 1 min 0,000 mm 0,9 UV-I 310 W/m 9,0 C 9,4 C 25,7 km/h (4 Bft) 95,83 %
20.05.2018 08:28 14,1 C 17,2 C 72 % 1019,1 hPa 0,0 l/m 22,1 km/h (4 Bft) O 79 1 min 0,000 mm 0,9 UV-I 319 W/m 9,1 C 8,0 C 27,4 km/h (4 Bft) 96,15 %
20.05.2018 08:29 14,1 C 17,2 C 72 % 1019,0 hPa 0,0 l/m 19,9 km/h (4 Bft) O-NO 73 1 min 0,000 mm 0,9 UV-I 335 W/m 9,1 C 8,6 C 27,4 km/h (4 Bft) 100,00 %
20.05.2018 08:30 14,1 C 17,2 C 73 % 1019,0 hPa 0,0 l/m 18,4 km/h (3 Bft) O 86 1 min 0,000 mm 0,9 UV-I 335 W/m 9,3 C 9,0 C 27,4 km/h (4 Bft) 100,00 %
20.05.2018 08:31 14,1 C 17,2 C 72 % 1019,1 hPa 0,0 l/m 20,5 km/h (4 Bft) NO 46 1 min 0,000 mm 0,9 UV-I 326 W/m 9,1 C 8,5 C 25,7 km/h (4 Bft) 100,00 %
20.05.2018 08:32 14,2 C 17,2 C 72 % 1019,1 hPa 0,0 l/m 21,6 km/h (4 Bft) O 87 1 min 0,000 mm 0,9 UV-I 320 W/m 9,2 C 8,3 C 27,4 km/h (4 Bft) 92,86 %
20.05.2018 08:33 14,2 C 17,2 C 72 % 1019,1 hPa 0,0 l/m 19,6 km/h (3 Bft) O-NO 73 1 min 0,000 mm 1,0 UV-I 333 W/m 9,2 C 8,8 C 27,4 km/h (4 Bft) 100,00 %
20.05.2018 08:34 14,2 C 17,2 C 72 % 1019,0 hPa 0,0 l/m 19,7 km/h (3 Bft) O 85 1 min 0,000 mm 1,0 UV-I 343 W/m 9,2 C 8,8 C 27,4 km/h (4 Bft) 100,00 %
20.05.2018 08:35 14,2 C 17,2 C 71 % 1019,0 hPa 0,0 l/m 20,2 km/h (4 Bft) O 88 1 min 0,000 mm 1,0 UV-I 350 W/m 9,0 C 8,7 C 27,4 km/h (4 Bft) 100,00 %
20.05.2018 08:36 14,2 C 17,2 C 72 % 1019,1 hPa 0,0 l/m 21,5 km/h (4 Bft) NO 49 1 min 0,000 mm 1,0 UV-I 355 W/m 9,2 C 8,3 C 25,7 km/h (4 Bft) 100,00 %
20.05.2018 08:37 14,2 C 17,2 C 72 % 1019,1 hPa 0,0 l/m 18,5 km/h (3 Bft) O 80 1 min 0,000 mm 1,0 UV-I 357 W/m 9,2 C 9,1 C 24,1 km/h (4 Bft) 100,00 %
20.05.2018 08:38 14,3 C 17,2 C 72 % 1019,1 hPa 0,0 l/m 14,6 km/h (3 Bft) O 79 1 min 0,000 mm 1,0 UV-I 358 W/m 9,3 C 10,5 C 19,3 km/h (3 Bft) 100,00 %
20.05.2018 08:39 14,3 C 17,2 C 73 % 1019,1 hPa 0,0 l/m 21,2 km/h (4 Bft) O-NO 57 1 min 0,000 mm 1,0 UV-I 359 W/m 9,5 C 8,5 C 27,4 km/h (4 Bft) 100,00 %
20.05.2018 08:40 14,3 C 17,2 C 72 % 1019,0 hPa 0,0 l/m 19,8 km/h (3 Bft) O 87 1 min 0,000 mm 1,0 UV-I 356 W/m 9,3 C 8,9 C 25,7 km/h (4 Bft) 100,00 %
20.05.2018 08:41 14,4 C 17,2 C 71 % 1019,1 hPa 0,0 l/m 17,2 km/h (3 Bft) O-NO 77 1 min 0,000 mm 1,1 UV-I 355 W/m 9,2 C 9,8 C 22,5 km/h (4 Bft) 100,00 %
20.05.2018 08:42 14,4 C 17,2 C 71 % 1019,1 hPa 0,0 l/m 23,1 km/h (4 Bft) O 87 1 min 0,000 mm 1,1 UV-I 360 W/m 9,2 C 8,2 C 30,6 km/h (5 Bft) 100,00 %
20.05.2018 08:43 14,4 C 17,2 C 71 % 1019,1 hPa 0,0 l/m 20,9 km/h (4 Bft) O-NO 62 1 min 0,000 mm 1,1 UV-I 375 W/m 9,2 C 8,7 C 27,4 km/h (4 Bft) 100,00 %
20.05.2018 08:44 14,4 C 17,2 C 71 % 1019,1 hPa 0,0 l/m 24,1 km/h (4 Bft) O-NO 69 1 min 0,000 mm 1,1 UV-I 400 W/m 9,2 C 8,0 C 32,2 km/h (5 Bft) 100,00 %
20.05.2018 08:45 14,4 C 17,2 C 71 % 1019,1 hPa 0,0 l/m 23,1 km/h (4 Bft) O 94 1 min 0,000 mm 1,1 UV-I 429 W/m 9,2 C 8,2 C 27,4 km/h (4 Bft) 100,00 %
20.05.2018 08:46 14,5 C 17,2 C 70 % 1019,1 hPa 0,0 l/m 24,1 km/h (4 Bft) NO 40 1 min 0,000 mm 1,2 UV-I 446 W/m 9,1 C 8,1 C 32,2 km/h (5 Bft) 100,00 %
20.05.2018 08:47 14,5 C 17,2 C 71 % 1019,1 hPa 0,0 l/m 19,3 km/h (3 Bft) O-NO 77 1 min 0,000 mm 1,2 UV-I 464 W/m 9,3 C 9,3 C 24,1 km/h (4 Bft) 100,00 %
20.05.2018 08:48 14,6 C 17,2 C 71 % 1019,1 hPa 0,0 l/m 19,2 km/h (3 Bft) O-NO 66 1 min 0,000 mm 1,2 UV-I 453 W/m 9,4 C 9,4 C 24,1 km/h (4 Bft) 100,00 %
20.05.2018 08:49 14,6 C 17,2 C 71 % 1019,1 hPa 0,0 l/m 22,3 km/h (4 Bft) O 88 1 min 0,000 mm 1,2 UV-I 432 W/m 9,4 C 8,7 C 29,0 km/h (5 Bft) 100,00 %
20.05.2018 08:50 14,7 C 17,2 C 71 % 1019,1 hPa 0,0 l/m 25,1 km/h (4 Bft) O 80 1 min 0,000 mm 1,2 UV-I 436 W/m 9,5 C 8,2 C 32,2 km/h (5 Bft) 100,00 %
20.05.2018 08:51 14,7 C 17,2 C 69 % 1019,1 hPa 0,0 l/m 19,4 km/h (3 Bft) O-NO 78 1 min 0,000 mm 1,2 UV-I 427 W/m 9,1 C 9,5 C 25,7 km/h (4 Bft) 100,00 %
20.05.2018 08:52 14,7 C 17,2 C 69 % 1019,1 hPa 0,0 l/m 24,5 km/h (4 Bft) O-NO 57 1 min 0,000 mm 1,2 UV-I 415 W/m 9,1 C 8,3 C 29,0 km/h (5 Bft) 100,00 %
20.05.2018 08:53 14,7 C 17,2 C 70 % 1019,1 hPa 0,0 l/m 20,4 km/h (4 Bft) O-NO 57 1 min 0,000 mm 1,2 UV-I 397 W/m 9,3 C 9,3 C 27,4 km/h (4 Bft) 100,00 %
20.05.2018 08:54 14,7 C 17,2 C 69 % 1019,1 hPa 0,0 l/m 21,7 km/h (4 Bft) O 90 1 min 0,000 mm 1,2 UV-I 393 W/m 9,1 C 8,9 C 27,4 km/h (4 Bft) 100,00 %
20.05.2018 08:55 14,7 C 17,2 C 69 % 1019,1 hPa 0,0 l/m 19,8 km/h (3 Bft) O-NO 69 1 min 0,000 mm 1,2 UV-I 400 W/m 9,1 C 9,4 C 25,7 km/h (4 Bft) 100,00 %
20.05.2018 08:56 14,7 C 17,2 C 70 % 1019,1 hPa 0,0 l/m 18,2 km/h (3 Bft) O 98 1 min 0,000 mm 1,3 UV-I 407 W/m 9,3 C 9,8 C 25,7 km/h (4 Bft) 100,00 %
20.05.2018 08:57 14,8 C 17,2 C 71 % 1019,1 hPa 0,0 l/m 16,7 km/h (3 Bft) O 90 1 min 0,000 mm 1,3 UV-I 409 W/m 9,6 C 10,4 C 22,5 km/h (4 Bft) 95,83 %
20.05.2018 08:58 14,8 C 17,2 C 71 % 1019,1 hPa 0,0 l/m 17,1 km/h (3 Bft) O 90 1 min 0,000 mm 1,3 UV-I 401 W/m 9,6 C 10,3 C 24,1 km/h (4 Bft) 100,00 %
20.05.2018 08:59 14,9 C 17,2 C 70 % 1019,1 hPa 0,0 l/m 20,4 km/h (4 Bft) O-SO 116 1 min 0,000 mm 1,3 UV-I 376 W/m 9,5 C 9,5 C 25,7 km/h (4 Bft) 100,00 %
20.05.2018 09:00 14,9 C 17,2 C 70 % 1019,1 hPa 0,0 l/m 18,4 km/h (3 Bft) O-NO 58 1 min 0,000 mm 1,3 UV-I 396 W/m 9,5 C 10,0 C 22,5 km/h (4 Bft) 97,78 %
20.05.2018 09:02 14,9 C 17,2 C 69 % 1019,1 hPa 0,0 l/m 21,5 km/h (4 Bft) NO 49 2 min 0,254 mm 1,3 UV-I 417 W/m 9,3 C 9,2 C 30,6 km/h (5 Bft) 98,31 %
20.05.2018 09:03 14,9 C 17,2 C 69 % 1019,1 hPa 0,0 l/m 21,2 km/h (4 Bft) O 86 1 min 0,000 mm 1,3 UV-I 401 W/m 9,3 C 9,3 C 27,4 km/h (4 Bft) 100,00 %
20.05.2018 09:04 14,9 C 17,2 C 68 % 1019,1 hPa 0,0 l/m 24,1 km/h (4 Bft) O-NO 67 1 min 0,000 mm 1,3 UV-I 384 W/m 9,0 C 8,7 C 29,0 km/h (5 Bft) 100,00 %
20.05.2018 09:05 14,9 C 17,2 C 68 % 1019,1 hPa 0,0 l/m 19,6 km/h (3 Bft) O 85 1 min 0,000 mm 1,3 UV-I 399 W/m 9,0 C 9,7 C 25,7 km/h (4 Bft) 100,00 %
20.05.2018 09:06 14,9 C 17,2 C 69 % 1019,1 hPa 0,0 l/m 17,2 km/h (3 Bft) NO 55 1 min 0,000 mm 1,4 UV-I 429 W/m 9,3 C 10,4 C 22,5 km/h (4 Bft) 88,24 %
20.05.2018 09:07 15,0 C 17,2 C 69 % 1019,1 hPa 0,0 l/m 21,0 km/h (4 Bft) O-NO 66 1 min 0,000 mm 1,4 UV-I 460 W/m 9,4 C 9,5 C 25,7 km/h (4 Bft) 100,00 %
20.05.2018 09:08 15,0 C 17,2 C 69 % 1019,0 hPa 0,0 l/m 18,7 km/h (3 Bft) O-NO 66 1 min 0,000 mm 1,5 UV-I 484 W/m 9,4 C 10,1 C 24,1 km/h (4 Bft) 96,15 %
20.05.2018 09:09 15,1 C 17,2 C 69 % 1019,1 hPa 0,0 l/m 20,4 km/h (4 Bft) O 87 1 min 0,000 mm 1,5 UV-I 517 W/m 9,5 C 9,8 C 24,1 km/h (4 Bft) 100,00 %
20.05.2018 09:10 15,1 C 17,2 C 69 % 1019,1 hPa 0,0 l/m 16,2 km/h (3 Bft) O-NO 62 1 min 0,000 mm 1,6 UV-I 560 W/m 9,5 C 10,9 C 22,5 km/h (4 Bft) 95,65 %
20.05.2018 09:11 15,2 C 17,2 C 70 % 1019,0 hPa 0,0 l/m 18,4 km/h (3 Bft) O-NO 69 1 min 0,000 mm 1,6 UV-I 590 W/m 9,8 C 10,4 C 22,5 km/h (4 Bft) 100,00 %
20.05.2018 09:12 15,3 C 17,2 C 68 % 1019,0 hPa 0,0 l/m 22,4 km/h (4 Bft) O-NO 74 1 min 0,000 mm 1,7 UV-I 617 W/m 9,4 C 9,6 C 27,4 km/h (4 Bft) 100,00 %
20.05.2018 09:13 15,3 C 17,2 C 68 % 1019,0 hPa 0,0 l/m 26,5 km/h (4 Bft) O-NO 76 1 min 0,000 mm 1,7 UV-I 638 W/m 9,4 C 8,7 C 33,8 km/h (5 Bft) 100,00 %
20.05.2018 09:14 15,3 C 17,2 C 67 % 1019,0 hPa 0,0 l/m 22,1 km/h (4 Bft) O 97 1 min 0,000 mm 1,7 UV-I 644 W/m 9,2 C 9,6 C 27,4 km/h (4 Bft) 100,00 %
20.05.2018 09:15 15,3 C 17,2 C 67 % 1019,0 hPa 0,0 l/m 22,7 km/h (4 Bft) NO 37 1 min 0,000 mm 1,7 UV-I 588 W/m 9,2 C 9,5 C 27,4 km/h (4 Bft) 100,00 %
20.05.2018 09:16 15,4 C 17,2 C 68 % 1019,0 hPa 0,0 l/m 17,7 km/h (3 Bft) O-NO 67 1 min 0,000 mm 1,7 UV-I 575 W/m 9,5 C 10,9 C 22,5 km/h (4 Bft) 100,00 %
20.05.2018 09:18 15,6 C 17,2 C 68 % 1019,0 hPa 0,0 l/m 14,9 km/h (3 Bft) O-NO 76 2 min 0,000 mm 1,6 UV-I 519 W/m 9,7 C 12,0 C 20,9 km/h (4 Bft) 100,00 %
20.05.2018 09:19 15,6 C 17,2 C 68 % 1019,0 hPa 0,0 l/m 15,4 km/h (3 Bft) O-NO 60 1 min 0,000 mm 1,7 UV-I 548 W/m 9,7 C 11,8 C 20,9 km/h (4 Bft) 100,00 %
20.05.2018 09:20 15,7 C 17,2 C 68 % 1019,0 hPa 0,0 l/m 16,4 km/h (3 Bft) O-NO 60 1 min 0,000 mm 1,7 UV-I 585 W/m 9,8 C 11,6 C 24,1 km/h (4 Bft) 95,83 %
20.05.2018 09:21 15,8 C 17,2 C 69 % 1019,0 hPa 0,0 l/m 16,9 km/h (3 Bft) O 80 1 min 0,000 mm 1,8 UV-I 596 W/m 10,1 C 11,6 C 29,0 km/h (5 Bft) 96,15 %
20.05.2018 09:22 15,8 C 17,2 C 68 % 1019,0 hPa 0,0 l/m 18,3 km/h (3 Bft) O-NO 63 1 min 0,000 mm 1,8 UV-I 592 W/m 9,9 C 11,2 C 22,5 km/h (4 Bft) 100,00 %
20.05.2018 09:23 15,9 C 17,2 C 67 % 1019,0 hPa 0,0 l/m 24,2 km/h (4 Bft) O-NO 68 1 min 0,000 mm 1,8 UV-I 566 W/m 9,8 C 10,0 C 27,4 km/h (4 Bft) 100,00 %
20.05.2018 09:24 15,9 C 17,2 C 65 % 1019,0 hPa 0,0 l/m 21,0 km/h (4 Bft) O-NO 69 1 min 0,000 mm 1,8 UV-I 555 W/m 9,3 C 10,7 C 29,0 km/h (5 Bft) 100,00 %
20.05.2018 09:25 15,9 C 17,2 C 65 % 1019,0 hPa 0,0 l/m 23,2 km/h (4 Bft) O-NO 77 1 min 0,000 mm 1,8 UV-I 542 W/m 9,3 C 10,2 C 29,0 km/h (5 Bft) 100,00 %
20.05.2018 09:26 15,9 C 17,2 C 64 % 1019,0 hPa 0,0 l/m 23,5 km/h (4 Bft) O-NO 77 1 min 0,000 mm 1,8 UV-I 540 W/m 9,1 C 10,1 C 30,6 km/h (5 Bft) 100,00 %
20.05.2018 09:27 15,9 C 17,2 C 65 % 1019,0 hPa 0,0 l/m 24,1 km/h (4 Bft) O-NO 69 1 min 0,000 mm 1,8 UV-I 552 W/m 9,3 C 10,0 C 30,6 km/h (5 Bft) 100,00 %
20.05.2018 09:28 15,8 C 17,2 C 66 % 1019,0 hPa 0,0 l/m 25,0 km/h (4 Bft) O 84 1 min 0,000 mm 1,8 UV-I 536 W/m 9,5 C 9,7 C 35,4 km/h (5 Bft) 100,00 %
20.05.2018 09:29 15,8 C 17,2 C 65 % 1019,0 hPa 0,0 l/m 24,5 km/h (4 Bft) O 79 1 min 0,000 mm 1,8 UV-I 531 W/m 9,2 C 9,8 C 32,2 km/h (5 Bft) 100,00 %
20.05.2018 09:30 15,8 C 17,2 C 64 % 1019,0 hPa 0,0 l/m 26,7 km/h (4 Bft) O 85 1 min 0,000 mm 1,8 UV-I 523 W/m 9,0 C 9,4 C 33,8 km/h (5 Bft) 100,00 %
20.05.2018 09:31 15,8 C 17,2 C 64 % 1019,0 hPa 0,0 l/m 28,0 km/h (4 Bft) O 84 1 min 0,000 mm 1,8 UV-I 512 W/m 9,0 C 9,1 C 35,4 km/h (5 Bft) 100,00 %
20.05.2018 09:32 15,8 C 17,2 C 63 % 1019,0 hPa 0,0 l/m 25,6 km/h (4 Bft) O-NO 73 1 min 0,000 mm 1,8 UV-I 524 W/m 8,8 C 9,6 C 32,2 km/h (5 Bft) 100,00 %
20.05.2018 09:33 15,8 C 17,2 C 65 % 1018,9 hPa 0,0 l/m 26,2 km/h (4 Bft) O 96 1 min 0,000 mm 1,9 UV-I 560 W/m 9,2 C 9,5 C 35,4 km/h (5 Bft) 100,00 %
20.05.2018 09:34 15,8 C 17,2 C 64 % 1019,0 hPa 0,0 l/m 27,4 km/h (4 Bft) O-NO 65 1 min 0,000 mm 1,9 UV-I 589 W/m 9,0 C 9,2 C 33,8 km/h (5 Bft) 100,00 %
20.05.2018 09:35 15,8 C 17,2 C 64 % 1019,0 hPa 0,0 l/m 23,2 km/h (4 Bft) O 90 1 min 0,000 mm 1,9 UV-I 590 W/m 9,0 C 10,1 C 30,6 km/h (5 Bft) 93,33 %
20.05.2018 09:36 15,9 C 17,2 C 64 % 1019,0 hPa 0,0 l/m 20,7 km/h (4 Bft) O 94 1 min 0,000 mm 1,9 UV-I 565 W/m 9,1 C 10,7 C 25,7 km/h (4 Bft) 100,00 %
20.05.2018 09:37 15,9 C 17,2 C 66 % 1019,0 hPa 0,0 l/m 22,0 km/h (4 Bft) O 84 1 min 0,000 mm 1,9 UV-I 536 W/m 9,6 C 10,4 C 25,7 km/h (4 Bft) 100,00 %
20.05.2018 09:38 16,0 C 17,2 C 63 % 1019,0 hPa 0,0 l/m 31,5 km/h (5 Bft) O 80 1 min 0,000 mm 1,9 UV-I 513 W/m 9,0 C 8,9 C 40,2 km/h (6 Bft) 100,00 %
20.05.2018 09:39 16,0 C 17,2 C 62 % 1019,0 hPa 0,0 l/m 26,8 km/h (4 Bft) O 94 1 min 0,000 mm 1,9 UV-I 517 W/m 8,7 C 9,6 C 33,8 km/h (5 Bft) 100,00 %
20.05.2018 09:40 16,0 C 17,2 C 63 % 1019,0 hPa 0,0 l/m 26,2 km/h (4 Bft) O 94 1 min 0,000 mm 1,8 UV-I 477 W/m 9,0 C 9,7 C 33,8 km/h (5 Bft) 100,00 %
20.05.2018 09:41 15,9 C 17,2 C 62 % 1019,0 hPa 0,0 l/m 27,4 km/h (4 Bft) O-NO 76 1 min 0,000 mm 1,8 UV-I 461 W/m 8,6 C 9,4 C 41,8 km/h (6 Bft) 95,83 %
20.05.2018 09:42 15,9 C 17,2 C 63 % 1019,0 hPa 0,0 l/m 23,6 km/h (4 Bft) O 94 1 min 0,000 mm 1,7 UV-I 392 W/m 8,9 C 10,1 C 30,6 km/h (5 Bft) 100,00 %
20.05.2018 09:43 15,9 C 17,2 C 61 % 1019,0 hPa 0,0 l/m 28,3 km/h (4 Bft) O 91 0 min 0,000 mm 1,6 UV-I 322 W/m 8,4 C 9,2 C 38,6 km/h (5 Bft) 100,00 %
20.05.2018 09:44 15,8 C 17,2 C 61 % 1019,0 hPa 0,0 l/m 28,0 km/h (4 Bft) O 82 0 min 0,000 mm 1,7 UV-I 312 W/m 8,3 C 9,1 C 35,4 km/h (5 Bft) 100,00 %
20.05.2018 09:45 15,8 C 17,2 C 62 % 1019,0 hPa 0,0 l/m 26,8 km/h (4 Bft) O 92 1 min 0,000 mm 1,8 UV-I 365 W/m 8,5 C 9,4 C 33,8 km/h (5 Bft) 100,00 %
20.05.2018 09:46 15,8 C 17,2 C 62 % 1019,0 hPa 0,0 l/m 23,2 km/h (4 Bft) O-SO 103 1 min 0,000 mm 2,0 UV-I 484 W/m 8,5 C 10,1 C 30,6 km/h (5 Bft) 100,00 %
20.05.2018 09:47 15,8 C 17,2 C 62 % 1019,1 hPa 0,0 l/m 24,7 km/h (4 Bft) O-NO 65 1 min 0,000 mm 2,0 UV-I 577 W/m 8,5 C 9,8 C 35,4 km/h (5 Bft) 92,59 %
20.05.2018 09:48 15,8 C 17,2 C 62 % 1019,1 hPa 0,0 l/m 23,3 km/h (4 Bft) O 79 1 min 0,000 mm 2,1 UV-I 606 W/m 8,5 C 10,0 C 29,0 km/h (5 Bft) 92,31 %
20.05.2018 09:49 15,9 C 17,2 C 63 % 1019,0 hPa 0,0 l/m 25,2 km/h (4 Bft) O-SO 118 1 min 0,000 mm 2,2 UV-I 639 W/m 8,9 C 9,8 C 32,2 km/h (5 Bft) 93,33 %
20.05.2018 09:50 16,0 C 17,2 C 63 % 1019,0 hPa 0,0 l/m 21,7 km/h (4 Bft) O 79 1 min 0,000 mm 2,2 UV-I 643 W/m 9,0 C 10,6 C 25,7 km/h (4 Bft) 96,15 %
20.05.2018 09:51 16,1 C 17,2 C 63 % 1019,1 hPa 0,0 l/m 20,2 km/h (4 Bft) O-NO 65 1 min 0,000 mm 2,2 UV-I 646 W/m 9,1 C 11,1 C 24,1 km/h (4 Bft) 100,00 %
20.05.2018 09:52 16,1 C 17,2 C 64 % 1019,0 hPa 0,0 l/m 20,3 km/h (4 Bft) O 98 1 min 0,000 mm 2,2 UV-I 642 W/m 9,3 C 11,1 C 25,7 km/h (4 Bft) 96,67 %
20.05.2018 09:53 16,2 C 17,2 C 64 % 1019,1 hPa 0,0 l/m 16,5 km/h (3 Bft) O-NO 65 1 min 0,000 mm 2,3 UV-I 642 W/m 9,4 C 12,2 C 24,1 km/h (4 Bft) 96,15 %
20.05.2018 09:54 16,4 C 17,2 C 65 % 1019,0 hPa 0,0 l/m 19,8 km/h (3 Bft) O 98 1 min 0,000 mm 2,3 UV-I 653 W/m 9,8 C 11,6 C 30,6 km/h (5 Bft) 100,00 %
20.05.2018 09:55 16,4 C 17,2 C 63 % 1019,0 hPa 0,0 l/m 14,3 km/h (3 Bft) NO 42 1 min 0,000 mm 2,3 UV-I 631 W/m 9,3 C 13,1 C 19,3 km/h (3 Bft) 95,83 %
20.05.2018 09:56 16,6 C 17,2 C 64 % 1019,0 hPa 0,0 l/m 22,1 km/h (4 Bft) O-NO 76 1 min 0,000 mm 2,2 UV-I 587 W/m 9,8 C 11,3 C 33,8 km/h (5 Bft) 100,00 %
20.05.2018 09:57 16,6 C 17,2 C 62 % 1019,0 hPa 0,0 l/m 21,7 km/h (4 Bft) O-NO 66 1 min 0,000 mm 2,2 UV-I 555 W/m 9,3 C 11,4 C 37,0 km/h (5 Bft) 96,15 %
20.05.2018 09:58 16,7 C 17,2 C 63 % 1019,0 hPa 0,0 l/m 22,4 km/h (4 Bft) O 84 1 min 0,000 mm 2,3 UV-I 595 W/m 9,6 C 11,4 C 29,0 km/h (5 Bft) 96,30 %
20.05.2018 09:59 16,7 C 17,2 C 62 % 1019,0 hPa 0,0 l/m 15,5 km/h (3 Bft) O 90 1 min 0,000 mm 2,4 UV-I 648 W/m 9,4 C 13,1 C 24,1 km/h (4 Bft) 100,00 %
20.05.2018 10:00 16,7 C 17,2 C 63 % 1019,0 hPa 0,0 l/m 24,5 km/h (4 Bft) O-NO 63 1 min 0,381 mm 2,4 UV-I 688 W/m 9,6 C 11,0 C 32,2 km/h (5 Bft) 95,83 %
20.05.2018 10:02 16,8 C 17,2 C 60 % 1019,0 hPa 0,0 l/m 22,1 km/h (4 Bft) O-SO 105 2 min 0,000 mm 2,5 UV-I 726 W/m 9,0 C 11,6 C 32,2 km/h (5 Bft) 98,21 %
20.05.2018 10:03 16,8 C 17,2 C 60 % 1019,0 hPa 0,0 l/m 21,7 km/h (4 Bft) NO 56 1 min 0,000 mm 2,6 UV-I 730 W/m 9,0 C 11,7 C 30,6 km/h (5 Bft) 97,91 %
20.05.2018 10:04 16,8 C 17,2 C 61 % 1019,0 hPa 0,0 l/m 22,1 km/h (4 Bft) O-NO 77 1 min 0,000 mm 2,6 UV-I 737 W/m 9,2 C 11,6 C 30,6 km/h (5 Bft) 97,73 %
20.05.2018 10:05 16,8 C 17,2 C 60 % 1019,0 hPa 0,0 l/m 21,9 km/h (4 Bft) O 79 1 min 0,000 mm 2,6 UV-I 740 W/m 9,0 C 11,7 C 29,0 km/h (5 Bft) 100,00 %
20.05.2018 10:06 16,8 C 17,2 C 60 % 1019,0 hPa 0,0 l/m 20,8 km/h (4 Bft) O 94 1 min 0,000 mm 2,6 UV-I 716 W/m 9,0 C 11,9 C 27,4 km/h (4 Bft) 96,67 %
20.05.2018 10:07 16,9 C 17,2 C 59 % 1019,0 hPa 0,0 l/m 21,2 km/h (4 Bft) O-NO 74 1 min 0,000 mm 2,6 UV-I 706 W/m 8,8 C 11,9 C 29,0 km/h (5 Bft) 96,15 %
20.05.2018 10:08 16,9 C 17,2 C 60 % 1019,0 hPa 0,0 l/m 24,3 km/h (4 Bft) O-NO 65 1 min 0,000 mm 2,6 UV-I 693 W/m 9,1 C 11,3 C 33,8 km/h (5 Bft) 100,00 %
20.05.2018 10:09 16,9 C 17,2 C 57 % 1019,1 hPa 0,0 l/m 26,9 km/h (4 Bft) O-NO 69 1 min 0,000 mm 2,4 UV-I 696 W/m 8,3 C 10,8 C 33,8 km/h (5 Bft) 96,55 %
20.05.2018 10:10 16,8 C 17,2 C 58 % 1019,0 hPa 0,0 l/m 27,1 km/h (4 Bft) O-NO 69 1 min 0,000 mm 2,2 UV-I 638 W/m 8,5 C 10,7 C 35,4 km/h (5 Bft) 100,00 %
20.05.2018 10:11 16,8 C 17,2 C 58 % 1019,0 hPa 0,0 l/m 31,4 km/h (5 Bft) O-SO 107 1 min 0,000 mm 2,1 UV-I 444 W/m 8,5 C 10,0 C 38,6 km/h (5 Bft) 93,33 %
20.05.2018 10:12 16,7 C 17,2 C 58 % 1019,0 hPa 0,0 l/m 24,8 km/h (4 Bft) O-NO 78 1 min 0,000 mm 2,5 UV-I 420 W/m 8,4 C 10,9 C 29,0 km/h (5 Bft) 100,00 %
20.05.2018 10:13 16,7 C 17,2 C 58 % 1019,0 hPa 0,0 l/m 29,1 km/h (5 Bft) O-NO 75 1 min 0,000 mm 2,6 UV-I 420 W/m 8,4 C 10,2 C 35,4 km/h (5 Bft) 96,15 %
20.05.2018 10:14 16,7 C 17,2 C 58 % 1019,0 hPa 0,0 l/m 29,7 km/h (5 Bft) O 81 1 min 0,000 mm 2,5 UV-I 522 W/m 8,4 C 10,1 C 33,8 km/h (5 Bft) 100,00 %
20.05.2018 10:15 16,6 C 17,2 C 58 % 1018,9 hPa 0,0 l/m 25,7 km/h (4 Bft) O 86 1 min 0,000 mm 2,4 UV-I 476 W/m 8,3 C 10,6 C 32,2 km/h (5 Bft) 92,59 %
20.05.2018 10:16 16,6 C 17,2 C 58 % 1019,0 hPa 0,0 l/m 33,4 km/h (5 Bft) O-SO 107 1 min 0,000 mm 2,5 UV-I 494 W/m 8,3 C 9,5 C 41,8 km/h (6 Bft) 96,55 %
20.05.2018 10:17 16,6 C 17,2 C 58 % 1019,0 hPa 0,0 l/m 30,1 km/h (5 Bft) O 80 1 min 0,000 mm 2,4 UV-I 529 W/m 8,3 C 9,9 C 41,8 km/h (6 Bft) 100,00 %
20.05.2018 10:18 16,6 C 17,2 C 57 % 1019,0 hPa 0,0 l/m 27,3 km/h (4 Bft) O-NO 74 1 min 0,000 mm 2,5 UV-I 534 W/m 8,0 C 10,4 C 40,2 km/h (6 Bft) 92,86 %
20.05.2018 10:19 16,6 C 17,2 C 58 % 1019,0 hPa 0,0 l/m 27,8 km/h (4 Bft) O 85 1 min 0,000 mm 2,6 UV-I 591 W/m 8,3 C 10,3 C 46,7 km/h (6 Bft) 100,00 %
20.05.2018 10:20 16,6 C 17,2 C 58 % 1019,0 hPa 0,0 l/m 28,8 km/h (4 Bft) O 83 1 min 0,000 mm 2,7 UV-I 600 W/m 8,3 C 10,1 C 38,6 km/h (5 Bft) 95,65 %
20.05.2018 10:21 16,7 C 17,2 C 58 % 1019,0 hPa 0,0 l/m 30,3 km/h (5 Bft) O 86 1 min 0,000 mm 2,9 UV-I 626 W/m 8,4 C 10,0 C 38,6 km/h (5 Bft) 96,30 %
20.05.2018 10:22 16,7 C 17,2 C 58 % 1019,0 hPa 0,0 l/m 28,7 km/h (4 Bft) O-NO 60 1 min 0,000 mm 2,9 UV-I 767 W/m 8,4 C 10,3 C 40,2 km/h (6 Bft) 100,00 %
20.05.2018 10:23 16,8 C 17,2 C 58 % 1019,0 hPa 0,0 l/m 23,8 km/h (4 Bft) O-NO 71 1 min 0,000 mm 2,9 UV-I 766 W/m 8,5 C 11,3 C 29,0 km/h (5 Bft) 100,00 %
20.05.2018 10:24 16,8 C 17,2 C 58 % 1018,9 hPa 0,0 l/m 25,6 km/h (4 Bft) SO 137 1 min 0,000 mm 2,9 UV-I 778 W/m 8,5 C 10,9 C 32,2 km/h (5 Bft) 100,00 %
20.05.2018 10:25 16,9 C 17,2 C 57 % 1018,9 hPa 0,0 l/m 26,7 km/h (4 Bft) O-NO 63 1 min 0,000 mm 3,0 UV-I 792 W/m 8,3 C 10,9 C 37,0 km/h (5 Bft) 100,00 %
20.05.2018 10:26 17,1 C 17,2 C 59 % 1019,0 hPa 0,0 l/m 25,1 km/h (4 Bft) O-SO 103 1 min 0,000 mm 3,0 UV-I 790 W/m 9,0 C 11,4 C 30,6 km/h (5 Bft) 100,00 %
20.05.2018 10:27 17,2 C 17,2 C 58 % 1018,9 hPa 0,0 l/m 22,3 km/h (4 Bft) O-NO 70 1 min 0,000 mm 3,0 UV-I 785 W/m 8,9 C 12,1 C 30,6 km/h (5 Bft) 97,73 %
20.05.2018 10:28 17,2 C 17,2 C 58 % 1018,9 hPa 0,0 l/m 21,1 km/h (4 Bft) O-NO 70 1 min 0,000 mm 3,0 UV-I 780 W/m 8,9 C 12,3 C 29,0 km/h (5 Bft) 100,00 %
20.05.2018 10:29 17,2 C 17,2 C 58 % 1018,9 hPa 0,0 l/m 27,4 km/h (4 Bft) O-NO 78 1 min 0,000 mm 3,1 UV-I 778 W/m 8,9 C 11,2 C 32,2 km/h (5 Bft) 95,83 %
20.05.2018 10:30 17,3 C 17,2 C 59 % 1018,9 hPa 0,0 l/m 24,7 km/h (4 Bft) NO 40 1 min 0,000 mm 3,1 UV-I 776 W/m 9,2 C 11,8 C 30,6 km/h (5 Bft) 100,00 %
20.05.2018 10:31 17,3 C 17,2 C 59 % 1018,9 hPa 0,0 l/m 31,8 km/h (5 Bft) N-NO 32 1 min 0,000 mm 3,1 UV-I 774 W/m 9,2 C 10,7 C 41,8 km/h (6 Bft) 100,00 %
20.05.2018 10:32 17,3 C 17,2 C 59 % 1018,9 hPa 0,0 l/m 26,7 km/h (4 Bft) NO 55 1 min 0,000 mm 3,1 UV-I 778 W/m 9,2 C 11,4 C 33,8 km/h (5 Bft) 96,15 %
20.05.2018 10:33 17,3 C 17,2 C 59 % 1018,9 hPa 0,0 l/m 25,7 km/h (4 Bft) O-NO 59 1 min 0,000 mm 3,1 UV-I 766 W/m 9,2 C 11,6 C 33,8 km/h (5 Bft) 100,00 %
20.05.2018 10:34 17,4 C 17,2 C 59 % 1018,9 hPa 0,0 l/m 27,0 km/h (4 Bft) O 91 1 min 0,000 mm 3,0 UV-I 735 W/m 9,3 C 11,5 C 35,4 km/h (5 Bft) 100,00 %
20.05.2018 10:35 17,4 C 17,2 C 57 % 1018,9 hPa 0,0 l/m 27,4 km/h (4 Bft) NO 48 1 min 0,000 mm 3,0 UV-I 748 W/m 8,8 C 11,5 C 40,2 km/h (6 Bft) 100,00 %
20.05.2018 10:36 17,4 C 17,2 C 59 % 1018,9 hPa 0,0 l/m 24,6 km/h (4 Bft) O-NO 72 1 min 0,000 mm 3,0 UV-I 757 W/m 9,3 C 11,9 C 32,2 km/h (5 Bft) 96,67 %
20.05.2018 10:37 17,4 C 17,2 C 60 % 1018,9 hPa 0,0 l/m 19,7 km/h (3 Bft) O 84 1 min 0,000 mm 3,0 UV-I 678 W/m 9,6 C 12,9 C 24,1 km/h (4 Bft) 100,00 %
20.05.2018 10:38 17,5 C 17,2 C 58 % 1019,0 hPa 0,0 l/m 20,6 km/h (4 Bft) NO 44 1 min 0,000 mm 3,0 UV-I 641 W/m 9,1 C 12,8 C 25,7 km/h (4 Bft) 100,00 %
20.05.2018 10:39 17,6 C 17,2 C 58 % 1018,9 hPa 0,0 l/m 24,3 km/h (4 Bft) O-NO 62 1 min 0,000 mm 3,2 UV-I 666 W/m 9,2 C 12,3 C 30,6 km/h (5 Bft) 100,00 %
20.05.2018 10:40 17,7 C 17,2 C 58 % 1018,9 hPa 0,0 l/m 28,7 km/h (4 Bft) O-NO 69 1 min 0,000 mm 3,1 UV-I 736 W/m 9,3 C 11,7 C 37,0 km/h (5 Bft) 100,00 %
20.05.2018 10:41 17,8 C 17,2 C 57 % 1019,0 hPa 0,0 l/m 25,8 km/h (4 Bft) O-NO 57 1 min 0,000 mm 3,2 UV-I 714 W/m 9,2 C 12,3 C 37,0 km/h (5 Bft) 100,00 %
20.05.2018 10:42 17,8 C 17,2 C 57 % 1019,0 hPa 0,0 l/m 21,4 km/h (4 Bft) O 84 1 min 0,000 mm 3,2 UV-I 754 W/m 9,2 C 13,1 C 25,7 km/h (4 Bft) 100,00 %
20.05.2018 10:43 17,8 C 17,2 C 56 % 1019,0 hPa 0,0 l/m 17,7 km/h (3 Bft) NO 34 1 min 0,000 mm 3,3 UV-I 812 W/m 8,9 C 13,9 C 24,1 km/h (4 Bft) 100,00 %
20.05.2018 10:44 17,8 C 17,8 C 55 % 1019,0 hPa 0,0 l/m 21,8 km/h (4 Bft) O-NO 68 1 min 0,000 mm 3,3 UV-I 826 W/m 8,6 C 13,0 C 30,6 km/h (5 Bft) 100,00 %
20.05.2018 10:45 17,8 C 17,8 C 54 % 1019,0 hPa 0,0 l/m 24,8 km/h (4 Bft) O 94 1 min 0,000 mm 3,4 UV-I 831 W/m 8,4 C 12,4 C 30,6 km/h (5 Bft) 96,15 %
20.05.2018 10:46 17,8 C 17,2 C 55 % 1019,0 hPa 0,0 l/m 25,9 km/h (4 Bft) O-NO 57 1 min 0,000 mm 3,4 UV-I 832 W/m 8,6 C 12,3 C 29,0 km/h (5 Bft) 95,83 %
20.05.2018 10:47 17,8 C 17,8 C 54 % 1019,0 hPa 0,0 l/m 22,0 km/h (4 Bft) NO 53 1 min 0,000 mm 3,4 UV-I 835 W/m 8,4 C 13,0 C 30,6 km/h (5 Bft) 97,94 %
20.05.2018 10:48 17,9 C 17,8 C 56 % 1019,0 hPa 0,0 l/m 24,1 km/h (4 Bft) O-NO 74 1 min 0,000 mm 3,4 UV-I 838 W/m 9,0 C 12,7 C 30,6 km/h (5 Bft) 97,37 %
20.05.2018 10:49 18,1 C 17,8 C 56 % 1019,0 hPa 0,0 l/m 30,0 km/h (5 Bft) N-NO 18 1 min 0,000 mm 3,4 UV-I 834 W/m 9,2 C 12,0 C 40,2 km/h (6 Bft) 96,15 %
20.05.2018 10:50 18,1 C 17,8 C 55 % 1019,0 hPa 0,0 l/m 26,1 km/h (4 Bft) O-NO 57 1 min 0,000 mm 3,4 UV-I 834 W/m 8,9 C 12,6 C 35,4 km/h (5 Bft) 96,30 %
20.05.2018 10:51 18,1 C 17,8 C 55 % 1019,0 hPa 0,0 l/m 27,0 km/h (4 Bft) O 80 1 min 0,000 mm 3,4 UV-I 794 W/m 8,9 C 12,5 C 37,0 km/h (5 Bft) 96,15 %
20.05.2018 10:53 18,1 C 17,8 C 52 % 1019,1 hPa 0,0 l/m 24,7 km/h (4 Bft) O-NO 63 2 min 0,000 mm 3,3 UV-I 848 W/m 8,1 C 12,9 C 37,0 km/h (5 Bft) 97,62 %
20.05.2018 10:54 18,1 C 17,8 C 53 % 1019,1 hPa 0,0 l/m 22,8 km/h (4 Bft) NO 48 1 min 0,000 mm 3,2 UV-I 854 W/m 8,4 C 13,2 C 30,6 km/h (5 Bft) 96,15 %
20.05.2018 10:55 18,1 C 17,8 C 54 % 1019,1 hPa 0,0 l/m 23,7 km/h (4 Bft) O-NO 77 1 min 0,000 mm 3,2 UV-I 781 W/m 8,6 C 13,0 C 33,8 km/h (5 Bft) 100,00 %
20.05.2018 10:56 18,0 C 17,8 C 53 % 1019,1 hPa 0,0 l/m 21,4 km/h (4 Bft) O-NO 63 1 min 0,000 mm 2,9 UV-I 766 W/m 8,3 C 13,3 C 27,4 km/h (4 Bft) 96,15 %
20.05.2018 10:57 18,0 C 17,8 C 53 % 1019,1 hPa 0,0 l/m 19,7 km/h (3 Bft) O 95 1 min 0,000 mm 3,2 UV-I 766 W/m 8,3 C 13,7 C 29,0 km/h (5 Bft) 100,00 %
20.05.2018 10:58 18,1 C 17,8 C 55 % 1019,2 hPa 0,0 l/m 19,1 km/h (3 Bft) O-SO 106 1 min 0,000 mm 3,6 UV-I 766 W/m 8,9 C 13,9 C 22,5 km/h (4 Bft) 96,15 %
20.05.2018 10:59 18,1 C 17,8 C 55 % 1019,1 hPa 0,0 l/m 22,3 km/h (4 Bft) O 84 1 min 0,000 mm 3,6 UV-I 834 W/m 8,9 C 13,3 C 30,6 km/h (5 Bft) 96,30 %
20.05.2018 11:00 18,2 C 17,8 C 53 % 1019,1 hPa 0,0 l/m 25,7 km/h (4 Bft) O-NO 67 1 min 0,000 mm 3,5 UV-I 832 W/m 8,5 C 12,8 C 33,8 km/h (5 Bft) 100,00 %
20.05.2018 11:02 18,2 C 17,8 C 53 % 1019,2 hPa 0,0 l/m 24,3 km/h (4 Bft) O 96 2 min 0,533 mm 3,6 UV-I 843 W/m 8,5 C 13,1 C 30,6 km/h (5 Bft) 98,00 %
20.05.2018 11:03 18,2 C 17,8 C 53 % 1019,1 hPa 0,0 l/m 21,6 km/h (4 Bft) O-NO 61 1 min 0,000 mm 3,5 UV-I 834 W/m 8,5 C 13,6 C 29,0 km/h (5 Bft) 96,67 %
20.05.2018 11:04 18,2 C 17,8 C 54 % 1019,1 hPa 0,0 l/m 29,0 km/h (5 Bft) O-NO 71 1 min 0,000 mm 3,5 UV-I 816 W/m 8,7 C 12,3 C 35,4 km/h (5 Bft) 100,00 %
20.05.2018 11:05 18,2 C 17,8 C 55 % 1019,1 hPa 0,0 l/m 25,1 km/h (4 Bft) NO 49 1 min 0,000 mm 3,6 UV-I 835 W/m 9,0 C 12,9 C 33,8 km/h (5 Bft) 96,30 %
20.05.2018 11:06 18,2 C 17,8 C 54 % 1019,1 hPa 0,0 l/m 23,0 km/h (4 Bft) O-NO 61 1 min 0,000 mm 3,6 UV-I 848 W/m 8,7 C 13,3 C 32,2 km/h (5 Bft) 100,00 %
20.05.2018 11:07 18,3 C 17,8 C 54 % 1019,0 hPa 0,0 l/m 28,6 km/h (4 Bft) O 83 1 min 0,000 mm 3,7 UV-I 863 W/m 8,8 C 12,5 C 35,4 km/h (5 Bft) 96,30 %
20.05.2018 11:08 18,3 C 17,8 C 51 % 1019,0 hPa 0,0 l/m 22,2 km/h (4 Bft) O-NO 57 1 min 0,000 mm 3,7 UV-I 856 W/m 8,0 C 13,6 C 29,0 km/h (5 Bft) 96,15 %
20.05.2018 11:09 18,4 C 17,8 C 53 % 1019,1 hPa 0,0 l/m 20,9 km/h (4 Bft) NO 49 1 min 0,000 mm 3,7 UV-I 845 W/m 8,6 C 14,0 C 27,4 km/h (4 Bft) 97,91 %
20.05.2018 11:10 18,5 C 17,8 C 53 % 1019,1 hPa 0,0 l/m 28,7 km/h (4 Bft) O-NO 66 1 min 0,000 mm 3,6 UV-I 831 W/m 8,7 C 12,8 C 40,2 km/h (6 Bft) 95,56 %
20.05.2018 11:11 18,6 C 17,8 C 49 % 1019,1 hPa 0,0 l/m 25,1 km/h (4 Bft) O-NO 67 1 min 0,000 mm 3,7 UV-I 844 W/m 7,7 C 13,5 C 33,8 km/h (5 Bft) 100,00 %
20.05.2018 11:12 18,6 C 17,8 C 50 % 1019,1 hPa 0,0 l/m 24,7 km/h (4 Bft) O-NO 57 1 min 0,000 mm 3,7 UV-I 828 W/m 8,0 C 13,5 C 33,8 km/h (5 Bft) 95,83 %
20.05.2018 11:13 18,7 C 17,8 C 49 % 1019,1 hPa 0,0 l/m 31,2 km/h (5 Bft) O-NO 69 1 min 0,000 mm 3,8 UV-I 857 W/m 7,8 C 12,7 C 41,8 km/h (6 Bft) 100,00 %
20.05.2018 11:14 18,7 C 17,8 C 47 % 1019,1 hPa 0,0 l/m 30,5 km/h (5 Bft) O-NO 71 1 min 0,000 mm 3,7 UV-I 826 W/m 7,2 C 12,8 C 40,2 km/h (6 Bft) 97,90 %
20.05.2018 11:15 18,6 C 17,8 C 47 % 1019,1 hPa 0,0 l/m 25,3 km/h (4 Bft) O-NO 69 1 min 0,000 mm 3,7 UV-I 824 W/m 7,1 C 13,4 C 30,6 km/h (5 Bft) 97,87 %
20.05.2018 11:16 18,6 C 17,8 C 47 % 1019,1 hPa 0,0 l/m 27,5 km/h (4 Bft) O 83 1 min 0,000 mm 3,7 UV-I 845 W/m 7,1 C 13,1 C 32,2 km/h (5 Bft) 91,67 %
20.05.2018 11:17 18,6 C 17,8 C 47 % 1019,0 hPa 0,0 l/m 26,5 km/h (4 Bft) O-NO 71 1 min 0,000 mm 3,8 UV-I 873 W/m 7,1 C 13,2 C 35,4 km/h (5 Bft) 96,55 %
20.05.2018 11:18 18,6 C 17,8 C 47 % 1019,0 hPa 0,0 l/m 23,8 km/h (4 Bft) O-NO 76 1 min 0,000 mm 3,8 UV-I 874 W/m 7,1 C 13,7 C 27,4 km/h (4 Bft) 96,30 %
20.05.2018 11:19 18,6 C 17,8 C 47 % 1019,1 hPa 0,0 l/m 26,6 km/h (4 Bft) O 98 1 min 0,000 mm 3,8 UV-I 837 W/m 7,1 C 13,2 C 33,8 km/h (5 Bft) 100,00 %
20.05.2018 11:20 18,5 C 17,8 C 46 % 1019,1 hPa 0,0 l/m 25,7 km/h (4 Bft) O-NO 68 1 min 0,000 mm 3,8 UV-I 825 W/m 6,7 C 13,2 C 32,2 km/h (5 Bft) 96,30 %
20.05.2018 11:21 18,4 C 17,8 C 47 % 1019,1 hPa 0,0 l/m 24,1 km/h (4 Bft) O-NO 74 1 min 0,000 mm 3,7 UV-I 788 W/m 6,9 C 13,4 C 29,0 km/h (5 Bft) 100,00 %
20.05.2018 11:22 18,4 C 17,8 C 47 % 1019,1 hPa 0,0 l/m 22,3 km/h (4 Bft) O 90 1 min 0,000 mm 3,7 UV-I 804 W/m 6,9 C 13,7 C 25,7 km/h (4 Bft) 96,30 %
20.05.2018 11:23 18,4 C 17,8 C 46 % 1019,1 hPa 0,0 l/m 24,6 km/h (4 Bft) NO 56 1 min 0,000 mm 3,7 UV-I 815 W/m 6,6 C 13,3 C 32,2 km/h (5 Bft) 94,44 %
20.05.2018 11:24 18,5 C 17,8 C 47 % 1019,0 hPa 0,0 l/m 24,8 km/h (4 Bft) O-SO 110 1 min 0,000 mm 3,8 UV-I 824 W/m 7,0 C 13,4 C 35,4 km/h (5 Bft) 96,15 %
20.05.2018 11:25 18,6 C 17,8 C 47 % 1019,0 hPa 0,0 l/m 31,2 km/h (5 Bft) O 84 1 min 0,000 mm 3,7 UV-I 819 W/m 7,1 C 12,6 C 38,6 km/h (5 Bft) 96,55 %
20.05.2018 11:26 18,6 C 17,8 C 47 % 1019,0 hPa 0,0 l/m 27,2 km/h (4 Bft) O-NO 65 1 min 0,000 mm 3,7 UV-I 814 W/m 7,1 C 13,1 C 33,8 km/h (5 Bft) 100,00 %
20.05.2018 11:27 18,6 C 17,8 C 48 % 1019,0 hPa 0,0 l/m 26,9 km/h (4 Bft) O-SO 107 1 min 0,000 mm 3,7 UV-I 803 W/m 7,4 C 13,2 C 38,6 km/h (5 Bft) 91,67 %
20.05.2018 11:28 18,5 C 17,8 C 47 % 1019,0 hPa 0,0 l/m 29,8 km/h (5 Bft) O 92 1 min 0,000 mm 3,4 UV-I 707 W/m 7,0 C 12,6 C 40,2 km/h (6 Bft) 100,00 %
20.05.2018 11:29 18,4 C 17,8 C 47 % 1019,0 hPa 0,0 l/m 26,9 km/h (4 Bft) O-SO 109 1 min 0,000 mm 3,3 UV-I 710 W/m 6,9 C 12,9 C 35,4 km/h (5 Bft) 95,83 %
20.05.2018 11:30 18,4 C 17,8 C 47 % 1019,0 hPa 0,0 l/m 25,5 km/h (4 Bft) O 83 1 min 0,000 mm 3,6 UV-I 763 W/m 6,9 C 13,1 C 32,2 km/h (5 Bft) 95,65 %
20.05.2018 11:31 18,4 C 17,8 C 48 % 1019,0 hPa 0,0 l/m 24,7 km/h (4 Bft) O-SO 102 1 min 0,000 mm 3,7 UV-I 807 W/m 7,2 C 13,3 C 32,2 km/h (5 Bft) 92,59 %
20.05.2018 11:32 18,4 C 17,8 C 48 % 1019,0 hPa 0,0 l/m 26,2 km/h (4 Bft) O 97 1 min 0,000 mm 3,5 UV-I 773 W/m 7,2 C 13,0 C 35,4 km/h (5 Bft) 96,15 %
20.05.2018 11:33 18,4 C 17,8 C 47 % 1019,0 hPa 0,0 l/m 24,2 km/h (4 Bft) O-NO 66 1 min 0,000 mm 3,2 UV-I 680 W/m 6,9 C 13,3 C 30,6 km/h (5 Bft) 100,00 %
20.05.2018 11:34 18,3 C 17,8 C 46 % 1019,0 hPa 0,0 l/m 23,7 km/h (4 Bft) O-SO 104 1 min 0,000 mm 3,1 UV-I 613 W/m 6,5 C 13,3 C 30,6 km/h (5 Bft) 96,15 %
20.05.2018 11:35 18,3 C 17,8 C 48 % 1018,9 hPa 0,0 l/m 21,4 km/h (4 Bft) O-NO 68 1 min 0,000 mm 2,8 UV-I 613 W/m 7,1 C 13,7 C 25,7 km/h (4 Bft) 96,97 %
20.05.2018 11:36 18,3 C 17,8 C 49 % 1019,0 hPa 0,0 l/m 21,5 km/h (4 Bft) O-NO 62 1 min 0,000 mm 3,0 UV-I 613 W/m 7,4 C 13,7 C 29,0 km/h (5 Bft) 90,91 %
20.05.2018 11:37 18,3 C 17,8 C 48 % 1019,0 hPa 0,0 l/m 20,6 km/h (4 Bft) O-SO 112 1 min 0,000 mm 3,0 UV-I 547 W/m 7,1 C 13,9 C 27,4 km/h (4 Bft) 92,59 %
20.05.2018 11:38 18,3 C 17,8 C 49 % 1019,0 hPa 0,0 l/m 22,3 km/h (4 Bft) O 92 1 min 0,000 mm 3,0 UV-I 560 W/m 7,4 C 13,6 C 30,6 km/h (5 Bft) 93,10 %
20.05.2018 11:39 18,3 C 17,8 C 48 % 1019,0 hPa 0,0 l/m 21,9 km/h (4 Bft) O-SO 107 1 min 0,000 mm 3,3 UV-I 650 W/m 7,1 C 13,6 C 27,4 km/h (4 Bft) 96,30 %
20.05.2018 11:40 18,2 C 17,8 C 49 % 1019,0 hPa 0,0 l/m 21,7 km/h (4 Bft) O 95 1 min 0,000 mm 3,4 UV-I 704 W/m 7,3 C 13,5 C 29,0 km/h (5 Bft) 91,30 %
20.05.2018 11:41 18,3 C 17,8 C 50 % 1019,0 hPa 0,0 l/m 23,0 km/h (4 Bft) O-NO 72 1 min 0,000 mm 3,3 UV-I 672 W/m 7,7 C 13,4 C 35,4 km/h (5 Bft) 97,79 %
20.05.2018 11:43 18,3 C 17,8 C 50 % 1019,0 hPa 0,0 l/m 22,3 km/h (4 Bft) O-NO 71 2 min 0,000 mm 3,1 UV-I 583 W/m 7,7 C 13,6 C 33,8 km/h (5 Bft) 94,59 %
20.05.2018 11:44 18,3 C 17,8 C 50 % 1019,0 hPa 0,0 l/m 25,2 km/h (4 Bft) O 99 1 min 0,000 mm 3,0 UV-I 524 W/m 7,7 C 13,0 C 29,0 km/h (5 Bft) 92,86 %
20.05.2018 11:45 18,3 C 17,8 C 50 % 1019,0 hPa 0,0 l/m 18,6 km/h (3 Bft) O 96 1 min 0,000 mm 2,8 UV-I 482 W/m 7,7 C 14,3 C 32,2 km/h (5 Bft) 96,30 %
20.05.2018 11:46 18,2 C 17,8 C 49 % 1019,0 hPa 0,0 l/m 26,1 km/h (4 Bft) O 94 1 min 0,000 mm 3,1 UV-I 527 W/m 7,3 C 12,8 C 32,2 km/h (5 Bft) 93,33 %
20.05.2018 11:47 18,2 C 17,8 C 48 % 1019,0 hPa 0,0 l/m 24,1 km/h (4 Bft) O-SO 111 1 min 0,000 mm 3,1 UV-I 593 W/m 7,0 C 13,1 C 30,6 km/h (5 Bft) 96,15 %
20.05.2018 11:48 18,2 C 17,8 C 49 % 1019,0 hPa 0,0 l/m 25,4 km/h (4 Bft) O 80 1 min 0,000 mm 3,1 UV-I 611 W/m 7,3 C 12,9 C 32,2 km/h (5 Bft) 96,30 %
20.05.2018 11:49 18,2 C 17,8 C 48 % 1019,0 hPa 0,0 l/m 22,5 km/h (4 Bft) O-SO 104 1 min 0,000 mm 3,1 UV-I 626 W/m 7,0 C 13,4 C 27,4 km/h (4 Bft) 92,31 %
20.05.2018 11:50 18,2 C 17,8 C 47 % 1019,0 hPa 0,0 l/m 24,0 km/h (4 Bft) O-SO 104 1 min 0,000 mm 3,1 UV-I 597 W/m 6,7 C 13,1 C 30,6 km/h (5 Bft) 100,00 %
20.05.2018 11:51 18,2 C 17,8 C 47 % 1019,0 hPa 0,0 l/m 22,3 km/h (4 Bft) O 83 1 min 0,000 mm 2,9 UV-I 509 W/m 6,7 C 13,4 C 27,4 km/h (4 Bft) 93,10 %
20.05.2018 11:52 18,2 C 17,8 C 48 % 1019,0 hPa 0,0 l/m 20,5 km/h (4 Bft) O 91 1 min 0,000 mm 3,0 UV-I 527 W/m 7,0 C 13,8 C 24,1 km/h (4 Bft) 96,30 %
20.05.2018 11:53 18,2 C 17,8 C 47 % 1019,0 hPa 0,0 l/m 18,3 km/h (3 Bft) O-NO 64 1 min 0,000 mm 3,3 UV-I 543 W/m 6,7 C 14,3 C 22,5 km/h (4 Bft) 92,86 %
20.05.2018 11:54 18,2 C 17,8 C 49 % 1019,0 hPa 0,0 l/m 19,5 km/h (3 Bft) O-NO 71 1 min 0,000 mm 3,2 UV-I 543 W/m 7,3 C 14,0 C 20,9 km/h (4 Bft) 100,00 %
20.05.2018 11:55 18,3 C 17,8 C 49 % 1019,0 hPa 0,0 l/m 17,2 km/h (3 Bft) O 101 1 min 0,000 mm 3,2 UV-I 638 W/m 7,4 C 14,6 C 20,9 km/h (4 Bft) 92,31 %
20.05.2018 11:56 18,3 C 17,8 C 49 % 1019,0 hPa 0,0 l/m 21,7 km/h (4 Bft) O 101 1 min 0,000 mm 3,3 UV-I 656 W/m 7,4 C 13,7 C 30,6 km/h (5 Bft) 95,83 %
20.05.2018 11:58 18,4 C 17,8 C 46 % 1019,0 hPa 0,0 l/m 19,6 km/h (3 Bft) O 92 2 min 0,000 mm 3,2 UV-I 618 W/m 6,6 C 14,2 C 27,4 km/h (4 Bft) 94,00 %
20.05.2018 11:59 18,4 C 17,8 C 46 % 1019,0 hPa 0,0 l/m 22,1 km/h (4 Bft) O-NO 78 1 min 0,000 mm 2,8 UV-I 519 W/m 6,6 C 13,7 C 29,0 km/h (5 Bft) 100,00 %
20.05.2018 12:00 18,3 C 17,8 C 47 % 1019,0 hPa 0,0 l/m 19,0 km/h (3 Bft) O-NO 76 1 min 0,000 mm 2,7 UV-I 469 W/m 6,8 C 14,2 C 25,7 km/h (4 Bft) 91,67 %
20.05.2018 12:02 18,3 C 17,8 C 46 % 1019,0 hPa 0,0 l/m 22,2 km/h (4 Bft) O-NO 76 2 min 0,559 mm 2,7 UV-I 468 W/m 6,5 C 13,6 C 30,6 km/h (5 Bft) 95,45 %
20.05.2018 12:03 18,2 C 17,8 C 47 % 1018,9 hPa 0,0 l/m 20,2 km/h (4 Bft) O 96 0 min 0,000 mm 2,5 UV-I 398 W/m 6,7 C 13,8 C 30,6 km/h (5 Bft) 93,33 %
20.05.2018 12:04 18,1 C 17,8 C 47 % 1019,0 hPa 0,0 l/m 23,0 km/h (4 Bft) O 80 0 min 0,000 mm 2,4 UV-I 385 W/m 6,6 C 13,2 C 30,6 km/h (5 Bft) 93,10 %
20.05.2018 12:05 18,1 C 17,8 C 48 % 1019,0 hPa 0,0 l/m 22,2 km/h (4 Bft) O-NO 76 0 min 0,000 mm 2,4 UV-I 382 W/m 6,9 C 13,3 C 30,6 km/h (5 Bft) 100,00 %
20.05.2018 12:06 18,0 C 17,8 C 48 % 1018,9 hPa 0,0 l/m 20,7 km/h (4 Bft) O-NO 73 0 min 0,000 mm 2,4 UV-I 381 W/m 6,8 C 13,5 C 29,0 km/h (5 Bft) 96,15 %
20.05.2018 12:07 17,9 C 17,8 C 48 % 1019,0 hPa 0,0 l/m 22,5 km/h (4 Bft) O 94 0 min 0,000 mm 2,4 UV-I 384 W/m 6,7 C 13,0 C 29,0 km/h (5 Bft) 92,59 %
20.05.2018 12:08 17,9 C 17,8 C 49 % 1019,0 hPa 0,0 l/m 16,0 km/h (3 Bft) O-NO 71 0 min 0,000 mm 2,4 UV-I 390 W/m 7,0 C 14,4 C 20,9 km/h (4 Bft) 100,00 %
20.05.2018 12:09 18,0 C 17,8 C 49 % 1019,0 hPa 0,0 l/m 18,3 km/h (3 Bft) O-SO 112 0 min 0,000 mm 2,4 UV-I 392 W/m 7,1 C 14,0 C 22,5 km/h (4 Bft) 95,65 %
20.05.2018 12:10 18,0 C 17,8 C 47 % 1019,0 hPa 0,0 l/m 19,2 km/h (3 Bft) SO 139 0 min 0,000 mm 2,4 UV-I 396 W/m 6,5 C 13,8 C 22,5 km/h (4 Bft) 95,83 %
20.05.2018 12:11 18,1 C 17,8 C 46 % 1018,9 hPa 0,0 l/m 22,7 km/h (4 Bft) O 95 0 min 0,000 mm 2,4 UV-I 397 W/m 6,3 C 13,2 C 32,2 km/h (5 Bft) 91,67 %
20.05.2018 12:12 18,0 C 17,8 C 44 % 1019,0 hPa 0,0 l/m 26,7 km/h (4 Bft) O 80 0 min 0,000 mm 2,4 UV-I 404 W/m 5,6 C 12,4 C 35,4 km/h (5 Bft) 100,00 %
20.05.2018 12:13 17,9 C 17,8 C 43 % 1019,0 hPa 0,0 l/m 24,3 km/h (4 Bft) O-NO 63 0 min 0,000 mm 2,4 UV-I 411 W/m 5,1 C 12,7 C 30,6 km/h (5 Bft) 100,00 %
20.05.2018 12:14 17,9 C 17,8 C 45 % 1019,0 hPa 0,0 l/m 22,1 km/h (4 Bft) O-NO 76 0 min 0,000 mm 2,4 UV-I 416 W/m 5,8 C 13,1 C 27,4 km/h (4 Bft) 96,15 %
20.05.2018 12:15 17,9 C 17,8 C 45 % 1019,0 hPa 0,0 l/m 22,9 km/h (4 Bft) O 86 0 min 0,000 mm 2,5 UV-I 424 W/m 5,8 C 12,9 C 29,0 km/h (5 Bft) 100,00 %
20.05.2018 12:16 17,9 C 17,8 C 46 % 1019,0 hPa 0,0 l/m 19,3 km/h (3 Bft) O-SO 113 0 min 0,000 mm 2,5 UV-I 434 W/m 6,1 C 13,6 C 24,1 km/h (4 Bft) 93,10 %
20.05.2018 12:17 18,0 C 17,8 C 46 % 1019,0 hPa 0,0 l/m 21,3 km/h (4 Bft) O-NO 78 0 min 0,000 mm 2,6 UV-I 450 W/m 6,2 C 13,4 C 29,0 km/h (5 Bft) 100,00 %
20.05.2018 12:18 18,1 C 17,8 C 44 % 1019,0 hPa 0,0 l/m 21,9 km/h (4 Bft) O 98 0 min 0,000 mm 2,6 UV-I 454 W/m 5,7 C 13,4 C 25,7 km/h (4 Bft) 100,00 %
20.05.2018 12:19 18,1 C 17,8 C 44 % 1019,0 hPa 0,0 l/m 16,9 km/h (3 Bft) O 90 0 min 0,000 mm 2,6 UV-I 463 W/m 5,7 C 14,5 C 24,1 km/h (4 Bft) 100,00 %
20.05.2018 12:20 18,1 C 17,8 C 44 % 1019,0 hPa 0,0 l/m 20,0 km/h (4 Bft) O-NO 68 1 min 0,000 mm 2,6 UV-I 476 W/m 5,7 C 13,8 C 24,1 km/h (4 Bft) 100,00 %
20.05.2018 12:21 18,2 C 17,8 C 43 % 1019,0 hPa 0,0 l/m 25,0 km/h (4 Bft) O 101 1 min 0,000 mm 2,6 UV-I 475 W/m 5,4 C 12,9 C 33,8 km/h (5 Bft) 100,00 %
20.05.2018 12:22 18,2 C 17,8 C 43 % 1019,0 hPa 0,0 l/m 24,5 km/h (4 Bft) O 90 1 min 0,000 mm 2,6 UV-I 475 W/m 5,4 C 13,0 C 32,2 km/h (5 Bft) 100,00 %
20.05.2018 12:23 18,2 C 17,8 C 44 % 1019,0 hPa 0,0 l/m 16,7 km/h (3 Bft) O 86 1 min 0,000 mm 2,7 UV-I 492 W/m 5,7 C 14,6 C 24,1 km/h (4 Bft) 100,00 %
20.05.2018 12:24 18,2 C 17,8 C 45 % 1019,0 hPa 0,0 l/m 20,0 km/h (4 Bft) O 84 1 min 0,000 mm 2,7 UV-I 500 W/m 6,1 C 13,9 C 27,4 km/h (4 Bft) 100,00 %
20.05.2018 12:25 18,3 C 17,8 C 44 % 1019,0 hPa 0,0 l/m 20,4 km/h (4 Bft) O 82 1 min 0,000 mm 2,7 UV-I 486 W/m 5,8 C 13,9 C 29,0 km/h (5 Bft) 100,00 %
20.05.2018 12:26 18,3 C 17,8 C 42 % 1019,0 hPa 0,0 l/m 21,1 km/h (4 Bft) O 88 1 min 0,000 mm 2,7 UV-I 489 W/m 5,2 C 13,8 C 30,6 km/h (5 Bft) 100,00 %
20.05.2018 12:28 18,3 C 17,8 C 44 % 1018,9 hPa 0,0 l/m 19,5 km/h (3 Bft) O 81 2 min 0,000 mm 2,6 UV-I 477 W/m 5,8 C 14,1 C 29,0 km/h (5 Bft) 100,00 %
20.05.2018 12:29 18,3 C 17,8 C 44 % 1018,9 hPa 0,0 l/m 23,3 km/h (4 Bft) O-SO 108 1 min 0,000 mm 2,7 UV-I 478 W/m 5,8 C 13,4 C 29,0 km/h (5 Bft) 100,00 %
20.05.2018 12:30 18,4 C 17,8 C 45 % 1018,9 hPa 0,0 l/m 22,0 km/h (4 Bft) O-NO 70 1 min 0,000 mm 2,7 UV-I 493 W/m 6,3 C 13,7 C 25,7 km/h (4 Bft) 96,67 %
20.05.2018 12:31 18,4 C 17,8 C 43 % 1018,8 hPa 0,0 l/m 20,1 km/h (4 Bft) O 82 1 min 0,000 mm 2,8 UV-I 520 W/m 5,6 C 14,1 C 25,7 km/h (4 Bft) 100,00 %
20.05.2018 12:32 18,4 C 17,8 C 42 % 1018,8 hPa 0,0 l/m 25,5 km/h (4 Bft) O 94 1 min 0,000 mm 2,9 UV-I 531 W/m 5,3 C 13,1 C 33,8 km/h (5 Bft) 100,00 %
20.05.2018 12:33 18,4 C 17,8 C 42 % 1018,8 hPa 0,0 l/m 22,8 km/h (4 Bft) O-SO 102 1 min 0,000 mm 2,9 UV-I 563 W/m 5,3 C 13,6 C 33,8 km/h (5 Bft) 100,00 %
20.05.2018 12:34 18,4 C 17,8 C 41 % 1018,8 hPa 0,0 l/m 24,5 km/h (4 Bft) O 86 1 min 0,000 mm 3,1 UV-I 600 W/m 4,9 C 13,3 C 29,0 km/h (5 Bft) 100,00 %
20.05.2018 12:35 18,5 C 17,8 C 41 % 1018,8 hPa 0,0 l/m 25,3 km/h (4 Bft) O 87 1 min 0,000 mm 3,0 UV-I 578 W/m 5,0 C 13,3 C 37,0 km/h (5 Bft) 100,00 %
20.05.2018 12:36 18,5 C 17,8 C 38 % 1018,8 hPa 0,0 l/m 24,0 km/h (4 Bft) O 94 1 min 0,000 mm 3,0 UV-I 577 W/m 3,9 C 13,5 C 35,4 km/h (5 Bft) 100,00 %
20.05.2018 12:37 18,6 C 17,8 C 40 % 1018,8 hPa 0,0 l/m 24,4 km/h (4 Bft) O 89 1 min 0,000 mm 3,0 UV-I 581 W/m 4,7 C 13,6 C 30,6 km/h (5 Bft) 100,00 %
20.05.2018 12:38 18,6 C 17,8 C 40 % 1018,8 hPa 0,0 l/m 23,4 km/h (4 Bft) O 85 1 min 0,000 mm 3,0 UV-I 568 W/m 4,7 C 13,8 C 29,0 km/h (5 Bft) 100,00 %
20.05.2018 12:39 18,6 C 17,8 C 42 % 1018,8 hPa 0,0 l/m 21,4 km/h (4 Bft) O-NO 62 1 min 0,000 mm 3,1 UV-I 591 W/m 5,4 C 14,1 C 27,4 km/h (4 Bft) 100,00 %
20.05.2018 12:40 18,7 C 17,8 C 44 % 1018,7 hPa 0,0 l/m 16,3 km/h (3 Bft) O 82 1 min 0,000 mm 3,1 UV-I 593 W/m 6,2 C 15,3 C 20,9 km/h (4 Bft) 100,00 %
20.05.2018 12:41 18,7 C 17,8 C 42 % 1018,8 hPa 0,0 l/m 24,6 km/h (4 Bft) O-NO 72 1 min 0,000 mm 3,1 UV-I 600 W/m 5,5 C 13,7 C 29,0 km/h (5 Bft) 100,00 %
20.05.2018 12:42 18,8 C 17,8 C 42 % 1018,8 hPa 0,0 l/m 23,3 km/h (4 Bft) O 94 1 min 0,000 mm 3,2 UV-I 629 W/m 5,6 C 14,0 C 32,2 km/h (5 Bft) 100,00 %
20.05.2018 12:43 18,8 C 17,8 C 42 % 1018,8 hPa 0,0 l/m 24,6 km/h (4 Bft) O-NO 69 1 min 0,000 mm 3,3 UV-I 634 W/m 5,6 C 13,8 C 32,2 km/h (5 Bft) 100,00 %
20.05.2018 12:44 18,8 C 17,8 C 43 % 1018,7 hPa 0,0 l/m 20,8 km/h (4 Bft) O 93 1 min 0,000 mm 3,3 UV-I 640 W/m 6,0 C 14,5 C 25,7 km/h (4 Bft) 100,00 %
20.05.2018 12:45 18,9 C 17,8 C 43 % 1018,7 hPa 0,0 l/m 16,8 km/h (3 Bft) O-NO 76 1 min 0,000 mm 3,3 UV-I 649 W/m 6,0 C 15,5 C 20,9 km/h (4 Bft) 100,00 %
20.05.2018 12:46 18,9 C 17,8 C 43 % 1018,8 hPa 0,0 l/m 13,0 km/h (3 Bft) O 84 1 min 0,000 mm 3,3 UV-I 650 W/m 6,0 C 16,5 C 20,9 km/h (4 Bft) 100,00 %
20.05.2018 12:47 19,1 C 17,8 C 44 % 1018,8 hPa 0,0 l/m 18,3 km/h (3 Bft) O-NO 78 1 min 0,000 mm 3,4 UV-I 662 W/m 6,6 C 15,4 C 24,1 km/h (4 Bft) 100,00 %
20.05.2018 12:48 19,2 C 17,8 C 42 % 1018,8 hPa 0,0 l/m 29,7 km/h (5 Bft) O-NO 78 1 min 0,000 mm 3,4 UV-I 644 W/m 6,0 C 13,6 C 37,0 km/h (5 Bft) 100,00 %
20.05.2018 12:49 19,2 C 17,8 C 40 % 1018,8 hPa 0,0 l/m 21,2 km/h (4 Bft) O 82 1 min 0,000 mm 3,4 UV-I 655 W/m 5,3 C 14,9 C 30,6 km/h (5 Bft) 96,30 %
20.05.2018 12:50 19,2 C 17,8 C 39 % 1018,8 hPa 0,0 l/m 24,1 km/h (4 Bft) O-NO 69 1 min 0,000 mm 3,5 UV-I 665 W/m 4,9 C 14,4 C 29,0 km/h (5 Bft) 100,00 %
20.05.2018 12:51 19,2 C 17,8 C 39 % 1018,7 hPa 0,0 l/m 26,4 km/h (4 Bft) O-NO 73 1 min 0,000 mm 3,5 UV-I 666 W/m 4,9 C 14,1 C 32,2 km/h (5 Bft) 100,00 %
20.05.2018 12:52 19,2 C 17,8 C 39 % 1018,8 hPa 0,0 l/m 24,1 km/h (4 Bft) O 91 1 min 0,000 mm 3,4 UV-I 638 W/m 4,9 C 14,4 C 33,8 km/h (5 Bft) 100,00 %
20.05.2018 12:53 19,2 C 17,8 C 39 % 1018,7 hPa 0,0 l/m 24,1 km/h (4 Bft) O-NO 69 1 min 0,000 mm 3,4 UV-I 633 W/m 4,9 C 14,4 C 29,0 km/h (5 Bft) 100,00 %
20.05.2018 12:54 19,2 C 17,8 C 41 % 1018,7 hPa 0,0 l/m 25,3 km/h (4 Bft) O 96 1 min 0,000 mm 3,5 UV-I 657 W/m 5,6 C 14,3 C 35,4 km/h (5 Bft) 100,00 %
20.05.2018 12:55 19,2 C 17,8 C 40 % 1018,7 hPa 0,0 l/m 20,5 km/h (4 Bft) O-SO 107 1 min 0,000 mm 3,6 UV-I 708 W/m 5,3 C 15,1 C 27,4 km/h (4 Bft) 100,00 %
20.05.2018 12:56 19,3 C 17,8 C 43 % 1018,7 hPa 0,0 l/m 21,8 km/h (4 Bft) O 99 1 min 0,000 mm 3,6 UV-I 724 W/m 6,4 C 15,0 C 30,6 km/h (5 Bft) 100,00 %
20.05.2018 12:57 19,4 C 17,8 C 42 % 1018,7 hPa 0,0 l/m 18,1 km/h (3 Bft) NO 39 1 min 0,000 mm 3,7 UV-I 730 W/m 6,2 C 15,8 C 29,0 km/h (5 Bft) 95,83 %
20.05.2018 12:58 19,4 C 17,8 C 41 % 1018,7 hPa 0,0 l/m 26,1 km/h (4 Bft) O-NO 72 1 min 0,000 mm 3,7 UV-I 733 W/m 5,8 C 14,4 C 32,2 km/h (5 Bft) 91,67 %
20.05.2018 12:59 19,4 C 17,8 C 40 % 1018,6 hPa 0,0 l/m 29,0 km/h (5 Bft) O-SO 103 1 min 0,000 mm 3,7 UV-I 718 W/m 5,5 C 14,0 C 37,0 km/h (5 Bft) 100,00 %
20.05.2018 13:00 19,4 C 17,8 C 40 % 1018,7 hPa 0,0 l/m 24,9 km/h (4 Bft) O-NO 78 1 min 0,457 mm 3,8 UV-I 744 W/m 5,5 C 14,6 C 35,4 km/h (5 Bft) 100,00 %
20.05.2018 13:01 19,5 C 17,8 C 41 % 1018,7 hPa 0,0 l/m 25,6 km/h (4 Bft) O 85 1 min 0,000 mm 3,8 UV-I 737 W/m 5,9 C 14,6 C 32,2 km/h (5 Bft) 100,00 %
20.05.2018 13:02 19,5 C 17,8 C 41 % 1018,7 hPa 0,0 l/m 25,4 km/h (4 Bft) O 94 1 min 0,000 mm 3,7 UV-I 720 W/m 5,9 C 14,6 C 35,4 km/h (5 Bft) 100,00 %
20.05.2018 13:03 19,6 C 17,8 C 40 % 1018,6 hPa 0,0 l/m 21,3 km/h (4 Bft) O-NO 71 1 min 0,000 mm 3,7 UV-I 725 W/m 5,6 C 15,4 C 27,4 km/h (4 Bft) 100,00 %
20.05.2018 13:04 19,5 C 17,8 C 40 % 1018,6 hPa 0,0 l/m 24,9 km/h (4 Bft) O-NO 69 1 min 0,000 mm 3,6 UV-I 691 W/m 5,5 C 14,7 C 40,2 km/h (6 Bft) 100,00 %
20.05.2018 13:05 19,5 C 17,8 C 40 % 1018,6 hPa 0,0 l/m 27,3 km/h (4 Bft) O 101 1 min 0,000 mm 3,5 UV-I 647 W/m 5,5 C 14,4 C 35,4 km/h (5 Bft) 100,00 %
20.05.2018 13:06 19,4 C 17,8 C 41 % 1018,6 hPa 0,0 l/m 22,8 km/h (4 Bft) O 89 1 min 0,000 mm 3,4 UV-I 607 W/m 5,8 C 14,9 C 30,6 km/h (5 Bft) 100,00 %
20.05.2018 13:07 19,4 C 17,8 C 41 % 1018,5 hPa 0,0 l/m 26,0 km/h (4 Bft) O-NO 71 1 min 0,000 mm 3,5 UV-I 636 W/m 5,8 C 14,4 C 37,0 km/h (5 Bft) 93,55 %
20.05.2018 13:08 19,5 C 17,8 C 42 % 1018,6 hPa 0,0 l/m 17,9 km/h (3 Bft) O 81 1 min 0,000 mm 3,6 UV-I 641 W/m 6,2 C 16,0 C 24,1 km/h (4 Bft) 100,00 %
20.05.2018 13:09 19,5 C 17,8 C 41 % 1018,5 hPa 0,0 l/m 18,9 km/h (3 Bft) O-NO 75 1 min 0,000 mm 3,5 UV-I 619 W/m 5,9 C 15,8 C 25,7 km/h (4 Bft) 100,00 %
20.05.2018 13:10 19,5 C 17,8 C 41 % 1018,5 hPa 0,0 l/m 26,4 km/h (4 Bft) O 82 1 min 0,000 mm 3,6 UV-I 676 W/m 5,9 C 14,5 C 30,6 km/h (5 Bft) 100,00 %
20.05.2018 13:11 19,5 C 17,8 C 40 % 1018,5 hPa 0,0 l/m 22,3 km/h (4 Bft) O 86 1 min 0,000 mm 3,8 UV-I 718 W/m 5,5 C 15,1 C 27,4 km/h (4 Bft) 100,00 %
20.05.2018 13:12 19,6 C 17,8 C 41 % 1018,5 hPa 0,0 l/m 23,4 km/h (4 Bft) O-NO 65 1 min 0,000 mm 3,9 UV-I 745 W/m 6,0 C 15,1 C 29,0 km/h (5 Bft) 100,00 %
20.05.2018 13:13 19,6 C 17,8 C 41 % 1018,5 hPa 0,0 l/m 24,9 km/h (4 Bft) O 86 1 min 0,000 mm 3,8 UV-I 729 W/m 6,0 C 14,9 C 35,4 km/h (5 Bft) 100,00 %
20.05.2018 13:14 19,7 C 17,8 C 42 % 1018,5 hPa 0,0 l/m 24,4 km/h (4 Bft) O-NO 76 1 min 0,000 mm 3,7 UV-I 694 W/m 6,4 C 15,1 C 32,2 km/h (5 Bft) 100,00 %
20.05.2018 13:15 19,7 C 17,8 C 40 % 1018,5 hPa 0,0 l/m 23,1 km/h (4 Bft) O-NO 75 1 min 0,000 mm 3,6 UV-I 626 W/m 5,7 C 15,3 C 30,6 km/h (5 Bft) 100,00 %
20.05.2018 13:16 19,7 C 17,8 C 40 % 1018,5 hPa 0,0 l/m 24,1 km/h (4 Bft) O-NO 66 1 min 0,000 mm 3,4 UV-I 584 W/m 5,7 C 15,1 C 30,6 km/h (5 Bft) 100,00 %
20.05.2018 13:17 19,7 C 17,8 C 40 % 1018,5 hPa 0,0 l/m 20,3 km/h (4 Bft) O 96 1 min 0,000 mm 3,2 UV-I 529 W/m 5,7 C 15,8 C 29,0 km/h (5 Bft) 100,00 %
20.05.2018 13:18 19,7 C 17,8 C 41 % 1018,5 hPa 0,0 l/m 19,5 km/h (3 Bft) O-NO 68 1 min 0,000 mm 3,2 UV-I 513 W/m 6,1 C 15,9 C 29,0 km/h (5 Bft) 100,00 %
20.05.2018 13:19 19,7 C 17,8 C 41 % 1018,4 hPa 0,0 l/m 18,3 km/h (3 Bft) O-SO 103 1 min 0,000 mm 3,1 UV-I 495 W/m 6,1 C 16,2 C 27,4 km/h (4 Bft) 100,00 %
20.05.2018 13:20 19,7 C 17,8 C 41 % 1018,5 hPa 0,0 l/m 17,5 km/h (3 Bft) O 92 0 min 0,000 mm 3,0 UV-I 451 W/m 6,1 C 16,3 C 25,7 km/h (4 Bft) 96,88 %
20.05.2018 13:21 19,7 C 17,8 C 42 % 1018,5 hPa 0,0 l/m 18,0 km/h (3 Bft) O 84 0 min 0,000 mm 3,1 UV-I 474 W/m 6,4 C 16,2 C 20,9 km/h (4 Bft) 100,00 %
20.05.2018 13:22 19,6 C 17,8 C 41 % 1018,5 hPa 0,0 l/m 23,8 km/h (4 Bft) O-SO 105 0 min 0,000 mm 3,0 UV-I 460 W/m 6,0 C 15,0 C 30,6 km/h (5 Bft) 100,00 %
20.05.2018 13:23 19,6 C 17,8 C 41 % 1018,5 hPa 0,0 l/m 20,3 km/h (4 Bft) O-SO 107 0 min 0,000 mm 3,0 UV-I 448 W/m 6,0 C 15,6 C 24,1 km/h (4 Bft) 100,00 %
20.05.2018 13:24 19,5 C 17,8 C 40 % 1018,5 hPa 0,0 l/m 22,4 km/h (4 Bft) O 98 1 min 0,000 mm 3,1 UV-I 494 W/m 5,5 C 15,1 C 32,2 km/h (5 Bft) 100,00 %
20.05.2018 13:25 19,5 C 17,8 C 40 % 1018,5 hPa 0,0 l/m 18,6 km/h (3 Bft) O-SO 108 1 min 0,000 mm 3,1 UV-I 511 W/m 5,5 C 15,8 C 24,1 km/h (4 Bft) 100,00 %
20.05.2018 13:26 19,5 C 17,8 C 40 % 1018,5 hPa 0,0 l/m 22,9 km/h (4 Bft) O 98 1 min 0,000 mm 3,1 UV-I 521 W/m 5,5 C 15,0 C 30,6 km/h (5 Bft) 96,15 %
20.05.2018 13:27 19,6 C 17,8 C 39 % 1018,5 hPa 0,0 l/m 24,8 km/h (4 Bft) O-SO 105 1 min 0,000 mm 3,2 UV-I 539 W/m 5,3 C 14,9 C 33,8 km/h (5 Bft) 96,67 %
20.05.2018 13:28 19,6 C 17,8 C 40 % 1018,4 hPa 0,0 l/m 22,4 km/h (4 Bft) O-SO 103 1 min 0,000 mm 3,3 UV-I 562 W/m 5,6 C 15,3 C 30,6 km/h (5 Bft) 95,65 %
20.05.2018 13:29 19,6 C 17,8 C 38 % 1018,5 hPa 0,0 l/m 21,4 km/h (4 Bft) O-SO 122 1 min 0,000 mm 3,5 UV-I 622 W/m 4,9 C 15,4 C 27,4 km/h (4 Bft) 100,00 %
20.05.2018 13:30 19,7 C 17,8 C 39 % 1018,4 hPa 0,0 l/m 24,5 km/h (4 Bft) SO 140 1 min 0,000 mm 3,7 UV-I 691 W/m 5,4 C 15,1 C 29,0 km/h (5 Bft) 95,65 %
20.05.2018 13:31 19,7 C 17,8 C 40 % 1018,4 hPa 0,0 l/m 21,8 km/h (4 Bft) O-NO 62 1 min 0,000 mm 3,8 UV-I 703 W/m 5,7 C 15,5 C 30,6 km/h (5 Bft) 100,00 %
20.05.2018 13:32 19,8 C 17,8 C 40 % 1018,4 hPa 0,0 l/m 19,3 km/h (3 Bft) O 80 1 min 0,000 mm 3,8 UV-I 668 W/m 5,8 C 16,1 C 25,7 km/h (4 Bft) 96,88 %
20.05.2018 13:33 19,9 C 17,8 C 41 % 1018,5 hPa 0,0 l/m 22,1 km/h (4 Bft) O-NO 61 1 min 0,000 mm 4,0 UV-I 661 W/m 6,3 C 15,7 C 30,6 km/h (5 Bft) 100,00 %
20.05.2018 13:34 19,9 C 17,8 C 38 % 1018,4 hPa 0,0 l/m 20,0 km/h (4 Bft) O-NO 78 1 min 0,000 mm 4,2 UV-I 830 W/m 5,2 C 16,1 C 22,5 km/h (4 Bft) 97,86 %
20.05.2018 13:35 20,1 C 17,8 C 39 % 1018,4 hPa 0,0 l/m 16,1 km/h (3 Bft) O-NO 62 1 min 0,000 mm 4,4 UV-I 861 W/m 5,7 C 17,1 C 20,9 km/h (4 Bft) 96,00 %
20.05.2018 13:36 20,2 C 17,8 C 40 % 1018,4 hPa 0,0 l/m 18,8 km/h (3 Bft) O 82 1 min 0,000 mm 4,1 UV-I 815 W/m 6,2 C 16,7 C 30,6 km/h (5 Bft) 100,00 %
20.05.2018 13:37 20,3 C 17,8 C 38 % 1018,4 hPa 0,0 l/m 22,2 km/h (4 Bft) O-NO 78 1 min 0,000 mm 4,3 UV-I 767 W/m 5,5 C 16,2 C 32,2 km/h (5 Bft) 93,33 %
20.05.2018 13:38 20,3 C 17,8 C 38 % 1018,4 hPa 0,0 l/m 16,5 km/h (3 Bft) O 87 1 min 0,000 mm 4,1 UV-I 698 W/m 5,5 C 17,3 C 25,7 km/h (4 Bft) 100,00 %
20.05.2018 13:39 20,3 C 17,8 C 37 % 1018,4 hPa 0,0 l/m 19,6 km/h (3 Bft) O 88 1 min 0,000 mm 4,2 UV-I 777 W/m 5,1 C 16,7 C 24,1 km/h (4 Bft) 96,67 %
20.05.2018 13:40 20,3 C 17,8 C 38 % 1018,4 hPa 0,0 l/m 19,2 km/h (3 Bft) O 94 1 min 0,000 mm 4,0 UV-I 726 W/m 5,5 C 16,7 C 27,4 km/h (4 Bft) 100,00 %
20.05.2018 13:41 20,3 C 17,8 C 38 % 1018,4 hPa 0,0 l/m 17,8 km/h (3 Bft) O 88 1 min 0,000 mm 4,2 UV-I 742 W/m 5,5 C 17,0 C 22,5 km/h (4 Bft) 95,65 %
20.05.2018 13:42 20,4 C 17,8 C 39 % 1018,3 hPa 0,0 l/m 18,9 km/h (3 Bft) O-NO 61 1 min 0,000 mm 4,3 UV-I 828 W/m 6,0 C 16,9 C 25,7 km/h (4 Bft) 100,00 %
20.05.2018 13:43 20,5 C 17,8 C 39 % 1018,3 hPa 0,0 l/m 18,3 km/h (3 Bft) NO 53 1 min 0,000 mm 4,4 UV-I 841 W/m 6,1 C 17,2 C 24,1 km/h (4 Bft) 96,55 %
20.05.2018 13:44 20,6 C 17,8 C 40 % 1018,2 hPa 0,0 l/m 18,0 km/h (3 Bft) O-NO 71 1 min 0,000 mm 4,3 UV-I 788 W/m 6,5 C 17,3 C 24,1 km/h (4 Bft) 93,33 %
20.05.2018 13:45 20,7 C 17,8 C 37 % 1018,2 hPa 0,0 l/m 22,7 km/h (4 Bft) O 92 1 min 0,000 mm 4,6 UV-I 959 W/m 5,5 C 16,7 C 30,6 km/h (5 Bft) 96,88 %
20.05.2018 13:46 20,7 C 17,8 C 36 % 1018,2 hPa 0,0 l/m 19,5 km/h (3 Bft) NO 47 1 min 0,000 mm 4,9 UV-I 1020 W/m 5,1 C 17,2 C 25,7 km/h (4 Bft) 91,67 %
20.05.2018 13:48 20,9 C 17,8 C 39 % 1018,2 hPa 0,0 l/m 23,2 km/h (4 Bft) O-NO 66 2 min 0,000 mm 4,8 UV-I 1016 W/m 6,4 C 16,9 C 33,8 km/h (5 Bft) 96,43 %
20.05.2018 13:49 20,9 C 17,8 C 36 % 1018,2 hPa 0,0 l/m 21,8 km/h (4 Bft) O-NO 67 1 min 0,000 mm 4,4 UV-I 911 W/m 5,3 C 17,1 C 27,4 km/h (4 Bft) 100,00 %
20.05.2018 13:50 20,9 C 17,8 C 35 % 1018,1 hPa 0,0 l/m 17,8 km/h (3 Bft) NO 43 1 min 0,000 mm 4,5 UV-I 827 W/m 4,9 C 17,8 C 24,1 km/h (4 Bft) 93,33 %
20.05.2018 13:51 20,9 C 17,8 C 36 % 1018,1 hPa 0,0 l/m 18,4 km/h (3 Bft) O-NO 68 1 min 0,000 mm 4,3 UV-I 798 W/m 5,3 C 17,7 C 27,4 km/h (4 Bft) 97,37 %
20.05.2018 13:52 20,9 C 17,8 C 37 % 1018,2 hPa 0,0 l/m 20,9 km/h (4 Bft) O 93 1 min 0,000 mm 4,2 UV-I 823 W/m 5,7 C 17,2 C 29,0 km/h (5 Bft) 96,30 %
20.05.2018 13:53 20,9 C 17,8 C 36 % 1018,2 hPa 0,0 l/m 18,9 km/h (3 Bft) O-NO 61 1 min 0,000 mm 4,4 UV-I 879 W/m 5,3 C 17,6 C 25,7 km/h (4 Bft) 92,31 %
20.05.2018 13:54 20,8 C 17,8 C 36 % 1018,2 hPa 0,0 l/m 18,3 km/h (3 Bft) O-NO 67 1 min 0,000 mm 4,2 UV-I 879 W/m 5,2 C 17,5 C 29,0 km/h (5 Bft) 100,00 %
20.05.2018 13:55 20,8 C 17,8 C 35 % 1018,2 hPa 0,0 l/m 26,1 km/h (4 Bft) O-NO 74 1 min 0,000 mm 4,5 UV-I 906 W/m 4,8 C 16,3 C 32,2 km/h (5 Bft) 96,55 %
20.05.2018 13:56 20,7 C 17,8 C 34 % 1018,1 hPa 0,0 l/m 25,2 km/h (4 Bft) O-NO 68 1 min 0,000 mm 4,6 UV-I 935 W/m 4,3 C 16,3 C 32,2 km/h (5 Bft) 96,30 %
20.05.2018 13:58 20,7 C 18,3 C 35 % 1018,2 hPa 0,0 l/m 25,7 km/h (4 Bft) O-NO 67 2 min 0,000 mm 4,6 UV-I 935 W/m 4,7 C 16,2 C 35,4 km/h (5 Bft) 97,73 %
20.05.2018 13:59 20,7 C 18,3 C 35 % 1018,2 hPa 0,0 l/m 20,4 km/h (4 Bft) O-NO 69 1 min 0,000 mm 4,5 UV-I 917 W/m 4,7 C 17,0 C 27,4 km/h (4 Bft) 100,00 %
20.05.2018 14:00 20,6 C 18,3 C 35 % 1018,2 hPa 0,0 l/m 23,3 km/h (4 Bft) NO 55 1 min 0,000 mm 4,4 UV-I 892 W/m 4,6 C 16,4 C 27,4 km/h (4 Bft) 96,55 %
20.05.2018 14:02 20,6 C 18,3 C 37 % 1018,1 hPa 0,0 l/m 22,4 km/h (4 Bft) O 85 2 min 0,610 mm 4,1 UV-I 853 W/m 5,4 C 16,6 C 27,4 km/h (4 Bft) 100,00 %
20.05.2018 14:03 20,6 C 18,3 C 36 % 1018,1 hPa 0,0 l/m 19,0 km/h (3 Bft) O 96 1 min 0,000 mm 3,9 UV-I 784 W/m 5,0 C 17,2 C 27,4 km/h (4 Bft) 100,00 %
20.05.2018 14:04 20,6 C 18,3 C 36 % 1018,2 hPa 0,0 l/m 18,4 km/h (3 Bft) O-SO 114 1 min 0,000 mm 3,8 UV-I 688 W/m 5,0 C 17,3 C 22,5 km/h (4 Bft) 95,65 %
20.05.2018 14:05 20,6 C 18,3 C 37 % 1018,1 hPa 0,0 l/m 20,2 km/h (4 Bft) O 93 1 min 0,000 mm 3,8 UV-I 700 W/m 5,4 C 16,9 C 27,4 km/h (4 Bft) 100,00 %
20.05.2018 14:06 20,7 C 18,3 C 37 % 1018,1 hPa 0,0 l/m 19,0 km/h (3 Bft) O 92 1 min 0,000 mm 3,8 UV-I 680 W/m 5,5 C 17,3 C 29,0 km/h (5 Bft) 100,00 %
20.05.2018 14:07 20,7 C 18,3 C 36 % 1018,2 hPa 0,0 l/m 24,9 km/h (4 Bft) O-SO 106 1 min 0,000 mm 3,7 UV-I 658 W/m 5,1 C 16,3 C 33,8 km/h (5 Bft) 100,00 %
20.05.2018 14:08 20,6 C 18,3 C 37 % 1018,1 hPa 0,0 l/m 20,3 km/h (4 Bft) NO 55 1 min 0,000 mm 3,6 UV-I 642 W/m 5,4 C 16,9 C 27,4 km/h (4 Bft) 100,00 %
20.05.2018 14:09 20,6 C 18,3 C 37 % 1018,2 hPa 0,0 l/m 20,5 km/h (4 Bft) O 82 1 min 0,000 mm 3,6 UV-I 636 W/m 5,4 C 16,9 C 29,0 km/h (5 Bft) 100,00 %
20.05.2018 14:10 20,6 C 18,3 C 38 % 1018,1 hPa 0,0 l/m 21,6 km/h (4 Bft) O 91 1 min 0,000 mm 3,7 UV-I 661 W/m 5,8 C 16,7 C 29,0 km/h (5 Bft) 96,15 %
20.05.2018 14:11 20,5 C 18,3 C 37 % 1018,2 hPa 0,0 l/m 22,9 km/h (4 Bft) O 80 1 min 0,000 mm 3,8 UV-I 695 W/m 5,3 C 16,4 C 29,0 km/h (5 Bft) 100,00 %
20.05.2018 14:12 20,5 C 18,3 C 37 % 1018,2 hPa 0,0 l/m 22,2 km/h (4 Bft) O-NO 57 1 min 0,000 mm 3,8 UV-I 713 W/m 5,3 C 16,5 C 30,6 km/h (5 Bft) 100,00 %
20.05.2018 14:13 20,5 C 18,3 C 37 % 1018,1 hPa 0,0 l/m 16,7 km/h (3 Bft) O-NO 77 1 min 0,000 mm 3,8 UV-I 707 W/m 5,3 C 17,5 C 22,5 km/h (4 Bft) 100,00 %
20.05.2018 14:14 20,4 C 18,3 C 39 % 1018,1 hPa 0,0 l/m 20,6 km/h (4 Bft) N-NO 30 1 min 0,000 mm 3,8 UV-I 723 W/m 6,0 C 16,6 C 29,0 km/h (5 Bft) 93,10 %
20.05.2018 14:15 20,5 C 18,3 C 40 % 1018,0 hPa 0,0 l/m 23,1 km/h (4 Bft) O-SO 103 1 min 0,000 mm 3,9 UV-I 736 W/m 6,4 C 16,3 C 27,4 km/h (4 Bft) 94,44 %
20.05.2018 14:16 20,6 C 18,3 C 38 % 1018,0 hPa 0,0 l/m 23,1 km/h (4 Bft) O 84 1 min 0,000 mm 3,9 UV-I 740 W/m 5,8 C 16,5 C 30,6 km/h (5 Bft) 100,00 %
20.05.2018 14:17 20,6 C 18,3 C 37 % 1018,0 hPa 0,0 l/m 20,5 km/h (4 Bft) N-NO 24 1 min 0,000 mm 3,8 UV-I 712 W/m 5,4 C 16,9 C 27,4 km/h (4 Bft) 100,00 %
20.05.2018 14:18 20,6 C 18,3 C 37 % 1018,0 hPa 0,0 l/m 16,8 km/h (3 Bft) O 82 1 min 0,000 mm 3,7 UV-I 700 W/m 5,4 C 17,6 C 25,7 km/h (4 Bft) 100,00 %
20.05.2018 14:19 20,6 C 18,3 C 38 % 1018,0 hPa 0,0 l/m 17,4 km/h (3 Bft) O 89 1 min 0,000 mm 3,8 UV-I 686 W/m 5,8 C 17,5 C 30,6 km/h (5 Bft) 100,00 %
20.05.2018 14:20 20,6 C 18,3 C 36 % 1018,0 hPa 0,0 l/m 23,6 km/h (4 Bft) O-NO 76 1 min 0,000 mm 3,7 UV-I 683 W/m 5,0 C 16,4 C 32,2 km/h (5 Bft) 100,00 %
20.05.2018 14:21 20,7 C 18,3 C 36 % 1018,0 hPa 0,0 l/m 22,4 km/h (4 Bft) O-NO 61 1 min 0,000 mm 3,8 UV-I 714 W/m 5,1 C 16,7 C 30,6 km/h (5 Bft) 100,00 %
20.05.2018 14:22 20,7 C 18,3 C 37 % 1018,0 hPa 0,0 l/m 18,8 km/h (3 Bft) NO 48 1 min 0,000 mm 3,8 UV-I 730 W/m 5,5 C 17,3 C 27,4 km/h (4 Bft) 97,78 %
20.05.2018 14:23 20,8 C 18,3 C 40 % 1017,9 hPa 0,0 l/m 18,5 km/h (3 Bft) NO 53 1 min 0,000 mm 3,8 UV-I 733 W/m 6,7 C 17,5 C 24,1 km/h (4 Bft) 97,85 %
20.05.2018 14:24 20,8 C 18,3 C 38 % 1017,9 hPa 0,0 l/m 19,3 km/h (3 Bft) O-NO 59 1 min 0,000 mm 3,8 UV-I 723 W/m 6,0 C 17,4 C 22,5 km/h (4 Bft) 100,00 %
20.05.2018 14:25 20,9 C 18,3 C 36 % 1018,0 hPa 0,0 l/m 17,2 km/h (3 Bft) O-NO 73 1 min 0,000 mm 3,8 UV-I 723 W/m 5,3 C 17,9 C 24,1 km/h (4 Bft) 100,00 %
20.05.2018 14:26 20,9 C 18,3 C 37 % 1018,0 hPa 0,0 l/m 13,0 km/h (3 Bft) O-NO 69 1 min 0,000 mm 3,8 UV-I 723 W/m 5,7 C 18,8 C 17,7 km/h (3 Bft) 100,00 %
20.05.2018 14:27 20,9 C 18,3 C 37 % 1018,0 hPa 0,0 l/m 17,7 km/h (3 Bft) O-SO 107 1 min 0,000 mm 3,8 UV-I 719 W/m 5,7 C 17,8 C 24,1 km/h (4 Bft) 100,00 %
20.05.2018 14:28 20,9 C 18,3 C 38 % 1018,0 hPa 0,0 l/m 16,8 km/h (3 Bft) O 88 1 min 0,000 mm 3,8 UV-I 722 W/m 6,0 C 18,0 C 24,1 km/h (4 Bft) 100,00 %
20.05.2018 14:29 20,9 C 18,3 C 38 % 1017,9 hPa 0,0 l/m 13,9 km/h (3 Bft) O-SO 110 1 min 0,000 mm 3,7 UV-I 710 W/m 6,0 C 18,6 C 19,3 km/h (3 Bft) 100,00 %
20.05.2018 14:30 21,1 C 18,3 C 37 % 1017,9 hPa 0,0 l/m 25,9 km/h (4 Bft) O-SO 103 1 min 0,000 mm 3,8 UV-I 750 W/m 5,8 C 16,8 C 32,2 km/h (5 Bft) 100,00 %
20.05.2018 14:31 21,1 C 18,3 C 37 % 1017,9 hPa 0,0 l/m 23,3 km/h (4 Bft) O 101 1 min 0,000 mm 3,9 UV-I 784 W/m 5,8 C 17,1 C 30,6 km/h (5 Bft) 100,00 %
20.05.2018 14:32 21,1 C 18,3 C 37 % 1017,9 hPa 0,0 l/m 21,2 km/h (4 Bft) O 100 1 min 0,000 mm 3,7 UV-I 737 W/m 5,8 C 17,4 C 30,6 km/h (5 Bft) 100,00 %
20.05.2018 14:33 21,1 C 18,3 C 37 % 1017,9 hPa 0,0 l/m 22,1 km/h (4 Bft) O 94 1 min 0,000 mm 3,5 UV-I 701 W/m 5,8 C 17,3 C 30,6 km/h (5 Bft) 100,00 %
20.05.2018 14:34 21,0 C 18,3 C 35 % 1017,9 hPa 0,0 l/m 20,0 km/h (4 Bft) O-SO 118 1 min 0,000 mm 3,4 UV-I 625 W/m 5,0 C 17,5 C 27,4 km/h (4 Bft) 97,37 %
20.05.2018 14:35 21,0 C 18,3 C 35 % 1017,9 hPa 0,0 l/m 17,1 km/h (3 Bft) O 96 1 min 0,000 mm 3,6 UV-I 661 W/m 5,0 C 18,0 C 24,1 km/h (4 Bft) 100,00 %
20.05.2018 14:36 20,9 C 18,3 C 37 % 1017,9 hPa 0,0 l/m 19,2 km/h (3 Bft) O-NO 78 1 min 0,000 mm 3,5 UV-I 658 W/m 5,7 C 17,5 C 25,7 km/h (4 Bft) 100,00 %
20.05.2018 14:37 21,0 C 18,3 C 37 % 1017,9 hPa 0,0 l/m 17,8 km/h (3 Bft) O 92 1 min 0,000 mm 3,5 UV-I 642 W/m 5,8 C 17,9 C 22,5 km/h (4 Bft) 100,00 %
20.05.2018 14:38 21,1 C 18,3 C 38 % 1017,9 hPa 0,0 l/m 21,9 km/h (4 Bft) NO 47 1 min 0,000 mm 3,5 UV-I 691 W/m 6,2 C 17,3 C 29,0 km/h (5 Bft) 100,00 %
20.05.2018 14:39 21,1 C 18,3 C 37 % 1017,9 hPa 0,0 l/m 19,2 km/h (3 Bft) O-SO 113 1 min 0,000 mm 3,6 UV-I 693 W/m 5,8 C 17,8 C 25,7 km/h (4 Bft) 100,00 %
20.05.2018 14:40 21,1 C 18,3 C 37 % 1017,9 hPa 0,0 l/m 21,0 km/h (4 Bft) O 84 1 min 0,000 mm 3,6 UV-I 722 W/m 5,8 C 17,5 C 29,0 km/h (5 Bft) 100,00 %
20.05.2018 14:41 21,1 C 18,3 C 37 % 1017,9 hPa 0,0 l/m 24,1 km/h (4 Bft) O-NO 61 1 min 0,000 mm 3,6 UV-I 722 W/m 5,8 C 17,0 C 30,6 km/h (5 Bft) 96,67 %
20.05.2018 14:42 21,0 C 18,3 C 38 % 1017,9 hPa 0,0 l/m 19,1 km/h (3 Bft) O 96 1 min 0,000 mm 3,5 UV-I 673 W/m 6,1 C 17,7 C 25,7 km/h (4 Bft) 100,00 %
20.05.2018 14:43 21,0 C 18,3 C 38 % 1017,9 hPa 0,0 l/m 16,7 km/h (3 Bft) O 87 1 min 0,000 mm 3,4 UV-I 640 W/m 6,1 C 18,1 C 24,1 km/h (4 Bft) 100,00 %
20.05.2018 14:44 21,0 C 18,3 C 38 % 1017,9 hPa 0,0 l/m 17,7 km/h (3 Bft) O-NO 75 1 min 0,000 mm 3,3 UV-I 608 W/m 6,1 C 17,9 C 20,9 km/h (4 Bft) 100,00 %
20.05.2018 14:45 21,0 C 18,3 C 38 % 1017,9 hPa 0,0 l/m 21,1 km/h (4 Bft) O 97 1 min 0,000 mm 3,2 UV-I 589 W/m 6,1 C 17,3 C 25,7 km/h (4 Bft) 100,00 %
20.05.2018 14:46 21,1 C 18,3 C 39 % 1017,9 hPa 0,0 l/m 22,9 km/h (4 Bft) O 81 1 min 0,000 mm 3,5 UV-I 608 W/m 6,6 C 17,2 C 29,0 km/h (5 Bft) 96,15 %
20.05.2018 14:47 21,1 C 18,3 C 38 % 1017,9 hPa 0,0 l/m 19,8 km/h (3 Bft) O-NO 59 1 min 0,000 mm 3,5 UV-I 702 W/m 6,2 C 17,7 C 27,4 km/h (4 Bft) 100,00 %
20.05.2018 14:48 21,2 C 18,3 C 38 % 1017,8 hPa 0,0 l/m 20,2 km/h (4 Bft) O 92 1 min 0,000 mm 3,4 UV-I 688 W/m 6,3 C 17,7 C 29,0 km/h (5 Bft) 100,00 %
20.05.2018 14:49 21,2 C 18,3 C 36 % 1017,8 hPa 0,0 l/m 20,6 km/h (4 Bft) O-NO 66 1 min 0,000 mm 3,4 UV-I 669 W/m 5,5 C 17,7 C 25,7 km/h (4 Bft) 100,00 %
20.05.2018 14:50 21,2 C 18,3 C 37 % 1017,8 hPa 0,0 l/m 15,9 km/h (3 Bft) O 82 1 min 0,000 mm 3,2 UV-I 630 W/m 5,9 C 18,5 C 20,9 km/h (4 Bft) 90,91 %
20.05.2018 14:51 21,2 C 18,3 C 38 % 1017,8 hPa 0,0 l/m 19,7 km/h (3 Bft) O 84 1 min 0,000 mm 3,1 UV-I 567 W/m 6,3 C 17,8 C 25,7 km/h (4 Bft) 100,00 %
20.05.2018 14:52 21,2 C 18,3 C 37 % 1017,8 hPa 0,0 l/m 16,8 km/h (3 Bft) O 93 1 min 0,000 mm 2,9 UV-I 505 W/m 5,9 C 18,3 C 22,5 km/h (4 Bft) 100,00 %
20.05.2018 14:53 21,2 C 18,3 C 38 % 1017,8 hPa 0,0 l/m 17,8 km/h (3 Bft) O 91 1 min 0,000 mm 3,0 UV-I 547 W/m 6,3 C 18,1 C 20,9 km/h (4 Bft) 100,00 %
20.05.2018 14:54 21,1 C 18,3 C 36 % 1017,8 hPa 0,0 l/m 22,2 km/h (4 Bft) O 99 1 min 0,000 mm 3,1 UV-I 558 W/m 5,4 C 17,3 C 27,4 km/h (4 Bft) 100,00 %
20.05.2018 14:55 21,1 C 18,3 C 36 % 1017,8 hPa 0,0 l/m 20,8 km/h (4 Bft) O 88 1 min 0,000 mm 3,1 UV-I 576 W/m 5,4 C 17,5 C 27,4 km/h (4 Bft) 100,00 %
20.05.2018 14:56 21,1 C 18,3 C 37 % 1017,8 hPa 0,0 l/m 21,0 km/h (4 Bft) O-NO 76 1 min 0,000 mm 3,1 UV-I 601 W/m 5,8 C 17,5 C 27,4 km/h (4 Bft) 100,00 %
20.05.2018 14:57 21,1 C 18,3 C 39 % 1017,8 hPa 0,0 l/m 17,2 km/h (3 Bft) O-SO 105 1 min 0,000 mm 3,1 UV-I 586 W/m 6,6 C 18,1 C 20,9 km/h (4 Bft) 100,00 %
20.05.2018 14:58 21,1 C 18,3 C 38 % 1017,7 hPa 0,0 l/m 14,9 km/h (3 Bft) O-SO 106 1 min 0,000 mm 3,0 UV-I 576 W/m 6,2 C 18,6 C 19,3 km/h (3 Bft) 100,00 %
20.05.2018 14:59 21,2 C 18,3 C 40 % 1017,7 hPa 0,0 l/m 19,7 km/h (3 Bft) O-NO 76 1 min 0,000 mm 3,1 UV-I 564 W/m 7,1 C 17,8 C 27,4 km/h (4 Bft) 100,00 %
20.05.2018 15:00 21,1 C 18,3 C 38 % 1017,7 hPa 0,0 l/m 16,4 km/h (3 Bft) O 96 1 min 0,000 mm 3,0 UV-I 548 W/m 6,2 C 18,3 C 19,3 km/h (3 Bft) 100,00 %
20.05.2018 15:02 21,1 C 18,3 C 39 % 1017,7 hPa 0,0 l/m 18,9 km/h (3 Bft) O-SO 113 2 min 0,559 mm 2,9 UV-I 543 W/m 6,6 C 17,8 C 25,7 km/h (4 Bft) 100,00 %
20.05.2018 15:03 21,1 C 18,3 C 40 % 1017,7 hPa 0,0 l/m 18,6 km/h (3 Bft) O-NO 75 1 min 0,000 mm 2,8 UV-I 514 W/m 7,0 C 17,9 C 22,5 km/h (4 Bft) 100,00 %
20.05.2018 15:04 21,1 C 18,3 C 39 % 1017,7 hPa 0,0 l/m 15,3 km/h (3 Bft) O 92 1 min 0,000 mm 3,0 UV-I 543 W/m 6,6 C 18,5 C 24,1 km/h (4 Bft) 100,00 %
20.05.2018 15:05 21,1 C 18,3 C 38 % 1017,7 hPa 0,0 l/m 19,2 km/h (3 Bft) O-NO 74 1 min 0,000 mm 3,0 UV-I 536 W/m 6,2 C 17,8 C 25,7 km/h (4 Bft) 90,91 %
20.05.2018 15:06 21,1 C 18,3 C 38 % 1017,7 hPa 0,0 l/m 16,2 km/h (3 Bft) O-SO 109 1 min 0,000 mm 3,2 UV-I 626 W/m 6,2 C 18,3 C 32,2 km/h (5 Bft) 96,30 %
20.05.2018 15:07 21,0 C 18,3 C 38 % 1017,6 hPa 0,0 l/m 20,0 km/h (4 Bft) O 96 1 min 0,000 mm 3,1 UV-I 626 W/m 6,1 C 17,5 C 27,4 km/h (4 Bft) 100,00 %
20.05.2018 15:08 21,1 C 18,3 C 39 % 1017,6 hPa 0,0 l/m 23,8 km/h (4 Bft) O 91 1 min 0,000 mm 3,3 UV-I 632 W/m 6,6 C 17,0 C 32,2 km/h (5 Bft) 100,00 %
20.05.2018 15:09 21,1 C 18,3 C 38 % 1017,7 hPa 0,0 l/m 24,9 km/h (4 Bft) O 85 1 min 0,000 mm 3,4 UV-I 742 W/m 6,2 C 16,9 C 32,2 km/h (5 Bft) 100,00 %
20.05.2018 15:10 21,1 C 18,3 C 37 % 1017,7 hPa 0,0 l/m 19,7 km/h (3 Bft) O 80 1 min 0,000 mm 3,2 UV-I 719 W/m 5,8 C 17,7 C 24,1 km/h (4 Bft) 100,00 %
20.05.2018 15:11 21,1 C 18,3 C 37 % 1017,7 hPa 0,0 l/m 21,8 km/h (4 Bft) O 100 1 min 0,000 mm 2,8 UV-I 719 W/m 5,8 C 17,3 C 29,0 km/h (5 Bft) 100,00 %
20.05.2018 15:12 21,0 C 18,3 C 36 % 1017,6 hPa 0,0 l/m 17,9 km/h (3 Bft) O-NO 69 1 min 0,000 mm 2,7 UV-I 526 W/m 5,4 C 17,9 C 24,1 km/h (4 Bft) 100,00 %
20.05.2018 15:13 20,9 C 18,3 C 39 % 1017,5 hPa 0,0 l/m 19,1 km/h (3 Bft) O 94 1 min 0,000 mm 2,7 UV-I 439 W/m 6,4 C 17,5 C 25,7 km/h (4 Bft) 100,00 %
20.05.2018 15:14 20,9 C 18,3 C 39 % 1017,6 hPa 0,0 l/m 17,4 km/h (3 Bft) O-NO 78 1 min 0,000 mm 2,9 UV-I 491 W/m 6,4 C 17,8 C 22,5 km/h (4 Bft) 100,00 %
20.05.2018 15:15 21,0 C 18,3 C 40 % 1017,6 hPa 0,0 l/m 19,4 km/h (3 Bft) O-SO 102 1 min 0,000 mm 3,0 UV-I 601 W/m 6,9 C 17,6 C 27,4 km/h (4 Bft) 100,00 %
20.05.2018 15:16 21,1 C 18,3 C 38 % 1017,6 hPa 0,0 l/m 23,7 km/h (4 Bft) O-NO 78 1 min 0,000 mm 2,9 UV-I 578 W/m 6,2 C 17,1 C 30,6 km/h (5 Bft) 100,00 %
20.05.2018 15:18 21,1 C 18,3 C 40 % 1017,6 hPa 0,0 l/m 17,2 km/h (3 Bft) O 84 2 min 0,000 mm 3,0 UV-I 637 W/m 7,0 C 18,1 C 20,9 km/h (4 Bft) 100,00 %
20.05.2018 15:19 21,1 C 18,3 C 39 % 1017,6 hPa 0,0 l/m 20,8 km/h (4 Bft) O 92 1 min 0,000 mm 3,1 UV-I 649 W/m 6,6 C 17,5 C 25,7 km/h (4 Bft) 96,30 %
20.05.2018 15:20 21,1 C 18,3 C 39 % 1017,7 hPa 0,0 l/m 20,9 km/h (4 Bft) O 101 1 min 0,000 mm 3,1 UV-I 660 W/m 6,6 C 17,5 C 32,2 km/h (5 Bft) 94,12 %
20.05.2018 15:21 21,2 C 18,3 C 39 % 1017,6 hPa 0,0 l/m 20,3 km/h (4 Bft) O-SO 103 1 min 0,000 mm 3,1 UV-I 672 W/m 6,7 C 17,7 C 27,4 km/h (4 Bft) 100,00 %
20.05.2018 15:22 21,2 C 18,3 C 38 % 1017,5 hPa 0,0 l/m 12,2 km/h (2 Bft) O-NO 63 1 min 0,000 mm 3,1 UV-I 686 W/m 6,3 C 19,4 C 17,7 km/h (3 Bft) 96,88 %
20.05.2018 15:23 21,3 C 18,3 C 40 % 1017,5 hPa 0,0 l/m 20,1 km/h (4 Bft) O-NO 71 1 min 0,000 mm 3,0 UV-I 648 W/m 7,1 C 17,9 C 24,1 km/h (4 Bft) 96,97 %
20.05.2018 15:24 21,3 C 18,3 C 39 % 1017,5 hPa 0,0 l/m 24,9 km/h (4 Bft) O-SO 106 1 min 0,000 mm 2,8 UV-I 565 W/m 6,8 C 17,2 C 33,8 km/h (5 Bft) 100,00 %
20.05.2018 15:25 21,3 C 18,3 C 39 % 1017,6 hPa 0,0 l/m 27,0 km/h (4 Bft) O 96 1 min 0,000 mm 2,7 UV-I 520 W/m 6,8 C 16,9 C 33,8 km/h (5 Bft) 96,97 %
20.05.2018 15:26 21,2 C 18,3 C 39 % 1017,5 hPa 0,0 l/m 24,6 km/h (4 Bft) O-SO 105 1 min 0,000 mm 2,4 UV-I 494 W/m 6,7 C 17,1 C 32,2 km/h (5 Bft) 97,98 %
20.05.2018 15:27 21,1 C 18,3 C 40 % 1017,5 hPa 0,0 l/m 18,3 km/h (3 Bft) NO 55 0 min 0,000 mm 2,4 UV-I 394 W/m 7,0 C 17,9 C 29,0 km/h (5 Bft) 97,37 %
20.05.2018 15:28 21,1 C 18,3 C 41 % 1017,5 hPa 0,0 l/m 16,3 km/h (3 Bft) O 92 1 min 0,000 mm 2,5 UV-I 479 W/m 7,3 C 18,3 C 20,9 km/h (4 Bft) 95,83 %
20.05.2018 15:29 20,9 C 18,3 C 40 % 1017,5 hPa 0,0 l/m 15,1 km/h (3 Bft) O 96 1 min 0,000 mm 2,5 UV-I 452 W/m 6,8 C 18,3 C 17,7 km/h (3 Bft) 100,00 %
20.05.2018 15:30 20,9 C 18,3 C 41 % 1017,5 hPa 0,0 l/m 16,4 km/h (3 Bft) O-SO 103 1 min 0,000 mm 2,5 UV-I 440 W/m 7,2 C 18,0 C 27,4 km/h (4 Bft) 96,30 %
20.05.2018 15:31 20,9 C 18,3 C 41 % 1017,5 hPa 0,0 l/m 19,6 km/h (3 Bft) O 81 1 min 0,000 mm 2,7 UV-I 483 W/m 7,2 C 17,4 C 24,1 km/h (4 Bft) 100,00 %
20.05.2018 15:32 20,9 C 18,3 C 39 % 1017,4 hPa 0,0 l/m 21,3 km/h (4 Bft) O 90 1 min 0,000 mm 2,8 UV-I 545 W/m 6,4 C 17,2 C 24,1 km/h (4 Bft) 91,67 %
20.05.2018 15:33 21,0 C 18,3 C 39 % 1017,4 hPa 0,0 l/m 20,3 km/h (4 Bft) O 81 1 min 0,000 mm 2,8 UV-I 555 W/m 6,5 C 17,4 C 25,7 km/h (4 Bft) 97,14 %
20.05.2018 15:34 21,0 C 18,3 C 38 % 1017,5 hPa 0,0 l/m 18,3 km/h (3 Bft) O-NO 69 1 min 0,000 mm 2,8 UV-I 587 W/m 6,1 C 17,8 C 25,7 km/h (4 Bft) 96,15 %
20.05.2018 15:35 21,0 C 18,3 C 39 % 1017,4 hPa 0,0 l/m 19,0 km/h (3 Bft) O-NO 63 1 min 0,000 mm 2,9 UV-I 644 W/m 6,5 C 17,7 C 24,1 km/h (4 Bft) 93,33 %
20.05.2018 15:36 21,1 C 18,3 C 39 % 1017,4 hPa 0,0 l/m 21,3 km/h (4 Bft) O 83 1 min 0,000 mm 2,9 UV-I 672 W/m 6,6 C 17,4 C 29,0 km/h (5 Bft) 92,59 %
20.05.2018 15:37 21,1 C 18,3 C 40 % 1017,4 hPa 0,0 l/m 21,6 km/h (4 Bft) O 98 1 min 0,000 mm 2,9 UV-I 685 W/m 7,0 C 17,4 C 27,4 km/h (4 Bft) 86,96 %
20.05.2018 15:38 21,2 C 18,3 C 39 % 1017,4 hPa 0,0 l/m 16,8 km/h (3 Bft) O-NO 78 1 min 0,000 mm 2,9 UV-I 693 W/m 6,7 C 18,3 C 20,9 km/h (4 Bft) 96,30 %
20.05.2018 15:39 21,3 C 18,3 C 41 % 1017,4 hPa 0,0 l/m 15,6 km/h (3 Bft) O-NO 76 1 min 0,000 mm 3,0 UV-I 732 W/m 7,5 C 18,7 C 20,9 km/h (4 Bft) 91,30 %
20.05.2018 15:40 21,4 C 18,3 C 40 % 1017,3 hPa 0,0 l/m 21,6 km/h (4 Bft) O 88 1 min 0,000 mm 3,0 UV-I 724 W/m 7,2 C 17,8 C 25,7 km/h (4 Bft) 100,00 %
20.05.2018 15:41 21,5 C 18,3 C 39 % 1017,3 hPa 0,0 l/m 17,9 km/h (3 Bft) NO 53 1 min 0,000 mm 3,0 UV-I 683 W/m 7,0 C 18,5 C 27,4 km/h (4 Bft) 85,71 %
20.05.2018 15:42 21,6 C 18,3 C 39 % 1017,3 hPa 0,0 l/m 18,3 km/h (3 Bft) O 92 1 min 0,000 mm 2,9 UV-I 641 W/m 7,0 C 18,6 C 20,9 km/h (4 Bft) 100,00 %
20.05.2018 15:43 21,6 C 18,3 C 39 % 1017,3 hPa 0,0 l/m 20,6 km/h (4 Bft) O-NO 65 1 min 0,000 mm 2,8 UV-I 637 W/m 7,0 C 18,2 C 25,7 km/h (4 Bft) 91,30 %
20.05.2018 15:44 21,6 C 18,3 C 39 % 1017,3 hPa 0,0 l/m 20,8 km/h (4 Bft) O 94 1 min 0,000 mm 2,9 UV-I 671 W/m 7,0 C 18,1 C 27,4 km/h (4 Bft) 100,00 %
20.05.2018 15:45 21,6 C 18,3 C 39 % 1017,3 hPa 0,0 l/m 22,3 km/h (4 Bft) O 97 1 min 0,000 mm 2,9 UV-I 694 W/m 7,0 C 17,9 C 29,0 km/h (5 Bft) 91,30 %
20.05.2018 15:46 21,6 C 18,3 C 39 % 1017,4 hPa 0,0 l/m 27,5 km/h (4 Bft) O-SO 103 1 min 0,000 mm 2,8 UV-I 664 W/m 7,0 C 17,2 C 33,8 km/h (5 Bft) 96,30 %
20.05.2018 15:47 21,6 C 18,3 C 38 % 1017,4 hPa 0,0 l/m 22,5 km/h (4 Bft) O-SO 112 1 min 0,000 mm 2,7 UV-I 623 W/m 6,7 C 17,9 C 33,8 km/h (5 Bft) 96,15 %
20.05.2018 15:48 21,6 C 18,3 C 38 % 1017,3 hPa 0,0 l/m 25,1 km/h (4 Bft) O-SO 103 1 min 0,000 mm 2,6 UV-I 596 W/m 6,7 C 17,5 C 29,0 km/h (5 Bft) 93,33 %
20.05.2018 15:49 21,5 C 18,3 C 37 % 1017,3 hPa 0,0 l/m 21,7 km/h (4 Bft) O-NO 69 1 min 0,000 mm 2,5 UV-I 545 W/m 6,2 C 17,9 C 30,6 km/h (5 Bft) 97,14 %
20.05.2018 15:50 21,5 C 18,3 C 38 % 1017,3 hPa 0,0 l/m 19,0 km/h (3 Bft) O 88 1 min 0,000 mm 2,4 UV-I 488 W/m 6,6 C 18,3 C 25,7 km/h (4 Bft) 91,67 %
20.05.2018 15:51 21,4 C 18,3 C 39 % 1017,3 hPa 0,0 l/m 24,7 km/h (4 Bft) O-NO 71 1 min 0,000 mm 2,3 UV-I 460 W/m 6,9 C 17,3 C 32,2 km/h (5 Bft) 96,30 %
20.05.2018 15:52 21,4 C 18,3 C 37 % 1017,3 hPa 0,0 l/m 27,5 km/h (4 Bft) O-SO 104 1 min 0,000 mm 2,4 UV-I 484 W/m 6,1 C 17,0 C 37,0 km/h (5 Bft) 91,30 %
20.05.2018 15:53 21,4 C 18,3 C 38 % 1017,3 hPa 0,0 l/m 19,9 km/h (4 Bft) O-NO 68 1 min 0,000 mm 2,4 UV-I 502 W/m 6,5 C 18,0 C 27,4 km/h (4 Bft) 100,00 %
20.05.2018 15:54 21,4 C 18,3 C 37 % 1017,3 hPa 0,0 l/m 19,4 km/h (3 Bft) O-NO 59 1 min 0,000 mm 2,6 UV-I 577 W/m 6,1 C 18,1 C 30,6 km/h (5 Bft) 100,00 %
20.05.2018 15:55 21,4 C 18,3 C 38 % 1017,3 hPa 0,0 l/m 18,5 km/h (3 Bft) O-NO 64 1 min 0,000 mm 2,7 UV-I 633 W/m 6,5 C 18,3 C 24,1 km/h (4 Bft) 93,33 %
20.05.2018 15:56 21,5 C 18,3 C 38 % 1017,3 hPa 0,0 l/m 17,6 km/h (3 Bft) O-NO 61 1 min 0,000 mm 2,7 UV-I 642 W/m 6,6 C 18,6 C 24,1 km/h (4 Bft) 97,37 %
20.05.2018 15:57 21,6 C 18,3 C 38 % 1017,2 hPa 0,0 l/m 17,9 km/h (3 Bft) O-NO 68 1 min 0,000 mm 2,7 UV-I 634 W/m 6,7 C 18,6 C 22,5 km/h (4 Bft) 100,00 %
20.05.2018 15:58 21,6 C 18,3 C 37 % 1017,2 hPa 0,0 l/m 20,0 km/h (4 Bft) O 89 1 min 0,000 mm 2,6 UV-I 620 W/m 6,3 C 18,3 C 25,7 km/h (4 Bft) 96,15 %
20.05.2018 15:59 21,6 C 18,3 C 37 % 1017,3 hPa 0,0 l/m 23,8 km/h (4 Bft) O 96 1 min 0,000 mm 2,6 UV-I 597 W/m 6,3 C 17,7 C 30,6 km/h (5 Bft) 100,00 %
20.05.2018 16:00 21,6 C 18,3 C 37 % 1017,2 hPa 0,0 l/m 21,1 km/h (4 Bft) O-NO 67 1 min 0,000 mm 2,5 UV-I 578 W/m 6,3 C 18,1 C 25,7 km/h (4 Bft) 96,88 %
20.05.2018 16:02 21,7 C 18,3 C 38 % 1017,3 hPa 0,0 l/m 23,7 km/h (4 Bft) O 94 2 min 0,533 mm 2,6 UV-I 628 W/m 6,8 C 17,9 C 32,2 km/h (5 Bft) 94,74 %
20.05.2018 16:03 21,7 C 18,3 C 38 % 1017,2 hPa 0,0 l/m 23,3 km/h (4 Bft) O 92 1 min 0,000 mm 2,6 UV-I 633 W/m 6,8 C 17,9 C 30,6 km/h (5 Bft) 93,33 %
20.05.2018 16:04 21,6 C 18,3 C 37 % 1017,3 hPa 0,0 l/m 22,9 km/h (4 Bft) O 92 1 min 0,000 mm 2,5 UV-I 635 W/m 6,3 C 17,8 C 30,6 km/h (5 Bft) 100,00 %
20.05.2018 16:05 21,6 C 18,3 C 37 % 1017,2 hPa 0,0 l/m 23,3 km/h (4 Bft) O-NO 64 1 min 0,000 mm 2,5 UV-I 637 W/m 6,3 C 17,8 C 29,0 km/h (5 Bft) 96,30 %
20.05.2018 16:06 21,6 C 18,3 C 38 % 1017,2 hPa 0,0 l/m 28,3 km/h (4 Bft) O-NO 78 1 min 0,000 mm 2,5 UV-I 624 W/m 6,7 C 17,2 C 35,4 km/h (5 Bft) 100,00 %
20.05.2018 16:07 21,6 C 18,3 C 38 % 1017,2 hPa 0,0 l/m 21,1 km/h (4 Bft) NO 53 1 min 0,000 mm 2,5 UV-I 615 W/m 6,7 C 18,1 C 27,4 km/h (4 Bft) 86,67 %
20.05.2018 16:08 21,6 C 18,3 C 38 % 1017,2 hPa 0,0 l/m 19,4 km/h (3 Bft) O 91 1 min 0,000 mm 2,4 UV-I 612 W/m 6,7 C 18,4 C 25,7 km/h (4 Bft) 92,31 %
20.05.2018 16:09 21,6 C 18,3 C 39 % 1017,3 hPa 0,0 l/m 23,9 km/h (4 Bft) O 85 1 min 0,000 mm 2,4 UV-I 592 W/m 7,0 C 17,7 C 27,4 km/h (4 Bft) 96,30 %
20.05.2018 16:10 21,7 C 18,3 C 39 % 1017,2 hPa 0,0 l/m 18,2 km/h (3 Bft) O-NO 63 1 min 0,000 mm 2,3 UV-I 538 W/m 7,1 C 18,7 C 24,1 km/h (4 Bft) 100,00 %
20.05.2018 16:11 21,7 C 18,3 C 39 % 1017,3 hPa 0,0 l/m 23,0 km/h (4 Bft) O-NO 69 1 min 0,000 mm 2,2 UV-I 513 W/m 7,1 C 18,0 C 29,0 km/h (5 Bft) 96,55 %
20.05.2018 16:12 21,7 C 18,3 C 39 % 1017,1 hPa 0,0 l/m 22,5 km/h (4 Bft) O 90 1 min 0,000 mm 2,3 UV-I 537 W/m 7,1 C 18,0 C 35,4 km/h (5 Bft) 100,00 %
20.05.2018 16:13 21,6 C 18,3 C 38 % 1017,2 hPa 0,0 l/m 22,6 km/h (4 Bft) O 95 1 min 0,000 mm 2,3 UV-I 585 W/m 6,7 C 17,9 C 32,2 km/h (5 Bft) 92,31 %
20.05.2018 16:14 21,6 C 18,3 C 39 % 1017,2 hPa 0,0 l/m 22,7 km/h (4 Bft) O 98 1 min 0,000 mm 2,3 UV-I 572 W/m 7,0 C 17,9 C 27,4 km/h (4 Bft) 95,24 %
20.05.2018 16:15 21,7 C 18,3 C 38 % 1017,2 hPa 0,0 l/m 19,5 km/h (3 Bft) O-NO 76 1 min 0,000 mm 2,3 UV-I 550 W/m 6,8 C 18,5 C 32,2 km/h (5 Bft) 96,15 %
20.05.2018 16:16 21,7 C 18,3 C 39 % 1017,1 hPa 0,0 l/m 27,2 km/h (4 Bft) O-SO 103 1 min 0,000 mm 2,3 UV-I 570 W/m 7,1 C 17,4 C 33,8 km/h (5 Bft) 93,33 %
20.05.2018 16:17 21,7 C 18,3 C 39 % 1017,2 hPa 0,0 l/m 24,6 km/h (4 Bft) O 84 1 min 0,000 mm 2,3 UV-I 568 W/m 7,1 C 17,7 C 30,6 km/h (5 Bft) 100,00 %
20.05.2018 16:18 21,7 C 18,3 C 38 % 1017,2 hPa 0,0 l/m 23,5 km/h (4 Bft) O 95 1 min 0,000 mm 2,3 UV-I 617 W/m 6,8 C 17,9 C 35,4 km/h (5 Bft) 97,50 %
20.05.2018 16:19 21,7 C 18,3 C 39 % 1017,2 hPa 0,0 l/m 17,4 km/h (3 Bft) O 88 1 min 0,000 mm 2,3 UV-I 613 W/m 7,1 C 18,8 C 25,7 km/h (4 Bft) 100,00 %
20.05.2018 16:20 21,7 C 18,3 C 38 % 1017,1 hPa 0,0 l/m 12,7 km/h (3 Bft) O-NO 71 1 min 0,000 mm 2,3 UV-I 614 W/m 6,8 C 19,8 C 19,3 km/h (3 Bft) 91,67 %
20.05.2018 16:21 21,7 C 18,3 C 36 % 1017,3 hPa 0,0 l/m 22,5 km/h (4 Bft) O 90 1 min 0,000 mm 2,3 UV-I 604 W/m 6,0 C 18,0 C 29,0 km/h (5 Bft) 97,84 %
20.05.2018 16:22 21,7 C 18,3 C 35 % 1017,2 hPa 0,0 l/m 22,4 km/h (4 Bft) NO 48 1 min 0,000 mm 2,3 UV-I 601 W/m 5,6 C 18,0 C 27,4 km/h (4 Bft) 95,74 %
20.05.2018 16:23 21,7 C 18,3 C 36 % 1017,2 hPa 0,0 l/m 20,3 km/h (4 Bft) O 93 1 min 0,000 mm 2,2 UV-I 606 W/m 6,0 C 18,4 C 30,6 km/h (5 Bft) 100,00 %
20.05.2018 16:24 21,7 C 18,3 C 36 % 1017,2 hPa 0,0 l/m 23,0 km/h (4 Bft) O 96 1 min 0,000 mm 2,2 UV-I 612 W/m 6,0 C 18,0 C 30,6 km/h (5 Bft) 93,33 %
20.05.2018 16:25 21,8 C 18,3 C 37 % 1017,1 hPa 0,0 l/m 20,6 km/h (4 Bft) O-NO 63 1 min 0,000 mm 2,2 UV-I 610 W/m 6,5 C 18,4 C 27,4 km/h (4 Bft) 96,97 %
20.05.2018 16:26 21,7 C 18,3 C 35 % 1017,1 hPa 0,0 l/m 23,4 km/h (4 Bft) O-SO 109 1 min 0,000 mm 2,2 UV-I 610 W/m 5,6 C 17,9 C 30,6 km/h (5 Bft) 100,00 %
20.05.2018 16:27 21,8 C 18,3 C 36 % 1017,1 hPa 0,0 l/m 19,1 km/h (3 Bft) O-NO 69 1 min 0,000 mm 2,2 UV-I 608 W/m 6,1 C 18,7 C 24,1 km/h (4 Bft) 95,65 %
20.05.2018 16:28 21,8 C 18,3 C 36 % 1017,1 hPa 0,0 l/m 12,0 km/h (2 Bft) NO 55 1 min 0,000 mm 2,2 UV-I 605 W/m 6,1 C 20,1 C 24,1 km/h (4 Bft) 100,00 %
20.05.2018 16:29 21,8 C 18,3 C 37 % 1017,1 hPa 0,0 l/m 18,7 km/h (3 Bft) O 97 1 min 0,000 mm 2,1 UV-I 591 W/m 6,5 C 18,7 C 24,1 km/h (4 Bft) 96,30 %
20.05.2018 16:30 21,9 C 18,3 C 36 % 1017,1 hPa 0,0 l/m 20,8 km/h (4 Bft) O-SO 116 1 min 0,000 mm 2,1 UV-I 582 W/m 6,1 C 18,5 C 25,7 km/h (4 Bft) 96,15 %
20.05.2018 16:31 21,9 C 18,3 C 37 % 1017,1 hPa 0,0 l/m 17,3 km/h (3 Bft) O 86 1 min 0,000 mm 2,1 UV-I 585 W/m 6,5 C 19,1 C 22,5 km/h (4 Bft) 95,83 %
20.05.2018 16:32 21,9 C 18,3 C 39 % 1017,1 hPa 0,0 l/m 24,0 km/h (4 Bft) O 101 1 min 0,000 mm 2,1 UV-I 580 W/m 7,3 C 18,1 C 32,2 km/h (5 Bft) 100,00 %
20.05.2018 16:33 21,9 C 18,3 C 38 % 1017,2 hPa 0,0 l/m 24,4 km/h (4 Bft) O 79 1 min 0,000 mm 2,1 UV-I 576 W/m 6,9 C 18,0 C 29,0 km/h (5 Bft) 95,83 %
20.05.2018 16:34 21,8 C 18,3 C 40 % 1017,2 hPa 0,0 l/m 18,6 km/h (3 Bft) O-SO 104 1 min 0,000 mm 2,0 UV-I 572 W/m 7,6 C 18,8 C 24,1 km/h (4 Bft) 100,00 %
20.05.2018 16:35 21,8 C 18,3 C 41 % 1017,1 hPa 0,0 l/m 15,5 km/h (3 Bft) O-SO 102 1 min 0,000 mm 2,0 UV-I 572 W/m 8,0 C 19,3 C 20,9 km/h (4 Bft) 96,30 %
20.05.2018 16:36 21,8 C 18,3 C 41 % 1017,1 hPa 0,0 l/m 17,9 km/h (3 Bft) O 101 1 min 0,000 mm 2,0 UV-I 560 W/m 8,0 C 18,9 C 25,7 km/h (4 Bft) 97,82 %
20.05.2018 16:37 21,9 C 18,3 C 42 % 1017,1 hPa 0,0 l/m 17,9 km/h (3 Bft) O 99 1 min 0,000 mm 2,0 UV-I 558 W/m 8,4 C 19,0 C 24,1 km/h (4 Bft) 95,12 %
20.05.2018 16:38 21,9 C 18,3 C 41 % 1017,1 hPa 0,0 l/m 21,8 km/h (4 Bft) O-SO 108 1 min 0,000 mm 2,0 UV-I 564 W/m 8,0 C 18,4 C 25,7 km/h (4 Bft) 96,15 %
20.05.2018 16:39 21,8 C 18,3 C 41 % 1017,2 hPa 0,0 l/m 15,6 km/h (3 Bft) S 171 1 min 0,000 mm 2,0 UV-I 567 W/m 8,0 C 19,3 C 24,1 km/h (4 Bft) 100,00 %
20.05.2018 16:40 21,9 C 18,3 C 40 % 1017,0 hPa 0,0 l/m 9,5 km/h (2 Bft) O 88 1 min 0,000 mm 2,0 UV-I 570 W/m 7,7 C 20,9 C 17,7 km/h (3 Bft) 92,86 %
20.05.2018 16:41 22,0 C 18,3 C 41 % 1017,0 hPa 0,0 l/m 16,6 km/h (3 Bft) O 99 1 min 0,000 mm 1,9 UV-I 568 W/m 8,1 C 19,4 C 27,4 km/h (4 Bft) 100,00 %
20.05.2018 16:42 22,1 C 18,3 C 41 % 1017,1 hPa 0,0 l/m 19,9 km/h (4 Bft) O 92 1 min 0,000 mm 1,9 UV-I 569 W/m 8,2 C 18,9 C 25,7 km/h (4 Bft) 95,65 %
20.05.2018 16:43 22,1 C 18,3 C 41 % 1017,1 hPa 0,0 l/m 18,4 km/h (3 Bft) O 89 1 min 0,000 mm 1,9 UV-I 561 W/m 8,2 C 19,2 C 25,7 km/h (4 Bft) 100,00 %
20.05.2018 16:44 22,1 C 18,3 C 42 % 1017,0 hPa 0,0 l/m 19,2 km/h (3 Bft) O 82 1 min 0,000 mm 1,9 UV-I 560 W/m 8,6 C 19,0 C 24,1 km/h (4 Bft) 91,67 %
20.05.2018 16:45 22,1 C 18,3 C 41 % 1017,1 hPa 0,0 l/m 23,5 km/h (4 Bft) O 101 1 min 0,000 mm 1,9 UV-I 562 W/m 8,2 C 18,4 C 27,4 km/h (4 Bft) 97,56 %
20.05.2018 16:46 22,0 C 18,3 C 41 % 1017,1 hPa 0,0 l/m 25,5 km/h (4 Bft) O-NO 76 1 min 0,000 mm 1,9 UV-I 560 W/m 8,1 C 18,0 C 35,4 km/h (5 Bft) 100,00 %
20.05.2018 16:47 21,9 C 18,3 C 41 % 1017,1 hPa 0,0 l/m 24,0 km/h (4 Bft) O 87 1 min 0,000 mm 1,8 UV-I 553 W/m 8,0 C 18,1 C 27,4 km/h (4 Bft) 100,00 %
20.05.2018 16:48 21,8 C 18,3 C 42 % 1017,0 hPa 0,0 l/m 22,8 km/h (4 Bft) O 90 1 min 0,000 mm 1,8 UV-I 550 W/m 8,3 C 18,1 C 37,0 km/h (5 Bft) 95,83 %
20.05.2018 16:49 21,7 C 18,3 C 42 % 1017,0 hPa 0,0 l/m 23,5 km/h (4 Bft) O-SO 111 1 min 0,000 mm 1,8 UV-I 546 W/m 8,2 C 17,9 C 30,6 km/h (5 Bft) 95,65 %
20.05.2018 16:50 21,7 C 18,3 C 41 % 1017,1 hPa 0,0 l/m 22,6 km/h (4 Bft) O 97 1 min 0,000 mm 1,8 UV-I 542 W/m 7,9 C 18,0 C 30,6 km/h (5 Bft) 100,00 %
20.05.2018 16:51 21,7 C 18,3 C 40 % 1017,0 hPa 0,0 l/m 19,3 km/h (3 Bft) O 96 1 min 0,000 mm 1,8 UV-I 539 W/m 7,5 C 18,5 C 30,6 km/h (5 Bft) 95,65 %
20.05.2018 16:52 21,7 C 18,3 C 41 % 1017,0 hPa 0,0 l/m 23,8 km/h (4 Bft) O 96 1 min 0,000 mm 1,8 UV-I 542 W/m 7,9 C 17,8 C 27,4 km/h (4 Bft) 100,00 %
20.05.2018 16:53 21,7 C 18,3 C 42 % 1017,0 hPa 0,0 l/m 18,5 km/h (3 Bft) O-NO 76 1 min 0,000 mm 1,8 UV-I 545 W/m 8,2 C 18,7 C 24,1 km/h (4 Bft) 90,32 %
20.05.2018 16:54 21,7 C 18,3 C 44 % 1017,0 hPa 0,0 l/m 18,9 km/h (3 Bft) O-SO 113 1 min 0,000 mm 1,7 UV-I 540 W/m 8,9 C 18,6 C 25,7 km/h (4 Bft) 100,00 %
20.05.2018 16:55 21,7 C 18,3 C 44 % 1016,9 hPa 0,0 l/m 21,0 km/h (4 Bft) O 83 1 min 0,000 mm 1,7 UV-I 523 W/m 8,9 C 18,2 C 29,0 km/h (5 Bft) 96,15 %
20.05.2018 16:56 21,7 C 18,3 C 43 % 1017,0 hPa 0,0 l/m 20,1 km/h (4 Bft) O-NO 68 1 min 0,000 mm 1,7 UV-I 515 W/m 8,6 C 18,4 C 24,1 km/h (4 Bft) 96,67 %
20.05.2018 16:57 21,7 C 18,3 C 44 % 1016,9 hPa 0,0 l/m 22,3 km/h (4 Bft) O 100 1 min 0,000 mm 1,7 UV-I 525 W/m 8,9 C 18,1 C 27,4 km/h (4 Bft) 96,55 %
20.05.2018 16:58 21,7 C 18,3 C 45 % 1017,0 hPa 0,0 l/m 21,7 km/h (4 Bft) O 101 1 min 0,000 mm 1,7 UV-I 523 W/m 9,2 C 18,1 C 27,4 km/h (4 Bft) 100,00 %
20.05.2018 16:59 21,7 C 18,3 C 43 % 1017,0 hPa 0,0 l/m 21,8 km/h (4 Bft) O 95 1 min 0,000 mm 1,6 UV-I 522 W/m 8,6 C 18,1 C 27,4 km/h (4 Bft) 100,00 %
20.05.2018 17:00 21,7 C 18,3 C 42 % 1017,0 hPa 0,0 l/m 21,4 km/h (4 Bft) O 88 1 min 0,000 mm 1,6 UV-I 516 W/m 8,2 C 18,2 C 29,0 km/h (5 Bft) 100,00 %
20.05.2018 17:02 21,6 C 18,3 C 42 % 1016,9 hPa 0,0 l/m 18,1 km/h (3 Bft) O 101 2 min 0,534 mm 1,6 UV-I 512 W/m 8,1 C 18,6 C 25,7 km/h (4 Bft) 100,00 %
20.05.2018 17:03 21,7 C 18,3 C 44 % 1017,0 hPa 0,0 l/m 16,1 km/h (3 Bft) O-SO 122 1 min 0,000 mm 1,6 UV-I 509 W/m 8,9 C 19,1 C 20,9 km/h (4 Bft) 100,00 %
20.05.2018 17:04 21,8 C 18,3 C 43 % 1017,1 hPa 0,0 l/m 20,5 km/h (4 Bft) O-SO 117 1 min 0,000 mm 1,6 UV-I 507 W/m 8,7 C 18,5 C 29,0 km/h (5 Bft) 100,00 %
20.05.2018 17:05 21,8 C 18,3 C 42 % 1017,0 hPa 0,0 l/m 19,7 km/h (3 Bft) O 94 1 min 0,000 mm 1,6 UV-I 508 W/m 8,3 C 18,6 C 29,0 km/h (5 Bft) 100,00 %
20.05.2018 17:06 21,7 C 18,9 C 41 % 1017,1 hPa 0,0 l/m 22,8 km/h (4 Bft) O 88 1 min 0,000 mm 1,6 UV-I 507 W/m 7,9 C 18,0 C 30,6 km/h (5 Bft) 100,00 %
20.05.2018 17:07 21,7 C 18,9 C 42 % 1017,0 hPa 0,0 l/m 19,6 km/h (3 Bft) O-NO 77 1 min 0,000 mm 1,5 UV-I 504 W/m 8,2 C 18,5 C 25,7 km/h (4 Bft) 97,82 %
20.05.2018 17:08 21,6 C 18,9 C 43 % 1017,0 hPa 0,0 l/m 19,6 km/h (3 Bft) O 96 1 min 0,000 mm 1,5 UV-I 500 W/m 8,5 C 18,3 C 25,7 km/h (4 Bft) 100,00 %
20.05.2018 17:09 21,6 C 18,9 C 43 % 1016,9 hPa 0,0 l/m 14,2 km/h (3 Bft) O-NO 69 1 min 0,000 mm 1,5 UV-I 496 W/m 8,5 C 19,4 C 19,3 km/h (3 Bft) 100,00 %
20.05.2018 17:10 21,6 C 18,9 C 44 % 1016,9 hPa 0,0 l/m 16,5 km/h (3 Bft) O-NO 69 1 min 0,000 mm 1,5 UV-I 492 W/m 8,8 C 18,9 C 22,5 km/h (4 Bft) 100,00 %
20.05.2018 17:11 21,7 C 18,9 C 44 % 1017,0 hPa 0,0 l/m 19,7 km/h (3 Bft) O-SO 103 1 min 0,000 mm 1,5 UV-I 487 W/m 8,9 C 18,5 C 29,0 km/h (5 Bft) 96,30 %
20.05.2018 17:12 21,6 C 18,9 C 43 % 1017,0 hPa 0,0 l/m 25,0 km/h (4 Bft) O 93 1 min 0,000 mm 1,5 UV-I 486 W/m 8,5 C 17,6 C 33,8 km/h (5 Bft) 96,15 %
20.05.2018 17:13 21,6 C 18,9 C 43 % 1017,0 hPa 0,0 l/m 19,6 km/h (3 Bft) O 95 1 min 0,000 mm 1,4 UV-I 487 W/m 8,5 C 18,3 C 30,6 km/h (5 Bft) 91,67 %
20.05.2018 17:14 21,6 C 18,9 C 43 % 1016,9 hPa 0,0 l/m 25,4 km/h (4 Bft) O 101 1 min 0,000 mm 1,4 UV-I 484 W/m 8,5 C 17,5 C 33,8 km/h (5 Bft) 100,00 %
20.05.2018 17:15 21,6 C 18,9 C 44 % 1017,0 hPa 0,0 l/m 22,1 km/h (4 Bft) O 88 1 min 0,000 mm 1,4 UV-I 482 W/m 8,8 C 18,0 C 27,4 km/h (4 Bft) 96,97 %
20.05.2018 17:16 21,6 C 18,9 C 44 % 1017,0 hPa 0,0 l/m 18,1 km/h (3 Bft) O 82 1 min 0,000 mm 1,4 UV-I 482 W/m 8,8 C 18,6 C 24,1 km/h (4 Bft) 96,15 %
20.05.2018 17:17 21,5 C 18,9 C 44 % 1017,1 hPa 0,0 l/m 22,7 km/h (4 Bft) O 83 1 min 0,000 mm 1,4 UV-I 482 W/m 8,7 C 17,7 C 25,7 km/h (4 Bft) 97,82 %
20.05.2018 17:18 21,4 C 18,9 C 43 % 1017,0 hPa 0,0 l/m 21,9 km/h (4 Bft) SO 132 1 min 0,000 mm 1,4 UV-I 482 W/m 8,3 C 17,7 C 32,2 km/h (5 Bft) 95,45 %
20.05.2018 17:19 21,4 C 18,9 C 44 % 1017,1 hPa 0,0 l/m 19,9 km/h (4 Bft) O-NO 65 1 min 0,000 mm 1,4 UV-I 484 W/m 8,6 C 18,0 C 24,1 km/h (4 Bft) 91,67 %
20.05.2018 17:20 21,4 C 18,9 C 43 % 1017,0 hPa 0,0 l/m 21,2 km/h (4 Bft) O-NO 57 1 min 0,000 mm 1,3 UV-I 486 W/m 8,3 C 17,8 C 30,6 km/h (5 Bft) 100,00 %
20.05.2018 17:21 21,4 C 18,9 C 43 % 1017,0 hPa 0,0 l/m 20,7 km/h (4 Bft) O 93 1 min 0,000 mm 1,3 UV-I 489 W/m 8,3 C 17,9 C 27,4 km/h (4 Bft) 96,67 %
20.05.2018 17:22 21,4 C 18,9 C 44 % 1017,0 hPa 0,0 l/m 20,2 km/h (4 Bft) O-NO 77 1 min 0,000 mm 1,3 UV-I 492 W/m 8,6 C 18,0 C 25,7 km/h (4 Bft) 92,86 %
20.05.2018 17:23 21,6 C 18,9 C 45 % 1017,0 hPa 0,0 l/m 14,7 km/h (3 Bft) O 96 1 min 0,000 mm 1,3 UV-I 497 W/m 9,2 C 19,3 C 20,9 km/h (4 Bft) 96,30 %
20.05.2018 17:24 21,6 C 18,9 C 45 % 1017,1 hPa 0,0 l/m 29,0 km/h (5 Bft) O-SO 107 1 min 0,000 mm 1,3 UV-I 510 W/m 9,2 C 17,1 C 37,0 km/h (5 Bft) 100,00 %
20.05.2018 17:25 21,7 C 18,9 C 44 % 1017,1 hPa 0,0 l/m 22,4 km/h (4 Bft) O-NO 65 1 min 0,000 mm 1,3 UV-I 527 W/m 8,9 C 18,0 C 29,0 km/h (5 Bft) 96,55 %
20.05.2018 17:26 21,7 C 18,9 C 43 % 1017,0 hPa 0,0 l/m 20,1 km/h (4 Bft) O 99 1 min 0,000 mm 1,3 UV-I 525 W/m 8,6 C 18,4 C 24,1 km/h (4 Bft) 100,00 %
20.05.2018 17:27 21,7 C 18,9 C 44 % 1017,0 hPa 0,0 l/m 13,5 km/h (3 Bft) O-SO 106 1 min 0,000 mm 1,2 UV-I 464 W/m 8,9 C 19,6 C 17,7 km/h (3 Bft) 91,30 %
20.05.2018 17:28 21,7 C 18,9 C 43 % 1017,0 hPa 0,0 l/m 12,5 km/h (3 Bft) O-NO 70 1 min 0,000 mm 1,1 UV-I 441 W/m 8,6 C 19,9 C 19,3 km/h (3 Bft) 93,10 %
20.05.2018 17:29 21,7 C 18,9 C 44 % 1017,0 hPa 0,0 l/m 16,0 km/h (3 Bft) O-SO 122 1 min 0,000 mm 1,0 UV-I 282 W/m 8,9 C 19,1 C 20,9 km/h (4 Bft) 100,00 %
20.05.2018 17:30 21,6 C 18,9 C 43 % 1017,0 hPa 0,0 l/m 21,6 km/h (4 Bft) O 89 1 min 0,000 mm 1,0 UV-I 276 W/m 8,5 C 18,0 C 29,0 km/h (5 Bft) 97,22 %
20.05.2018 17:31 21,4 C 18,9 C 43 % 1017,1 hPa 0,0 l/m 18,9 km/h (3 Bft) O 96 0 min 0,000 mm 1,0 UV-I 262 W/m 8,3 C 18,2 C 30,6 km/h (5 Bft) 100,00 %
20.05.2018 17:32 21,2 C 18,9 C 43 % 1017,1 hPa 0,0 l/m 19,1 km/h (3 Bft) O-SO 120 0 min 0,000 mm 0,9 UV-I 252 W/m 8,1 C 17,9 C 22,5 km/h (4 Bft) 94,44 %
20.05.2018 17:33 21,1 C 18,9 C 43 % 1017,0 hPa 0,0 l/m 21,5 km/h (4 Bft) O-SO 121 0 min 0,000 mm 0,9 UV-I 230 W/m 8,0 C 17,4 C 32,2 km/h (5 Bft) 100,00 %
20.05.2018 17:34 20,9 C 18,9 C 43 % 1017,0 hPa 0,0 l/m 18,9 km/h (3 Bft) SO 146 0 min 0,000 mm 0,9 UV-I 226 W/m 7,8 C 17,6 C 27,4 km/h (4 Bft) 96,30 %
20.05.2018 17:35 20,9 C 18,9 C 44 % 1017,0 hPa 0,0 l/m 16,3 km/h (3 Bft) O 91 0 min 0,000 mm 0,9 UV-I 225 W/m 8,2 C 18,1 C 29,0 km/h (5 Bft) 100,00 %
20.05.2018 17:36 20,8 C 18,9 C 43 % 1017,0 hPa 0,0 l/m 19,2 km/h (3 Bft) O-SO 115 0 min 0,000 mm 0,8 UV-I 228 W/m 7,8 C 17,4 C 29,0 km/h (5 Bft) 96,67 %
20.05.2018 17:37 20,8 C 18,9 C 44 % 1017,0 hPa 0,0 l/m 18,3 km/h (3 Bft) O-SO 105 0 min 0,000 mm 0,8 UV-I 233 W/m 8,1 C 17,5 C 24,1 km/h (4 Bft) 95,65 %
20.05.2018 17:38 20,7 C 18,9 C 44 % 1017,1 hPa 0,0 l/m 17,9 km/h (3 Bft) O-SO 107 0 min 0,000 mm 0,8 UV-I 236 W/m 8,0 C 17,5 C 24,1 km/h (4 Bft) 100,00 %
20.05.2018 17:39 20,6 C 18,9 C 43 % 1017,0 hPa 0,0 l/m 21,2 km/h (4 Bft) SO 132 0 min 0,000 mm 0,8 UV-I 243 W/m 7,6 C 16,8 C 29,0 km/h (5 Bft) 95,65 %
20.05.2018 17:40 20,6 C 18,9 C 43 % 1016,9 hPa 0,0 l/m 17,9 km/h (3 Bft) O-SO 104 0 min 0,000 mm 0,8 UV-I 241 W/m 7,6 C 17,4 C 27,4 km/h (4 Bft) 100,00 %
20.05.2018 17:41 20,5 C 18,9 C 43 % 1017,1 hPa 0,0 l/m 21,9 km/h (4 Bft) O 101 0 min 0,000 mm 0,8 UV-I 242 W/m 7,5 C 16,5 C 32,2 km/h (5 Bft) 91,67 %
20.05.2018 17:42 20,5 C 18,9 C 44 % 1017,1 hPa 0,0 l/m 17,9 km/h (3 Bft) O-SO 117 0 min 0,000 mm 0,8 UV-I 245 W/m 7,8 C 17,2 C 24,1 km/h (4 Bft) 100,00 %
20.05.2018 17:43 20,4 C 18,9 C 44 % 1017,1 hPa 0,0 l/m 17,5 km/h (3 Bft) O 98 0 min 0,000 mm 0,8 UV-I 237 W/m 7,7 C 17,2 C 29,0 km/h (5 Bft) 96,15 %
20.05.2018 17:44 20,5 C 18,9 C 44 % 1017,0 hPa 0,0 l/m 18,8 km/h (3 Bft) SO 135 0 min 0,000 mm 0,8 UV-I 236 W/m 7,8 C 17,1 C 25,7 km/h (4 Bft) 100,00 %
20.05.2018 17:45 20,4 C 18,9 C 42 % 1017,1 hPa 0,0 l/m 19,6 km/h (3 Bft) O 93 0 min 0,000 mm 0,7 UV-I 228 W/m 7,1 C 16,8 C 24,1 km/h (4 Bft) 100,00 %
20.05.2018 17:46 20,4 C 18,9 C 42 % 1017,1 hPa 0,0 l/m 24,3 km/h (4 Bft) O 101 0 min 0,000 mm 0,7 UV-I 224 W/m 7,1 C 16,0 C 35,4 km/h (5 Bft) 100,00 %
20.05.2018 17:48 20,3 C 18,9 C 42 % 1017,1 hPa 0,0 l/m 18,1 km/h (3 Bft) O-SO 113 0 min 0,000 mm 0,7 UV-I 214 W/m 7,0 C 17,0 C 32,2 km/h (5 Bft) 94,34 %
20.05.2018 17:49 20,3 C 18,9 C 43 % 1017,1 hPa 0,0 l/m 14,8 km/h (3 Bft) O-SO 107 0 min 0,000 mm 0,7 UV-I 212 W/m 7,3 C 17,7 C 19,3 km/h (3 Bft) 100,00 %
20.05.2018 17:50 20,2 C 18,9 C 42 % 1017,1 hPa 0,0 l/m 16,1 km/h (3 Bft) SO 131 0 min 0,000 mm 0,7 UV-I 235 W/m 6,9 C 17,2 C 25,7 km/h (4 Bft) 100,00 %
20.05.2018 17:51 20,2 C 18,9 C 43 % 1017,1 hPa 0,0 l/m 21,4 km/h (4 Bft) O 87 0 min 0,000 mm 0,7 UV-I 216 W/m 7,2 C 16,2 C 32,2 km/h (5 Bft) 100,00 %
20.05.2018 17:52 20,2 C 18,9 C 42 % 1017,1 hPa 0,0 l/m 17,3 km/h (3 Bft) SO 124 0 min 0,000 mm 0,6 UV-I 203 W/m 6,9 C 17,0 C 22,5 km/h (4 Bft) 100,00 %
20.05.2018 17:53 20,2 C 18,9 C 43 % 1017,0 hPa 0,0 l/m 18,5 km/h (3 Bft) SO 146 0 min 0,000 mm 0,6 UV-I 200 W/m 7,2 C 16,7 C 25,7 km/h (4 Bft) 100,00 %
20.05.2018 17:54 20,1 C 18,9 C 42 % 1017,1 hPa 0,0 l/m 19,0 km/h (3 Bft) O-SO 104 0 min 0,000 mm 0,6 UV-I 199 W/m 6,8 C 16,5 C 22,5 km/h (4 Bft) 100,00 %
20.05.2018 17:55 20,1 C 18,9 C 43 % 1017,1 hPa 0,0 l/m 19,9 km/h (4 Bft) O 99 0 min 0,000 mm 0,6 UV-I 199 W/m 7,1 C 16,4 C 25,7 km/h (4 Bft) 100,00 %
20.05.2018 17:56 20,1 C 18,9 C 43 % 1017,1 hPa 0,0 l/m 17,3 km/h (3 Bft) O-SO 105 0 min 0,000 mm 0,6 UV-I 199 W/m 7,1 C 16,9 C 20,9 km/h (4 Bft) 88,24 %
20.05.2018 17:57 20,0 C 18,9 C 44 % 1017,0 hPa 0,0 l/m 13,8 km/h (3 Bft) O-SO 103 0 min 0,000 mm 0,6 UV-I 199 W/m 7,4 C 17,5 C 19,3 km/h (3 Bft) 100,00 %
20.05.2018 17:58 20,0 C 18,9 C 44 % 1017,0 hPa 0,0 l/m 14,7 km/h (3 Bft) O-SO 109 0 min 0,000 mm 0,6 UV-I 197 W/m 7,4 C 17,3 C 30,6 km/h (5 Bft) 100,00 %
20.05.2018 17:59 19,9 C 18,9 C 43 % 1017,1 hPa 0,0 l/m 23,3 km/h (4 Bft) O-NO 77 0 min 0,000 mm 0,6 UV-I 195 W/m 6,9 C 15,5 C 30,6 km/h (5 Bft) 100,00 %
20.05.2018 18:00 19,9 C 18,9 C 43 % 1017,1 hPa 0,0 l/m 22,7 km/h (4 Bft) O 86 0 min 0,000 mm 0,6 UV-I 192 W/m 6,9 C 15,6 C 33,8 km/h (5 Bft) 100,00 %
20.05.2018 18:02 19,9 C 18,9 C 43 % 1017,0 hPa 0,0 l/m 22,3 km/h (4 Bft) O 98 0 min 0,355 mm 0,6 UV-I 184 W/m 6,9 C 15,7 C 33,8 km/h (5 Bft) 98,36 %
20.05.2018 18:03 19,8 C 18,9 C 43 % 1017,0 hPa 0,0 l/m 17,1 km/h (3 Bft) O-SO 113 0 min 0,000 mm 0,6 UV-I 173 W/m 6,9 C 16,5 C 24,1 km/h (4 Bft) 100,00 %
20.05.2018 18:04 19,8 C 18,9 C 43 % 1017,1 hPa 0,0 l/m 20,8 km/h (4 Bft) O 91 0 min 0,000 mm 0,6 UV-I 164 W/m 6,9 C 15,8 C 29,0 km/h (5 Bft) 100,00 %
20.05.2018 18:05 19,9 C 18,9 C 43 % 1017,0 hPa 0,0 l/m 18,4 km/h (3 Bft) SO 130 0 min 0,000 mm 0,6 UV-I 159 W/m 6,9 C 16,4 C 30,6 km/h (5 Bft) 100,00 %
20.05.2018 18:06 19,8 C 18,9 C 43 % 1016,9 hPa 0,0 l/m 22,9 km/h (4 Bft) O 85 0 min 0,000 mm 0,6 UV-I 154 W/m 6,9 C 15,4 C 25,7 km/h (4 Bft) 100,00 %
20.05.2018 18:07 19,8 C 18,9 C 43 % 1017,1 hPa 0,0 l/m 20,8 km/h (4 Bft) O 86 0 min 0,000 mm 0,5 UV-I 149 W/m 6,9 C 15,8 C 27,4 km/h (4 Bft) 100,00 %
20.05.2018 18:08 19,8 C 18,9 C 44 % 1017,0 hPa 0,0 l/m 16,7 km/h (3 Bft) O 98 0 min 0,000 mm 0,5 UV-I 143 W/m 7,2 C 16,6 C 24,1 km/h (4 Bft) 94,44 %
20.05.2018 18:09 19,7 C 18,9 C 44 % 1017,0 hPa 0,0 l/m 17,3 km/h (3 Bft) O-SO 117 0 min 0,000 mm 0,5 UV-I 139 W/m 7,1 C 16,4 C 24,1 km/h (4 Bft) 100,00 %
20.05.2018 18:10 19,7 C 18,9 C 44 % 1017,0 hPa 0,0 l/m 17,4 km/h (3 Bft) O-SO 106 0 min 0,000 mm 0,5 UV-I 133 W/m 7,1 C 16,3 C 22,5 km/h (4 Bft) 100,00 %
20.05.2018 18:11 19,7 C 18,9 C 44 % 1017,0 hPa 0,0 l/m 20,2 km/h (4 Bft) O 98 0 min 0,000 mm 0,5 UV-I 129 W/m 7,1 C 15,8 C 32,2 km/h (5 Bft) 100,00 %
20.05.2018 18:12 19,6 C 18,3 C 43 % 1017,0 hPa 0,0 l/m 23,7 km/h (4 Bft) O-SO 105 0 min 0,000 mm 0,5 UV-I 126 W/m 6,7 C 15,0 C 38,6 km/h (5 Bft) 100,00 %
20.05.2018 18:13 19,6 C 18,3 C 44 % 1017,0 hPa 0,0 l/m 26,1 km/h (4 Bft) SO 126 0 min 0,000 mm 0,5 UV-I 122 W/m 7,0 C 14,7 C 33,8 km/h (5 Bft) 100,00 %
20.05.2018 18:14 19,5 C 18,3 C 43 % 1017,0 hPa 0,0 l/m 30,5 km/h (5 Bft) O 101 0 min 0,000 mm 0,5 UV-I 117 W/m 6,6 C 14,0 C 41,8 km/h (6 Bft) 100,00 %
20.05.2018 18:15 19,4 C 18,3 C 44 % 1017,0 hPa 0,0 l/m 23,0 km/h (4 Bft) O 98 0 min 0,000 mm 0,5 UV-I 111 W/m 6,8 C 14,9 C 30,6 km/h (5 Bft) 100,00 %
20.05.2018 18:16 19,4 C 18,3 C 45 % 1017,1 hPa 0,0 l/m 27,5 km/h (4 Bft) O 90 0 min 0,000 mm 0,5 UV-I 104 W/m 7,2 C 14,2 C 35,4 km/h (5 Bft) 100,00 %
20.05.2018 18:18 19,3 C 18,3 C 46 % 1017,0 hPa 0,0 l/m 23,7 km/h (4 Bft) O 90 0 min 0,000 mm 0,5 UV-I 90 W/m 7,4 C 14,6 C 32,2 km/h (5 Bft) 100,00 %
20.05.2018 18:19 19,3 C 18,3 C 46 % 1017,0 hPa 0,0 l/m 21,2 km/h (4 Bft) O 94 0 min 0,000 mm 0,5 UV-I 84 W/m 7,4 C 15,1 C 27,4 km/h (4 Bft) 100,00 %
20.05.2018 18:20 19,2 C 18,3 C 47 % 1017,0 hPa 0,0 l/m 18,6 km/h (3 Bft) SO 124 0 min 0,000 mm 0,5 UV-I 83 W/m 7,6 C 15,5 C 25,7 km/h (4 Bft) 100,00 %
20.05.2018 18:21 19,2 C 18,3 C 47 % 1017,0 hPa 0,0 l/m 23,7 km/h (4 Bft) O 92 0 min 0,000 mm 0,5 UV-I 81 W/m 7,6 C 14,5 C 37,0 km/h (5 Bft) 96,15 %
20.05.2018 18:22 19,2 C 18,3 C 47 % 1016,9 hPa 0,0 l/m 22,1 km/h (4 Bft) O 80 0 min 0,000 mm 0,1 UV-I 81 W/m 7,6 C 14,8 C 27,4 km/h (4 Bft) 100,00 %
20.05.2018 18:23 19,1 C 18,3 C 48 % 1017,0 hPa 0,0 l/m 24,4 km/h (4 Bft) O-SO 108 0 min 0,000 mm 0,0 UV-I 80 W/m 7,8 C 14,3 C 29,0 km/h (5 Bft) 95,65 %
20.05.2018 18:24 19,1 C 18,3 C 47 % 1017,0 hPa 0,0 l/m 24,8 km/h (4 Bft) O 84 0 min 0,000 mm 0,0 UV-I 79 W/m 7,5 C 14,2 C 29,0 km/h (5 Bft) 100,00 %
20.05.2018 18:25 19,1 C 18,3 C 48 % 1017,0 hPa 0,0 l/m 17,9 km/h (3 Bft) O 94 0 min 0,000 mm 0,0 UV-I 79 W/m 7,8 C 15,5 C 25,7 km/h (4 Bft) 100,00 %
20.05.2018 18:26 19,1 C 18,3 C 48 % 1016,9 hPa 0,0 l/m 22,2 km/h (4 Bft) O 81 0 min 0,000 mm 0,0 UV-I 79 W/m 7,8 C 14,6 C 30,6 km/h (5 Bft) 100,00 %
20.05.2018 18:27 19,1 C 18,3 C 49 % 1016,9 hPa 0,0 l/m 20,6 km/h (4 Bft) O-SO 109 0 min 0,000 mm 0,0 UV-I 79 W/m 8,1 C 14,9 C 25,7 km/h (4 Bft) 100,00 %
20.05.2018 18:28 19,0 C 18,3 C 49 % 1016,9 hPa 0,0 l/m 17,6 km/h (3 Bft) O-SO 105 0 min 0,000 mm 0,0 UV-I 79 W/m 8,0 C 15,4 C 25,7 km/h (4 Bft) 100,00 %
20.05.2018 18:29 18,9 C 18,3 C 49 % 1016,9 hPa 0,0 l/m 15,7 km/h (3 Bft) O-SO 103 0 min 0,000 mm 0,0 UV-I 79 W/m 7,9 C 15,7 C 24,1 km/h (4 Bft) 100,00 %
20.05.2018 18:30 18,9 C 18,3 C 49 % 1017,1 hPa 0,0 l/m 19,0 km/h (3 Bft) O 84 0 min 0,000 mm 0,0 UV-I 80 W/m 7,9 C 15,0 C 27,4 km/h (4 Bft) 100,00 %
20.05.2018 18:31 18,9 C 18,3 C 50 % 1016,9 hPa 0,0 l/m 16,0 km/h (3 Bft) O-SO 102 0 min 0,000 mm 0,0 UV-I 81 W/m 8,2 C 15,7 C 24,1 km/h (4 Bft) 100,00 %
20.05.2018 18:32 18,9 C 18,3 C 50 % 1017,0 hPa 0,0 l/m 16,2 km/h (3 Bft) O-SO 112 0 min 0,000 mm 0,0 UV-I 83 W/m 8,2 C 15,6 C 20,9 km/h (4 Bft) 100,00 %
20.05.2018 18:33 18,9 C 18,3 C 50 % 1017,0 hPa 0,0 l/m 15,3 km/h (3 Bft) O 95 0 min 0,000 mm 0,0 UV-I 89 W/m 8,2 C 15,8 C 22,5 km/h (4 Bft) 100,00 %
20.05.2018 18:34 18,9 C 18,3 C 50 % 1017,0 hPa 0,0 l/m 19,1 km/h (3 Bft) O 97 0 min 0,000 mm 0,0 UV-I 117 W/m 8,2 C 15,0 C 27,4 km/h (4 Bft) 100,00 %
20.05.2018 18:35 18,9 C 18,3 C 50 % 1017,1 hPa 0,0 l/m 22,5 km/h (4 Bft) O 88 1 min 0,000 mm 0,0 UV-I 186 W/m 8,2 C 14,3 C 29,0 km/h (5 Bft) 100,00 %
20.05.2018 18:36 19,0 C 18,3 C 50 % 1017,0 hPa 0,0 l/m 16,4 km/h (3 Bft) O-SO 105 1 min 0,000 mm 0,0 UV-I 200 W/m 8,3 C 15,7 C 22,5 km/h (4 Bft) 100,00 %
20.05.2018 18:37 19,1 C 18,3 C 50 % 1017,0 hPa 0,0 l/m 18,1 km/h (3 Bft) O 90 1 min 0,000 mm 0,0 UV-I 202 W/m 8,4 C 15,4 C 22,5 km/h (4 Bft) 100,00 %
20.05.2018 18:38 19,1 C 18,3 C 51 % 1017,0 hPa 0,0 l/m 17,9 km/h (3 Bft) O-SO 107 1 min 0,000 mm 0,0 UV-I 209 W/m 8,7 C 15,5 C 24,1 km/h (4 Bft) 100,00 %
20.05.2018 18:39 19,2 C 18,3 C 51 % 1017,0 hPa 0,0 l/m 16,5 km/h (3 Bft) O-SO 123 1 min 0,000 mm 0,0 UV-I 210 W/m 8,8 C 15,9 C 20,9 km/h (4 Bft) 100,00 %
20.05.2018 18:40 19,2 C 18,3 C 51 % 1017,0 hPa 0,0 l/m 14,5 km/h (3 Bft) O 92 1 min 0,000 mm 0,0 UV-I 218 W/m 8,8 C 16,4 C 22,5 km/h (4 Bft) 100,00 %
20.05.2018 18:41 19,3 C 18,3 C 51 % 1017,0 hPa 0,0 l/m 21,9 km/h (4 Bft) O-SO 109 1 min 0,000 mm 0,0 UV-I 225 W/m 8,9 C 14,9 C 25,7 km/h (4 Bft) 100,00 %
20.05.2018 18:42 19,3 C 18,3 C 51 % 1017,0 hPa 0,0 l/m 20,4 km/h (4 Bft) O-SO 111 1 min 0,000 mm 0,0 UV-I 209 W/m 8,9 C 15,2 C 25,7 km/h (4 Bft) 100,00 %
20.05.2018 18:43 19,3 C 18,3 C 51 % 1017,0 hPa 0,0 l/m 18,7 km/h (3 Bft) O-SO 105 1 min 0,000 mm 0,0 UV-I 188 W/m 8,9 C 15,6 C 25,7 km/h (4 Bft) 100,00 %
20.05.2018 18:44 19,3 C 18,3 C 51 % 1017,0 hPa 0,0 l/m 20,9 km/h (4 Bft) O-SO 112 1 min 0,000 mm 0,0 UV-I 170 W/m 8,9 C 15,1 C 29,0 km/h (5 Bft) 100,00 %
20.05.2018 18:45 19,3 C 18,3 C 52 % 1016,9 hPa 0,0 l/m 19,4 km/h (3 Bft) O 101 1 min 0,000 mm 0,0 UV-I 180 W/m 9,2 C 15,4 C 27,4 km/h (4 Bft) 96,15 %
20.05.2018 18:46 19,3 C 18,3 C 52 % 1017,0 hPa 0,0 l/m 17,5 km/h (3 Bft) O-NO 78 1 min 0,000 mm 0,0 UV-I 181 W/m 9,2 C 15,8 C 24,1 km/h (4 Bft) 100,00 %
20.05.2018 18:47 19,3 C 18,3 C 52 % 1017,0 hPa 0,0 l/m 21,3 km/h (4 Bft) O 85 1 min 0,000 mm 0,0 UV-I 198 W/m 9,2 C 15,1 C 27,4 km/h (4 Bft) 100,00 %
20.05.2018 18:48 19,3 C 18,3 C 53 % 1017,0 hPa 0,0 l/m 19,1 km/h (3 Bft) O 81 1 min 0,000 mm 0,0 UV-I 208 W/m 9,5 C 15,5 C 29,0 km/h (5 Bft) 100,00 %
20.05.2018 18:49 19,4 C 18,3 C 52 % 1016,9 hPa 0,0 l/m 18,9 km/h (3 Bft) O-SO 105 1 min 0,000 mm 0,0 UV-I 219 W/m 9,3 C 15,6 C 24,1 km/h (4 Bft) 100,00 %
20.05.2018 18:50 19,4 C 18,3 C 53 % 1017,0 hPa 0,0 l/m 14,0 km/h (3 Bft) O-SO 102 1 min 0,000 mm 0,0 UV-I 231 W/m 9,6 C 16,8 C 17,7 km/h (3 Bft) 100,00 %
20.05.2018 18:51 19,4 C 18,3 C 53 % 1016,9 hPa 0,0 l/m 15,2 km/h (3 Bft) O 96 1 min 0,000 mm 0,0 UV-I 230 W/m 9,6 C 16,5 C 19,3 km/h (3 Bft) 100,00 %
20.05.2018 18:53 19,6 C 18,3 C 55 % 1016,9 hPa 0,0 l/m 9,5 km/h (2 Bft) O-SO 117 2 min 0,000 mm 0,0 UV-I 230 W/m 10,3 C 18,4 C 16,1 km/h (3 Bft) 100,00 %
20.05.2018 18:54 19,7 C 18,3 C 55 % 1016,9 hPa 0,0 l/m 7,6 km/h (2 Bft) O 92 1 min 0,000 mm 0,0 UV-I 229 W/m 10,4 C 19,2 C 11,3 km/h (2 Bft) 95,83 %
20.05.2018 18:55 19,7 C 18,3 C 54 % 1017,0 hPa 0,0 l/m 11,0 km/h (2 Bft) O-SO 105 1 min 0,000 mm 0,0 UV-I 226 W/m 10,1 C 18,0 C 17,7 km/h (3 Bft) 100,00 %
20.05.2018 18:56 19,7 C 18,3 C 55 % 1017,0 hPa 0,0 l/m 13,8 km/h (3 Bft) O-SO 103 1 min 0,000 mm 0,0 UV-I 225 W/m 10,4 C 17,2 C 17,7 km/h (3 Bft) 100,00 %
20.05.2018 18:57 19,6 C 18,3 C 55 % 1017,0 hPa 0,0 l/m 12,3 km/h (3 Bft) O 95 1 min 0,000 mm 0,0 UV-I 221 W/m 10,3 C 17,5 C 19,3 km/h (3 Bft) 100,00 %
20.05.2018 18:58 19,6 C 18,3 C 56 % 1017,0 hPa 0,0 l/m 12,5 km/h (3 Bft) O-SO 106 1 min 0,000 mm 0,0 UV-I 202 W/m 10,6 C 17,4 C 16,1 km/h (3 Bft) 100,00 %
20.05.2018 18:59 19,6 C 18,3 C 56 % 1017,0 hPa 0,0 l/m 11,4 km/h (2 Bft) O-NO 78 1 min 0,000 mm 0,0 UV-I 192 W/m 10,6 C 17,7 C 17,7 km/h (3 Bft) 97,92 %
20.05.2018 19:00 19,6 C 18,3 C 56 % 1017,0 hPa 0,0 l/m 12,8 km/h (3 Bft) O 82 1 min 0,000 mm 0,0 UV-I 192 W/m 10,6 C 17,3 C 16,1 km/h (3 Bft) 100,00 %
20.05.2018 19:02 19,4 C 18,3 C 56 % 1017,0 hPa 0,0 l/m 13,4 km/h (3 Bft) O-SO 103 2 min 0,229 mm 0,0 UV-I 191 W/m 10,4 C 16,9 C 19,3 km/h (3 Bft) 100,00 %
20.05.2018 19:03 19,4 C 18,3 C 56 % 1017,0 hPa 0,0 l/m 15,5 km/h (3 Bft) NO 50 1 min 0,000 mm 0,0 UV-I 183 W/m 10,4 C 16,4 C 24,1 km/h (4 Bft) 100,00 %
20.05.2018 19:04 19,3 C 18,3 C 56 % 1016,9 hPa 0,0 l/m 13,8 km/h (3 Bft) O 89 1 min 0,000 mm 0,0 UV-I 176 W/m 10,3 C 16,7 C 20,9 km/h (4 Bft) 100,00 %
20.05.2018 19:05 19,3 C 18,3 C 56 % 1017,0 hPa 0,0 l/m 15,2 km/h (3 Bft) O-SO 113 1 min 0,000 mm 0,0 UV-I 174 W/m 10,3 C 16,4 C 22,5 km/h (4 Bft) 97,94 %
20.05.2018 19:06 19,2 C 18,3 C 56 % 1017,0 hPa 0,0 l/m 22,1 km/h (4 Bft) O 98 1 min 0,000 mm 0,0 UV-I 174 W/m 10,2 C 14,8 C 25,7 km/h (4 Bft) 100,00 %
20.05.2018 19:08 19,1 C 18,3 C 55 % 1016,9 hPa 0,0 l/m 17,3 km/h (3 Bft) O-NO 71 2 min 0,000 mm 0,0 UV-I 166 W/m 9,8 C 15,6 C 25,7 km/h (4 Bft) 98,00 %
20.05.2018 19:09 19,1 C 18,3 C 55 % 1016,9 hPa 0,0 l/m 22,4 km/h (4 Bft) O-SO 113 1 min 0,000 mm 0,0 UV-I 161 W/m 9,8 C 14,6 C 30,6 km/h (5 Bft) 93,33 %
20.05.2018 19:10 19,1 C 18,3 C 55 % 1016,9 hPa 0,0 l/m 20,8 km/h (4 Bft) O-SO 107 1 min 0,000 mm 0,0 UV-I 159 W/m 9,8 C 14,9 C 24,1 km/h (4 Bft) 100,00 %
20.05.2018 19:11 19,0 C 18,3 C 55 % 1016,9 hPa 0,0 l/m 16,4 km/h (3 Bft) O-SO 114 1 min 0,000 mm 0,0 UV-I 157 W/m 9,8 C 15,7 C 20,9 km/h (4 Bft) 96,30 %
20.05.2018 19:13 18,9 C 18,3 C 56 % 1016,9 hPa 0,0 l/m 17,6 km/h (3 Bft) O-NO 67 2 min 0,000 mm 0,0 UV-I 148 W/m 9,9 C 15,3 C 22,5 km/h (4 Bft) 97,73 %
20.05.2018 19:14 18,9 C 18,3 C 55 % 1016,9 hPa 0,0 l/m 21,5 km/h (4 Bft) O 83 1 min 0,000 mm 0,0 UV-I 148 W/m 9,7 C 14,5 C 27,4 km/h (4 Bft) 95,65 %
20.05.2018 19:15 18,9 C 18,3 C 54 % 1016,9 hPa 0,0 l/m 24,4 km/h (4 Bft) O 88 1 min 0,000 mm 0,0 UV-I 143 W/m 9,4 C 14,0 C 29,0 km/h (5 Bft) 100,00 %
20.05.2018 19:16 18,8 C 18,3 C 54 % 1017,0 hPa 0,0 l/m 20,3 km/h (4 Bft) O 81 1 min 0,000 mm 0,0 UV-I 143 W/m 9,3 C 14,6 C 27,4 km/h (4 Bft) 97,94 %
20.05.2018 19:17 18,8 C 18,3 C 54 % 1016,9 hPa 0,0 l/m 20,2 km/h (4 Bft) O 88 1 min 0,000 mm 0,0 UV-I 144 W/m 9,3 C 14,6 C 24,1 km/h (4 Bft) 93,75 %
20.05.2018 19:18 18,8 C 18,3 C 54 % 1016,9 hPa 0,0 l/m 21,5 km/h (4 Bft) O 89 1 min 0,000 mm 0,0 UV-I 144 W/m 9,3 C 14,4 C 29,0 km/h (5 Bft) 96,97 %
20.05.2018 19:19 18,8 C 18,3 C 54 % 1017,0 hPa 0,0 l/m 19,7 km/h (3 Bft) O 90 1 min 0,000 mm 0,0 UV-I 146 W/m 9,3 C 14,7 C 29,0 km/h (5 Bft) 100,00 %
20.05.2018 19:20 18,8 C 18,3 C 54 % 1016,8 hPa 0,0 l/m 15,2 km/h (3 Bft) O 85 1 min 0,000 mm 0,0 UV-I 146 W/m 9,3 C 15,7 C 19,3 km/h (3 Bft) 94,44 %
20.05.2018 19:21 18,8 C 18,3 C 55 % 1016,9 hPa 0,0 l/m 16,7 km/h (3 Bft) O 88 1 min 0,000 mm 0,0 UV-I 143 W/m 9,6 C 15,4 C 24,1 km/h (4 Bft) 92,31 %
20.05.2018 19:22 18,8 C 18,3 C 54 % 1016,9 hPa 0,0 l/m 17,2 km/h (3 Bft) O-NO 59 1 min 0,000 mm 0,0 UV-I 143 W/m 9,3 C 15,3 C 22,5 km/h (4 Bft) 100,00 %
20.05.2018 19:23 18,8 C 18,3 C 54 % 1016,9 hPa 0,0 l/m 18,0 km/h (3 Bft) O-SO 103 1 min 0,000 mm 0,0 UV-I 145 W/m 9,3 C 15,1 C 25,7 km/h (4 Bft) 97,93 %
20.05.2018 19:24 18,8 C 18,3 C 54 % 1016,9 hPa 0,0 l/m 20,8 km/h (4 Bft) O 82 1 min 0,000 mm 0,0 UV-I 147 W/m 9,3 C 14,5 C 25,7 km/h (4 Bft) 97,87 %
20.05.2018 19:25 18,8 C 18,3 C 54 % 1016,9 hPa 0,0 l/m 18,4 km/h (3 Bft) O-SO 104 1 min 0,000 mm 0,0 UV-I 146 W/m 9,3 C 15,0 C 22,5 km/h (4 Bft) 95,65 %
20.05.2018 19:26 18,8 C 18,3 C 54 % 1016,9 hPa 0,0 l/m 16,6 km/h (3 Bft) O-NO 61 1 min 0,000 mm 0,0 UV-I 144 W/m 9,3 C 15,4 C 22,5 km/h (4 Bft) 100,00 %
20.05.2018 19:27 18,8 C 18,3 C 54 % 1016,8 hPa 0,0 l/m 14,8 km/h (3 Bft) O-SO 111 1 min 0,000 mm 0,0 UV-I 141 W/m 9,3 C 15,8 C 17,7 km/h (3 Bft) 95,00 %
20.05.2018 19:28 18,8 C 18,3 C 54 % 1016,9 hPa 0,0 l/m 19,1 km/h (3 Bft) O-SO 103 1 min 0,000 mm 0,0 UV-I 139 W/m 9,3 C 14,8 C 25,7 km/h (4 Bft) 96,30 %
20.05.2018 19:29 18,8 C 18,3 C 54 % 1017,0 hPa 0,0 l/m 20,6 km/h (4 Bft) O-SO 102 1 min 0,000 mm 0,0 UV-I 136 W/m 9,3 C 14,5 C 27,4 km/h (4 Bft) 100,00 %
20.05.2018 19:30 18,8 C 18,3 C 54 % 1016,9 hPa 0,0 l/m 22,2 km/h (4 Bft) O 82 1 min 0,000 mm 0,0 UV-I 134 W/m 9,3 C 14,2 C 27,4 km/h (4 Bft) 96,77 %
20.05.2018 19:31 18,8 C 18,3 C 54 % 1016,9 hPa 0,0 l/m 18,6 km/h (3 Bft) O 101 1 min 0,000 mm 0,0 UV-I 130 W/m 9,3 C 14,9 C 25,7 km/h (4 Bft) 100,00 %
20.05.2018 19:33 18,8 C 18,3 C 53 % 1016,8 hPa 0,0 l/m 20,1 km/h (4 Bft) O 93 2 min 0,000 mm 0,0 UV-I 123 W/m 9,0 C 14,6 C 29,0 km/h (5 Bft) 96,77 %
20.05.2018 19:34 18,7 C 18,3 C 54 % 1016,8 hPa 0,0 l/m 15,7 km/h (3 Bft) O 98 1 min 0,000 mm 0,0 UV-I 112 W/m 9,2 C 15,5 C 24,1 km/h (4 Bft) 97,87 %
20.05.2018 19:35 18,7 C 18,3 C 54 % 1016,9 hPa 0,0 l/m 15,9 km/h (3 Bft) O-SO 108 1 min 0,000 mm 0,0 UV-I 113 W/m 9,2 C 15,4 C 20,9 km/h (4 Bft) 96,55 %
20.05.2018 19:36 18,7 C 18,3 C 54 % 1016,9 hPa 0,0 l/m 16,8 km/h (3 Bft) O 96 1 min 0,000 mm 0,0 UV-I 114 W/m 9,2 C 15,2 C 24,1 km/h (4 Bft) 100,00 %
20.05.2018 19:38 18,6 C 18,3 C 54 % 1016,9 hPa 0,0 l/m 16,7 km/h (3 Bft) O-SO 117 2 min 0,000 mm 0,0 UV-I 103 W/m 9,1 C 15,1 C 25,7 km/h (4 Bft) 97,87 %
20.05.2018 19:39 18,6 C 18,3 C 54 % 1016,9 hPa 0,0 l/m 16,4 km/h (3 Bft) O 100 1 min 0,000 mm 0,0 UV-I 86 W/m 9,1 C 15,2 C 29,0 km/h (5 Bft) 100,00 %
20.05.2018 19:40 18,5 C 18,3 C 54 % 1017,0 hPa 0,0 l/m 21,3 km/h (4 Bft) O-NO 78 1 min 0,000 mm 0,0 UV-I 87 W/m 9,0 C 14,0 C 29,0 km/h (5 Bft) 96,15 %
20.05.2018 19:41 18,5 C 18,3 C 53 % 1016,9 hPa 0,0 l/m 21,1 km/h (4 Bft) O-SO 105 1 min 0,000 mm 0,0 UV-I 93 W/m 8,7 C 14,0 C 27,4 km/h (4 Bft) 100,00 %
20.05.2018 19:42 18,4 C 18,3 C 54 % 1016,9 hPa 0,0 l/m 20,1 km/h (4 Bft) O 95 1 min 0,000 mm 0,0 UV-I 91 W/m 8,9 C 14,1 C 25,7 km/h (4 Bft) 100,00 %
20.05.2018 19:43 18,4 C 18,3 C 54 % 1017,0 hPa 0,0 l/m 18,1 km/h (3 Bft) O 93 1 min 0,000 mm 0,0 UV-I 86 W/m 8,9 C 14,5 C 22,5 km/h (4 Bft) 100,00 %
20.05.2018 19:44 18,3 C 18,3 C 54 % 1017,0 hPa 0,0 l/m 21,2 km/h (4 Bft) O-SO 115 1 min 0,000 mm 0,0 UV-I 83 W/m 8,8 C 13,8 C 27,4 km/h (4 Bft) 97,73 %
20.05.2018 19:45 18,3 C 18,3 C 54 % 1017,0 hPa 0,0 l/m 22,1 km/h (4 Bft) O-SO 106 1 min 0,000 mm 0,0 UV-I 80 W/m 8,8 C 13,6 C 30,6 km/h (5 Bft) 93,33 %
20.05.2018 19:46 18,2 C 18,3 C 54 % 1017,1 hPa 0,0 l/m 22,4 km/h (4 Bft) O 100 1 min 0,000 mm 0,0 UV-I 77 W/m 8,7 C 13,4 C 29,0 km/h (5 Bft) 100,00 %
20.05.2018 19:48 18,2 C 18,3 C 55 % 1017,0 hPa 0,0 l/m 18,4 km/h (3 Bft) O-SO 107 2 min 0,000 mm 0,0 UV-I 70 W/m 9,0 C 14,2 C 27,4 km/h (4 Bft) 100,00 %
20.05.2018 19:49 18,2 C 18,3 C 55 % 1017,0 hPa 0,0 l/m 20,3 km/h (4 Bft) O 97 0 min 0,000 mm 0,0 UV-I 62 W/m 9,0 C 13,8 C 27,4 km/h (4 Bft) 100,00 %
20.05.2018 19:50 18,1 C 18,3 C 55 % 1017,0 hPa 0,0 l/m 11,9 km/h (2 Bft) O 92 0 min 0,000 mm 0,0 UV-I 58 W/m 8,9 C 15,9 C 17,7 km/h (3 Bft) 95,65 %
20.05.2018 19:51 18,1 C 18,3 C 55 % 1017,1 hPa 0,0 l/m 17,2 km/h (3 Bft) O-SO 106 0 min 0,000 mm 0,0 UV-I 58 W/m 8,9 C 14,4 C 22,5 km/h (4 Bft) 100,00 %
20.05.2018 19:52 18,1 C 18,3 C 55 % 1017,0 hPa 0,0 l/m 19,1 km/h (3 Bft) O 91 0 min 0,000 mm 0,0 UV-I 58 W/m 8,9 C 13,9 C 29,0 km/h (5 Bft) 95,65 %
20.05.2018 19:53 18,0 C 18,3 C 55 % 1017,0 hPa 0,0 l/m 19,8 km/h (3 Bft) O 94 0 min 0,000 mm 0,0 UV-I 58 W/m 8,8 C 13,7 C 24,1 km/h (4 Bft) 97,93 %
20.05.2018 19:54 17,9 C 18,3 C 56 % 1017,1 hPa 0,0 l/m 13,2 km/h (3 Bft) O 84 0 min 0,000 mm 0,0 UV-I 56 W/m 9,0 C 15,2 C 17,7 km/h (3 Bft) 100,00 %
20.05.2018 19:55 17,9 C 18,3 C 56 % 1017,0 hPa 0,0 l/m 12,4 km/h (3 Bft) O-SO 121 0 min 0,000 mm 0,0 UV-I 56 W/m 9,0 C 15,5 C 19,3 km/h (3 Bft) 100,00 %
20.05.2018 19:56 17,9 C 18,3 C 56 % 1017,0 hPa 0,0 l/m 15,1 km/h (3 Bft) O-SO 109 0 min 0,000 mm 0,0 UV-I 54 W/m 9,0 C 14,7 C 20,9 km/h (4 Bft) 100,00 %
20.05.2018 19:57 17,8 C 18,3 C 56 % 1017,1 hPa 0,0 l/m 13,1 km/h (3 Bft) O-NO 69 0 min 0,000 mm 0,0 UV-I 53 W/m 8,9 C 15,1 C 16,1 km/h (3 Bft) 100,00 %
20.05.2018 19:58 17,8 C 18,3 C 57 % 1017,1 hPa 0,0 l/m 14,8 km/h (3 Bft) O-SO 107 0 min 0,000 mm 0,0 UV-I 52 W/m 9,2 C 14,6 C 22,5 km/h (4 Bft) 100,00 %
20.05.2018 19:59 17,7 C 18,3 C 57 % 1017,1 hPa 0,0 l/m 17,4 km/h (3 Bft) O-SO 109 0 min 0,000 mm 0,0 UV-I 51 W/m 9,1 C 13,8 C 20,9 km/h (4 Bft) 100,00 %
20.05.2018 20:00 17,7 C 18,3 C 57 % 1017,2 hPa 0,0 l/m 15,2 km/h (3 Bft) O 101 1 min 0,000 mm 0,0 UV-I 51 W/m 9,1 C 14,4 C 20,9 km/h (4 Bft) 100,00 %
20.05.2018 20:02 17,6 C 18,3 C 57 % 1017,1 hPa 0,0 l/m 13,0 km/h (3 Bft) O-SO 117 2 min 0,178 mm 0,0 UV-I 51 W/m 9,0 C 14,9 C 22,5 km/h (4 Bft) 97,37 %
20.05.2018 20:03 17,6 C 18,3 C 57 % 1017,2 hPa 0,0 l/m 17,2 km/h (3 Bft) O-SO 120 0 min 0,000 mm 0,0 UV-I 45 W/m 9,0 C 13,8 C 22,5 km/h (4 Bft) 100,00 %
20.05.2018 20:04 17,6 C 18,3 C 57 % 1017,1 hPa 0,0 l/m 16,8 km/h (3 Bft) O 86 0 min 0,000 mm 0,0 UV-I 42 W/m 9,0 C 13,9 C 20,9 km/h (4 Bft) 100,00 %
20.05.2018 20:05 17,6 C 18,3 C 57 % 1017,1 hPa 0,0 l/m 17,1 km/h (3 Bft) O-SO 111 0 min 0,000 mm 0,0 UV-I 39 W/m 9,0 C 13,8 C 22,5 km/h (4 Bft) 100,00 %
20.05.2018 20:06 17,6 C 18,3 C 58 % 1017,1 hPa 0,0 l/m 10,3 km/h (2 Bft) O-SO 109 0 min 0,000 mm 0,0 UV-I 40 W/m 9,2 C 15,9 C 16,1 km/h (3 Bft) 100,00 %
20.05.2018 20:07 17,5 C 18,3 C 58 % 1017,1 hPa 0,0 l/m 10,4 km/h (2 Bft) O-SO 110 1 min 0,000 mm 0,0 UV-I 44 W/m 9,1 C 15,7 C 16,1 km/h (3 Bft) 100,00 %
20.05.2018 20:08 17,4 C 18,3 C 58 % 1017,1 hPa 0,0 l/m 11,9 km/h (2 Bft) O-SO 110 1 min 0,000 mm 0,0 UV-I 46 W/m 9,1 C 15,1 C 14,5 km/h (3 Bft) 96,30 %
20.05.2018 20:09 17,4 C 18,3 C 58 % 1017,1 hPa 0,0 l/m 12,8 km/h (3 Bft) O-SO 115 1 min 0,000 mm 0,0 UV-I 43 W/m 9,1 C 14,8 C 19,3 km/h (3 Bft) 100,00 %
20.05.2018 20:10 17,3 C 18,3 C 59 % 1017,1 hPa 0,0 l/m 11,1 km/h (2 Bft) O 93 1 min 0,000 mm 0,0 UV-I 41 W/m 9,2 C 15,2 C 16,1 km/h (3 Bft) 100,00 %
20.05.2018 20:11 17,3 C 18,3 C 59 % 1017,1 hPa 0,0 l/m 16,0 km/h (3 Bft) O 92 1 min 0,000 mm 0,0 UV-I 40 W/m 9,2 C 13,7 C 22,5 km/h (4 Bft) 100,00 %
20.05.2018 20:13 17,3 C 18,3 C 59 % 1017,1 hPa 0,0 l/m 14,5 km/h (3 Bft) O-SO 109 2 min 0,000 mm 0,0 UV-I 40 W/m 9,2 C 14,1 C 17,7 km/h (3 Bft) 100,00 %
20.05.2018 20:14 17,3 C 18,3 C 59 % 1017,1 hPa 0,0 l/m 15,4 km/h (3 Bft) O-SO 119 1 min 0,000 mm 0,0 UV-I 40 W/m 9,2 C 13,9 C 22,5 km/h (4 Bft) 100,00 %
20.05.2018 20:15 17,2 C 18,3 C 59 % 1017,1 hPa 0,0 l/m 16,7 km/h (3 Bft) O 88 1 min 0,000 mm 0,0 UV-I 39 W/m 9,1 C 13,4 C 20,9 km/h (4 Bft) 96,15 %
20.05.2018 20:16 17,2 C 18,3 C 59 % 1017,1 hPa 0,0 l/m 12,6 km/h (3 Bft) O 85 1 min 0,000 mm 0,0 UV-I 38 W/m 9,1 C 14,6 C 17,7 km/h (3 Bft) 100,00 %
20.05.2018 20:18 17,2 C 18,3 C 59 % 1017,1 hPa 0,0 l/m 15,5 km/h (3 Bft) O 96 2 min 0,000 mm 0,0 UV-I 35 W/m 9,1 C 13,7 C 20,9 km/h (4 Bft) 98,11 %
20.05.2018 20:19 17,2 C 18,3 C 59 % 1017,1 hPa 0,0 l/m 17,6 km/h (3 Bft) O-SO 109 1 min 0,000 mm 0,0 UV-I 33 W/m 9,1 C 13,2 C 22,5 km/h (4 Bft) 100,00 %
20.05.2018 20:20 17,2 C 18,3 C 59 % 1017,0 hPa 0,0 l/m 13,3 km/h (3 Bft) O 92 1 min 0,000 mm 0,0 UV-I 29 W/m 9,1 C 14,4 C 17,7 km/h (3 Bft) 96,15 %
20.05.2018 20:21 17,1 C 18,3 C 60 % 1017,1 hPa 0,0 l/m 15,3 km/h (3 Bft) O 101 1 min 0,000 mm 0,0 UV-I 25 W/m 9,3 C 13,6 C 17,7 km/h (3 Bft) 96,30 %
20.05.2018 20:23 17,0 C 18,3 C 60 % 1017,1 hPa 0,0 l/m 13,9 km/h (3 Bft) O-SO 107 2 min 0,000 mm 0,0 UV-I 23 W/m 9,2 C 13,9 C 22,5 km/h (4 Bft) 97,56 %
20.05.2018 20:24 17,0 C 18,3 C 60 % 1017,1 hPa 0,0 l/m 10,3 km/h (2 Bft) O 101 1 min 0,000 mm 0,0 UV-I 19 W/m 9,2 C 15,2 C 14,5 km/h (3 Bft) 95,65 %
20.05.2018 20:25 16,9 C 18,3 C 60 % 1017,2 hPa 0,0 l/m 14,7 km/h (3 Bft) O 94 1 min 0,000 mm 0,0 UV-I 19 W/m 9,1 C 13,6 C 17,7 km/h (3 Bft) 88,89 %
20.05.2018 20:26 16,9 C 18,3 C 61 % 1017,1 hPa 0,0 l/m 11,8 km/h (2 Bft) O 93 1 min 0,000 mm 0,0 UV-I 18 W/m 9,3 C 14,5 C 16,1 km/h (3 Bft) 91,30 %
20.05.2018 20:27 16,8 C 18,3 C 61 % 1017,2 hPa 0,0 l/m 13,6 km/h (3 Bft) O 100 1 min 0,000 mm 0,0 UV-I 18 W/m 9,2 C 13,8 C 19,3 km/h (3 Bft) 96,30 %
20.05.2018 20:28 16,8 C 18,3 C 61 % 1017,2 hPa 0,0 l/m 11,8 km/h (2 Bft) O-SO 113 1 min 0,000 mm 0,0 UV-I 18 W/m 9,2 C 14,4 C 16,1 km/h (3 Bft) 100,00 %
20.05.2018 20:29 16,8 C 18,3 C 61 % 1017,2 hPa 0,0 l/m 14,8 km/h (3 Bft) O-SO 105 1 min 0,000 mm 0,0 UV-I 16 W/m 9,2 C 13,4 C 19,3 km/h (3 Bft) 96,30 %
20.05.2018 20:30 16,8 C 18,3 C 61 % 1017,2 hPa 0,0 l/m 13,7 km/h (3 Bft) O-NO 74 1 min 0,000 mm 0,0 UV-I 14 W/m 9,2 C 13,8 C 17,7 km/h (3 Bft) 100,00 %
20.05.2018 20:31 16,7 C 18,3 C 61 % 1017,2 hPa 0,0 l/m 12,9 km/h (3 Bft) O 86 0 min 0,000 mm 0,0 UV-I 14 W/m 9,1 C 13,9 C 17,7 km/h (3 Bft) 96,30 %
20.05.2018 20:32 16,7 C 18,3 C 61 % 1017,2 hPa 0,0 l/m 12,7 km/h (3 Bft) O-SO 103 0 min 0,000 mm 0,0 UV-I 14 W/m 9,1 C 14,0 C 16,1 km/h (3 Bft) 95,65 %
20.05.2018 20:33 16,7 C 18,3 C 61 % 1017,2 hPa 0,0 l/m 8,9 km/h (2 Bft) O 90 0 min 0,000 mm 0,0 UV-I 13 W/m 9,1 C 15,5 C 14,5 km/h (3 Bft) 100,00 %
20.05.2018 20:34 16,7 C 18,3 C 61 % 1017,2 hPa 0,0 l/m 11,9 km/h (2 Bft) O-SO 109 0 min 0,000 mm 0,0 UV-I 12 W/m 9,1 C 14,3 C 14,5 km/h (3 Bft) 96,88 %
20.05.2018 20:35 16,7 C 18,3 C 61 % 1017,2 hPa 0,0 l/m 9,9 km/h (2 Bft) O 101 0 min 0,000 mm 0,0 UV-I 11 W/m 9,1 C 15,0 C 16,1 km/h (3 Bft) 100,00 %
20.05.2018 20:36 16,7 C 18,3 C 61 % 1017,2 hPa 0,0 l/m 13,8 km/h (3 Bft) O-SO 110 0 min 0,000 mm 0,0 UV-I 11 W/m 9,1 C 13,6 C 17,7 km/h (3 Bft) 96,30 %
20.05.2018 20:38 16,7 C 18,3 C 61 % 1017,2 hPa 0,0 l/m 11,3 km/h (2 Bft) O 100 0 min 0,000 mm 0,0 UV-I 11 W/m 9,1 C 14,5 C 16,1 km/h (3 Bft) 98,00 %
20.05.2018 20:39 16,7 C 18,3 C 61 % 1017,2 hPa 0,0 l/m 13,6 km/h (3 Bft) O 95 0 min 0,000 mm 0,0 UV-I 10 W/m 9,1 C 13,7 C 20,9 km/h (4 Bft) 96,15 %
20.05.2018 20:40 16,6 C 18,3 C 61 % 1017,2 hPa 0,0 l/m 13,4 km/h (3 Bft) O-SO 118 0 min 0,000 mm 0,0 UV-I 9 W/m 9,0 C 13,6 C 17,7 km/h (3 Bft) 91,67 %
20.05.2018 20:41 16,6 C 18,3 C 62 % 1017,2 hPa 0,0 l/m 11,7 km/h (2 Bft) O 93 0 min 0,000 mm 0,0 UV-I 9 W/m 9,3 C 14,2 C 14,5 km/h (3 Bft) 95,65 %
20.05.2018 20:43 16,5 C 18,3 C 62 % 1017,2 hPa 0,0 l/m 11,7 km/h (2 Bft) O-SO 117 0 min 0,000 mm 0,0 UV-I 9 W/m 9,2 C 14,1 C 16,1 km/h (3 Bft) 98,00 %
20.05.2018 20:44 16,4 C 18,3 C 62 % 1017,2 hPa 0,0 l/m 13,5 km/h (3 Bft) O-SO 107 0 min 0,000 mm 0,0 UV-I 8 W/m 9,1 C 13,4 C 16,1 km/h (3 Bft) 100,00 %
20.05.2018 20:45 16,4 C 18,3 C 62 % 1017,2 hPa 0,0 l/m 13,7 km/h (3 Bft) O-NO 73 0 min 0,000 mm 0,0 UV-I 7 W/m 9,1 C 13,3 C 17,7 km/h (3 Bft) 96,15 %
20.05.2018 20:46 16,4 C 18,3 C 62 % 1017,2 hPa 0,0 l/m 7,6 km/h (2 Bft) S-SO 150 0 min 0,000 mm 0,0 UV-I 7 W/m 9,1 C 15,8 C 14,5 km/h (3 Bft) 100,00 %
20.05.2018 20:48 16,4 C 18,3 C 62 % 1017,3 hPa 0,0 l/m 11,8 km/h (2 Bft) O 99 0 min 0,000 mm 0,0 UV-I 7 W/m 9,1 C 14,0 C 17,7 km/h (3 Bft) 98,00 %
20.05.2018 20:49 16,4 C 18,3 C 62 % 1017,3 hPa 0,0 l/m 10,0 km/h (2 Bft) O 101 0 min 0,000 mm 0,0 UV-I 6 W/m 9,1 C 14,7 C 12,9 km/h (3 Bft) 90,91 %
20.05.2018 20:50 16,4 C 18,3 C 62 % 1017,2 hPa 0,0 l/m 10,0 km/h (2 Bft) O 97 0 min 0,000 mm 0,0 UV-I 5 W/m 9,1 C 14,7 C 16,1 km/h (3 Bft) 100,00 %
20.05.2018 20:51 16,4 C 18,3 C 63 % 1017,3 hPa 0,0 l/m 10,5 km/h (2 Bft) O 93 0 min 0,000 mm 0,0 UV-I 5 W/m 9,3 C 14,5 C 16,1 km/h (3 Bft) 96,15 %
20.05.2018 20:52 16,4 C 18,3 C 63 % 1017,3 hPa 0,0 l/m 10,5 km/h (2 Bft) O-SO 121 0 min 0,000 mm 0,0 UV-I 5 W/m 9,3 C 14,5 C 12,9 km/h (3 Bft) 95,83 %
20.05.2018 20:53 16,3 C 18,3 C 63 % 1017,3 hPa 0,0 l/m 8,7 km/h (2 Bft) O-SO 111 0 min 0,000 mm 0,0 UV-I 5 W/m 9,2 C 15,1 C 11,3 km/h (2 Bft) 100,00 %
20.05.2018 20:54 16,3 C 18,3 C 63 % 1017,3 hPa 0,0 l/m 9,1 km/h (2 Bft) O-SO 119 0 min 0,000 mm 0,0 UV-I 5 W/m 9,2 C 14,9 C 14,5 km/h (3 Bft) 100,00 %
20.05.2018 20:55 16,3 C 18,3 C 63 % 1017,3 hPa 0,0 l/m 9,8 km/h (2 Bft) O-SO 113 0 min 0,000 mm 0,0 UV-I 5 W/m 9,2 C 14,6 C 12,9 km/h (3 Bft) 95,83 %
20.05.2018 20:56 16,3 C 18,3 C 63 % 1017,3 hPa 0,0 l/m 8,2 km/h (2 Bft) O-SO 109 0 min 0,000 mm 0,0 UV-I 5 W/m 9,2 C 15,4 C 12,9 km/h (3 Bft) 92,31 %
20.05.2018 20:58 16,2 C 18,3 C 64 % 1017,3 hPa 0,0 l/m 7,7 km/h (2 Bft) O-SO 122 0 min 0,000 mm 0,0 UV-I 5 W/m 9,4 C 15,5 C 14,5 km/h (3 Bft) 96,23 %
20.05.2018 20:59 16,2 C 18,3 C 64 % 1017,3 hPa 0,0 l/m 8,4 km/h (2 Bft) O 95 0 min 0,000 mm 0,0 UV-I 0 W/m 9,4 C 15,2 C 11,3 km/h (2 Bft) 100,00 %
20.05.2018 21:00 16,2 C 18,3 C 64 % 1017,3 hPa 0,0 l/m 9,7 km/h (2 Bft) O-SO 116 0 min 0,000 mm 0,0 UV-I 0 W/m 9,4 C 14,6 C 12,9 km/h (3 Bft) 91,30 %
20.05.2018 21:02 16,1 C 18,3 C 64 % 1017,4 hPa 0,0 l/m 8,4 km/h (2 Bft) O-SO 112 0 min 0,076 mm 0,0 UV-I 0 W/m 9,3 C 15,1 C 16,1 km/h (3 Bft) 94,00 %
20.05.2018 21:03 16,1 C 18,3 C 64 % 1017,4 hPa 0,0 l/m 14,2 km/h (3 Bft) O-SO 118 0 min 0,000 mm 0,0 UV-I 0 W/m 9,3 C 12,8 C 17,7 km/h (3 Bft) 88,89 %
20.05.2018 21:04 16,1 C 18,3 C 64 % 1017,4 hPa 0,0 l/m 11,0 km/h (2 Bft) O 94 0 min 0,000 mm 0,0 UV-I 0 W/m 9,3 C 13,9 C 19,3 km/h (3 Bft) 100,00 %
20.05.2018 21:05 16,1 C 18,3 C 64 % 1017,4 hPa 0,0 l/m 9,9 km/h (2 Bft) O 84 0 min 0,000 mm 0,0 UV-I 0 W/m 9,3 C 14,4 C 12,9 km/h (3 Bft) 100,00 %
20.05.2018 21:06 16,1 C 18,3 C 64 % 1017,4 hPa 0,0 l/m 9,2 km/h (2 Bft) O 99 0 min 0,000 mm 0,0 UV-I 0 W/m 9,3 C 14,7 C 12,9 km/h (3 Bft) 89,66 %
20.05.2018 21:08 16,0 C 18,3 C 64 % 1017,4 hPa 0,0 l/m 10,6 km/h (2 Bft) O 101 0 min 0,000 mm 0,0 UV-I 0 W/m 9,2 C 14,0 C 16,1 km/h (3 Bft) 95,74 %
20.05.2018 21:09 16,0 C 18,3 C 64 % 1017,4 hPa 0,0 l/m 11,9 km/h (2 Bft) O-SO 123 0 min 0,000 mm 0,0 UV-I 0 W/m 9,2 C 13,5 C 17,7 km/h (3 Bft) 91,67 %
20.05.2018 21:10 16,0 C 18,3 C 65 % 1017,4 hPa 0,0 l/m 12,5 km/h (3 Bft) O 101 0 min 0,000 mm 0,0 UV-I 0 W/m 9,4 C 13,2 C 17,7 km/h (3 Bft) 100,00 %
20.05.2018 21:11 16,0 C 18,3 C 64 % 1017,5 hPa 0,0 l/m 11,7 km/h (2 Bft) O 92 0 min 0,000 mm 0,0 UV-I 0 W/m 9,2 C 13,5 C 17,7 km/h (3 Bft) 92,59 %
20.05.2018 21:13 16,1 C 18,3 C 64 % 1017,5 hPa 0,0 l/m 13,1 km/h (3 Bft) O-SO 106 0 min 0,000 mm 0,0 UV-I 0 W/m 9,3 C 13,1 C 17,7 km/h (3 Bft) 94,74 %
20.05.2018 21:14 16,1 C 18,3 C 64 % 1017,5 hPa 0,0 l/m 11,2 km/h (2 Bft) O 101 0 min 0,000 mm 0,0 UV-I 0 W/m 9,3 C 13,8 C 14,5 km/h (3 Bft) 96,55 %
20.05.2018 21:15 16,1 C 18,3 C 64 % 1017,5 hPa 0,0 l/m 11,6 km/h (2 Bft) O-NO 69 0 min 0,000 mm 0,0 UV-I 0 W/m 9,3 C 13,7 C 17,7 km/h (3 Bft) 96,30 %
20.05.2018 21:16 16,1 C 18,3 C 64 % 1017,5 hPa 0,0 l/m 9,9 km/h (2 Bft) SO 132 0 min 0,000 mm 0,0 UV-I 0 W/m 9,3 C 14,4 C 16,1 km/h (3 Bft) 91,67 %
20.05.2018 21:17 16,1 C 18,3 C 64 % 1017,5 hPa 0,0 l/m 12,1 km/h (2 Bft) O 86 0 min 0,000 mm 0,0 UV-I 0 W/m 9,3 C 13,5 C 16,1 km/h (3 Bft) 96,55 %
20.05.2018 21:18 16,0 C 18,3 C 65 % 1017,5 hPa 0,0 l/m 11,2 km/h (2 Bft) O-SO 109 0 min 0,000 mm 0,0 UV-I 0 W/m 9,4 C 13,7 C 12,9 km/h (3 Bft) 92,59 %
20.05.2018 21:19 15,9 C 18,3 C 65 % 1017,6 hPa 0,0 l/m 11,7 km/h (2 Bft) O-SO 103 0 min 0,000 mm 0,0 UV-I 0 W/m 9,3 C 13,4 C 17,7 km/h (3 Bft) 92,31 %
20.05.2018 21:20 15,9 C 18,3 C 65 % 1017,6 hPa 0,0 l/m 12,0 km/h (2 Bft) O-SO 107 0 min 0,000 mm 0,0 UV-I 0 W/m 9,3 C 13,3 C 16,1 km/h (3 Bft) 97,85 %
20.05.2018 21:21 15,9 C 18,3 C 65 % 1017,6 hPa 0,0 l/m 11,6 km/h (2 Bft) O-SO 103 0 min 0,000 mm 0,0 UV-I 0 W/m 9,3 C 13,5 C 14,5 km/h (3 Bft) 97,56 %
20.05.2018 21:22 15,8 C 18,3 C 66 % 1017,6 hPa 0,0 l/m 12,0 km/h (2 Bft) O 94 0 min 0,000 mm 0,0 UV-I 0 W/m 9,5 C 13,2 C 16,1 km/h (3 Bft) 95,83 %
20.05.2018 21:23 15,8 C 18,3 C 66 % 1017,6 hPa 0,0 l/m 12,5 km/h (3 Bft) O 91 0 min 0,000 mm 0,0 UV-I 0 W/m 9,5 C 13,0 C 14,5 km/h (3 Bft) 96,15 %
20.05.2018 21:24 15,8 C 18,3 C 66 % 1017,6 hPa 0,0 l/m 11,3 km/h (2 Bft) O-NO 76 0 min 0,000 mm 0,0 UV-I 0 W/m 9,5 C 13,5 C 14,5 km/h (3 Bft) 100,00 %
20.05.2018 21:25 15,7 C 18,3 C 66 % 1017,6 hPa 0,0 l/m 11,9 km/h (2 Bft) O-SO 113 0 min 0,000 mm 0,0 UV-I 0 W/m 9,4 C 13,1 C 14,5 km/h (3 Bft) 92,86 %
20.05.2018 21:26 15,7 C 18,3 C 66 % 1017,6 hPa 0,0 l/m 11,5 km/h (2 Bft) O 90 0 min 0,000 mm 0,0 UV-I 0 W/m 9,4 C 13,3 C 14,5 km/h (3 Bft) 100,00 %
20.05.2018 21:28 15,7 C 18,3 C 66 % 1017,6 hPa 0,0 l/m 13,7 km/h (3 Bft) O 92 0 min 0,000 mm 0,0 UV-I 0 W/m 9,4 C 12,5 C 17,7 km/h (3 Bft) 96,43 %
20.05.2018 21:29 15,7 C 18,3 C 66 % 1017,6 hPa 0,0 l/m 13,9 km/h (3 Bft) O 97 0 min 0,000 mm 0,0 UV-I 0 W/m 9,4 C 12,4 C 17,7 km/h (3 Bft) 100,00 %
20.05.2018 21:30 15,7 C 18,3 C 66 % 1017,6 hPa 0,0 l/m 11,8 km/h (2 Bft) O-NO 78 0 min 0,000 mm 0,0 UV-I 0 W/m 9,4 C 13,2 C 16,1 km/h (3 Bft) 96,30 %
20.05.2018 21:31 15,7 C 18,3 C 66 % 1017,7 hPa 0,0 l/m 11,7 km/h (2 Bft) O-SO 103 0 min 0,000 mm 0,0 UV-I 0 W/m 9,4 C 13,2 C 14,5 km/h (3 Bft) 100,00 %
20.05.2018 21:32 15,7 C 18,3 C 66 % 1017,6 hPa 0,0 l/m 11,3 km/h (2 Bft) O 94 0 min 0,000 mm 0,0 UV-I 0 W/m 9,4 C 13,3 C 16,1 km/h (3 Bft) 93,33 %
20.05.2018 21:33 15,7 C 18,3 C 66 % 1017,7 hPa 0,0 l/m 14,3 km/h (3 Bft) O 92 0 min 0,000 mm 0,0 UV-I 0 W/m 9,4 C 12,3 C 17,7 km/h (3 Bft) 100,00 %
20.05.2018 21:34 15,7 C 18,3 C 66 % 1017,6 hPa 0,0 l/m 11,4 km/h (2 Bft) O 90 0 min 0,000 mm 0,0 UV-I 0 W/m 9,4 C 13,3 C 16,1 km/h (3 Bft) 95,65 %
20.05.2018 21:35 15,6 C 18,3 C 67 % 1017,6 hPa 0,0 l/m 12,4 km/h (3 Bft) O 90 0 min 0,000 mm 0,0 UV-I 0 W/m 9,5 C 12,8 C 14,5 km/h (3 Bft) 100,00 %
20.05.2018 21:36 15,6 C 18,3 C 67 % 1017,7 hPa 0,0 l/m 11,3 km/h (2 Bft) O-SO 104 0 min 0,000 mm 0,0 UV-I 0 W/m 9,5 C 13,2 C 16,1 km/h (3 Bft) 100,00 %
20.05.2018 21:38 15,6 C 18,3 C 67 % 1017,7 hPa 0,0 l/m 11,0 km/h (2 Bft) O 81 0 min 0,000 mm 0,0 UV-I 0 W/m 9,5 C 13,4 C 14,5 km/h (3 Bft) 100,00 %
20.05.2018 21:39 15,6 C 18,3 C 67 % 1017,7 hPa 0,0 l/m 11,5 km/h (2 Bft) O 99 0 min 0,000 mm 0,0 UV-I 0 W/m 9,5 C 13,2 C 14,5 km/h (3 Bft) 97,87 %
20.05.2018 21:40 15,6 C 18,3 C 67 % 1017,7 hPa 0,0 l/m 11,2 km/h (2 Bft) O 100 0 min 0,000 mm 0,0 UV-I 0 W/m 9,5 C 13,3 C 14,5 km/h (3 Bft) 100,00 %
20.05.2018 21:41 15,6 C 18,3 C 67 % 1017,7 hPa 0,0 l/m 9,9 km/h (2 Bft) O-SO 110 0 min 0,000 mm 0,0 UV-I 0 W/m 9,5 C 13,8 C 12,9 km/h (3 Bft) 92,59 %
20.05.2018 21:43 15,6 C 18,3 C 67 % 1017,7 hPa 0,0 l/m 10,3 km/h (2 Bft) O 96 0 min 0,000 mm 0,0 UV-I 0 W/m 9,5 C 13,7 C 16,1 km/h (3 Bft) 100,00 %
20.05.2018 21:44 15,5 C 18,3 C 67 % 1017,7 hPa 0,0 l/m 11,5 km/h (2 Bft) O-SO 105 0 min 0,000 mm 0,0 UV-I 0 W/m 9,4 C 13,0 C 14,5 km/h (3 Bft) 100,00 %
20.05.2018 21:45 15,5 C 18,3 C 68 % 1017,7 hPa 0,0 l/m 11,0 km/h (2 Bft) O-SO 107 0 min 0,000 mm 0,0 UV-I 0 W/m 9,6 C 13,2 C 14,5 km/h (3 Bft) 100,00 %
20.05.2018 21:46 15,4 C 18,3 C 67 % 1017,7 hPa 0,0 l/m 12,2 km/h (2 Bft) O-SO 115 0 min 0,000 mm 0,0 UV-I 0 W/m 9,3 C 12,7 C 14,5 km/h (3 Bft) 100,00 %
20.05.2018 21:47 15,4 C 18,3 C 68 % 1017,7 hPa 0,0 l/m 9,5 km/h (2 Bft) O-SO 105 0 min 0,000 mm 0,0 UV-I 0 W/m 9,5 C 13,8 C 12,9 km/h (3 Bft) 100,00 %
20.05.2018 21:48 15,4 C 18,3 C 68 % 1017,7 hPa 0,0 l/m 11,0 km/h (2 Bft) O-SO 105 0 min 0,000 mm 0,0 UV-I 0 W/m 9,5 C 13,1 C 14,5 km/h (3 Bft) 100,00 %
20.05.2018 21:49 15,4 C 18,3 C 68 % 1017,7 hPa 0,0 l/m 9,9 km/h (2 Bft) O-SO 107 0 min 0,000 mm 0,0 UV-I 0 W/m 9,5 C 13,6 C 12,9 km/h (3 Bft) 100,00 %
20.05.2018 21:50 15,3 C 18,3 C 68 % 1017,7 hPa 0,0 l/m 9,2 km/h (2 Bft) O 101 0 min 0,000 mm 0,0 UV-I 0 W/m 9,4 C 13,8 C 12,9 km/h (3 Bft) 96,30 %
20.05.2018 21:51 15,3 C 18,3 C 68 % 1017,7 hPa 0,0 l/m 12,4 km/h (3 Bft) O 97 0 min 0,000 mm 0,0 UV-I 0 W/m 9,4 C 12,5 C 17,7 km/h (3 Bft) 100,00 %
20.05.2018 21:52 15,3 C 18,3 C 68 % 1017,7 hPa 0,0 l/m 10,7 km/h (2 Bft) O-SO 113 0 min 0,000 mm 0,0 UV-I 0 W/m 9,4 C 13,1 C 12,9 km/h (3 Bft) 96,30 %
20.05.2018 21:53 15,3 C 18,3 C 68 % 1017,7 hPa 0,0 l/m 7,3 km/h (2 Bft) O 100 0 min 0,000 mm 0,0 UV-I 0 W/m 9,4 C 14,8 C 9,7 km/h (2 Bft) 100,00 %
20.05.2018 21:54 15,3 C 18,3 C 68 % 1017,7 hPa 0,0 l/m 5,9 km/h (2 Bft) O-SO 115 0 min 0,000 mm 0,0 UV-I 0 W/m 9,4 C 15,3 C 9,7 km/h (2 Bft) 100,00 %
20.05.2018 21:55 15,3 C 18,3 C 68 % 1017,7 hPa 0,0 l/m 6,5 km/h (2 Bft) O-SO 111 0 min 0,000 mm 0,0 UV-I 0 W/m 9,4 C 15,3 C 11,3 km/h (2 Bft) 100,00 %
20.05.2018 21:56 15,3 C 18,3 C 69 % 1017,7 hPa 0,0 l/m 7,3 km/h (2 Bft) O-SO 110 0 min 0,000 mm 0,0 UV-I 0 W/m 9,6 C 14,8 C 11,3 km/h (2 Bft) 100,00 %
20.05.2018 21:57 15,2 C 18,3 C 69 % 1017,7 hPa 0,0 l/m 5,5 km/h (1 Bft) O-SO 105 0 min 0,000 mm 0,0 UV-I 0 W/m 9,6 C 15,2 C 11,3 km/h (2 Bft) 100,00 %
20.05.2018 21:58 15,2 C 18,3 C 69 % 1017,7 hPa 0,0 l/m 9,3 km/h (2 Bft) O-SO 106 0 min 0,000 mm 0,0 UV-I 0 W/m 9,6 C 13,7 C 12,9 km/h (3 Bft) 100,00 %
20.05.2018 21:59 15,2 C 18,3 C 69 % 1017,7 hPa 0,0 l/m 6,7 km/h (2 Bft) O 99 0 min 0,000 mm 0,0 UV-I 0 W/m 9,6 C 15,0 C 9,7 km/h (2 Bft) 100,00 %
20.05.2018 22:00 15,1 C 17,8 C 69 % 1017,7 hPa 0,0 l/m 8,7 km/h (2 Bft) O 97 0 min 0,000 mm 0,0 UV-I 0 W/m 9,5 C 13,8 C 11,3 km/h (2 Bft) 100,00 %
20.05.2018 22:02 15,1 C 17,8 C 69 % 1017,7 hPa 0,0 l/m 5,1 km/h (1 Bft) O-SO 115 0 min 0,051 mm 0,0 UV-I 0 W/m 9,5 C 15,1 C 11,3 km/h (2 Bft) 97,56 %
20.05.2018 22:03 15,1 C 17,8 C 69 % 1017,6 hPa 0,0 l/m 4,6 km/h (1 Bft) O-SO 115 0 min 0,000 mm 0,0 UV-I 0 W/m 9,5 C 15,1 C 9,7 km/h (2 Bft) 100,00 %
20.05.2018 22:04 15,1 C 17,8 C 69 % 1017,6 hPa 0,0 l/m 4,7 km/h (1 Bft) O-SO 111 0 min 0,000 mm 0,0 UV-I 0 W/m 9,5 C 15,1 C 6,4 km/h (2 Bft) 100,00 %
20.05.2018 22:05 15,1 C 17,8 C 69 % 1017,7 hPa 0,0 l/m 4,2 km/h (1 Bft) SO 127 0 min 0,000 mm 0,0 UV-I 0 W/m 9,5 C 15,1 C 6,4 km/h (2 Bft) 100,00 %
20.05.2018 22:06 15,0 C 17,8 C 69 % 1017,7 hPa 0,0 l/m 6,2 km/h (2 Bft) O 96 0 min 0,000 mm 0,0 UV-I 0 W/m 9,4 C 15,0 C 11,3 km/h (2 Bft) 100,00 %
20.05.2018 22:07 15,0 C 17,8 C 70 % 1017,7 hPa 0,0 l/m 6,3 km/h (2 Bft) O 101 0 min 0,000 mm 0,0 UV-I 0 W/m 9,6 C 15,0 C 9,7 km/h (2 Bft) 100,00 %
20.05.2018 22:08 15,0 C 17,8 C 70 % 1017,7 hPa 0,0 l/m 5,0 km/h (1 Bft) O-SO 110 0 min 0,000 mm 0,0 UV-I 0 W/m 9,6 C 15,0 C 9,7 km/h (2 Bft) 95,65 %
20.05.2018 22:09 15,0 C 18,3 C 70 % 1017,7 hPa 0,0 l/m 7,0 km/h (2 Bft) O 101 0 min 0,000 mm 0,0 UV-I 0 W/m 9,6 C 14,7 C 9,7 km/h (2 Bft) 100,00 %
20.05.2018 22:10 15,0 C 18,3 C 70 % 1017,7 hPa 0,0 l/m 8,0 km/h (2 Bft) O 98 0 min 0,000 mm 0,0 UV-I 0 W/m 9,6 C 14,1 C 11,3 km/h (2 Bft) 100,00 %
20.05.2018 22:11 15,1 C 18,3 C 70 % 1017,7 hPa 0,0 l/m 6,9 km/h (2 Bft) O 97 0 min 0,000 mm 0,0 UV-I 0 W/m 9,7 C 14,8 C 9,7 km/h (2 Bft) 100,00 %
20.05.2018 22:12 15,0 C 17,8 C 70 % 1017,7 hPa 0,0 l/m 7,4 km/h (2 Bft) O-SO 114 0 min 0,000 mm 0,0 UV-I 0 W/m 9,6 C 14,4 C 11,3 km/h (2 Bft) 100,00 %
20.05.2018 22:13 15,0 C 17,8 C 70 % 1017,7 hPa 0,0 l/m 7,6 km/h (2 Bft) O-SO 109 0 min 0,000 mm 0,0 UV-I 0 W/m 9,6 C 14,3 C 11,3 km/h (2 Bft) 100,00 %
20.05.2018 22:14 14,9 C 17,8 C 70 % 1017,7 hPa 0,0 l/m 5,5 km/h (1 Bft) O 97 0 min 0,000 mm 0,0 UV-I 0 W/m 9,5 C 14,9 C 6,4 km/h (2 Bft) 100,00 %
20.05.2018 22:15 14,9 C 17,8 C 70 % 1017,7 hPa 0,0 l/m 7,3 km/h (2 Bft) O 88 0 min 0,000 mm 0,0 UV-I 0 W/m 9,5 C 14,4 C 9,7 km/h (2 Bft) 100,00 %
20.05.2018 22:16 14,8 C 17,8 C 70 % 1017,7 hPa 0,0 l/m 7,5 km/h (2 Bft) O 98 0 min 0,000 mm 0,0 UV-I 0 W/m 9,4 C 14,2 C 9,7 km/h (2 Bft) 100,00 %
20.05.2018 22:17 14,8 C 17,8 C 70 % 1017,7 hPa 0,0 l/m 8,6 km/h (2 Bft) O 96 0 min 0,000 mm 0,0 UV-I 0 W/m 9,4 C 13,6 C 9,7 km/h (2 Bft) 100,00 %
20.05.2018 22:18 14,8 C 17,8 C 71 % 1017,7 hPa 0,0 l/m 6,5 km/h (2 Bft) O-SO 123 0 min 0,000 mm 0,0 UV-I 0 W/m 9,6 C 14,8 C 9,7 km/h (2 Bft) 100,00 %
20.05.2018 22:19 14,8 C 17,8 C 71 % 1017,7 hPa 0,0 l/m 9,2 km/h (2 Bft) O-SO 109 0 min 0,000 mm 0,0 UV-I 0 W/m 9,6 C 13,3 C 12,9 km/h (3 Bft) 100,00 %
20.05.2018 22:20 14,7 C 17,8 C 71 % 1017,7 hPa 0,0 l/m 7,5 km/h (2 Bft) O-SO 112 0 min 0,000 mm 0,0 UV-I 0 W/m 9,5 C 14,1 C 11,3 km/h (2 Bft) 100,00 %
20.05.2018 22:21 14,7 C 17,8 C 71 % 1017,7 hPa 0,0 l/m 6,2 km/h (2 Bft) O-SO 109 0 min 0,000 mm 0,0 UV-I 0 W/m 9,5 C 14,7 C 9,7 km/h (2 Bft) 100,00 %
20.05.2018 22:23 14,7 C 17,8 C 71 % 1017,7 hPa 0,0 l/m 5,1 km/h (1 Bft) O-SO 103 0 min 0,000 mm 0,0 UV-I 0 W/m 9,5 C 14,7 C 9,7 km/h (2 Bft) 100,00 %
20.05.2018 22:24 14,7 C 17,8 C 71 % 1017,7 hPa 0,0 l/m 4,5 km/h (1 Bft) O-SO 103 0 min 0,000 mm 0,0 UV-I 0 W/m 9,5 C 14,7 C 6,4 km/h (2 Bft) 100,00 %
20.05.2018 22:25 14,6 C 17,8 C 72 % 1017,7 hPa 0,0 l/m 5,2 km/h (1 Bft) O-SO 119 0 min 0,000 mm 0,0 UV-I 0 W/m 9,6 C 14,6 C 6,4 km/h (2 Bft) 100,00 %
20.05.2018 22:26 14,6 C 17,8 C 72 % 1017,6 hPa 0,0 l/m 3,5 km/h (1 Bft) O-SO 117 0 min 0,000 mm 0,0 UV-I 0 W/m 9,6 C 14,6 C 6,4 km/h (2 Bft) 100,00 %
20.05.2018 22:27 14,6 C 17,8 C 72 % 1017,7 hPa 0,0 l/m 6,6 km/h (2 Bft) O 94 0 min 0,000 mm 0,0 UV-I 0 W/m 9,6 C 14,5 C 9,7 km/h (2 Bft) 100,00 %
20.05.2018 22:28 14,6 C 17,8 C 72 % 1017,7 hPa 0,0 l/m 5,8 km/h (2 Bft) O 92 0 min 0,000 mm 0,0 UV-I 0 W/m 9,6 C 14,6 C 9,7 km/h (2 Bft) 100,00 %
20.05.2018 22:29 14,6 C 17,8 C 72 % 1017,6 hPa 0,0 l/m 7,1 km/h (2 Bft) O 90 0 min 0,000 mm 0,0 UV-I 0 W/m 9,6 C 14,2 C 11,3 km/h (2 Bft) 100,00 %
20.05.2018 22:30 14,6 C 17,8 C 72 % 1017,6 hPa 0,0 l/m 6,4 km/h (2 Bft) O 80 0 min 0,000 mm 0,0 UV-I 0 W/m 9,6 C 14,6 C 9,7 km/h (2 Bft) 100,00 %
20.05.2018 22:31 14,6 C 17,8 C 72 % 1017,7 hPa 0,0 l/m 6,4 km/h (2 Bft) O 84 0 min 0,000 mm 0,0 UV-I 0 W/m 9,6 C 14,6 C 9,7 km/h (2 Bft) 100,00 %
20.05.2018 22:32 14,6 C 17,8 C 72 % 1017,7 hPa 0,0 l/m 6,6 km/h (2 Bft) O-NO 69 0 min 0,000 mm 0,0 UV-I 0 W/m 9,6 C 14,5 C 8,0 km/h (2 Bft) 100,00 %
20.05.2018 22:33 14,4 C 17,8 C 72 % 1017,6 hPa 0,0 l/m 7,0 km/h (2 Bft) O 81 0 min 0,000 mm 0,0 UV-I 0 W/m 9,4 C 14,1 C 8,0 km/h (2 Bft) 100,00 %
20.05.2018 22:34 14,4 C 17,8 C 73 % 1017,6 hPa 0,0 l/m 6,3 km/h (2 Bft) O 84 0 min 0,000 mm 0,0 UV-I 0 W/m 9,6 C 14,4 C 8,0 km/h (2 Bft) 100,00 %
20.05.2018 22:35 14,3 C 17,8 C 73 % 1017,7 hPa 0,0 l/m 5,7 km/h (1 Bft) O 90 0 min 0,000 mm 0,0 UV-I 0 W/m 9,5 C 14,3 C 6,4 km/h (2 Bft) 95,65 %
20.05.2018 22:36 14,1 C 17,8 C 73 % 1017,6 hPa 0,0 l/m 4,7 km/h (1 Bft) O-NO 76 0 min 0,000 mm 0,0 UV-I 0 W/m 9,3 C 14,1 C 6,4 km/h (2 Bft) 100,00 %
20.05.2018 22:37 13,9 C 17,8 C 74 % 1017,6 hPa 0,0 l/m 5,3 km/h (1 Bft) O-NO 74 0 min 0,000 mm 0,0 UV-I 0 W/m 9,3 C 13,9 C 6,4 km/h (2 Bft) 95,65 %
20.05.2018 22:38 13,8 C 17,8 C 75 % 1017,6 hPa 0,0 l/m 5,0 km/h (1 Bft) O-NO 69 0 min 0,000 mm 0,0 UV-I 0 W/m 9,4 C 13,8 C 8,0 km/h (2 Bft) 100,00 %
20.05.2018 22:39 13,7 C 17,8 C 76 % 1017,6 hPa 0,0 l/m 5,3 km/h (1 Bft) O-NO 64 0 min 0,000 mm 0,0 UV-I 0 W/m 9,5 C 13,7 C 6,4 km/h (2 Bft) 100,00 %
20.05.2018 22:40 13,6 C 17,8 C 76 % 1017,6 hPa 0,0 l/m 5,1 km/h (1 Bft) O-NO 67 0 min 0,000 mm 0,0 UV-I 0 W/m 9,4 C 13,6 C 8,0 km/h (2 Bft) 100,00 %
20.05.2018 22:41 13,6 C 17,8 C 76 % 1017,6 hPa 0,0 l/m 6,1 km/h (2 Bft) O-NO 67 0 min 0,000 mm 0,0 UV-I 0 W/m 9,4 C 13,6 C 8,0 km/h (2 Bft) 100,00 %
20.05.2018 22:42 13,4 C 17,8 C 76 % 1017,6 hPa 0,0 l/m 6,2 km/h (2 Bft) O-NO 70 0 min 0,000 mm 0,0 UV-I 0 W/m 9,3 C 13,4 C 8,0 km/h (2 Bft) 100,00 %
20.05.2018 22:43 13,4 C 17,8 C 77 % 1017,6 hPa 0,0 l/m 5,1 km/h (1 Bft) O 88 0 min 0,000 mm 0,0 UV-I 0 W/m 9,5 C 13,4 C 6,4 km/h (2 Bft) 100,00 %
20.05.2018 22:44 13,3 C 17,8 C 77 % 1017,7 hPa 0,0 l/m 5,4 km/h (1 Bft) O-NO 77 0 min 0,000 mm 0,0 UV-I 0 W/m 9,4 C 13,3 C 6,4 km/h (2 Bft) 100,00 %
20.05.2018 22:45 13,2 C 17,8 C 78 % 1017,6 hPa 0,0 l/m 5,3 km/h (1 Bft) O-NO 75 0 min 0,000 mm 0,0 UV-I 0 W/m 9,4 C 13,2 C 6,4 km/h (2 Bft) 100,00 %
20.05.2018 22:46 13,2 C 17,8 C 78 % 1017,6 hPa 0,0 l/m 4,8 km/h (1 Bft) O 85 0 min 0,000 mm 0,0 UV-I 0 W/m 9,4 C 13,2 C 6,4 km/h (2 Bft) 100,00 %
20.05.2018 22:47 13,2 C 17,8 C 78 % 1017,6 hPa 0,0 l/m 6,8 km/h (2 Bft) O 86 0 min 0,000 mm 0,0 UV-I 0 W/m 9,4 C 13,0 C 9,7 km/h (2 Bft) 100,00 %
20.05.2018 22:48 13,2 C 17,8 C 78 % 1017,6 hPa 0,0 l/m 5,2 km/h (1 Bft) O 85 0 min 0,000 mm 0,0 UV-I 0 W/m 9,4 C 13,2 C 6,4 km/h (2 Bft) 100,00 %
20.05.2018 22:49 13,2 C 17,8 C 78 % 1017,6 hPa 0,0 l/m 5,1 km/h (1 Bft) O 84 0 min 0,000 mm 0,0 UV-I 0 W/m 9,4 C 13,2 C 6,4 km/h (2 Bft) 100,00 %
20.05.2018 22:50 13,2 C 17,8 C 78 % 1017,6 hPa 0,0 l/m 5,6 km/h (1 Bft) O-NO 78 0 min 0,000 mm 0,0 UV-I 0 W/m 9,4 C 13,2 C 8,0 km/h (2 Bft) 96,15 %
20.05.2018 22:51 13,3 C 17,8 C 78 % 1017,6 hPa 0,0 l/m 7,4 km/h (2 Bft) O 82 0 min 0,000 mm 0,0 UV-I 0 W/m 9,5 C 12,7 C 12,9 km/h (3 Bft) 100,00 %
20.05.2018 22:52 13,3 C 17,8 C 78 % 1017,6 hPa 0,0 l/m 7,1 km/h (2 Bft) O 90 0 min 0,000 mm 0,0 UV-I 0 W/m 9,5 C 12,9 C 9,7 km/h (2 Bft) 97,95 %
20.05.2018 22:53 13,4 C 17,8 C 78 % 1017,6 hPa 0,0 l/m 5,9 km/h (2 Bft) O-NO 74 0 min 0,000 mm 0,0 UV-I 0 W/m 9,6 C 13,4 C 9,7 km/h (2 Bft) 100,00 %
20.05.2018 22:54 13,4 C 17,8 C 77 % 1017,6 hPa 0,0 l/m 6,8 km/h (2 Bft) O 85 0 min 0,000 mm 0,0 UV-I 0 W/m 9,5 C 13,2 C 9,7 km/h (2 Bft) 100,00 %
20.05.2018 22:55 13,4 C 17,8 C 77 % 1017,6 hPa 0,0 l/m 8,7 km/h (2 Bft) O 90 0 min 0,000 mm 0,0 UV-I 0 W/m 9,5 C 12,0 C 12,9 km/h (3 Bft) 100,00 %
20.05.2018 22:56 13,4 C 17,8 C 77 % 1017,6 hPa 0,0 l/m 6,9 km/h (2 Bft) O 96 0 min 0,000 mm 0,0 UV-I 0 W/m 9,5 C 13,1 C 11,3 km/h (2 Bft) 100,00 %
20.05.2018 22:58 13,5 C 17,8 C 77 % 1017,6 hPa 0,0 l/m 7,8 km/h (2 Bft) O-NO 74 0 min 0,000 mm 0,0 UV-I 0 W/m 9,5 C 12,6 C 12,9 km/h (3 Bft) 100,00 %
20.05.2018 22:59 13,5 C 17,8 C 77 % 1017,6 hPa 0,0 l/m 8,0 km/h (2 Bft) O-NO 67 0 min 0,000 mm 0,0 UV-I 0 W/m 9,5 C 12,5 C 11,3 km/h (2 Bft) 100,00 %
20.05.2018 23:00 13,5 C 17,8 C 77 % 1017,6 hPa 0,0 l/m 7,2 km/h (2 Bft) O-NO 60 0 min 0,000 mm 0,0 UV-I 0 W/m 9,5 C 13,0 C 8,0 km/h (2 Bft) 95,65 %
20.05.2018 23:02 13,3 C 17,8 C 78 % 1017,5 hPa 0,0 l/m 6,8 km/h (2 Bft) O-NO 59 0 min 0,025 mm 0,0 UV-I 0 W/m 9,5 C 13,1 C 11,3 km/h (2 Bft) 98,00 %
20.05.2018 23:03 13,2 C 17,8 C 78 % 1017,5 hPa 0,0 l/m 7,2 km/h (2 Bft) O-NO 60 0 min 0,000 mm 0,0 UV-I 0 W/m 9,4 C 12,7 C 9,7 km/h (2 Bft) 100,00 %
20.05.2018 23:04 13,2 C 17,8 C 78 % 1017,5 hPa 0,0 l/m 6,3 km/h (2 Bft) O-NO 57 0 min 0,000 mm 0,0 UV-I 0 W/m 9,4 C 13,2 C 8,0 km/h (2 Bft) 95,83 %
20.05.2018 23:05 13,1 C 17,8 C 79 % 1017,5 hPa 0,0 l/m 8,0 km/h (2 Bft) O-NO 61 0 min 0,000 mm 0,0 UV-I 0 W/m 9,5 C 12,1 C 11,3 km/h (2 Bft) 96,55 %
20.05.2018 23:06 13,1 C 17,8 C 79 % 1017,5 hPa 0,0 l/m 6,7 km/h (2 Bft) O-NO 61 0 min 0,000 mm 0,0 UV-I 0 W/m 9,5 C 12,9 C 8,0 km/h (2 Bft) 100,00 %
20.05.2018 23:08 13,2 C 17,8 C 78 % 1017,4 hPa 0,0 l/m 5,5 km/h (1 Bft) O 93 0 min 0,000 mm 0,0 UV-I 0 W/m 9,4 C 13,2 C 12,9 km/h (3 Bft) 98,00 %
20.05.2018 23:09 13,3 C 17,8 C 78 % 1017,4 hPa 0,0 l/m 3,8 km/h (1 Bft) O-SO 111 0 min 0,000 mm 0,0 UV-I 0 W/m 9,5 C 13,3 C 4,8 km/h (1 Bft) 96,15 %
20.05.2018 23:10 13,2 C 17,8 C 78 % 1017,4 hPa 0,0 l/m 4,8 km/h (1 Bft) O-SO 104 0 min 0,000 mm 0,0 UV-I 0 W/m 9,4 C 13,2 C 6,4 km/h (2 Bft) 100,00 %
20.05.2018 23:11 13,1 C 17,8 C 79 % 1017,5 hPa 0,0 l/m 6,3 km/h (2 Bft) O 86 0 min 0,000 mm 0,0 UV-I 0 W/m 9,5 C 13,1 C 9,7 km/h (2 Bft) 95,65 %
20.05.2018 23:12 13,1 C 17,8 C 79 % 1017,5 hPa 0,0 l/m 8,9 km/h (2 Bft) O-SO 107 0 min 0,000 mm 0,0 UV-I 0 W/m 9,5 C 11,6 C 11,3 km/h (2 Bft) 96,30 %
20.05.2018 23:13 13,1 C 17,8 C 80 % 1017,5 hPa 0,0 l/m 7,7 km/h (2 Bft) O 98 0 min 0,000 mm 0,0 UV-I 0 W/m 9,7 C 12,3 C 11,3 km/h (2 Bft) 100,00 %
20.05.2018 23:14 13,1 C 17,8 C 80 % 1017,5 hPa 0,0 l/m 9,3 km/h (2 Bft) O-SO 103 0 min 0,000 mm 0,0 UV-I 0 W/m 9,7 C 11,4 C 11,3 km/h (2 Bft) 100,00 %
20.05.2018 23:15 13,1 C 17,8 C 79 % 1017,5 hPa 0,0 l/m 7,5 km/h (2 Bft) O-SO 104 0 min 0,000 mm 0,0 UV-I 0 W/m 9,5 C 12,4 C 11,3 km/h (2 Bft) 96,15 %
20.05.2018 23:16 13,2 C 17,8 C 79 % 1017,5 hPa 0,0 l/m 8,4 km/h (2 Bft) O 92 0 min 0,000 mm 0,0 UV-I 0 W/m 9,6 C 12,0 C 11,3 km/h (2 Bft) 96,30 %
20.05.2018 23:17 13,2 C 17,8 C 79 % 1017,5 hPa 0,0 l/m 8,9 km/h (2 Bft) O 91 0 min 0,000 mm 0,0 UV-I 0 W/m 9,6 C 11,7 C 11,3 km/h (2 Bft) 100,00 %
20.05.2018 23:18 13,3 C 17,8 C 79 % 1017,5 hPa 0,0 l/m 8,5 km/h (2 Bft) O 99 0 min 0,000 mm 0,0 UV-I 0 W/m 9,7 C 12,0 C 11,3 km/h (2 Bft) 96,30 %
20.05.2018 23:19 13,3 C 17,8 C 79 % 1017,5 hPa 0,0 l/m 9,4 km/h (2 Bft) O 86 0 min 0,000 mm 0,0 UV-I 0 W/m 9,7 C 11,5 C 12,9 km/h (3 Bft) 100,00 %
20.05.2018 23:20 13,3 C 17,8 C 79 % 1017,5 hPa 0,0 l/m 9,2 km/h (2 Bft) O-NO 78 0 min 0,000 mm 0,0 UV-I 0 W/m 9,7 C 11,7 C 11,3 km/h (2 Bft) 96,67 %
20.05.2018 23:21 13,3 C 17,8 C 78 % 1017,5 hPa 0,0 l/m 10,0 km/h (2 Bft) O 96 0 min 0,000 mm 0,0 UV-I 0 W/m 9,5 C 11,2 C 11,3 km/h (2 Bft) 100,00 %
20.05.2018 23:22 13,4 C 17,8 C 78 % 1017,5 hPa 0,0 l/m 10,7 km/h (2 Bft) O 94 0 min 0,000 mm 0,0 UV-I 0 W/m 9,6 C 11,0 C 12,9 km/h (3 Bft) 96,88 %
20.05.2018 23:23 13,3 C 17,8 C 78 % 1017,5 hPa 0,0 l/m 10,1 km/h (2 Bft) O 94 0 min 0,000 mm 0,0 UV-I 0 W/m 9,5 C 11,2 C 12,9 km/h (3 Bft) 95,65 %
20.05.2018 23:24 13,4 C 17,8 C 78 % 1017,5 hPa 0,0 l/m 7,7 km/h (2 Bft) O 88 0 min 0,000 mm 0,0 UV-I 0 W/m 9,6 C 12,6 C 9,7 km/h (2 Bft) 100,00 %
20.05.2018 23:25 13,4 C 17,8 C 78 % 1017,5 hPa 0,0 l/m 6,8 km/h (2 Bft) O 90 0 min 0,000 mm 0,0 UV-I 0 W/m 9,6 C 13,2 C 11,3 km/h (2 Bft) 95,65 %
20.05.2018 23:26 13,4 C 17,8 C 78 % 1017,5 hPa 0,0 l/m 6,1 km/h (2 Bft) O-NO 74 0 min 0,000 mm 0,0 UV-I 0 W/m 9,6 C 13,4 C 11,3 km/h (2 Bft) 100,00 %
20.05.2018 23:27 13,4 C 17,8 C 78 % 1017,5 hPa 0,0 l/m 7,6 km/h (2 Bft) O-NO 69 0 min 0,000 mm 0,0 UV-I 0 W/m 9,6 C 12,7 C 11,3 km/h (2 Bft) 93,33 %
20.05.2018 23:28 13,5 C 17,8 C 78 % 1017,5 hPa 0,0 l/m 6,2 km/h (2 Bft) O-NO 71 0 min 0,000 mm 0,0 UV-I 0 W/m 9,7 C 13,5 C 11,3 km/h (2 Bft) 100,00 %
20.05.2018 23:29 13,5 C 17,8 C 78 % 1017,5 hPa 0,0 l/m 6,7 km/h (2 Bft) O 91 0 min 0,000 mm 0,0 UV-I 0 W/m 9,7 C 13,3 C 11,3 km/h (2 Bft) 96,30 %
20.05.2018 23:30 13,5 C 17,8 C 78 % 1017,5 hPa 0,0 l/m 6,3 km/h (2 Bft) O-NO 74 0 min 0,000 mm 0,0 UV-I 0 W/m 9,7 C 13,5 C 8,0 km/h (2 Bft) 96,15 %
20.05.2018 23:31 13,5 C 17,8 C 78 % 1017,5 hPa 0,0 l/m 6,3 km/h (2 Bft) O 87 0 min 0,000 mm 0,0 UV-I 0 W/m 9,7 C 13,5 C 8,0 km/h (2 Bft) 100,00 %
20.05.2018 23:33 13,4 C 17,8 C 78 % 1017,5 hPa 0,0 l/m 6,8 km/h (2 Bft) O-NO 76 0 min 0,000 mm 0,0 UV-I 0 W/m 9,6 C 13,2 C 11,3 km/h (2 Bft) 98,21 %
20.05.2018 23:34 13,4 C 17,8 C 78 % 1017,5 hPa 0,0 l/m 5,4 km/h (1 Bft) O 89 0 min 0,000 mm 0,0 UV-I 0 W/m 9,6 C 13,4 C 8,0 km/h (2 Bft) 96,15 %
20.05.2018 23:35 13,4 C 17,8 C 78 % 1017,5 hPa 0,0 l/m 7,0 km/h (2 Bft) O-NO 66 0 min 0,000 mm 0,0 UV-I 0 W/m 9,6 C 13,0 C 8,0 km/h (2 Bft) 100,00 %
20.05.2018 23:36 13,3 C 17,8 C 78 % 1017,5 hPa 0,0 l/m 6,3 km/h (2 Bft) NO 56 0 min 0,000 mm 0,0 UV-I 0 W/m 9,5 C 13,3 C 8,0 km/h (2 Bft) 100,00 %
20.05.2018 23:38 13,0 C 17,8 C 79 % 1017,5 hPa 0,0 l/m 7,1 km/h (2 Bft) O 82 0 min 0,000 mm 0,0 UV-I 0 W/m 9,4 C 12,6 C 11,3 km/h (2 Bft) 98,00 %
20.05.2018 23:39 12,9 C 17,8 C 79 % 1017,5 hPa 0,0 l/m 6,7 km/h (2 Bft) O-NO 68 0 min 0,000 mm 0,0 UV-I 0 W/m 9,3 C 12,7 C 9,7 km/h (2 Bft) 100,00 %
20.05.2018 23:40 12,9 C 17,8 C 80 % 1017,4 hPa 0,0 l/m 6,4 km/h (2 Bft) O-NO 67 0 min 0,000 mm 0,0 UV-I 0 W/m 9,5 C 12,9 C 11,3 km/h (2 Bft) 100,00 %
20.05.2018 23:41 13,0 C 17,8 C 80 % 1017,4 hPa 0,0 l/m 5,4 km/h (1 Bft) O-NO 62 0 min 0,000 mm 0,0 UV-I 0 W/m 9,6 C 13,0 C 8,0 km/h (2 Bft) 100,00 %
20.05.2018 23:43 12,9 C 17,8 C 80 % 1017,4 hPa 0,0 l/m 5,0 km/h (1 Bft) O-NO 61 0 min 0,000 mm 0,0 UV-I 0 W/m 9,5 C 12,9 C 8,0 km/h (2 Bft) 100,00 %
20.05.2018 23:44 12,9 C 17,8 C 80 % 1017,4 hPa 0,0 l/m 6,9 km/h (2 Bft) O-NO 76 0 min 0,000 mm 0,0 UV-I 0 W/m 9,5 C 12,6 C 9,7 km/h (2 Bft) 100,00 %
20.05.2018 23:45 12,9 C 17,8 C 80 % 1017,4 hPa 0,0 l/m 7,0 km/h (2 Bft) O-NO 71 0 min 0,000 mm 0,0 UV-I 0 W/m 9,5 C 12,5 C 9,7 km/h (2 Bft) 96,15 %
20.05.2018 23:46 12,8 C 17,8 C 80 % 1017,4 hPa 0,0 l/m 6,9 km/h (2 Bft) O-NO 78 0 min 0,000 mm 0,0 UV-I 0 W/m 9,4 C 12,5 C 9,7 km/h (2 Bft) 100,00 %
20.05.2018 23:47 12,8 C 17,8 C 80 % 1017,4 hPa 0,0 l/m 5,2 km/h (1 Bft) O 93 0 min 0,000 mm 0,0 UV-I 0 W/m 9,4 C 12,8 C 8,0 km/h (2 Bft) 96,15 %
20.05.2018 23:48 12,7 C 17,8 C 81 % 1017,4 hPa 0,0 l/m 5,2 km/h (1 Bft) O 92 0 min 0,000 mm 0,0 UV-I 0 W/m 9,5 C 12,7 C 9,7 km/h (2 Bft) 91,67 %
20.05.2018 23:49 12,7 C 17,8 C 81 % 1017,4 hPa 0,0 l/m 7,9 km/h (2 Bft) O 93 0 min 0,000 mm 0,0 UV-I 0 W/m 9,5 C 11,7 C 11,3 km/h (2 Bft) 100,00 %
20.05.2018 23:50 12,6 C 17,8 C 81 % 1017,4 hPa 0,0 l/m 10,4 km/h (2 Bft) O 98 0 min 0,000 mm 0,0 UV-I 0 W/m 9,4 C 10,3 C 12,9 km/h (3 Bft) 96,30 %
20.05.2018 23:51 12,6 C 17,8 C 81 % 1017,4 hPa 0,0 l/m 10,9 km/h (2 Bft) O-SO 119 0 min 0,000 mm 0,0 UV-I 0 W/m 9,4 C 10,0 C 14,5 km/h (3 Bft) 92,31 %
20.05.2018 23:53 12,8 C 17,8 C 81 % 1017,5 hPa 0,0 l/m 8,8 km/h (2 Bft) O-SO 113 0 min 0,000 mm 0,0 UV-I 0 W/m 9,6 C 11,3 C 12,9 km/h (3 Bft) 100,00 %
20.05.2018 23:54 12,8 C 17,8 C 81 % 1017,5 hPa 0,0 l/m 7,0 km/h (2 Bft) O 98 0 min 0,000 mm 0,0 UV-I 0 W/m 9,6 C 12,4 C 11,3 km/h (2 Bft) 100,00 %
20.05.2018 23:55 12,8 C 17,8 C 81 % 1017,5 hPa 0,0 l/m 8,0 km/h (2 Bft) O-SO 105 0 min 0,000 mm 0,0 UV-I 0 W/m 9,6 C 11,8 C 11,3 km/h (2 Bft) 100,00 %
20.05.2018 23:56 12,9 C 17,8 C 80 % 1017,5 hPa 0,0 l/m 8,0 km/h (2 Bft) O 98 0 min 0,000 mm 0,0 UV-I 0 W/m 9,5 C 11,9 C 11,3 km/h (2 Bft) 100,00 %
20.05.2018 23:57 12,9 C 17,8 C 80 % 1017,5 hPa 0,0 l/m 6,6 km/h (2 Bft) O 98 0 min 0,000 mm 0,0 UV-I 0 W/m 9,5 C 12,8 C 11,3 km/h (2 Bft) 100,00 %
20.05.2018 23:58 12,9 C 17,8 C 80 % 1017,4 hPa 0,0 l/m 5,7 km/h (1 Bft) O-NO 76 0 min 0,000 mm 0,0 UV-I 0 W/m 9,5 C 12,9 C 11,3 km/h (2 Bft) 100,00 %
20.05.2018 23:59 12,9 C 17,8 C 80 % 1017,4 hPa 0,0 l/m 6,3 km/h (2 Bft) O 93 0 min 0,000 mm 0,0 UV-I 0 W/m 9,5 C 12,9 C 9,7 km/h (2 Bft) 95,65 %
_ Min-Zeit 06:12 05:31 13:56 19:20 - 22:26 - - - - - - 12:36 06:38 23:09 06:14
Minimum _ 12,2 C 17,2 C 34 % 1016,8 hPa - 3,5 km/h (1 Bft) - - - - - - 3,9 C 5,4 C 4,8 km/h (1 Bft) 83,33 %
_ Max-Zeit 16:42 17:06 02:02 10:58 03:19 10:16 - - 07:43 14:02 13:46 13:46 02:29 16:40 10:19 00:00
Maximum _ 22,1 C 18,9 C 90 % 1019,2 hPa 0,2 l/m 33,4 km/h
O-SO (5 Bft)
- - 2 min 0,610 mm 4,9 UV-I 1020 W/m 11,3 C 20,9 C 46,7 km/h
O-SO (6 Bft)
100,00 %
Durchschnitt _ 16,2 C 17,9 C 65 % 1018,0 hPa #0,2 l/m 16,0 km/h (3 Bft) O - #11:33 h #5,715 mm 2,4 UV-I 406 W/m 8,9 C 13,0 C 21,8 km/h (4 Bft) 97,94 %